<?xml version="1.0" encoding="UTF-8" standalone="no" ?>
<gpx xmlns="http://www.topografix.com/GPX/1/1" xmlns:xsi="http://www.w3.org/2001/XMLSchema-instance" xsi:schemaLocation="http://www.topografix.com/GPX/1/1 http://www.topografix.com/GPX/1/1/gpx.xsd" version="1.1" creator="VisuGPX - https://www.visugpx.com">
  <metadata>
    <name>2 - Chédigny to Buzançais</name>
    <desc><![CDATA[Chédigny to Buzançais]]></desc>
  </metadata>
  <trk>
    <name><![CDATA[SityTrail - Chédigny to Buzançais]]></name>
    <desc><![CDATA[Chédigny to Buzançais]]></desc>
    <trkseg>
      <trkpt lat="47.2091" lon="0.99953">
        <ele>74</ele>
        <time>2019-09-03T07:00:00Z</time>
      </trkpt>
      <trkpt lat="47.20913" lon="0.9995">
        <ele>74</ele>
        <time>2019-09-03T07:00:01Z</time>
      </trkpt>
      <trkpt lat="47.20916" lon="0.99947">
        <ele>74</ele>
        <time>2019-09-03T07:00:02Z</time>
      </trkpt>
      <trkpt lat="47.20921" lon="0.99942">
        <ele>74</ele>
        <time>2019-09-03T07:00:03Z</time>
      </trkpt>
      <trkpt lat="47.20933" lon="0.99928">
        <ele>73</ele>
        <time>2019-09-03T07:00:06Z</time>
      </trkpt>
      <trkpt lat="47.20933" lon="0.99928">
        <ele>73</ele>
        <time>2019-09-03T07:00:06Z</time>
      </trkpt>
      <trkpt lat="47.20926" lon="0.99918">
        <ele>72</ele>
        <time>2019-09-03T07:00:08Z</time>
      </trkpt>
      <trkpt lat="47.20924" lon="0.99915">
        <ele>72</ele>
        <time>2019-09-03T07:00:09Z</time>
      </trkpt>
      <trkpt lat="47.2092" lon="0.99911">
        <ele>72</ele>
        <time>2019-09-03T07:00:10Z</time>
      </trkpt>
      <trkpt lat="47.20917" lon="0.99907">
        <ele>72</ele>
        <time>2019-09-03T07:00:11Z</time>
      </trkpt>
      <trkpt lat="47.20913" lon="0.99905">
        <ele>72</ele>
        <time>2019-09-03T07:00:12Z</time>
      </trkpt>
      <trkpt lat="47.20909" lon="0.99903">
        <ele>72</ele>
        <time>2019-09-03T07:00:13Z</time>
      </trkpt>
      <trkpt lat="47.20901" lon="0.99902">
        <ele>71</ele>
        <time>2019-09-03T07:00:15Z</time>
      </trkpt>
      <trkpt lat="47.20888" lon="0.999">
        <ele>71</ele>
        <time>2019-09-03T07:00:18Z</time>
      </trkpt>
      <trkpt lat="47.20877" lon="0.99899">
        <ele>71</ele>
        <time>2019-09-03T07:00:20Z</time>
      </trkpt>
      <trkpt lat="47.20877" lon="0.99899">
        <ele>71</ele>
        <time>2019-09-03T07:00:20Z</time>
      </trkpt>
      <trkpt lat="47.20876" lon="0.9987">
        <ele>70</ele>
        <time>2019-09-03T07:00:25Z</time>
      </trkpt>
      <trkpt lat="47.20875" lon="0.99851">
        <ele>70</ele>
        <time>2019-09-03T07:00:27Z</time>
      </trkpt>
      <trkpt lat="47.20874" lon="0.99831">
        <ele>69</ele>
        <time>2019-09-03T07:00:30Z</time>
      </trkpt>
      <trkpt lat="47.20872" lon="0.99809">
        <ele>68</ele>
        <time>2019-09-03T07:00:34Z</time>
      </trkpt>
      <trkpt lat="47.2087" lon="0.99793">
        <ele>68</ele>
        <time>2019-09-03T07:00:36Z</time>
      </trkpt>
      <trkpt lat="47.2087" lon="0.99787">
        <ele>68</ele>
        <time>2019-09-03T07:00:37Z</time>
      </trkpt>
      <trkpt lat="47.20868" lon="0.99777">
        <ele>68</ele>
        <time>2019-09-03T07:00:39Z</time>
      </trkpt>
      <trkpt lat="47.20865" lon="0.99766">
        <ele>68</ele>
        <time>2019-09-03T07:00:41Z</time>
      </trkpt>
      <trkpt lat="47.20861" lon="0.99754">
        <ele>69</ele>
        <time>2019-09-03T07:00:43Z</time>
      </trkpt>
      <trkpt lat="47.20856" lon="0.99743">
        <ele>69</ele>
        <time>2019-09-03T07:00:45Z</time>
      </trkpt>
      <trkpt lat="47.20852" lon="0.99731">
        <ele>70</ele>
        <time>2019-09-03T07:00:47Z</time>
      </trkpt>
      <trkpt lat="47.20849" lon="0.99722">
        <ele>70</ele>
        <time>2019-09-03T07:00:48Z</time>
      </trkpt>
      <trkpt lat="47.20846" lon="0.9971">
        <ele>67</ele>
        <time>2019-09-03T07:00:50Z</time>
      </trkpt>
      <trkpt lat="47.20844" lon="0.99703">
        <ele>68</ele>
        <time>2019-09-03T07:00:51Z</time>
      </trkpt>
      <trkpt lat="47.20839" lon="0.99688">
        <ele>68</ele>
        <time>2019-09-03T07:00:54Z</time>
      </trkpt>
      <trkpt lat="47.20833" lon="0.99675">
        <ele>69</ele>
        <time>2019-09-03T07:00:56Z</time>
      </trkpt>
      <trkpt lat="47.20829" lon="0.99665">
        <ele>69</ele>
        <time>2019-09-03T07:00:58Z</time>
      </trkpt>
      <trkpt lat="47.20817" lon="0.9964">
        <ele>70</ele>
        <time>2019-09-03T07:01:03Z</time>
      </trkpt>
      <trkpt lat="47.20805" lon="0.99613">
        <ele>70</ele>
        <time>2019-09-03T07:01:07Z</time>
      </trkpt>
      <trkpt lat="47.20789" lon="0.99578">
        <ele>68</ele>
        <time>2019-09-03T07:01:14Z</time>
      </trkpt>
      <trkpt lat="47.20777" lon="0.99552">
        <ele>68</ele>
        <time>2019-09-03T07:01:19Z</time>
      </trkpt>
      <trkpt lat="47.20773" lon="0.99543">
        <ele>68</ele>
        <time>2019-09-03T07:01:20Z</time>
      </trkpt>
      <trkpt lat="47.2076" lon="0.99516">
        <ele>65</ele>
        <time>2019-09-03T07:01:25Z</time>
      </trkpt>
      <trkpt lat="47.20743" lon="0.99478">
        <ele>66</ele>
        <time>2019-09-03T07:01:32Z</time>
      </trkpt>
      <trkpt lat="47.20728" lon="0.99449">
        <ele>67</ele>
        <time>2019-09-03T07:01:38Z</time>
      </trkpt>
      <trkpt lat="47.20714" lon="0.99418">
        <ele>68</ele>
        <time>2019-09-03T07:01:43Z</time>
      </trkpt>
      <trkpt lat="47.20711" lon="0.99413">
        <ele>68</ele>
        <time>2019-09-03T07:01:44Z</time>
      </trkpt>
      <trkpt lat="47.20701" lon="0.99391">
        <ele>70</ele>
        <time>2019-09-03T07:01:48Z</time>
      </trkpt>
      <trkpt lat="47.20699" lon="0.99387">
        <ele>70</ele>
        <time>2019-09-03T07:01:49Z</time>
      </trkpt>
      <trkpt lat="47.20683" lon="0.99355">
        <ele>72</ele>
        <time>2019-09-03T07:01:55Z</time>
      </trkpt>
      <trkpt lat="47.20678" lon="0.99344">
        <ele>73</ele>
        <time>2019-09-03T07:01:57Z</time>
      </trkpt>
      <trkpt lat="47.20671" lon="0.9933">
        <ele>73</ele>
        <time>2019-09-03T07:02:00Z</time>
      </trkpt>
      <trkpt lat="47.20669" lon="0.99325">
        <ele>73</ele>
        <time>2019-09-03T07:02:01Z</time>
      </trkpt>
      <trkpt lat="47.20669" lon="0.99325">
        <ele>73</ele>
        <time>2019-09-03T07:02:01Z</time>
      </trkpt>
      <trkpt lat="47.2066" lon="0.99324">
        <ele>73</ele>
        <time>2019-09-03T07:02:03Z</time>
      </trkpt>
      <trkpt lat="47.20657" lon="0.9932">
        <ele>73</ele>
        <time>2019-09-03T07:02:04Z</time>
      </trkpt>
      <trkpt lat="47.20653" lon="0.99315">
        <ele>74</ele>
        <time>2019-09-03T07:02:05Z</time>
      </trkpt>
      <trkpt lat="47.20645" lon="0.99305">
        <ele>74</ele>
        <time>2019-09-03T07:02:07Z</time>
      </trkpt>
      <trkpt lat="47.20629" lon="0.99281">
        <ele>75</ele>
        <time>2019-09-03T07:02:12Z</time>
      </trkpt>
      <trkpt lat="47.20559" lon="0.99177">
        <ele>82</ele>
        <time>2019-09-03T07:02:34Z</time>
      </trkpt>
      <trkpt lat="47.20534" lon="0.9914">
        <ele>82</ele>
        <time>2019-09-03T07:02:42Z</time>
      </trkpt>
      <trkpt lat="47.20514" lon="0.9911">
        <ele>83</ele>
        <time>2019-09-03T07:02:49Z</time>
      </trkpt>
      <trkpt lat="47.20499" lon="0.9909">
        <ele>84</ele>
        <time>2019-09-03T07:02:53Z</time>
      </trkpt>
      <trkpt lat="47.2047" lon="0.99053">
        <ele>85</ele>
        <time>2019-09-03T07:03:02Z</time>
      </trkpt>
      <trkpt lat="47.20445" lon="0.99026">
        <ele>86</ele>
        <time>2019-09-03T07:03:09Z</time>
      </trkpt>
      <trkpt lat="47.20424" lon="0.99006">
        <ele>86</ele>
        <time>2019-09-03T07:03:14Z</time>
      </trkpt>
      <trkpt lat="47.204" lon="0.98987">
        <ele>87</ele>
        <time>2019-09-03T07:03:20Z</time>
      </trkpt>
      <trkpt lat="47.2038" lon="0.98972">
        <ele>86</ele>
        <time>2019-09-03T07:03:25Z</time>
      </trkpt>
      <trkpt lat="47.20366" lon="0.98964">
        <ele>86</ele>
        <time>2019-09-03T07:03:29Z</time>
      </trkpt>
      <trkpt lat="47.20354" lon="0.98958">
        <ele>86</ele>
        <time>2019-09-03T07:03:31Z</time>
      </trkpt>
      <trkpt lat="47.20342" lon="0.98951">
        <ele>86</ele>
        <time>2019-09-03T07:03:34Z</time>
      </trkpt>
      <trkpt lat="47.20299" lon="0.98931">
        <ele>89</ele>
        <time>2019-09-03T07:03:44Z</time>
      </trkpt>
      <trkpt lat="47.20283" lon="0.98924">
        <ele>90</ele>
        <time>2019-09-03T07:03:48Z</time>
      </trkpt>
      <trkpt lat="47.20268" lon="0.98919">
        <ele>90</ele>
        <time>2019-09-03T07:03:51Z</time>
      </trkpt>
      <trkpt lat="47.20259" lon="0.98917">
        <ele>91</ele>
        <time>2019-09-03T07:03:53Z</time>
      </trkpt>
      <trkpt lat="47.20238" lon="0.98911">
        <ele>91</ele>
        <time>2019-09-03T07:03:58Z</time>
      </trkpt>
      <trkpt lat="47.2022" lon="0.98907">
        <ele>91</ele>
        <time>2019-09-03T07:04:02Z</time>
      </trkpt>
      <trkpt lat="47.20161" lon="0.98898">
        <ele>92</ele>
        <time>2019-09-03T07:04:15Z</time>
      </trkpt>
      <trkpt lat="47.20113" lon="0.98892">
        <ele>94</ele>
        <time>2019-09-03T07:04:26Z</time>
      </trkpt>
      <trkpt lat="47.20041" lon="0.98883">
        <ele>93</ele>
        <time>2019-09-03T07:04:42Z</time>
      </trkpt>
      <trkpt lat="47.19965" lon="0.98873">
        <ele>92</ele>
        <time>2019-09-03T07:04:59Z</time>
      </trkpt>
      <trkpt lat="47.19952" lon="0.98872">
        <ele>94</ele>
        <time>2019-09-03T07:05:02Z</time>
      </trkpt>
      <trkpt lat="47.1988" lon="0.98863">
        <ele>95</ele>
        <time>2019-09-03T07:05:18Z</time>
      </trkpt>
      <trkpt lat="47.19829" lon="0.98856">
        <ele>97</ele>
        <time>2019-09-03T07:05:29Z</time>
      </trkpt>
      <trkpt lat="47.19755" lon="0.98847">
        <ele>95</ele>
        <time>2019-09-03T07:05:46Z</time>
      </trkpt>
      <trkpt lat="47.19677" lon="0.98837">
        <ele>98</ele>
        <time>2019-09-03T07:06:03Z</time>
      </trkpt>
      <trkpt lat="47.19586" lon="0.98826">
        <ele>102</ele>
        <time>2019-09-03T07:06:24Z</time>
      </trkpt>
      <trkpt lat="47.19503" lon="0.98817">
        <ele>106</ele>
        <time>2019-09-03T07:06:42Z</time>
      </trkpt>
      <trkpt lat="47.19494" lon="0.98816">
        <ele>106</ele>
        <time>2019-09-03T07:06:44Z</time>
      </trkpt>
      <trkpt lat="47.19413" lon="0.98806">
        <ele>104</ele>
        <time>2019-09-03T07:07:02Z</time>
      </trkpt>
      <trkpt lat="47.19324" lon="0.98795">
        <ele>109</ele>
        <time>2019-09-03T07:07:22Z</time>
      </trkpt>
      <trkpt lat="47.19317" lon="0.98795">
        <ele>112</ele>
        <time>2019-09-03T07:07:24Z</time>
      </trkpt>
      <trkpt lat="47.19282" lon="0.98789">
        <ele>111</ele>
        <time>2019-09-03T07:07:32Z</time>
      </trkpt>
      <trkpt lat="47.19279" lon="0.98789">
        <ele>111</ele>
        <time>2019-09-03T07:07:32Z</time>
      </trkpt>
      <trkpt lat="47.19174" lon="0.98777">
        <ele>109</ele>
        <time>2019-09-03T07:07:56Z</time>
      </trkpt>
      <trkpt lat="47.19121" lon="0.98771">
        <ele>110</ele>
        <time>2019-09-03T07:08:08Z</time>
      </trkpt>
      <trkpt lat="47.1908" lon="0.98766">
        <ele>109</ele>
        <time>2019-09-03T07:08:17Z</time>
      </trkpt>
      <trkpt lat="47.19067" lon="0.98764">
        <ele>109</ele>
        <time>2019-09-03T07:08:20Z</time>
      </trkpt>
      <trkpt lat="47.19057" lon="0.98763">
        <ele>107</ele>
        <time>2019-09-03T07:08:22Z</time>
      </trkpt>
      <trkpt lat="47.19053" lon="0.98762">
        <ele>107</ele>
        <time>2019-09-03T07:08:23Z</time>
      </trkpt>
      <trkpt lat="47.19042" lon="0.98758">
        <ele>107</ele>
        <time>2019-09-03T07:08:25Z</time>
      </trkpt>
      <trkpt lat="47.19039" lon="0.98757">
        <ele>107</ele>
        <time>2019-09-03T07:08:26Z</time>
      </trkpt>
      <trkpt lat="47.19032" lon="0.98753">
        <ele>107</ele>
        <time>2019-09-03T07:08:28Z</time>
      </trkpt>
      <trkpt lat="47.19027" lon="0.98752">
        <ele>107</ele>
        <time>2019-09-03T07:08:29Z</time>
      </trkpt>
      <trkpt lat="47.19018" lon="0.98748">
        <ele>107</ele>
        <time>2019-09-03T07:08:31Z</time>
      </trkpt>
      <trkpt lat="47.19013" lon="0.98743">
        <ele>105</ele>
        <time>2019-09-03T07:08:32Z</time>
      </trkpt>
      <trkpt lat="47.19011" lon="0.9874">
        <ele>105</ele>
        <time>2019-09-03T07:08:33Z</time>
      </trkpt>
      <trkpt lat="47.19007" lon="0.98735">
        <ele>104</ele>
        <time>2019-09-03T07:08:34Z</time>
      </trkpt>
      <trkpt lat="47.19006" lon="0.98733">
        <ele>104</ele>
        <time>2019-09-03T07:08:34Z</time>
      </trkpt>
      <trkpt lat="47.19003" lon="0.98728">
        <ele>104</ele>
        <time>2019-09-03T07:08:35Z</time>
      </trkpt>
      <trkpt lat="47.18991" lon="0.98702">
        <ele>104</ele>
        <time>2019-09-03T07:08:40Z</time>
      </trkpt>
      <trkpt lat="47.18986" lon="0.98687">
        <ele>104</ele>
        <time>2019-09-03T07:08:43Z</time>
      </trkpt>
      <trkpt lat="47.18945" lon="0.98552">
        <ele>103</ele>
        <time>2019-09-03T07:09:05Z</time>
      </trkpt>
      <trkpt lat="47.18925" lon="0.98491">
        <ele>101</ele>
        <time>2019-09-03T07:09:15Z</time>
      </trkpt>
      <trkpt lat="47.18922" lon="0.98482">
        <ele>100</ele>
        <time>2019-09-03T07:09:17Z</time>
      </trkpt>
      <trkpt lat="47.18908" lon="0.98437">
        <ele>100</ele>
        <time>2019-09-03T07:09:24Z</time>
      </trkpt>
      <trkpt lat="47.189" lon="0.98411">
        <ele>99</ele>
        <time>2019-09-03T07:09:29Z</time>
      </trkpt>
      <trkpt lat="47.18886" lon="0.98369">
        <ele>99</ele>
        <time>2019-09-03T07:09:36Z</time>
      </trkpt>
      <trkpt lat="47.18877" lon="0.98339">
        <ele>99</ele>
        <time>2019-09-03T07:09:41Z</time>
      </trkpt>
      <trkpt lat="47.18873" lon="0.98329">
        <ele>98</ele>
        <time>2019-09-03T07:09:42Z</time>
      </trkpt>
      <trkpt lat="47.18861" lon="0.98291">
        <ele>97</ele>
        <time>2019-09-03T07:09:49Z</time>
      </trkpt>
      <trkpt lat="47.18832" lon="0.982">
        <ele>96</ele>
        <time>2019-09-03T07:10:04Z</time>
      </trkpt>
      <trkpt lat="47.18824" lon="0.9817">
        <ele>96</ele>
        <time>2019-09-03T07:10:09Z</time>
      </trkpt>
      <trkpt lat="47.18818" lon="0.98146">
        <ele>93</ele>
        <time>2019-09-03T07:10:13Z</time>
      </trkpt>
      <trkpt lat="47.18817" lon="0.98144">
        <ele>93</ele>
        <time>2019-09-03T07:10:13Z</time>
      </trkpt>
      <trkpt lat="47.18796" lon="0.98045">
        <ele>91</ele>
        <time>2019-09-03T07:10:29Z</time>
      </trkpt>
      <trkpt lat="47.18789" lon="0.98013">
        <ele>89</ele>
        <time>2019-09-03T07:10:34Z</time>
      </trkpt>
      <trkpt lat="47.18774" lon="0.97944">
        <ele>86</ele>
        <time>2019-09-03T07:10:45Z</time>
      </trkpt>
      <trkpt lat="47.18769" lon="0.97919">
        <ele>86</ele>
        <time>2019-09-03T07:10:49Z</time>
      </trkpt>
      <trkpt lat="47.18753" lon="0.97847">
        <ele>80</ele>
        <time>2019-09-03T07:11:00Z</time>
      </trkpt>
      <trkpt lat="47.18746" lon="0.97818">
        <ele>79</ele>
        <time>2019-09-03T07:11:05Z</time>
      </trkpt>
      <trkpt lat="47.18743" lon="0.97804">
        <ele>79</ele>
        <time>2019-09-03T07:11:07Z</time>
      </trkpt>
      <trkpt lat="47.18731" lon="0.97769">
        <ele>77</ele>
        <time>2019-09-03T07:11:13Z</time>
      </trkpt>
      <trkpt lat="47.18714" lon="0.97724">
        <ele>75</ele>
        <time>2019-09-03T07:11:21Z</time>
      </trkpt>
      <trkpt lat="47.18714" lon="0.97724">
        <ele>75</ele>
        <time>2019-09-03T07:11:21Z</time>
      </trkpt>
      <trkpt lat="47.18682" lon="0.97745">
        <ele>76</ele>
        <time>2019-09-03T07:11:29Z</time>
      </trkpt>
      <trkpt lat="47.18678" lon="0.97749">
        <ele>77</ele>
        <time>2019-09-03T07:11:30Z</time>
      </trkpt>
      <trkpt lat="47.18635" lon="0.97778">
        <ele>75</ele>
        <time>2019-09-03T07:11:41Z</time>
      </trkpt>
      <trkpt lat="47.18621" lon="0.97788">
        <ele>75</ele>
        <time>2019-09-03T07:11:44Z</time>
      </trkpt>
      <trkpt lat="47.18613" lon="0.97794">
        <ele>74</ele>
        <time>2019-09-03T07:11:46Z</time>
      </trkpt>
      <trkpt lat="47.18604" lon="0.978">
        <ele>74</ele>
        <time>2019-09-03T07:11:48Z</time>
      </trkpt>
      <trkpt lat="47.18593" lon="0.97808">
        <ele>74</ele>
        <time>2019-09-03T07:11:51Z</time>
      </trkpt>
      <trkpt lat="47.1858" lon="0.97817">
        <ele>74</ele>
        <time>2019-09-03T07:11:54Z</time>
      </trkpt>
      <trkpt lat="47.18572" lon="0.97823">
        <ele>74</ele>
        <time>2019-09-03T07:11:56Z</time>
      </trkpt>
      <trkpt lat="47.18533" lon="0.9785">
        <ele>73</ele>
        <time>2019-09-03T07:12:06Z</time>
      </trkpt>
      <trkpt lat="47.18524" lon="0.97856">
        <ele>73</ele>
        <time>2019-09-03T07:12:08Z</time>
      </trkpt>
      <trkpt lat="47.18442" lon="0.97911">
        <ele>73</ele>
        <time>2019-09-03T07:12:28Z</time>
      </trkpt>
      <trkpt lat="47.18425" lon="0.97922">
        <ele>71</ele>
        <time>2019-09-03T07:12:32Z</time>
      </trkpt>
      <trkpt lat="47.18423" lon="0.97924">
        <ele>71</ele>
        <time>2019-09-03T07:12:33Z</time>
      </trkpt>
      <trkpt lat="47.18379" lon="0.97954">
        <ele>71</ele>
        <time>2019-09-03T07:12:43Z</time>
      </trkpt>
      <trkpt lat="47.18365" lon="0.97964">
        <ele>70</ele>
        <time>2019-09-03T07:12:47Z</time>
      </trkpt>
      <trkpt lat="47.18353" lon="0.97972">
        <ele>70</ele>
        <time>2019-09-03T07:12:50Z</time>
      </trkpt>
      <trkpt lat="47.18333" lon="0.97991">
        <ele>71</ele>
        <time>2019-09-03T07:12:55Z</time>
      </trkpt>
      <trkpt lat="47.1831" lon="0.98014">
        <ele>71</ele>
        <time>2019-09-03T07:13:01Z</time>
      </trkpt>
      <trkpt lat="47.18273" lon="0.98063">
        <ele>70</ele>
        <time>2019-09-03T07:13:12Z</time>
      </trkpt>
      <trkpt lat="47.18264" lon="0.98076">
        <ele>71</ele>
        <time>2019-09-03T07:13:15Z</time>
      </trkpt>
      <trkpt lat="47.18228" lon="0.98133">
        <ele>71</ele>
        <time>2019-09-03T07:13:27Z</time>
      </trkpt>
      <trkpt lat="47.18227" lon="0.98133">
        <ele>71</ele>
        <time>2019-09-03T07:13:27Z</time>
      </trkpt>
      <trkpt lat="47.18167" lon="0.9824">
        <ele>75</ele>
        <time>2019-09-03T07:13:48Z</time>
      </trkpt>
      <trkpt lat="47.18154" lon="0.98263">
        <ele>75</ele>
        <time>2019-09-03T07:13:53Z</time>
      </trkpt>
      <trkpt lat="47.18146" lon="0.98275">
        <ele>74</ele>
        <time>2019-09-03T07:13:55Z</time>
      </trkpt>
      <trkpt lat="47.18135" lon="0.98292">
        <ele>75</ele>
        <time>2019-09-03T07:13:59Z</time>
      </trkpt>
      <trkpt lat="47.18107" lon="0.9834">
        <ele>75</ele>
        <time>2019-09-03T07:14:08Z</time>
      </trkpt>
      <trkpt lat="47.18102" lon="0.98349">
        <ele>75</ele>
        <time>2019-09-03T07:14:10Z</time>
      </trkpt>
      <trkpt lat="47.18096" lon="0.98358">
        <ele>75</ele>
        <time>2019-09-03T07:14:12Z</time>
      </trkpt>
      <trkpt lat="47.18078" lon="0.98386">
        <ele>76</ele>
        <time>2019-09-03T07:14:18Z</time>
      </trkpt>
      <trkpt lat="47.1806" lon="0.98409">
        <ele>75</ele>
        <time>2019-09-03T07:14:23Z</time>
      </trkpt>
      <trkpt lat="47.18028" lon="0.98439">
        <ele>74</ele>
        <time>2019-09-03T07:14:32Z</time>
      </trkpt>
      <trkpt lat="47.17998" lon="0.98464">
        <ele>75</ele>
        <time>2019-09-03T07:14:39Z</time>
      </trkpt>
      <trkpt lat="47.17972" lon="0.98487">
        <ele>74</ele>
        <time>2019-09-03T07:14:46Z</time>
      </trkpt>
      <trkpt lat="47.17951" lon="0.98503">
        <ele>71</ele>
        <time>2019-09-03T07:14:51Z</time>
      </trkpt>
      <trkpt lat="47.17937" lon="0.98515">
        <ele>72</ele>
        <time>2019-09-03T07:14:55Z</time>
      </trkpt>
      <trkpt lat="47.17911" lon="0.98534">
        <ele>70</ele>
        <time>2019-09-03T07:15:01Z</time>
      </trkpt>
      <trkpt lat="47.17877" lon="0.98556">
        <ele>69</ele>
        <time>2019-09-03T07:15:10Z</time>
      </trkpt>
      <trkpt lat="47.17873" lon="0.98558">
        <ele>68</ele>
        <time>2019-09-03T07:15:11Z</time>
      </trkpt>
      <trkpt lat="47.17816" lon="0.98593">
        <ele>68</ele>
        <time>2019-09-03T07:15:24Z</time>
      </trkpt>
      <trkpt lat="47.17807" lon="0.98598">
        <ele>70</ele>
        <time>2019-09-03T07:15:27Z</time>
      </trkpt>
      <trkpt lat="47.17773" lon="0.98617">
        <ele>71</ele>
        <time>2019-09-03T07:15:35Z</time>
      </trkpt>
      <trkpt lat="47.17696" lon="0.98663">
        <ele>74</ele>
        <time>2019-09-03T07:15:53Z</time>
      </trkpt>
      <trkpt lat="47.17673" lon="0.98676">
        <ele>73</ele>
        <time>2019-09-03T07:15:59Z</time>
      </trkpt>
      <trkpt lat="47.17606" lon="0.98716">
        <ele>76</ele>
        <time>2019-09-03T07:16:15Z</time>
      </trkpt>
      <trkpt lat="47.17582" lon="0.9873">
        <ele>75</ele>
        <time>2019-09-03T07:16:20Z</time>
      </trkpt>
      <trkpt lat="47.17573" lon="0.98735">
        <ele>75</ele>
        <time>2019-09-03T07:16:23Z</time>
      </trkpt>
      <trkpt lat="47.17522" lon="0.98764">
        <ele>76</ele>
        <time>2019-09-03T07:16:35Z</time>
      </trkpt>
      <trkpt lat="47.17518" lon="0.98767">
        <ele>76</ele>
        <time>2019-09-03T07:16:36Z</time>
      </trkpt>
      <trkpt lat="47.17472" lon="0.98793">
        <ele>74</ele>
        <time>2019-09-03T07:16:47Z</time>
      </trkpt>
      <trkpt lat="47.17461" lon="0.988">
        <ele>74</ele>
        <time>2019-09-03T07:16:49Z</time>
      </trkpt>
      <trkpt lat="47.1743" lon="0.98819">
        <ele>71</ele>
        <time>2019-09-03T07:16:57Z</time>
      </trkpt>
      <trkpt lat="47.17426" lon="0.98821">
        <ele>71</ele>
        <time>2019-09-03T07:16:58Z</time>
      </trkpt>
      <trkpt lat="47.17422" lon="0.98823">
        <ele>71</ele>
        <time>2019-09-03T07:16:59Z</time>
      </trkpt>
      <trkpt lat="47.17395" lon="0.98839">
        <ele>72</ele>
        <time>2019-09-03T07:17:05Z</time>
      </trkpt>
      <trkpt lat="47.17388" lon="0.98843">
        <ele>72</ele>
        <time>2019-09-03T07:17:07Z</time>
      </trkpt>
      <trkpt lat="47.17367" lon="0.98856">
        <ele>74</ele>
        <time>2019-09-03T07:17:12Z</time>
      </trkpt>
      <trkpt lat="47.17339" lon="0.98873">
        <ele>76</ele>
        <time>2019-09-03T07:17:19Z</time>
      </trkpt>
      <trkpt lat="47.17334" lon="0.98877">
        <ele>78</ele>
        <time>2019-09-03T07:17:20Z</time>
      </trkpt>
      <trkpt lat="47.17299" lon="0.98896">
        <ele>80</ele>
        <time>2019-09-03T07:17:28Z</time>
      </trkpt>
      <trkpt lat="47.1728" lon="0.98907">
        <ele>80</ele>
        <time>2019-09-03T07:17:33Z</time>
      </trkpt>
      <trkpt lat="47.17246" lon="0.98927">
        <ele>80</ele>
        <time>2019-09-03T07:17:41Z</time>
      </trkpt>
      <trkpt lat="47.17209" lon="0.98949">
        <ele>82</ele>
        <time>2019-09-03T07:17:50Z</time>
      </trkpt>
      <trkpt lat="47.17133" lon="0.98992">
        <ele>82</ele>
        <time>2019-09-03T07:18:08Z</time>
      </trkpt>
      <trkpt lat="47.17129" lon="0.98994">
        <ele>82</ele>
        <time>2019-09-03T07:18:09Z</time>
      </trkpt>
      <trkpt lat="47.17096" lon="0.99015">
        <ele>84</ele>
        <time>2019-09-03T07:18:17Z</time>
      </trkpt>
      <trkpt lat="47.17091" lon="0.99017">
        <ele>84</ele>
        <time>2019-09-03T07:18:18Z</time>
      </trkpt>
      <trkpt lat="47.17049" lon="0.99047">
        <ele>82</ele>
        <time>2019-09-03T07:18:28Z</time>
      </trkpt>
      <trkpt lat="47.17003" lon="0.99083">
        <ele>81</ele>
        <time>2019-09-03T07:18:40Z</time>
      </trkpt>
      <trkpt lat="47.16999" lon="0.99085">
        <ele>81</ele>
        <time>2019-09-03T07:18:41Z</time>
      </trkpt>
      <trkpt lat="47.16999" lon="0.99086">
        <ele>81</ele>
        <time>2019-09-03T07:18:41Z</time>
      </trkpt>
      <trkpt lat="47.16965" lon="0.9911">
        <ele>81</ele>
        <time>2019-09-03T07:18:50Z</time>
      </trkpt>
      <trkpt lat="47.16936" lon="0.99132">
        <ele>78</ele>
        <time>2019-09-03T07:18:57Z</time>
      </trkpt>
      <trkpt lat="47.16924" lon="0.99142">
        <ele>73</ele>
        <time>2019-09-03T07:19:00Z</time>
      </trkpt>
      <trkpt lat="47.16906" lon="0.99155">
        <ele>76</ele>
        <time>2019-09-03T07:19:04Z</time>
      </trkpt>
      <trkpt lat="47.16902" lon="0.99158">
        <ele>73</ele>
        <time>2019-09-03T07:19:05Z</time>
      </trkpt>
      <trkpt lat="47.16862" lon="0.99189">
        <ele>78</ele>
        <time>2019-09-03T07:19:15Z</time>
      </trkpt>
      <trkpt lat="47.16858" lon="0.99192">
        <ele>78</ele>
        <time>2019-09-03T07:19:16Z</time>
      </trkpt>
      <trkpt lat="47.16821" lon="0.99217">
        <ele>85</ele>
        <time>2019-09-03T07:19:25Z</time>
      </trkpt>
      <trkpt lat="47.16815" lon="0.99222">
        <ele>85</ele>
        <time>2019-09-03T07:19:27Z</time>
      </trkpt>
      <trkpt lat="47.1677" lon="0.99258">
        <ele>82</ele>
        <time>2019-09-03T07:19:38Z</time>
      </trkpt>
      <trkpt lat="47.16762" lon="0.99265">
        <ele>79</ele>
        <time>2019-09-03T07:19:40Z</time>
      </trkpt>
      <trkpt lat="47.16748" lon="0.99278">
        <ele>79</ele>
        <time>2019-09-03T07:19:44Z</time>
      </trkpt>
      <trkpt lat="47.16743" lon="0.99283">
        <ele>79</ele>
        <time>2019-09-03T07:19:46Z</time>
      </trkpt>
      <trkpt lat="47.1673" lon="0.99295">
        <ele>76</ele>
        <time>2019-09-03T07:19:49Z</time>
      </trkpt>
      <trkpt lat="47.1673" lon="0.99296">
        <ele>76</ele>
        <time>2019-09-03T07:19:49Z</time>
      </trkpt>
      <trkpt lat="47.16716" lon="0.99309">
        <ele>76</ele>
        <time>2019-09-03T07:19:53Z</time>
      </trkpt>
      <trkpt lat="47.16698" lon="0.99332">
        <ele>77</ele>
        <time>2019-09-03T07:19:58Z</time>
      </trkpt>
      <trkpt lat="47.16689" lon="0.99348">
        <ele>80</ele>
        <time>2019-09-03T07:20:01Z</time>
      </trkpt>
      <trkpt lat="47.16686" lon="0.99352">
        <ele>80</ele>
        <time>2019-09-03T07:20:02Z</time>
      </trkpt>
      <trkpt lat="47.16669" lon="0.9939">
        <ele>79</ele>
        <time>2019-09-03T07:20:09Z</time>
      </trkpt>
      <trkpt lat="47.16668" lon="0.99391">
        <ele>79</ele>
        <time>2019-09-03T07:20:09Z</time>
      </trkpt>
      <trkpt lat="47.16663" lon="0.99403">
        <ele>81</ele>
        <time>2019-09-03T07:20:11Z</time>
      </trkpt>
      <trkpt lat="47.16659" lon="0.99412">
        <ele>81</ele>
        <time>2019-09-03T07:20:13Z</time>
      </trkpt>
      <trkpt lat="47.1665" lon="0.99429">
        <ele>78</ele>
        <time>2019-09-03T07:20:16Z</time>
      </trkpt>
      <trkpt lat="47.16643" lon="0.9944">
        <ele>79</ele>
        <time>2019-09-03T07:20:19Z</time>
      </trkpt>
      <trkpt lat="47.16635" lon="0.99451">
        <ele>79</ele>
        <time>2019-09-03T07:20:21Z</time>
      </trkpt>
      <trkpt lat="47.16625" lon="0.99457">
        <ele>76</ele>
        <time>2019-09-03T07:20:23Z</time>
      </trkpt>
      <trkpt lat="47.16601" lon="0.99476">
        <ele>78</ele>
        <time>2019-09-03T07:20:30Z</time>
      </trkpt>
      <trkpt lat="47.16564" lon="0.99508">
        <ele>78</ele>
        <time>2019-09-03T07:20:39Z</time>
      </trkpt>
      <trkpt lat="47.1655" lon="0.99521">
        <ele>80</ele>
        <time>2019-09-03T07:20:43Z</time>
      </trkpt>
      <trkpt lat="47.16521" lon="0.99554">
        <ele>79</ele>
        <time>2019-09-03T07:20:51Z</time>
      </trkpt>
      <trkpt lat="47.16505" lon="0.9957">
        <ele>78</ele>
        <time>2019-09-03T07:20:55Z</time>
      </trkpt>
      <trkpt lat="47.16502" lon="0.99573">
        <ele>78</ele>
        <time>2019-09-03T07:20:56Z</time>
      </trkpt>
      <trkpt lat="47.16476" lon="0.99594">
        <ele>77</ele>
        <time>2019-09-03T07:21:03Z</time>
      </trkpt>
      <trkpt lat="47.16474" lon="0.99595">
        <ele>77</ele>
        <time>2019-09-03T07:21:03Z</time>
      </trkpt>
      <trkpt lat="47.16458" lon="0.99604">
        <ele>77</ele>
        <time>2019-09-03T07:21:07Z</time>
      </trkpt>
      <trkpt lat="47.1644" lon="0.99612">
        <ele>77</ele>
        <time>2019-09-03T07:21:11Z</time>
      </trkpt>
      <trkpt lat="47.16431" lon="0.99616">
        <ele>77</ele>
        <time>2019-09-03T07:21:13Z</time>
      </trkpt>
      <trkpt lat="47.16422" lon="0.99619">
        <ele>75</ele>
        <time>2019-09-03T07:21:15Z</time>
      </trkpt>
      <trkpt lat="47.16389" lon="0.99629">
        <ele>78</ele>
        <time>2019-09-03T07:21:23Z</time>
      </trkpt>
      <trkpt lat="47.16378" lon="0.99632">
        <ele>78</ele>
        <time>2019-09-03T07:21:25Z</time>
      </trkpt>
      <trkpt lat="47.16368" lon="0.99636">
        <ele>76</ele>
        <time>2019-09-03T07:21:28Z</time>
      </trkpt>
      <trkpt lat="47.16357" lon="0.99642">
        <ele>76</ele>
        <time>2019-09-03T07:21:30Z</time>
      </trkpt>
      <trkpt lat="47.16348" lon="0.99648">
        <ele>76</ele>
        <time>2019-09-03T07:21:32Z</time>
      </trkpt>
      <trkpt lat="47.16344" lon="0.9965">
        <ele>75</ele>
        <time>2019-09-03T07:21:33Z</time>
      </trkpt>
      <trkpt lat="47.16343" lon="0.99652">
        <ele>75</ele>
        <time>2019-09-03T07:21:34Z</time>
      </trkpt>
      <trkpt lat="47.16338" lon="0.99656">
        <ele>76</ele>
        <time>2019-09-03T07:21:35Z</time>
      </trkpt>
      <trkpt lat="47.16331" lon="0.99665">
        <ele>76</ele>
        <time>2019-09-03T07:21:37Z</time>
      </trkpt>
      <trkpt lat="47.16326" lon="0.99672">
        <ele>76</ele>
        <time>2019-09-03T07:21:39Z</time>
      </trkpt>
      <trkpt lat="47.16319" lon="0.99681">
        <ele>77</ele>
        <time>2019-09-03T07:21:41Z</time>
      </trkpt>
      <trkpt lat="47.16317" lon="0.99683">
        <ele>77</ele>
        <time>2019-09-03T07:21:41Z</time>
      </trkpt>
      <trkpt lat="47.16313" lon="0.99687">
        <ele>77</ele>
        <time>2019-09-03T07:21:42Z</time>
      </trkpt>
      <trkpt lat="47.16311" lon="0.99689">
        <ele>77</ele>
        <time>2019-09-03T07:21:43Z</time>
      </trkpt>
      <trkpt lat="47.16307" lon="0.9969">
        <ele>77</ele>
        <time>2019-09-03T07:21:44Z</time>
      </trkpt>
      <trkpt lat="47.163" lon="0.99694">
        <ele>77</ele>
        <time>2019-09-03T07:21:45Z</time>
      </trkpt>
      <trkpt lat="47.16265" lon="0.99698">
        <ele>75</ele>
        <time>2019-09-03T07:21:53Z</time>
      </trkpt>
      <trkpt lat="47.16261" lon="0.997">
        <ele>72</ele>
        <time>2019-09-03T07:21:54Z</time>
      </trkpt>
      <trkpt lat="47.1625" lon="0.99703">
        <ele>72</ele>
        <time>2019-09-03T07:21:57Z</time>
      </trkpt>
      <trkpt lat="47.1624" lon="0.99709">
        <ele>73</ele>
        <time>2019-09-03T07:21:59Z</time>
      </trkpt>
      <trkpt lat="47.16221" lon="0.99718">
        <ele>72</ele>
        <time>2019-09-03T07:22:03Z</time>
      </trkpt>
      <trkpt lat="47.162" lon="0.9973">
        <ele>73</ele>
        <time>2019-09-03T07:22:08Z</time>
      </trkpt>
      <trkpt lat="47.16195" lon="0.99732">
        <ele>73</ele>
        <time>2019-09-03T07:22:10Z</time>
      </trkpt>
      <trkpt lat="47.16192" lon="0.99734">
        <ele>73</ele>
        <time>2019-09-03T07:22:10Z</time>
      </trkpt>
      <trkpt lat="47.1619" lon="0.99735">
        <ele>73</ele>
        <time>2019-09-03T07:22:11Z</time>
      </trkpt>
      <trkpt lat="47.16185" lon="0.99737">
        <ele>74</ele>
        <time>2019-09-03T07:22:12Z</time>
      </trkpt>
      <trkpt lat="47.16179" lon="0.99739">
        <ele>73</ele>
        <time>2019-09-03T07:22:13Z</time>
      </trkpt>
      <trkpt lat="47.1613" lon="0.99757">
        <ele>71</ele>
        <time>2019-09-03T07:22:25Z</time>
      </trkpt>
      <trkpt lat="47.16113" lon="0.99764">
        <ele>71</ele>
        <time>2019-09-03T07:22:28Z</time>
      </trkpt>
      <trkpt lat="47.16076" lon="0.9978">
        <ele>71</ele>
        <time>2019-09-03T07:22:37Z</time>
      </trkpt>
      <trkpt lat="47.15994" lon="0.99823">
        <ele>70</ele>
        <time>2019-09-03T07:22:56Z</time>
      </trkpt>
      <trkpt lat="47.15957" lon="0.99844">
        <ele>71</ele>
        <time>2019-09-03T07:23:05Z</time>
      </trkpt>
      <trkpt lat="47.159" lon="0.99877">
        <ele>74</ele>
        <time>2019-09-03T07:23:19Z</time>
      </trkpt>
      <trkpt lat="47.15836" lon="0.9991">
        <ele>75</ele>
        <time>2019-09-03T07:23:34Z</time>
      </trkpt>
      <trkpt lat="47.15782" lon="0.99941">
        <ele>75</ele>
        <time>2019-09-03T07:23:47Z</time>
      </trkpt>
      <trkpt lat="47.15719" lon="0.99976">
        <ele>77</ele>
        <time>2019-09-03T07:24:02Z</time>
      </trkpt>
      <trkpt lat="47.15687" lon="0.9999">
        <ele>81</ele>
        <time>2019-09-03T07:24:09Z</time>
      </trkpt>
      <trkpt lat="47.1567" lon="1.00001">
        <ele>77</ele>
        <time>2019-09-03T07:24:13Z</time>
      </trkpt>
      <trkpt lat="47.15655" lon="1.00013">
        <ele>77</ele>
        <time>2019-09-03T07:24:17Z</time>
      </trkpt>
      <trkpt lat="47.15654" lon="1.00013">
        <ele>77</ele>
        <time>2019-09-03T07:24:17Z</time>
      </trkpt>
      <trkpt lat="47.15642" lon="1.00024">
        <ele>77</ele>
        <time>2019-09-03T07:24:21Z</time>
      </trkpt>
      <trkpt lat="47.1562" lon="1.00047">
        <ele>78</ele>
        <time>2019-09-03T07:24:27Z</time>
      </trkpt>
      <trkpt lat="47.15586" lon="1.00082">
        <ele>77</ele>
        <time>2019-09-03T07:24:36Z</time>
      </trkpt>
      <trkpt lat="47.15545" lon="1.00124">
        <ele>77</ele>
        <time>2019-09-03T07:24:47Z</time>
      </trkpt>
      <trkpt lat="47.15518" lon="1.00152">
        <ele>78</ele>
        <time>2019-09-03T07:24:54Z</time>
      </trkpt>
      <trkpt lat="47.15492" lon="1.00177">
        <ele>79</ele>
        <time>2019-09-03T07:25:01Z</time>
      </trkpt>
      <trkpt lat="47.15487" lon="1.00181">
        <ele>83</ele>
        <time>2019-09-03T07:25:02Z</time>
      </trkpt>
      <trkpt lat="47.15458" lon="1.00206">
        <ele>74</ele>
        <time>2019-09-03T07:25:10Z</time>
      </trkpt>
      <trkpt lat="47.1542" lon="1.00237">
        <ele>80</ele>
        <time>2019-09-03T07:25:20Z</time>
      </trkpt>
      <trkpt lat="47.15413" lon="1.00242">
        <ele>80</ele>
        <time>2019-09-03T07:25:21Z</time>
      </trkpt>
      <trkpt lat="47.15392" lon="1.00258">
        <ele>75</ele>
        <time>2019-09-03T07:25:27Z</time>
      </trkpt>
      <trkpt lat="47.15374" lon="1.00271">
        <ele>74</ele>
        <time>2019-09-03T07:25:31Z</time>
      </trkpt>
      <trkpt lat="47.15338" lon="1.00295">
        <ele>75</ele>
        <time>2019-09-03T07:25:40Z</time>
      </trkpt>
      <trkpt lat="47.15301" lon="1.00318">
        <ele>71</ele>
        <time>2019-09-03T07:25:49Z</time>
      </trkpt>
      <trkpt lat="47.15266" lon="1.00341">
        <ele>74</ele>
        <time>2019-09-03T07:25:57Z</time>
      </trkpt>
      <trkpt lat="47.15217" lon="1.0037">
        <ele>73</ele>
        <time>2019-09-03T07:26:09Z</time>
      </trkpt>
      <trkpt lat="47.15177" lon="1.00395">
        <ele>74</ele>
        <time>2019-09-03T07:26:19Z</time>
      </trkpt>
      <trkpt lat="47.15157" lon="1.00407">
        <ele>77</ele>
        <time>2019-09-03T07:26:24Z</time>
      </trkpt>
      <trkpt lat="47.15135" lon="1.00418">
        <ele>78</ele>
        <time>2019-09-03T07:26:29Z</time>
      </trkpt>
      <trkpt lat="47.15108" lon="1.00432">
        <ele>81</ele>
        <time>2019-09-03T07:26:35Z</time>
      </trkpt>
      <trkpt lat="47.15101" lon="1.00436">
        <ele>81</ele>
        <time>2019-09-03T07:26:37Z</time>
      </trkpt>
      <trkpt lat="47.15074" lon="1.0045">
        <ele>79</ele>
        <time>2019-09-03T07:26:43Z</time>
      </trkpt>
      <trkpt lat="47.1502" lon="1.00476">
        <ele>79</ele>
        <time>2019-09-03T07:26:56Z</time>
      </trkpt>
      <trkpt lat="47.15015" lon="1.00478">
        <ele>79</ele>
        <time>2019-09-03T07:26:57Z</time>
      </trkpt>
      <trkpt lat="47.14964" lon="1.00502">
        <ele>77</ele>
        <time>2019-09-03T07:27:09Z</time>
      </trkpt>
      <trkpt lat="47.14931" lon="1.00516">
        <ele>76</ele>
        <time>2019-09-03T07:27:16Z</time>
      </trkpt>
      <trkpt lat="47.14907" lon="1.00526">
        <ele>74</ele>
        <time>2019-09-03T07:27:22Z</time>
      </trkpt>
      <trkpt lat="47.14886" lon="1.00535">
        <ele>72</ele>
        <time>2019-09-03T07:27:27Z</time>
      </trkpt>
      <trkpt lat="47.14877" lon="1.00538">
        <ele>72</ele>
        <time>2019-09-03T07:27:29Z</time>
      </trkpt>
      <trkpt lat="47.1486" lon="1.00543">
        <ele>76</ele>
        <time>2019-09-03T07:27:33Z</time>
      </trkpt>
      <trkpt lat="47.14842" lon="1.00548">
        <ele>75</ele>
        <time>2019-09-03T07:27:37Z</time>
      </trkpt>
      <trkpt lat="47.14827" lon="1.00553">
        <ele>75</ele>
        <time>2019-09-03T07:27:40Z</time>
      </trkpt>
      <trkpt lat="47.14814" lon="1.00558">
        <ele>73</ele>
        <time>2019-09-03T07:27:43Z</time>
      </trkpt>
      <trkpt lat="47.14802" lon="1.00565">
        <ele>73</ele>
        <time>2019-09-03T07:27:46Z</time>
      </trkpt>
      <trkpt lat="47.14798" lon="1.00568">
        <ele>73</ele>
        <time>2019-09-03T07:27:47Z</time>
      </trkpt>
      <trkpt lat="47.14792" lon="1.00573">
        <ele>73</ele>
        <time>2019-09-03T07:27:49Z</time>
      </trkpt>
      <trkpt lat="47.14781" lon="1.00583">
        <ele>71</ele>
        <time>2019-09-03T07:27:52Z</time>
      </trkpt>
      <trkpt lat="47.14767" lon="1.00594">
        <ele>71</ele>
        <time>2019-09-03T07:27:55Z</time>
      </trkpt>
      <trkpt lat="47.14754" lon="1.00603">
        <ele>72</ele>
        <time>2019-09-03T07:27:58Z</time>
      </trkpt>
      <trkpt lat="47.14745" lon="1.00607">
        <ele>72</ele>
        <time>2019-09-03T07:28:00Z</time>
      </trkpt>
      <trkpt lat="47.14732" lon="1.0061">
        <ele>71</ele>
        <time>2019-09-03T07:28:03Z</time>
      </trkpt>
      <trkpt lat="47.14716" lon="1.00612">
        <ele>71</ele>
        <time>2019-09-03T07:28:07Z</time>
      </trkpt>
      <trkpt lat="47.14699" lon="1.00612">
        <ele>70</ele>
        <time>2019-09-03T07:28:11Z</time>
      </trkpt>
      <trkpt lat="47.14678" lon="1.00615">
        <ele>70</ele>
        <time>2019-09-03T07:28:15Z</time>
      </trkpt>
      <trkpt lat="47.1466" lon="1.00617">
        <ele>70</ele>
        <time>2019-09-03T07:28:19Z</time>
      </trkpt>
      <trkpt lat="47.14643" lon="1.00621">
        <ele>72</ele>
        <time>2019-09-03T07:28:23Z</time>
      </trkpt>
      <trkpt lat="47.14621" lon="1.00627">
        <ele>73</ele>
        <time>2019-09-03T07:28:28Z</time>
      </trkpt>
      <trkpt lat="47.14593" lon="1.00636">
        <ele>70</ele>
        <time>2019-09-03T07:28:35Z</time>
      </trkpt>
      <trkpt lat="47.14556" lon="1.00647">
        <ele>70</ele>
        <time>2019-09-03T07:28:43Z</time>
      </trkpt>
      <trkpt lat="47.14548" lon="1.0065">
        <ele>70</ele>
        <time>2019-09-03T07:28:45Z</time>
      </trkpt>
      <trkpt lat="47.1453" lon="1.00655">
        <ele>72</ele>
        <time>2019-09-03T07:28:49Z</time>
      </trkpt>
      <trkpt lat="47.14504" lon="1.00662">
        <ele>75</ele>
        <time>2019-09-03T07:28:55Z</time>
      </trkpt>
      <trkpt lat="47.14464" lon="1.00674">
        <ele>75</ele>
        <time>2019-09-03T07:29:04Z</time>
      </trkpt>
      <trkpt lat="47.1441" lon="1.00686">
        <ele>72</ele>
        <time>2019-09-03T07:29:16Z</time>
      </trkpt>
      <trkpt lat="47.14389" lon="1.00693">
        <ele>73</ele>
        <time>2019-09-03T07:29:21Z</time>
      </trkpt>
      <trkpt lat="47.14381" lon="1.00695">
        <ele>73</ele>
        <time>2019-09-03T07:29:23Z</time>
      </trkpt>
      <trkpt lat="47.14375" lon="1.00697">
        <ele>74</ele>
        <time>2019-09-03T07:29:24Z</time>
      </trkpt>
      <trkpt lat="47.14367" lon="1.00699">
        <ele>74</ele>
        <time>2019-09-03T07:29:26Z</time>
      </trkpt>
      <trkpt lat="47.14325" lon="1.0071">
        <ele>76</ele>
        <time>2019-09-03T07:29:35Z</time>
      </trkpt>
      <trkpt lat="47.14306" lon="1.00714">
        <ele>76</ele>
        <time>2019-09-03T07:29:39Z</time>
      </trkpt>
      <trkpt lat="47.14267" lon="1.00721">
        <ele>76</ele>
        <time>2019-09-03T07:29:48Z</time>
      </trkpt>
      <trkpt lat="47.1426" lon="1.00722">
        <ele>74</ele>
        <time>2019-09-03T07:29:50Z</time>
      </trkpt>
      <trkpt lat="47.14228" lon="1.00732">
        <ele>74</ele>
        <time>2019-09-03T07:29:57Z</time>
      </trkpt>
      <trkpt lat="47.14202" lon="1.0074">
        <ele>76</ele>
        <time>2019-09-03T07:30:03Z</time>
      </trkpt>
      <trkpt lat="47.14191" lon="1.00744">
        <ele>76</ele>
        <time>2019-09-03T07:30:05Z</time>
      </trkpt>
      <trkpt lat="47.14182" lon="1.00749">
        <ele>76</ele>
        <time>2019-09-03T07:30:08Z</time>
      </trkpt>
      <trkpt lat="47.14162" lon="1.00761">
        <ele>75</ele>
        <time>2019-09-03T07:30:12Z</time>
      </trkpt>
      <trkpt lat="47.14138" lon="1.00777">
        <ele>75</ele>
        <time>2019-09-03T07:30:18Z</time>
      </trkpt>
      <trkpt lat="47.14133" lon="1.00781">
        <ele>75</ele>
        <time>2019-09-03T07:30:20Z</time>
      </trkpt>
      <trkpt lat="47.14111" lon="1.00795">
        <ele>75</ele>
        <time>2019-09-03T07:30:25Z</time>
      </trkpt>
      <trkpt lat="47.14097" lon="1.00807">
        <ele>73</ele>
        <time>2019-09-03T07:30:28Z</time>
      </trkpt>
      <trkpt lat="47.14085" lon="1.00818">
        <ele>73</ele>
        <time>2019-09-03T07:30:32Z</time>
      </trkpt>
      <trkpt lat="47.1408" lon="1.0082">
        <ele>74</ele>
        <time>2019-09-03T07:30:33Z</time>
      </trkpt>
      <trkpt lat="47.14076" lon="1.00823">
        <ele>74</ele>
        <time>2019-09-03T07:30:34Z</time>
      </trkpt>
      <trkpt lat="47.14071" lon="1.00825">
        <ele>74</ele>
        <time>2019-09-03T07:30:35Z</time>
      </trkpt>
      <trkpt lat="47.14071" lon="1.00825">
        <ele>74</ele>
        <time>2019-09-03T07:30:35Z</time>
      </trkpt>
      <trkpt lat="47.14056" lon="1.00755">
        <ele>71</ele>
        <time>2019-09-03T07:30:46Z</time>
      </trkpt>
      <trkpt lat="47.14048" lon="1.00725">
        <ele>71</ele>
        <time>2019-09-03T07:30:51Z</time>
      </trkpt>
      <trkpt lat="47.14041" lon="1.00698">
        <ele>72</ele>
        <time>2019-09-03T07:30:55Z</time>
      </trkpt>
      <trkpt lat="47.14035" lon="1.00681">
        <ele>72</ele>
        <time>2019-09-03T07:30:58Z</time>
      </trkpt>
      <trkpt lat="47.14034" lon="1.00676">
        <ele>71</ele>
        <time>2019-09-03T07:30:59Z</time>
      </trkpt>
      <trkpt lat="47.14023" lon="1.00644">
        <ele>71</ele>
        <time>2019-09-03T07:31:05Z</time>
      </trkpt>
      <trkpt lat="47.14019" lon="1.00634">
        <ele>71</ele>
        <time>2019-09-03T07:31:06Z</time>
      </trkpt>
      <trkpt lat="47.14009" lon="1.00612">
        <ele>71</ele>
        <time>2019-09-03T07:31:10Z</time>
      </trkpt>
      <trkpt lat="47.14008" lon="1.00607">
        <ele>71</ele>
        <time>2019-09-03T07:31:11Z</time>
      </trkpt>
      <trkpt lat="47.14002" lon="1.00588">
        <ele>71</ele>
        <time>2019-09-03T07:31:14Z</time>
      </trkpt>
      <trkpt lat="47.13996" lon="1.00567">
        <ele>70</ele>
        <time>2019-09-03T07:31:18Z</time>
      </trkpt>
      <trkpt lat="47.13995" lon="1.00565">
        <ele>70</ele>
        <time>2019-09-03T07:31:18Z</time>
      </trkpt>
      <trkpt lat="47.13993" lon="1.00563">
        <ele>70</ele>
        <time>2019-09-03T07:31:19Z</time>
      </trkpt>
      <trkpt lat="47.13991" lon="1.00561">
        <ele>70</ele>
        <time>2019-09-03T07:31:19Z</time>
      </trkpt>
      <trkpt lat="47.13967" lon="1.00553">
        <ele>71</ele>
        <time>2019-09-03T07:31:25Z</time>
      </trkpt>
      <trkpt lat="47.13952" lon="1.00549">
        <ele>71</ele>
        <time>2019-09-03T07:31:28Z</time>
      </trkpt>
      <trkpt lat="47.13952" lon="1.00549">
        <ele>71</ele>
        <time>2019-09-03T07:31:28Z</time>
      </trkpt>
      <trkpt lat="47.13951" lon="1.00488">
        <ele>69</ele>
        <time>2019-09-03T07:31:38Z</time>
      </trkpt>
      <trkpt lat="47.1395" lon="1.00448">
        <ele>68</ele>
        <time>2019-09-03T07:31:44Z</time>
      </trkpt>
      <trkpt lat="47.1395" lon="1.00444">
        <ele>68</ele>
        <time>2019-09-03T07:31:44Z</time>
      </trkpt>
      <trkpt lat="47.1395" lon="1.00432">
        <ele>68</ele>
        <time>2019-09-03T07:31:46Z</time>
      </trkpt>
      <trkpt lat="47.13951" lon="1.00422">
        <ele>68</ele>
        <time>2019-09-03T07:31:48Z</time>
      </trkpt>
      <trkpt lat="47.13952" lon="1.00407">
        <ele>68</ele>
        <time>2019-09-03T07:31:50Z</time>
      </trkpt>
      <trkpt lat="47.13954" lon="1.00395">
        <ele>67</ele>
        <time>2019-09-03T07:31:52Z</time>
      </trkpt>
      <trkpt lat="47.13972" lon="1.00307">
        <ele>68</ele>
        <time>2019-09-03T07:32:06Z</time>
      </trkpt>
      <trkpt lat="47.13987" lon="1.00231">
        <ele>70</ele>
        <time>2019-09-03T07:32:18Z</time>
      </trkpt>
      <trkpt lat="47.14" lon="1.00168">
        <ele>71</ele>
        <time>2019-09-03T07:32:28Z</time>
      </trkpt>
      <trkpt lat="47.14003" lon="1.00154">
        <ele>71</ele>
        <time>2019-09-03T07:32:30Z</time>
      </trkpt>
      <trkpt lat="47.14006" lon="1.00138">
        <ele>71</ele>
        <time>2019-09-03T07:32:32Z</time>
      </trkpt>
      <trkpt lat="47.14008" lon="1.00131">
        <ele>71</ele>
        <time>2019-09-03T07:32:34Z</time>
      </trkpt>
      <trkpt lat="47.1401" lon="1.00127">
        <ele>71</ele>
        <time>2019-09-03T07:32:34Z</time>
      </trkpt>
      <trkpt lat="47.14014" lon="1.00123">
        <ele>72</ele>
        <time>2019-09-03T07:32:35Z</time>
      </trkpt>
      <trkpt lat="47.14017" lon="1.00119">
        <ele>72</ele>
        <time>2019-09-03T07:32:36Z</time>
      </trkpt>
      <trkpt lat="47.14021" lon="1.00115">
        <ele>72</ele>
        <time>2019-09-03T07:32:37Z</time>
      </trkpt>
      <trkpt lat="47.14036" lon="1.00108">
        <ele>72</ele>
        <time>2019-09-03T07:32:41Z</time>
      </trkpt>
      <trkpt lat="47.1405" lon="1.00102">
        <ele>72</ele>
        <time>2019-09-03T07:32:44Z</time>
      </trkpt>
      <trkpt lat="47.1405" lon="1.00102">
        <ele>72</ele>
        <time>2019-09-03T07:32:44Z</time>
      </trkpt>
      <trkpt lat="47.14052" lon="1.00103">
        <ele>72</ele>
        <time>2019-09-03T07:32:45Z</time>
      </trkpt>
      <trkpt lat="47.14055" lon="1.00104">
        <ele>72</ele>
        <time>2019-09-03T07:32:45Z</time>
      </trkpt>
      <trkpt lat="47.14057" lon="1.00105">
        <ele>72</ele>
        <time>2019-09-03T07:32:46Z</time>
      </trkpt>
      <trkpt lat="47.1406" lon="1.00105">
        <ele>72</ele>
        <time>2019-09-03T07:32:47Z</time>
      </trkpt>
      <trkpt lat="47.14062" lon="1.00105">
        <ele>72</ele>
        <time>2019-09-03T07:32:47Z</time>
      </trkpt>
      <trkpt lat="47.14065" lon="1.00105">
        <ele>72</ele>
        <time>2019-09-03T07:32:48Z</time>
      </trkpt>
      <trkpt lat="47.14067" lon="1.00104">
        <ele>72</ele>
        <time>2019-09-03T07:32:48Z</time>
      </trkpt>
      <trkpt lat="47.1407" lon="1.00102">
        <ele>73</ele>
        <time>2019-09-03T07:32:49Z</time>
      </trkpt>
      <trkpt lat="47.14072" lon="1.00101">
        <ele>73</ele>
        <time>2019-09-03T07:32:49Z</time>
      </trkpt>
      <trkpt lat="47.14074" lon="1.00099">
        <ele>73</ele>
        <time>2019-09-03T07:32:50Z</time>
      </trkpt>
      <trkpt lat="47.14076" lon="1.00097">
        <ele>73</ele>
        <time>2019-09-03T07:32:50Z</time>
      </trkpt>
      <trkpt lat="47.14078" lon="1.00095">
        <ele>73</ele>
        <time>2019-09-03T07:32:51Z</time>
      </trkpt>
      <trkpt lat="47.1408" lon="1.00092">
        <ele>73</ele>
        <time>2019-09-03T07:32:52Z</time>
      </trkpt>
      <trkpt lat="47.14082" lon="1.0009">
        <ele>73</ele>
        <time>2019-09-03T07:32:52Z</time>
      </trkpt>
      <trkpt lat="47.14083" lon="1.00086">
        <ele>73</ele>
        <time>2019-09-03T07:32:53Z</time>
      </trkpt>
      <trkpt lat="47.14085" lon="1.00083">
        <ele>73</ele>
        <time>2019-09-03T07:32:53Z</time>
      </trkpt>
      <trkpt lat="47.14085" lon="1.0008">
        <ele>73</ele>
        <time>2019-09-03T07:32:54Z</time>
      </trkpt>
      <trkpt lat="47.14086" lon="1.00077">
        <ele>73</ele>
        <time>2019-09-03T07:32:54Z</time>
      </trkpt>
      <trkpt lat="47.14087" lon="1.00073">
        <ele>73</ele>
        <time>2019-09-03T07:32:55Z</time>
      </trkpt>
      <trkpt lat="47.14087" lon="1.0007">
        <ele>73</ele>
        <time>2019-09-03T07:32:56Z</time>
      </trkpt>
      <trkpt lat="47.14087" lon="1.00067">
        <ele>74</ele>
        <time>2019-09-03T07:32:56Z</time>
      </trkpt>
      <trkpt lat="47.14087" lon="1.00063">
        <ele>74</ele>
        <time>2019-09-03T07:32:57Z</time>
      </trkpt>
      <trkpt lat="47.14087" lon="1.0006">
        <ele>74</ele>
        <time>2019-09-03T07:32:57Z</time>
      </trkpt>
      <trkpt lat="47.14087" lon="1.00057">
        <ele>74</ele>
        <time>2019-09-03T07:32:58Z</time>
      </trkpt>
      <trkpt lat="47.14086" lon="1.00055">
        <ele>74</ele>
        <time>2019-09-03T07:32:58Z</time>
      </trkpt>
      <trkpt lat="47.14086" lon="1.00053">
        <ele>74</ele>
        <time>2019-09-03T07:32:58Z</time>
      </trkpt>
      <trkpt lat="47.14086" lon="1.00052">
        <ele>74</ele>
        <time>2019-09-03T07:32:58Z</time>
      </trkpt>
      <trkpt lat="47.14085" lon="1.00051">
        <ele>74</ele>
        <time>2019-09-03T07:32:59Z</time>
      </trkpt>
      <trkpt lat="47.14085" lon="1.00049">
        <ele>74</ele>
        <time>2019-09-03T07:32:59Z</time>
      </trkpt>
      <trkpt lat="47.14085" lon="1.00048">
        <ele>74</ele>
        <time>2019-09-03T07:32:59Z</time>
      </trkpt>
      <trkpt lat="47.14084" lon="1.00047">
        <ele>74</ele>
        <time>2019-09-03T07:32:59Z</time>
      </trkpt>
      <trkpt lat="47.14084" lon="1.00045">
        <ele>74</ele>
        <time>2019-09-03T07:33:00Z</time>
      </trkpt>
      <trkpt lat="47.14083" lon="1.00044">
        <ele>74</ele>
        <time>2019-09-03T07:33:00Z</time>
      </trkpt>
      <trkpt lat="47.14082" lon="1.00042">
        <ele>74</ele>
        <time>2019-09-03T07:33:00Z</time>
      </trkpt>
      <trkpt lat="47.14082" lon="1.00041">
        <ele>75</ele>
        <time>2019-09-03T07:33:00Z</time>
      </trkpt>
      <trkpt lat="47.14081" lon="1.00039">
        <ele>75</ele>
        <time>2019-09-03T07:33:01Z</time>
      </trkpt>
      <trkpt lat="47.1408" lon="1.00038">
        <ele>75</ele>
        <time>2019-09-03T07:33:01Z</time>
      </trkpt>
      <trkpt lat="47.14079" lon="1.00037">
        <ele>75</ele>
        <time>2019-09-03T07:33:01Z</time>
      </trkpt>
      <trkpt lat="47.14078" lon="1.00035">
        <ele>75</ele>
        <time>2019-09-03T07:33:02Z</time>
      </trkpt>
      <trkpt lat="47.14076" lon="1.00032">
        <ele>75</ele>
        <time>2019-09-03T07:33:02Z</time>
      </trkpt>
      <trkpt lat="47.14075" lon="1.00032">
        <ele>75</ele>
        <time>2019-09-03T07:33:03Z</time>
      </trkpt>
      <trkpt lat="47.14072" lon="1.0003">
        <ele>75</ele>
        <time>2019-09-03T07:33:03Z</time>
      </trkpt>
      <trkpt lat="47.1407" lon="1.00028">
        <ele>75</ele>
        <time>2019-09-03T07:33:04Z</time>
      </trkpt>
      <trkpt lat="47.14067" lon="1.00027">
        <ele>74</ele>
        <time>2019-09-03T07:33:05Z</time>
      </trkpt>
      <trkpt lat="47.14064" lon="1.00026">
        <ele>74</ele>
        <time>2019-09-03T07:33:05Z</time>
      </trkpt>
      <trkpt lat="47.14061" lon="1.00026">
        <ele>74</ele>
        <time>2019-09-03T07:33:06Z</time>
      </trkpt>
      <trkpt lat="47.14058" lon="1.00026">
        <ele>74</ele>
        <time>2019-09-03T07:33:07Z</time>
      </trkpt>
      <trkpt lat="47.14056" lon="1.00026">
        <ele>74</ele>
        <time>2019-09-03T07:33:07Z</time>
      </trkpt>
      <trkpt lat="47.14053" lon="1.00027">
        <ele>74</ele>
        <time>2019-09-03T07:33:08Z</time>
      </trkpt>
      <trkpt lat="47.14051" lon="1.00028">
        <ele>74</ele>
        <time>2019-09-03T07:33:08Z</time>
      </trkpt>
      <trkpt lat="47.1405" lon="1.00029">
        <ele>74</ele>
        <time>2019-09-03T07:33:08Z</time>
      </trkpt>
      <trkpt lat="47.14048" lon="1.0003">
        <ele>74</ele>
        <time>2019-09-03T07:33:09Z</time>
      </trkpt>
      <trkpt lat="47.14046" lon="1.00032">
        <ele>74</ele>
        <time>2019-09-03T07:33:09Z</time>
      </trkpt>
      <trkpt lat="47.14044" lon="1.00034">
        <ele>74</ele>
        <time>2019-09-03T07:33:10Z</time>
      </trkpt>
      <trkpt lat="47.14042" lon="1.00036">
        <ele>74</ele>
        <time>2019-09-03T07:33:11Z</time>
      </trkpt>
      <trkpt lat="47.14041" lon="1.00038">
        <ele>74</ele>
        <time>2019-09-03T07:33:11Z</time>
      </trkpt>
      <trkpt lat="47.1403" lon="1.00042">
        <ele>74</ele>
        <time>2019-09-03T07:33:13Z</time>
      </trkpt>
      <trkpt lat="47.14025" lon="1.00044">
        <ele>74</ele>
        <time>2019-09-03T07:33:15Z</time>
      </trkpt>
      <trkpt lat="47.14012" lon="1.00046">
        <ele>75</ele>
        <time>2019-09-03T07:33:17Z</time>
      </trkpt>
      <trkpt lat="47.13951" lon="1.00026">
        <ele>76</ele>
        <time>2019-09-03T07:33:31Z</time>
      </trkpt>
      <trkpt lat="47.13883" lon="1.00008">
        <ele>77</ele>
        <time>2019-09-03T07:33:47Z</time>
      </trkpt>
      <trkpt lat="47.13845" lon="0.99998">
        <ele>75</ele>
        <time>2019-09-03T07:33:55Z</time>
      </trkpt>
      <trkpt lat="47.13799" lon="0.99986">
        <ele>78</ele>
        <time>2019-09-03T07:34:06Z</time>
      </trkpt>
      <trkpt lat="47.13796" lon="0.99985">
        <ele>78</ele>
        <time>2019-09-03T07:34:06Z</time>
      </trkpt>
      <trkpt lat="47.13758" lon="0.99973">
        <ele>77</ele>
        <time>2019-09-03T07:34:15Z</time>
      </trkpt>
      <trkpt lat="47.13757" lon="0.99972">
        <ele>77</ele>
        <time>2019-09-03T07:34:15Z</time>
      </trkpt>
      <trkpt lat="47.13722" lon="0.9996">
        <ele>77</ele>
        <time>2019-09-03T07:34:23Z</time>
      </trkpt>
      <trkpt lat="47.13711" lon="0.99958">
        <ele>81</ele>
        <time>2019-09-03T07:34:26Z</time>
      </trkpt>
      <trkpt lat="47.13678" lon="0.99952">
        <ele>76</ele>
        <time>2019-09-03T07:34:33Z</time>
      </trkpt>
      <trkpt lat="47.13672" lon="0.9995">
        <ele>76</ele>
        <time>2019-09-03T07:34:35Z</time>
      </trkpt>
      <trkpt lat="47.13668" lon="0.99948">
        <ele>76</ele>
        <time>2019-09-03T07:34:35Z</time>
      </trkpt>
      <trkpt lat="47.13664" lon="0.99947">
        <ele>76</ele>
        <time>2019-09-03T07:34:36Z</time>
      </trkpt>
      <trkpt lat="47.1366" lon="0.99946">
        <ele>76</ele>
        <time>2019-09-03T07:34:37Z</time>
      </trkpt>
      <trkpt lat="47.13649" lon="0.99944">
        <ele>73</ele>
        <time>2019-09-03T07:34:40Z</time>
      </trkpt>
      <trkpt lat="47.13644" lon="0.99944">
        <ele>73</ele>
        <time>2019-09-03T07:34:41Z</time>
      </trkpt>
      <trkpt lat="47.13625" lon="0.99943">
        <ele>73</ele>
        <time>2019-09-03T07:34:45Z</time>
      </trkpt>
      <trkpt lat="47.1362" lon="0.99942">
        <ele>73</ele>
        <time>2019-09-03T07:34:46Z</time>
      </trkpt>
      <trkpt lat="47.13603" lon="0.99941">
        <ele>73</ele>
        <time>2019-09-03T07:34:50Z</time>
      </trkpt>
      <trkpt lat="47.13569" lon="0.99938">
        <ele>79</ele>
        <time>2019-09-03T07:34:58Z</time>
      </trkpt>
      <trkpt lat="47.1356" lon="0.99938">
        <ele>79</ele>
        <time>2019-09-03T07:35:00Z</time>
      </trkpt>
      <trkpt lat="47.1354" lon="0.99936">
        <ele>79</ele>
        <time>2019-09-03T07:35:04Z</time>
      </trkpt>
      <trkpt lat="47.13518" lon="0.99934">
        <ele>79</ele>
        <time>2019-09-03T07:35:09Z</time>
      </trkpt>
      <trkpt lat="47.13512" lon="0.99933">
        <ele>78</ele>
        <time>2019-09-03T07:35:10Z</time>
      </trkpt>
      <trkpt lat="47.13483" lon="0.9993">
        <ele>82</ele>
        <time>2019-09-03T07:35:17Z</time>
      </trkpt>
      <trkpt lat="47.1346" lon="0.99928">
        <ele>82</ele>
        <time>2019-09-03T07:35:22Z</time>
      </trkpt>
      <trkpt lat="47.13447" lon="0.99925">
        <ele>79</ele>
        <time>2019-09-03T07:35:25Z</time>
      </trkpt>
      <trkpt lat="47.1344" lon="0.99924">
        <ele>79</ele>
        <time>2019-09-03T07:35:26Z</time>
      </trkpt>
      <trkpt lat="47.13439" lon="0.99924">
        <ele>79</ele>
        <time>2019-09-03T07:35:27Z</time>
      </trkpt>
      <trkpt lat="47.13421" lon="0.99918">
        <ele>77</ele>
        <time>2019-09-03T07:35:31Z</time>
      </trkpt>
      <trkpt lat="47.13418" lon="0.99917">
        <ele>77</ele>
        <time>2019-09-03T07:35:31Z</time>
      </trkpt>
      <trkpt lat="47.13406" lon="0.99912">
        <ele>77</ele>
        <time>2019-09-03T07:35:34Z</time>
      </trkpt>
      <trkpt lat="47.13389" lon="0.99905">
        <ele>75</ele>
        <time>2019-09-03T07:35:38Z</time>
      </trkpt>
      <trkpt lat="47.13387" lon="0.99904">
        <ele>75</ele>
        <time>2019-09-03T07:35:39Z</time>
      </trkpt>
      <trkpt lat="47.13358" lon="0.99892">
        <ele>77</ele>
        <time>2019-09-03T07:35:45Z</time>
      </trkpt>
      <trkpt lat="47.13355" lon="0.9989">
        <ele>77</ele>
        <time>2019-09-03T07:35:46Z</time>
      </trkpt>
      <trkpt lat="47.13324" lon="0.99876">
        <ele>78</ele>
        <time>2019-09-03T07:35:53Z</time>
      </trkpt>
      <trkpt lat="47.13322" lon="0.99876">
        <ele>78</ele>
        <time>2019-09-03T07:35:54Z</time>
      </trkpt>
      <trkpt lat="47.13291" lon="0.99863">
        <ele>78</ele>
        <time>2019-09-03T07:36:01Z</time>
      </trkpt>
      <trkpt lat="47.13284" lon="0.99859">
        <ele>78</ele>
        <time>2019-09-03T07:36:02Z</time>
      </trkpt>
      <trkpt lat="47.13271" lon="0.99852">
        <ele>78</ele>
        <time>2019-09-03T07:36:06Z</time>
      </trkpt>
      <trkpt lat="47.13261" lon="0.99847">
        <ele>77</ele>
        <time>2019-09-03T07:36:08Z</time>
      </trkpt>
      <trkpt lat="47.13255" lon="0.99843">
        <ele>77</ele>
        <time>2019-09-03T07:36:09Z</time>
      </trkpt>
      <trkpt lat="47.13251" lon="0.99841">
        <ele>77</ele>
        <time>2019-09-03T07:36:10Z</time>
      </trkpt>
      <trkpt lat="47.13248" lon="0.99839">
        <ele>77</ele>
        <time>2019-09-03T07:36:11Z</time>
      </trkpt>
      <trkpt lat="47.13244" lon="0.99835">
        <ele>77</ele>
        <time>2019-09-03T07:36:12Z</time>
      </trkpt>
      <trkpt lat="47.13239" lon="0.9983">
        <ele>77</ele>
        <time>2019-09-03T07:36:13Z</time>
      </trkpt>
      <trkpt lat="47.13237" lon="0.99828">
        <ele>77</ele>
        <time>2019-09-03T07:36:14Z</time>
      </trkpt>
      <trkpt lat="47.13226" lon="0.99813">
        <ele>77</ele>
        <time>2019-09-03T07:36:17Z</time>
      </trkpt>
      <trkpt lat="47.13221" lon="0.99807">
        <ele>77</ele>
        <time>2019-09-03T07:36:19Z</time>
      </trkpt>
      <trkpt lat="47.13219" lon="0.99805">
        <ele>77</ele>
        <time>2019-09-03T07:36:19Z</time>
      </trkpt>
      <trkpt lat="47.13218" lon="0.99804">
        <ele>77</ele>
        <time>2019-09-03T07:36:20Z</time>
      </trkpt>
      <trkpt lat="47.13216" lon="0.99803">
        <ele>77</ele>
        <time>2019-09-03T07:36:20Z</time>
      </trkpt>
      <trkpt lat="47.13213" lon="0.99801">
        <ele>77</ele>
        <time>2019-09-03T07:36:21Z</time>
      </trkpt>
      <trkpt lat="47.1321" lon="0.99799">
        <ele>77</ele>
        <time>2019-09-03T07:36:22Z</time>
      </trkpt>
      <trkpt lat="47.13202" lon="0.99798">
        <ele>77</ele>
        <time>2019-09-03T07:36:23Z</time>
      </trkpt>
      <trkpt lat="47.13191" lon="0.99798">
        <ele>77</ele>
        <time>2019-09-03T07:36:26Z</time>
      </trkpt>
      <trkpt lat="47.13162" lon="0.99798">
        <ele>75</ele>
        <time>2019-09-03T07:36:32Z</time>
      </trkpt>
      <trkpt lat="47.13156" lon="0.99799">
        <ele>75</ele>
        <time>2019-09-03T07:36:34Z</time>
      </trkpt>
      <trkpt lat="47.13147" lon="0.99802">
        <ele>75</ele>
        <time>2019-09-03T07:36:36Z</time>
      </trkpt>
      <trkpt lat="47.13121" lon="0.99812">
        <ele>75</ele>
        <time>2019-09-03T07:36:42Z</time>
      </trkpt>
      <trkpt lat="47.13108" lon="0.99818">
        <ele>75</ele>
        <time>2019-09-03T07:36:45Z</time>
      </trkpt>
      <trkpt lat="47.13091" lon="0.99827">
        <ele>74</ele>
        <time>2019-09-03T07:36:49Z</time>
      </trkpt>
      <trkpt lat="47.13081" lon="0.99832">
        <ele>74</ele>
        <time>2019-09-03T07:36:51Z</time>
      </trkpt>
      <trkpt lat="47.13073" lon="0.99835">
        <ele>74</ele>
        <time>2019-09-03T07:36:53Z</time>
      </trkpt>
      <trkpt lat="47.13062" lon="0.99838">
        <ele>74</ele>
        <time>2019-09-03T07:36:55Z</time>
      </trkpt>
      <trkpt lat="47.13062" lon="0.99838">
        <ele>74</ele>
        <time>2019-09-03T07:36:55Z</time>
      </trkpt>
      <trkpt lat="47.13035" lon="0.99848">
        <ele>73</ele>
        <time>2019-09-03T07:37:02Z</time>
      </trkpt>
      <trkpt lat="47.13014" lon="0.99856">
        <ele>73</ele>
        <time>2019-09-03T07:37:06Z</time>
      </trkpt>
      <trkpt lat="47.13003" lon="0.99861">
        <ele>73</ele>
        <time>2019-09-03T07:37:09Z</time>
      </trkpt>
      <trkpt lat="47.12994" lon="0.99866">
        <ele>73</ele>
        <time>2019-09-03T07:37:11Z</time>
      </trkpt>
      <trkpt lat="47.12991" lon="0.99868">
        <ele>73</ele>
        <time>2019-09-03T07:37:12Z</time>
      </trkpt>
      <trkpt lat="47.12984" lon="0.99873">
        <ele>73</ele>
        <time>2019-09-03T07:37:14Z</time>
      </trkpt>
      <trkpt lat="47.12973" lon="0.99881">
        <ele>72</ele>
        <time>2019-09-03T07:37:16Z</time>
      </trkpt>
      <trkpt lat="47.12959" lon="0.99892">
        <ele>72</ele>
        <time>2019-09-03T07:37:20Z</time>
      </trkpt>
      <trkpt lat="47.12959" lon="0.99892">
        <ele>72</ele>
        <time>2019-09-03T07:37:20Z</time>
      </trkpt>
      <trkpt lat="47.12958" lon="0.99892">
        <ele>73</ele>
        <time>2019-09-03T07:37:20Z</time>
      </trkpt>
      <trkpt lat="47.12958" lon="0.99891">
        <ele>73</ele>
        <time>2019-09-03T07:37:20Z</time>
      </trkpt>
      <trkpt lat="47.12957" lon="0.99891">
        <ele>73</ele>
        <time>2019-09-03T07:37:20Z</time>
      </trkpt>
      <trkpt lat="47.12957" lon="0.9989">
        <ele>73</ele>
        <time>2019-09-03T07:37:21Z</time>
      </trkpt>
      <trkpt lat="47.12956" lon="0.9989">
        <ele>73</ele>
        <time>2019-09-03T07:37:21Z</time>
      </trkpt>
      <trkpt lat="47.12955" lon="0.9989">
        <ele>73</ele>
        <time>2019-09-03T07:37:21Z</time>
      </trkpt>
      <trkpt lat="47.12954" lon="0.9989">
        <ele>73</ele>
        <time>2019-09-03T07:37:21Z</time>
      </trkpt>
      <trkpt lat="47.12953" lon="0.9989">
        <ele>73</ele>
        <time>2019-09-03T07:37:21Z</time>
      </trkpt>
      <trkpt lat="47.12952" lon="0.99891">
        <ele>73</ele>
        <time>2019-09-03T07:37:22Z</time>
      </trkpt>
      <trkpt lat="47.12951" lon="0.99891">
        <ele>73</ele>
        <time>2019-09-03T07:37:22Z</time>
      </trkpt>
      <trkpt lat="47.12951" lon="0.99892">
        <ele>73</ele>
        <time>2019-09-03T07:37:22Z</time>
      </trkpt>
      <trkpt lat="47.1295" lon="0.99892">
        <ele>73</ele>
        <time>2019-09-03T07:37:22Z</time>
      </trkpt>
      <trkpt lat="47.1295" lon="0.99893">
        <ele>73</ele>
        <time>2019-09-03T07:37:22Z</time>
      </trkpt>
      <trkpt lat="47.12949" lon="0.99893">
        <ele>73</ele>
        <time>2019-09-03T07:37:23Z</time>
      </trkpt>
      <trkpt lat="47.12949" lon="0.99894">
        <ele>73</ele>
        <time>2019-09-03T07:37:23Z</time>
      </trkpt>
      <trkpt lat="47.12948" lon="0.99894">
        <ele>73</ele>
        <time>2019-09-03T07:37:23Z</time>
      </trkpt>
      <trkpt lat="47.12948" lon="0.99895">
        <ele>73</ele>
        <time>2019-09-03T07:37:23Z</time>
      </trkpt>
      <trkpt lat="47.12948" lon="0.99896">
        <ele>73</ele>
        <time>2019-09-03T07:37:23Z</time>
      </trkpt>
      <trkpt lat="47.12948" lon="0.99897">
        <ele>73</ele>
        <time>2019-09-03T07:37:24Z</time>
      </trkpt>
      <trkpt lat="47.12947" lon="0.99897">
        <ele>73</ele>
        <time>2019-09-03T07:37:24Z</time>
      </trkpt>
      <trkpt lat="47.12947" lon="0.99898">
        <ele>73</ele>
        <time>2019-09-03T07:37:24Z</time>
      </trkpt>
      <trkpt lat="47.12947" lon="0.99899">
        <ele>73</ele>
        <time>2019-09-03T07:37:24Z</time>
      </trkpt>
      <trkpt lat="47.12947" lon="0.999">
        <ele>73</ele>
        <time>2019-09-03T07:37:24Z</time>
      </trkpt>
      <trkpt lat="47.12947" lon="0.99901">
        <ele>73</ele>
        <time>2019-09-03T07:37:24Z</time>
      </trkpt>
      <trkpt lat="47.12947" lon="0.99902">
        <ele>73</ele>
        <time>2019-09-03T07:37:25Z</time>
      </trkpt>
      <trkpt lat="47.12947" lon="0.99903">
        <ele>72</ele>
        <time>2019-09-03T07:37:25Z</time>
      </trkpt>
      <trkpt lat="47.12947" lon="0.99904">
        <ele>72</ele>
        <time>2019-09-03T07:37:25Z</time>
      </trkpt>
      <trkpt lat="47.12947" lon="0.99905">
        <ele>72</ele>
        <time>2019-09-03T07:37:25Z</time>
      </trkpt>
      <trkpt lat="47.12947" lon="0.99906">
        <ele>72</ele>
        <time>2019-09-03T07:37:25Z</time>
      </trkpt>
      <trkpt lat="47.12948" lon="0.99906">
        <ele>72</ele>
        <time>2019-09-03T07:37:25Z</time>
      </trkpt>
      <trkpt lat="47.12948" lon="0.99907">
        <ele>72</ele>
        <time>2019-09-03T07:37:25Z</time>
      </trkpt>
      <trkpt lat="47.12948" lon="0.99908">
        <ele>72</ele>
        <time>2019-09-03T07:37:26Z</time>
      </trkpt>
      <trkpt lat="47.12949" lon="0.99908">
        <ele>72</ele>
        <time>2019-09-03T07:37:26Z</time>
      </trkpt>
      <trkpt lat="47.12949" lon="0.99909">
        <ele>72</ele>
        <time>2019-09-03T07:37:26Z</time>
      </trkpt>
      <trkpt lat="47.12949" lon="0.9991">
        <ele>72</ele>
        <time>2019-09-03T07:37:26Z</time>
      </trkpt>
      <trkpt lat="47.12939" lon="0.99921">
        <ele>72</ele>
        <time>2019-09-03T07:37:29Z</time>
      </trkpt>
      <trkpt lat="47.12927" lon="0.9993">
        <ele>72</ele>
        <time>2019-09-03T07:37:32Z</time>
      </trkpt>
      <trkpt lat="47.12911" lon="0.99941">
        <ele>70</ele>
        <time>2019-09-03T07:37:36Z</time>
      </trkpt>
      <trkpt lat="47.12908" lon="0.99943">
        <ele>70</ele>
        <time>2019-09-03T07:37:37Z</time>
      </trkpt>
      <trkpt lat="47.12908" lon="0.99943">
        <ele>70</ele>
        <time>2019-09-03T07:37:37Z</time>
      </trkpt>
      <trkpt lat="47.12899" lon="0.99948">
        <ele>72</ele>
        <time>2019-09-03T07:37:39Z</time>
      </trkpt>
      <trkpt lat="47.12891" lon="0.99953">
        <ele>72</ele>
        <time>2019-09-03T07:37:41Z</time>
      </trkpt>
      <trkpt lat="47.12872" lon="0.99963">
        <ele>74</ele>
        <time>2019-09-03T07:37:45Z</time>
      </trkpt>
      <trkpt lat="47.12862" lon="0.9997">
        <ele>74</ele>
        <time>2019-09-03T07:37:48Z</time>
      </trkpt>
      <trkpt lat="47.12857" lon="0.99975">
        <ele>74</ele>
        <time>2019-09-03T07:37:49Z</time>
      </trkpt>
      <trkpt lat="47.12853" lon="0.99981">
        <ele>74</ele>
        <time>2019-09-03T07:37:50Z</time>
      </trkpt>
      <trkpt lat="47.12853" lon="0.99981">
        <ele>74</ele>
        <time>2019-09-03T07:37:50Z</time>
      </trkpt>
      <trkpt lat="47.1285" lon="0.99987">
        <ele>73</ele>
        <time>2019-09-03T07:37:51Z</time>
      </trkpt>
      <trkpt lat="47.12849" lon="0.9999">
        <ele>73</ele>
        <time>2019-09-03T07:37:52Z</time>
      </trkpt>
      <trkpt lat="47.12848" lon="0.99993">
        <ele>73</ele>
        <time>2019-09-03T07:37:52Z</time>
      </trkpt>
      <trkpt lat="47.12848" lon="1.00004">
        <ele>73</ele>
        <time>2019-09-03T07:37:54Z</time>
      </trkpt>
      <trkpt lat="47.12849" lon="1.00018">
        <ele>73</ele>
        <time>2019-09-03T07:37:56Z</time>
      </trkpt>
      <trkpt lat="47.12853" lon="1.00048">
        <ele>74</ele>
        <time>2019-09-03T07:38:01Z</time>
      </trkpt>
      <trkpt lat="47.12855" lon="1.00068">
        <ele>74</ele>
        <time>2019-09-03T07:38:04Z</time>
      </trkpt>
      <trkpt lat="47.12856" lon="1.00072">
        <ele>74</ele>
        <time>2019-09-03T07:38:05Z</time>
      </trkpt>
      <trkpt lat="47.1286" lon="1.00099">
        <ele>73</ele>
        <time>2019-09-03T07:38:09Z</time>
      </trkpt>
      <trkpt lat="47.12862" lon="1.00115">
        <ele>73</ele>
        <time>2019-09-03T07:38:11Z</time>
      </trkpt>
      <trkpt lat="47.12864" lon="1.00126">
        <ele>72</ele>
        <time>2019-09-03T07:38:13Z</time>
      </trkpt>
      <trkpt lat="47.12864" lon="1.00129">
        <ele>72</ele>
        <time>2019-09-03T07:38:13Z</time>
      </trkpt>
      <trkpt lat="47.12864" lon="1.00129">
        <ele>72</ele>
        <time>2019-09-03T07:38:14Z</time>
      </trkpt>
      <trkpt lat="47.12865" lon="1.00131">
        <ele>72</ele>
        <time>2019-09-03T07:38:14Z</time>
      </trkpt>
      <trkpt lat="47.12865" lon="1.00136">
        <ele>72</ele>
        <time>2019-09-03T07:38:15Z</time>
      </trkpt>
      <trkpt lat="47.12869" lon="1.00158">
        <ele>72</ele>
        <time>2019-09-03T07:38:18Z</time>
      </trkpt>
      <trkpt lat="47.12869" lon="1.00163">
        <ele>72</ele>
        <time>2019-09-03T07:38:19Z</time>
      </trkpt>
      <trkpt lat="47.12879" lon="1.00232">
        <ele>72</ele>
        <time>2019-09-03T07:38:30Z</time>
      </trkpt>
      <trkpt lat="47.12886" lon="1.00303">
        <ele>73</ele>
        <time>2019-09-03T07:38:40Z</time>
      </trkpt>
      <trkpt lat="47.1289" lon="1.00336">
        <ele>75</ele>
        <time>2019-09-03T07:38:46Z</time>
      </trkpt>
      <trkpt lat="47.12895" lon="1.00374">
        <ele>75</ele>
        <time>2019-09-03T07:38:51Z</time>
      </trkpt>
      <trkpt lat="47.12899" lon="1.00415">
        <ele>74</ele>
        <time>2019-09-03T07:38:58Z</time>
      </trkpt>
      <trkpt lat="47.12903" lon="1.00456">
        <ele>73</ele>
        <time>2019-09-03T07:39:04Z</time>
      </trkpt>
      <trkpt lat="47.12903" lon="1.00466">
        <ele>72</ele>
        <time>2019-09-03T07:39:06Z</time>
      </trkpt>
      <trkpt lat="47.12905" lon="1.00484">
        <ele>72</ele>
        <time>2019-09-03T07:39:08Z</time>
      </trkpt>
      <trkpt lat="47.12906" lon="1.00502">
        <ele>72</ele>
        <time>2019-09-03T07:39:11Z</time>
      </trkpt>
      <trkpt lat="47.12907" lon="1.00511">
        <ele>72</ele>
        <time>2019-09-03T07:39:12Z</time>
      </trkpt>
      <trkpt lat="47.12914" lon="1.00604">
        <ele>74</ele>
        <time>2019-09-03T07:39:27Z</time>
      </trkpt>
      <trkpt lat="47.12914" lon="1.00607">
        <ele>74</ele>
        <time>2019-09-03T07:39:27Z</time>
      </trkpt>
      <trkpt lat="47.12916" lon="1.00645">
        <ele>74</ele>
        <time>2019-09-03T07:39:33Z</time>
      </trkpt>
      <trkpt lat="47.12919" lon="1.0068">
        <ele>74</ele>
        <time>2019-09-03T07:39:38Z</time>
      </trkpt>
      <trkpt lat="47.1292" lon="1.00698">
        <ele>75</ele>
        <time>2019-09-03T07:39:41Z</time>
      </trkpt>
      <trkpt lat="47.12924" lon="1.00774">
        <ele>75</ele>
        <time>2019-09-03T07:39:53Z</time>
      </trkpt>
      <trkpt lat="47.12928" lon="1.00856">
        <ele>74</ele>
        <time>2019-09-03T07:40:05Z</time>
      </trkpt>
      <trkpt lat="47.12928" lon="1.00856">
        <ele>74</ele>
        <time>2019-09-03T07:40:05Z</time>
      </trkpt>
      <trkpt lat="47.12928" lon="1.00872">
        <ele>74</ele>
        <time>2019-09-03T07:40:07Z</time>
      </trkpt>
      <trkpt lat="47.12931" lon="1.0094">
        <ele>72</ele>
        <time>2019-09-03T07:40:18Z</time>
      </trkpt>
      <trkpt lat="47.12933" lon="1.0097">
        <ele>72</ele>
        <time>2019-09-03T07:40:22Z</time>
      </trkpt>
      <trkpt lat="47.12937" lon="1.01014">
        <ele>72</ele>
        <time>2019-09-03T07:40:29Z</time>
      </trkpt>
      <trkpt lat="47.12938" lon="1.01039">
        <ele>72</ele>
        <time>2019-09-03T07:40:33Z</time>
      </trkpt>
      <trkpt lat="47.1294" lon="1.01079">
        <ele>74</ele>
        <time>2019-09-03T07:40:39Z</time>
      </trkpt>
      <trkpt lat="47.12941" lon="1.01096">
        <ele>74</ele>
        <time>2019-09-03T07:40:42Z</time>
      </trkpt>
      <trkpt lat="47.12942" lon="1.01104">
        <ele>74</ele>
        <time>2019-09-03T07:40:43Z</time>
      </trkpt>
      <trkpt lat="47.12942" lon="1.01111">
        <ele>74</ele>
        <time>2019-09-03T07:40:44Z</time>
      </trkpt>
      <trkpt lat="47.12941" lon="1.01135">
        <ele>75</ele>
        <time>2019-09-03T07:40:48Z</time>
      </trkpt>
      <trkpt lat="47.1294" lon="1.01148">
        <ele>75</ele>
        <time>2019-09-03T07:40:50Z</time>
      </trkpt>
      <trkpt lat="47.1294" lon="1.01148">
        <ele>75</ele>
        <time>2019-09-03T07:40:50Z</time>
      </trkpt>
      <trkpt lat="47.12935" lon="1.01152">
        <ele>75</ele>
        <time>2019-09-03T07:40:51Z</time>
      </trkpt>
      <trkpt lat="47.12933" lon="1.01153">
        <ele>76</ele>
        <time>2019-09-03T07:40:51Z</time>
      </trkpt>
      <trkpt lat="47.1292" lon="1.01158">
        <ele>76</ele>
        <time>2019-09-03T07:40:54Z</time>
      </trkpt>
      <trkpt lat="47.12899" lon="1.01163">
        <ele>74</ele>
        <time>2019-09-03T07:40:59Z</time>
      </trkpt>
      <trkpt lat="47.12866" lon="1.01173">
        <ele>73</ele>
        <time>2019-09-03T07:41:06Z</time>
      </trkpt>
      <trkpt lat="47.12845" lon="1.01179">
        <ele>73</ele>
        <time>2019-09-03T07:41:11Z</time>
      </trkpt>
      <trkpt lat="47.12837" lon="1.01181">
        <ele>74</ele>
        <time>2019-09-03T07:41:13Z</time>
      </trkpt>
      <trkpt lat="47.12827" lon="1.01184">
        <ele>74</ele>
        <time>2019-09-03T07:41:15Z</time>
      </trkpt>
      <trkpt lat="47.12812" lon="1.01188">
        <ele>74</ele>
        <time>2019-09-03T07:41:19Z</time>
      </trkpt>
      <trkpt lat="47.12801" lon="1.01191">
        <ele>74</ele>
        <time>2019-09-03T07:41:21Z</time>
      </trkpt>
      <trkpt lat="47.12775" lon="1.01197">
        <ele>73</ele>
        <time>2019-09-03T07:41:27Z</time>
      </trkpt>
      <trkpt lat="47.12763" lon="1.01201">
        <ele>73</ele>
        <time>2019-09-03T07:41:30Z</time>
      </trkpt>
      <trkpt lat="47.1276" lon="1.01204">
        <ele>73</ele>
        <time>2019-09-03T07:41:31Z</time>
      </trkpt>
      <trkpt lat="47.12759" lon="1.01207">
        <ele>73</ele>
        <time>2019-09-03T07:41:31Z</time>
      </trkpt>
      <trkpt lat="47.12759" lon="1.01209">
        <ele>73</ele>
        <time>2019-09-03T07:41:31Z</time>
      </trkpt>
      <trkpt lat="47.12759" lon="1.01211">
        <ele>73</ele>
        <time>2019-09-03T07:41:32Z</time>
      </trkpt>
      <trkpt lat="47.12768" lon="1.01277">
        <ele>72</ele>
        <time>2019-09-03T07:41:42Z</time>
      </trkpt>
      <trkpt lat="47.12769" lon="1.01283">
        <ele>72</ele>
        <time>2019-09-03T07:41:43Z</time>
      </trkpt>
      <trkpt lat="47.12771" lon="1.01287">
        <ele>72</ele>
        <time>2019-09-03T07:41:44Z</time>
      </trkpt>
      <trkpt lat="47.12771" lon="1.01287">
        <ele>72</ele>
        <time>2019-09-03T07:41:44Z</time>
      </trkpt>
      <trkpt lat="47.12745" lon="1.01297">
        <ele>73</ele>
        <time>2019-09-03T07:41:50Z</time>
      </trkpt>
      <trkpt lat="47.12739" lon="1.01298">
        <ele>73</ele>
        <time>2019-09-03T07:41:51Z</time>
      </trkpt>
      <trkpt lat="47.12733" lon="1.013">
        <ele>73</ele>
        <time>2019-09-03T07:41:52Z</time>
      </trkpt>
      <trkpt lat="47.12726" lon="1.01302">
        <ele>73</ele>
        <time>2019-09-03T07:41:54Z</time>
      </trkpt>
      <trkpt lat="47.12707" lon="1.01307">
        <ele>73</ele>
        <time>2019-09-03T07:41:58Z</time>
      </trkpt>
      <trkpt lat="47.12662" lon="1.0132">
        <ele>74</ele>
        <time>2019-09-03T07:42:08Z</time>
      </trkpt>
      <trkpt lat="47.12657" lon="1.01322">
        <ele>74</ele>
        <time>2019-09-03T07:42:10Z</time>
      </trkpt>
      <trkpt lat="47.12642" lon="1.01331">
        <ele>74</ele>
        <time>2019-09-03T07:42:13Z</time>
      </trkpt>
      <trkpt lat="47.12621" lon="1.01346">
        <ele>74</ele>
        <time>2019-09-03T07:42:18Z</time>
      </trkpt>
      <trkpt lat="47.12618" lon="1.01348">
        <ele>74</ele>
        <time>2019-09-03T07:42:19Z</time>
      </trkpt>
      <trkpt lat="47.12586" lon="1.01369">
        <ele>73</ele>
        <time>2019-09-03T07:42:27Z</time>
      </trkpt>
      <trkpt lat="47.12577" lon="1.01375">
        <ele>73</ele>
        <time>2019-09-03T07:42:29Z</time>
      </trkpt>
      <trkpt lat="47.12564" lon="1.01382">
        <ele>73</ele>
        <time>2019-09-03T07:42:32Z</time>
      </trkpt>
      <trkpt lat="47.12539" lon="1.01394">
        <ele>72</ele>
        <time>2019-09-03T07:42:38Z</time>
      </trkpt>
      <trkpt lat="47.12521" lon="1.01404">
        <ele>72</ele>
        <time>2019-09-03T07:42:42Z</time>
      </trkpt>
      <trkpt lat="47.12503" lon="1.01412">
        <ele>71</ele>
        <time>2019-09-03T07:42:46Z</time>
      </trkpt>
      <trkpt lat="47.12468" lon="1.01429">
        <ele>72</ele>
        <time>2019-09-03T07:42:55Z</time>
      </trkpt>
      <trkpt lat="47.12447" lon="1.01439">
        <ele>73</ele>
        <time>2019-09-03T07:43:00Z</time>
      </trkpt>
      <trkpt lat="47.12436" lon="1.01444">
        <ele>73</ele>
        <time>2019-09-03T07:43:02Z</time>
      </trkpt>
      <trkpt lat="47.12429" lon="1.01449">
        <ele>73</ele>
        <time>2019-09-03T07:43:04Z</time>
      </trkpt>
      <trkpt lat="47.12428" lon="1.01451">
        <ele>73</ele>
        <time>2019-09-03T07:43:04Z</time>
      </trkpt>
      <trkpt lat="47.12425" lon="1.01455">
        <ele>73</ele>
        <time>2019-09-03T07:43:05Z</time>
      </trkpt>
      <trkpt lat="47.12424" lon="1.01462">
        <ele>73</ele>
        <time>2019-09-03T07:43:06Z</time>
      </trkpt>
      <trkpt lat="47.12424" lon="1.01464">
        <ele>73</ele>
        <time>2019-09-03T07:43:07Z</time>
      </trkpt>
      <trkpt lat="47.12423" lon="1.01469">
        <ele>73</ele>
        <time>2019-09-03T07:43:07Z</time>
      </trkpt>
      <trkpt lat="47.12424" lon="1.01476">
        <ele>73</ele>
        <time>2019-09-03T07:43:08Z</time>
      </trkpt>
      <trkpt lat="47.12431" lon="1.01512">
        <ele>73</ele>
        <time>2019-09-03T07:43:14Z</time>
      </trkpt>
      <trkpt lat="47.12454" lon="1.01613">
        <ele>75</ele>
        <time>2019-09-03T07:43:30Z</time>
      </trkpt>
      <trkpt lat="47.12455" lon="1.01625">
        <ele>75</ele>
        <time>2019-09-03T07:43:32Z</time>
      </trkpt>
      <trkpt lat="47.12455" lon="1.01636">
        <ele>76</ele>
        <time>2019-09-03T07:43:34Z</time>
      </trkpt>
      <trkpt lat="47.12455" lon="1.01646">
        <ele>76</ele>
        <time>2019-09-03T07:43:35Z</time>
      </trkpt>
      <trkpt lat="47.12454" lon="1.0165">
        <ele>76</ele>
        <time>2019-09-03T07:43:36Z</time>
      </trkpt>
      <trkpt lat="47.12452" lon="1.01657">
        <ele>76</ele>
        <time>2019-09-03T07:43:37Z</time>
      </trkpt>
      <trkpt lat="47.12448" lon="1.01665">
        <ele>76</ele>
        <time>2019-09-03T07:43:39Z</time>
      </trkpt>
      <trkpt lat="47.12447" lon="1.01667">
        <ele>76</ele>
        <time>2019-09-03T07:43:39Z</time>
      </trkpt>
      <trkpt lat="47.1244" lon="1.01677">
        <ele>76</ele>
        <time>2019-09-03T07:43:41Z</time>
      </trkpt>
      <trkpt lat="47.12433" lon="1.01684">
        <ele>77</ele>
        <time>2019-09-03T07:43:43Z</time>
      </trkpt>
      <trkpt lat="47.12428" lon="1.01688">
        <ele>76</ele>
        <time>2019-09-03T07:43:44Z</time>
      </trkpt>
      <trkpt lat="47.12426" lon="1.01689">
        <ele>76</ele>
        <time>2019-09-03T07:43:45Z</time>
      </trkpt>
      <trkpt lat="47.12417" lon="1.01693">
        <ele>76</ele>
        <time>2019-09-03T07:43:47Z</time>
      </trkpt>
      <trkpt lat="47.12396" lon="1.01697">
        <ele>76</ele>
        <time>2019-09-03T07:43:52Z</time>
      </trkpt>
      <trkpt lat="47.12347" lon="1.01706">
        <ele>75</ele>
        <time>2019-09-03T07:44:03Z</time>
      </trkpt>
      <trkpt lat="47.12305" lon="1.01717">
        <ele>75</ele>
        <time>2019-09-03T07:44:12Z</time>
      </trkpt>
      <trkpt lat="47.12297" lon="1.01719">
        <ele>75</ele>
        <time>2019-09-03T07:44:14Z</time>
      </trkpt>
      <trkpt lat="47.12264" lon="1.01727">
        <ele>75</ele>
        <time>2019-09-03T07:44:21Z</time>
      </trkpt>
      <trkpt lat="47.1225" lon="1.01728">
        <ele>75</ele>
        <time>2019-09-03T07:44:24Z</time>
      </trkpt>
      <trkpt lat="47.12192" lon="1.01731">
        <ele>75</ele>
        <time>2019-09-03T07:44:37Z</time>
      </trkpt>
      <trkpt lat="47.12134" lon="1.01734">
        <ele>75</ele>
        <time>2019-09-03T07:44:50Z</time>
      </trkpt>
      <trkpt lat="47.12131" lon="1.01734">
        <ele>75</ele>
        <time>2019-09-03T07:44:51Z</time>
      </trkpt>
      <trkpt lat="47.12092" lon="1.01732">
        <ele>74</ele>
        <time>2019-09-03T07:45:00Z</time>
      </trkpt>
      <trkpt lat="47.12088" lon="1.01731">
        <ele>74</ele>
        <time>2019-09-03T07:45:00Z</time>
      </trkpt>
      <trkpt lat="47.12057" lon="1.01728">
        <ele>75</ele>
        <time>2019-09-03T07:45:07Z</time>
      </trkpt>
      <trkpt lat="47.12038" lon="1.01728">
        <ele>75</ele>
        <time>2019-09-03T07:45:12Z</time>
      </trkpt>
      <trkpt lat="47.12007" lon="1.0173">
        <ele>75</ele>
        <time>2019-09-03T07:45:18Z</time>
      </trkpt>
      <trkpt lat="47.12004" lon="1.0173">
        <ele>75</ele>
        <time>2019-09-03T07:45:19Z</time>
      </trkpt>
      <trkpt lat="47.11979" lon="1.0173">
        <ele>74</ele>
        <time>2019-09-03T07:45:25Z</time>
      </trkpt>
      <trkpt lat="47.11953" lon="1.0173">
        <ele>75</ele>
        <time>2019-09-03T07:45:30Z</time>
      </trkpt>
      <trkpt lat="47.1195" lon="1.0173">
        <ele>75</ele>
        <time>2019-09-03T07:45:31Z</time>
      </trkpt>
      <trkpt lat="47.11924" lon="1.01728">
        <ele>76</ele>
        <time>2019-09-03T07:45:37Z</time>
      </trkpt>
      <trkpt lat="47.11881" lon="1.01727">
        <ele>76</ele>
        <time>2019-09-03T07:45:46Z</time>
      </trkpt>
      <trkpt lat="47.1187" lon="1.01727">
        <ele>77</ele>
        <time>2019-09-03T07:45:49Z</time>
      </trkpt>
      <trkpt lat="47.11858" lon="1.01728">
        <ele>77</ele>
        <time>2019-09-03T07:45:52Z</time>
      </trkpt>
      <trkpt lat="47.11849" lon="1.0173">
        <ele>77</ele>
        <time>2019-09-03T07:45:54Z</time>
      </trkpt>
      <trkpt lat="47.11837" lon="1.01734">
        <ele>79</ele>
        <time>2019-09-03T07:45:56Z</time>
      </trkpt>
      <trkpt lat="47.11826" lon="1.01741">
        <ele>80</ele>
        <time>2019-09-03T07:45:59Z</time>
      </trkpt>
      <trkpt lat="47.11816" lon="1.01748">
        <ele>79</ele>
        <time>2019-09-03T07:46:01Z</time>
      </trkpt>
      <trkpt lat="47.1181" lon="1.01755">
        <ele>79</ele>
        <time>2019-09-03T07:46:03Z</time>
      </trkpt>
      <trkpt lat="47.11807" lon="1.01758">
        <ele>79</ele>
        <time>2019-09-03T07:46:04Z</time>
      </trkpt>
      <trkpt lat="47.11799" lon="1.0177">
        <ele>79</ele>
        <time>2019-09-03T07:46:07Z</time>
      </trkpt>
      <trkpt lat="47.1179" lon="1.01787">
        <ele>77</ele>
        <time>2019-09-03T07:46:10Z</time>
      </trkpt>
      <trkpt lat="47.11781" lon="1.01812">
        <ele>77</ele>
        <time>2019-09-03T07:46:14Z</time>
      </trkpt>
      <trkpt lat="47.11757" lon="1.01891">
        <ele>75</ele>
        <time>2019-09-03T07:46:27Z</time>
      </trkpt>
      <trkpt lat="47.1175" lon="1.01911">
        <ele>74</ele>
        <time>2019-09-03T07:46:31Z</time>
      </trkpt>
      <trkpt lat="47.11744" lon="1.01928">
        <ele>74</ele>
        <time>2019-09-03T07:46:34Z</time>
      </trkpt>
      <trkpt lat="47.11739" lon="1.0194">
        <ele>74</ele>
        <time>2019-09-03T07:46:36Z</time>
      </trkpt>
      <trkpt lat="47.11736" lon="1.0195">
        <ele>73</ele>
        <time>2019-09-03T07:46:37Z</time>
      </trkpt>
      <trkpt lat="47.1171" lon="1.02019">
        <ele>74</ele>
        <time>2019-09-03T07:46:49Z</time>
      </trkpt>
      <trkpt lat="47.11707" lon="1.02027">
        <ele>74</ele>
        <time>2019-09-03T07:46:51Z</time>
      </trkpt>
      <trkpt lat="47.11691" lon="1.02068">
        <ele>73</ele>
        <time>2019-09-03T07:46:58Z</time>
      </trkpt>
      <trkpt lat="47.1167" lon="1.02116">
        <ele>75</ele>
        <time>2019-09-03T07:47:07Z</time>
      </trkpt>
      <trkpt lat="47.11651" lon="1.02156">
        <ele>74</ele>
        <time>2019-09-03T07:47:14Z</time>
      </trkpt>
      <trkpt lat="47.11649" lon="1.0216">
        <ele>74</ele>
        <time>2019-09-03T07:47:15Z</time>
      </trkpt>
      <trkpt lat="47.11623" lon="1.0221">
        <ele>75</ele>
        <time>2019-09-03T07:47:24Z</time>
      </trkpt>
      <trkpt lat="47.11602" lon="1.02251">
        <ele>76</ele>
        <time>2019-09-03T07:47:32Z</time>
      </trkpt>
      <trkpt lat="47.11602" lon="1.02251">
        <ele>76</ele>
        <time>2019-09-03T07:47:32Z</time>
      </trkpt>
      <trkpt lat="47.11602" lon="1.02264">
        <ele>76</ele>
        <time>2019-09-03T07:47:34Z</time>
      </trkpt>
      <trkpt lat="47.11602" lon="1.02275">
        <ele>76</ele>
        <time>2019-09-03T07:47:36Z</time>
      </trkpt>
      <trkpt lat="47.11605" lon="1.02289">
        <ele>76</ele>
        <time>2019-09-03T07:47:38Z</time>
      </trkpt>
      <trkpt lat="47.1162" lon="1.0235">
        <ele>78</ele>
        <time>2019-09-03T07:47:48Z</time>
      </trkpt>
      <trkpt lat="47.11645" lon="1.02451">
        <ele>78</ele>
        <time>2019-09-03T07:48:04Z</time>
      </trkpt>
      <trkpt lat="47.11647" lon="1.02458">
        <ele>78</ele>
        <time>2019-09-03T07:48:05Z</time>
      </trkpt>
      <trkpt lat="47.11661" lon="1.02514">
        <ele>79</ele>
        <time>2019-09-03T07:48:14Z</time>
      </trkpt>
      <trkpt lat="47.11663" lon="1.02526">
        <ele>79</ele>
        <time>2019-09-03T07:48:16Z</time>
      </trkpt>
      <trkpt lat="47.11665" lon="1.02536">
        <ele>79</ele>
        <time>2019-09-03T07:48:18Z</time>
      </trkpt>
      <trkpt lat="47.11668" lon="1.0256">
        <ele>80</ele>
        <time>2019-09-03T07:48:22Z</time>
      </trkpt>
      <trkpt lat="47.11669" lon="1.02572">
        <ele>80</ele>
        <time>2019-09-03T07:48:23Z</time>
      </trkpt>
      <trkpt lat="47.11667" lon="1.02592">
        <ele>80</ele>
        <time>2019-09-03T07:48:26Z</time>
      </trkpt>
      <trkpt lat="47.11666" lon="1.026">
        <ele>80</ele>
        <time>2019-09-03T07:48:28Z</time>
      </trkpt>
      <trkpt lat="47.11664" lon="1.02614">
        <ele>80</ele>
        <time>2019-09-03T07:48:30Z</time>
      </trkpt>
      <trkpt lat="47.1166" lon="1.02654">
        <ele>80</ele>
        <time>2019-09-03T07:48:36Z</time>
      </trkpt>
      <trkpt lat="47.11656" lon="1.02693">
        <ele>79</ele>
        <time>2019-09-03T07:48:42Z</time>
      </trkpt>
      <trkpt lat="47.11645" lon="1.02803">
        <ele>81</ele>
        <time>2019-09-03T07:48:59Z</time>
      </trkpt>
      <trkpt lat="47.11641" lon="1.0285">
        <ele>81</ele>
        <time>2019-09-03T07:49:06Z</time>
      </trkpt>
      <trkpt lat="47.11638" lon="1.02875">
        <ele>82</ele>
        <time>2019-09-03T07:49:10Z</time>
      </trkpt>
      <trkpt lat="47.11634" lon="1.02919">
        <ele>83</ele>
        <time>2019-09-03T07:49:17Z</time>
      </trkpt>
      <trkpt lat="47.11631" lon="1.02953">
        <ele>84</ele>
        <time>2019-09-03T07:49:22Z</time>
      </trkpt>
      <trkpt lat="47.11631" lon="1.02954">
        <ele>84</ele>
        <time>2019-09-03T07:49:22Z</time>
      </trkpt>
      <trkpt lat="47.11627" lon="1.02983">
        <ele>85</ele>
        <time>2019-09-03T07:49:26Z</time>
      </trkpt>
      <trkpt lat="47.11619" lon="1.03024">
        <ele>85</ele>
        <time>2019-09-03T07:49:33Z</time>
      </trkpt>
      <trkpt lat="47.11612" lon="1.03051">
        <ele>85</ele>
        <time>2019-09-03T07:49:37Z</time>
      </trkpt>
      <trkpt lat="47.11603" lon="1.0308">
        <ele>85</ele>
        <time>2019-09-03T07:49:42Z</time>
      </trkpt>
      <trkpt lat="47.11601" lon="1.03087">
        <ele>85</ele>
        <time>2019-09-03T07:49:43Z</time>
      </trkpt>
      <trkpt lat="47.11595" lon="1.03103">
        <ele>87</ele>
        <time>2019-09-03T07:49:46Z</time>
      </trkpt>
      <trkpt lat="47.1159" lon="1.03116">
        <ele>87</ele>
        <time>2019-09-03T07:49:48Z</time>
      </trkpt>
      <trkpt lat="47.11575" lon="1.03152">
        <ele>88</ele>
        <time>2019-09-03T07:49:55Z</time>
      </trkpt>
      <trkpt lat="47.11572" lon="1.0316">
        <ele>89</ele>
        <time>2019-09-03T07:49:56Z</time>
      </trkpt>
      <trkpt lat="47.11556" lon="1.03196">
        <ele>89</ele>
        <time>2019-09-03T07:50:03Z</time>
      </trkpt>
      <trkpt lat="47.11526" lon="1.03268">
        <ele>93</ele>
        <time>2019-09-03T07:50:15Z</time>
      </trkpt>
      <trkpt lat="47.11515" lon="1.03289">
        <ele>93</ele>
        <time>2019-09-03T07:50:20Z</time>
      </trkpt>
      <trkpt lat="47.11513" lon="1.03293">
        <ele>95</ele>
        <time>2019-09-03T07:50:20Z</time>
      </trkpt>
      <trkpt lat="47.11505" lon="1.03307">
        <ele>95</ele>
        <time>2019-09-03T07:50:23Z</time>
      </trkpt>
      <trkpt lat="47.11486" lon="1.0333">
        <ele>95</ele>
        <time>2019-09-03T07:50:29Z</time>
      </trkpt>
      <trkpt lat="47.11455" lon="1.03367">
        <ele>97</ele>
        <time>2019-09-03T07:50:37Z</time>
      </trkpt>
      <trkpt lat="47.11445" lon="1.03378">
        <ele>97</ele>
        <time>2019-09-03T07:50:40Z</time>
      </trkpt>
      <trkpt lat="47.11408" lon="1.03419">
        <ele>98</ele>
        <time>2019-09-03T07:50:51Z</time>
      </trkpt>
      <trkpt lat="47.1138" lon="1.03444">
        <ele>100</ele>
        <time>2019-09-03T07:50:58Z</time>
      </trkpt>
      <trkpt lat="47.11361" lon="1.03464">
        <ele>101</ele>
        <time>2019-09-03T07:51:03Z</time>
      </trkpt>
      <trkpt lat="47.11351" lon="1.03478">
        <ele>101</ele>
        <time>2019-09-03T07:51:06Z</time>
      </trkpt>
      <trkpt lat="47.11346" lon="1.0349">
        <ele>102</ele>
        <time>2019-09-03T07:51:08Z</time>
      </trkpt>
      <trkpt lat="47.11345" lon="1.03492">
        <ele>102</ele>
        <time>2019-09-03T07:51:09Z</time>
      </trkpt>
      <trkpt lat="47.11341" lon="1.03506">
        <ele>102</ele>
        <time>2019-09-03T07:51:11Z</time>
      </trkpt>
      <trkpt lat="47.11338" lon="1.03522">
        <ele>102</ele>
        <time>2019-09-03T07:51:13Z</time>
      </trkpt>
      <trkpt lat="47.11338" lon="1.03536">
        <ele>102</ele>
        <time>2019-09-03T07:51:16Z</time>
      </trkpt>
      <trkpt lat="47.11338" lon="1.03552">
        <ele>102</ele>
        <time>2019-09-03T07:51:18Z</time>
      </trkpt>
      <trkpt lat="47.11341" lon="1.03571">
        <ele>103</ele>
        <time>2019-09-03T07:51:21Z</time>
      </trkpt>
      <trkpt lat="47.11349" lon="1.03618">
        <ele>103</ele>
        <time>2019-09-03T07:51:28Z</time>
      </trkpt>
      <trkpt lat="47.11353" lon="1.03657">
        <ele>103</ele>
        <time>2019-09-03T07:51:34Z</time>
      </trkpt>
      <trkpt lat="47.11353" lon="1.03683">
        <ele>103</ele>
        <time>2019-09-03T07:51:38Z</time>
      </trkpt>
      <trkpt lat="47.11352" lon="1.0371">
        <ele>103</ele>
        <time>2019-09-03T07:51:42Z</time>
      </trkpt>
      <trkpt lat="47.11349" lon="1.03742">
        <ele>104</ele>
        <time>2019-09-03T07:51:47Z</time>
      </trkpt>
      <trkpt lat="47.11345" lon="1.03781">
        <ele>106</ele>
        <time>2019-09-03T07:51:53Z</time>
      </trkpt>
      <trkpt lat="47.1134" lon="1.03809">
        <ele>106</ele>
        <time>2019-09-03T07:51:58Z</time>
      </trkpt>
      <trkpt lat="47.11332" lon="1.03847">
        <ele>105</ele>
        <time>2019-09-03T07:52:04Z</time>
      </trkpt>
      <trkpt lat="47.1133" lon="1.03852">
        <ele>105</ele>
        <time>2019-09-03T07:52:05Z</time>
      </trkpt>
      <trkpt lat="47.11319" lon="1.03891">
        <ele>108</ele>
        <time>2019-09-03T07:52:11Z</time>
      </trkpt>
      <trkpt lat="47.11302" lon="1.03954">
        <ele>109</ele>
        <time>2019-09-03T07:52:21Z</time>
      </trkpt>
      <trkpt lat="47.11296" lon="1.03974">
        <ele>109</ele>
        <time>2019-09-03T07:52:25Z</time>
      </trkpt>
      <trkpt lat="47.11272" lon="1.04058">
        <ele>113</ele>
        <time>2019-09-03T07:52:38Z</time>
      </trkpt>
      <trkpt lat="47.1126" lon="1.04102">
        <ele>114</ele>
        <time>2019-09-03T07:52:46Z</time>
      </trkpt>
      <trkpt lat="47.11251" lon="1.04134">
        <ele>115</ele>
        <time>2019-09-03T07:52:51Z</time>
      </trkpt>
      <trkpt lat="47.11223" lon="1.04228">
        <ele>117</ele>
        <time>2019-09-03T07:53:06Z</time>
      </trkpt>
      <trkpt lat="47.11205" lon="1.04289">
        <ele>119</ele>
        <time>2019-09-03T07:53:17Z</time>
      </trkpt>
      <trkpt lat="47.11195" lon="1.04327">
        <ele>120</ele>
        <time>2019-09-03T07:53:23Z</time>
      </trkpt>
      <trkpt lat="47.11193" lon="1.04338">
        <ele>120</ele>
        <time>2019-09-03T07:53:24Z</time>
      </trkpt>
      <trkpt lat="47.11191" lon="1.04349">
        <ele>119</ele>
        <time>2019-09-03T07:53:26Z</time>
      </trkpt>
      <trkpt lat="47.11187" lon="1.0438">
        <ele>120</ele>
        <time>2019-09-03T07:53:31Z</time>
      </trkpt>
      <trkpt lat="47.11185" lon="1.04425">
        <ele>120</ele>
        <time>2019-09-03T07:53:38Z</time>
      </trkpt>
      <trkpt lat="47.11184" lon="1.04469">
        <ele>122</ele>
        <time>2019-09-03T07:53:44Z</time>
      </trkpt>
      <trkpt lat="47.11183" lon="1.04489">
        <ele>122</ele>
        <time>2019-09-03T07:53:48Z</time>
      </trkpt>
      <trkpt lat="47.11182" lon="1.04522">
        <ele>122</ele>
        <time>2019-09-03T07:53:53Z</time>
      </trkpt>
      <trkpt lat="47.11181" lon="1.04541">
        <ele>122</ele>
        <time>2019-09-03T07:53:55Z</time>
      </trkpt>
      <trkpt lat="47.11181" lon="1.04544">
        <ele>122</ele>
        <time>2019-09-03T07:53:56Z</time>
      </trkpt>
      <trkpt lat="47.11179" lon="1.04576">
        <ele>123</ele>
        <time>2019-09-03T07:54:01Z</time>
      </trkpt>
      <trkpt lat="47.11176" lon="1.04602">
        <ele>122</ele>
        <time>2019-09-03T07:54:05Z</time>
      </trkpt>
      <trkpt lat="47.11172" lon="1.04626">
        <ele>122</ele>
        <time>2019-09-03T07:54:09Z</time>
      </trkpt>
      <trkpt lat="47.1117" lon="1.04639">
        <ele>122</ele>
        <time>2019-09-03T07:54:11Z</time>
      </trkpt>
      <trkpt lat="47.11159" lon="1.04697">
        <ele>120</ele>
        <time>2019-09-03T07:54:20Z</time>
      </trkpt>
      <trkpt lat="47.11149" lon="1.04754">
        <ele>118</ele>
        <time>2019-09-03T07:54:29Z</time>
      </trkpt>
      <trkpt lat="47.11146" lon="1.04773">
        <ele>117</ele>
        <time>2019-09-03T07:54:32Z</time>
      </trkpt>
      <trkpt lat="47.11139" lon="1.04813">
        <ele>116</ele>
        <time>2019-09-03T07:54:38Z</time>
      </trkpt>
      <trkpt lat="47.11133" lon="1.04851">
        <ele>117</ele>
        <time>2019-09-03T07:54:44Z</time>
      </trkpt>
      <trkpt lat="47.11132" lon="1.04857">
        <ele>117</ele>
        <time>2019-09-03T07:54:45Z</time>
      </trkpt>
      <trkpt lat="47.11128" lon="1.04883">
        <ele>119</ele>
        <time>2019-09-03T07:54:49Z</time>
      </trkpt>
      <trkpt lat="47.11127" lon="1.04888">
        <ele>119</ele>
        <time>2019-09-03T07:54:50Z</time>
      </trkpt>
      <trkpt lat="47.11126" lon="1.04893">
        <ele>119</ele>
        <time>2019-09-03T07:54:50Z</time>
      </trkpt>
      <trkpt lat="47.11124" lon="1.04919">
        <ele>118</ele>
        <time>2019-09-03T07:54:54Z</time>
      </trkpt>
      <trkpt lat="47.11121" lon="1.04945">
        <ele>118</ele>
        <time>2019-09-03T07:54:58Z</time>
      </trkpt>
      <trkpt lat="47.1112" lon="1.04956">
        <ele>118</ele>
        <time>2019-09-03T07:55:00Z</time>
      </trkpt>
      <trkpt lat="47.11115" lon="1.04998">
        <ele>120</ele>
        <time>2019-09-03T07:55:06Z</time>
      </trkpt>
      <trkpt lat="47.1111" lon="1.05028">
        <ele>121</ele>
        <time>2019-09-03T07:55:11Z</time>
      </trkpt>
      <trkpt lat="47.11104" lon="1.05055">
        <ele>123</ele>
        <time>2019-09-03T07:55:15Z</time>
      </trkpt>
      <trkpt lat="47.11097" lon="1.05087">
        <ele>120</ele>
        <time>2019-09-03T07:55:21Z</time>
      </trkpt>
      <trkpt lat="47.11085" lon="1.05135">
        <ele>125</ele>
        <time>2019-09-03T07:55:28Z</time>
      </trkpt>
      <trkpt lat="47.11082" lon="1.05148">
        <ele>125</ele>
        <time>2019-09-03T07:55:30Z</time>
      </trkpt>
      <trkpt lat="47.11075" lon="1.05176">
        <ele>126</ele>
        <time>2019-09-03T07:55:35Z</time>
      </trkpt>
      <trkpt lat="47.11067" lon="1.0521">
        <ele>121</ele>
        <time>2019-09-03T07:55:40Z</time>
      </trkpt>
      <trkpt lat="47.11063" lon="1.05235">
        <ele>121</ele>
        <time>2019-09-03T07:55:44Z</time>
      </trkpt>
      <trkpt lat="47.11059" lon="1.0526">
        <ele>121</ele>
        <time>2019-09-03T07:55:48Z</time>
      </trkpt>
      <trkpt lat="47.11057" lon="1.05275">
        <ele>121</ele>
        <time>2019-09-03T07:55:51Z</time>
      </trkpt>
      <trkpt lat="47.11054" lon="1.053">
        <ele>122</ele>
        <time>2019-09-03T07:55:54Z</time>
      </trkpt>
      <trkpt lat="47.11054" lon="1.05301">
        <ele>122</ele>
        <time>2019-09-03T07:55:55Z</time>
      </trkpt>
      <trkpt lat="47.11047" lon="1.05354">
        <ele>123</ele>
        <time>2019-09-03T07:56:03Z</time>
      </trkpt>
      <trkpt lat="47.11041" lon="1.05405">
        <ele>126</ele>
        <time>2019-09-03T07:56:11Z</time>
      </trkpt>
      <trkpt lat="47.11038" lon="1.05431">
        <ele>127</ele>
        <time>2019-09-03T07:56:15Z</time>
      </trkpt>
      <trkpt lat="47.11028" lon="1.0551">
        <ele>128</ele>
        <time>2019-09-03T07:56:27Z</time>
      </trkpt>
      <trkpt lat="47.11021" lon="1.05569">
        <ele>129</ele>
        <time>2019-09-03T07:56:36Z</time>
      </trkpt>
      <trkpt lat="47.1102" lon="1.05579">
        <ele>129</ele>
        <time>2019-09-03T07:56:37Z</time>
      </trkpt>
      <trkpt lat="47.11013" lon="1.05635">
        <ele>131</ele>
        <time>2019-09-03T07:56:46Z</time>
      </trkpt>
      <trkpt lat="47.11011" lon="1.05647">
        <ele>131</ele>
        <time>2019-09-03T07:56:48Z</time>
      </trkpt>
      <trkpt lat="47.11007" lon="1.05676">
        <ele>133</ele>
        <time>2019-09-03T07:56:52Z</time>
      </trkpt>
      <trkpt lat="47.11001" lon="1.0571">
        <ele>136</ele>
        <time>2019-09-03T07:56:58Z</time>
      </trkpt>
      <trkpt lat="47.10998" lon="1.05724">
        <ele>136</ele>
        <time>2019-09-03T07:57:00Z</time>
      </trkpt>
      <trkpt lat="47.10996" lon="1.05734">
        <ele>136</ele>
        <time>2019-09-03T07:57:02Z</time>
      </trkpt>
      <trkpt lat="47.10984" lon="1.05775">
        <ele>136</ele>
        <time>2019-09-03T07:57:08Z</time>
      </trkpt>
      <trkpt lat="47.10967" lon="1.05824">
        <ele>135</ele>
        <time>2019-09-03T07:57:17Z</time>
      </trkpt>
      <trkpt lat="47.10963" lon="1.05836">
        <ele>135</ele>
        <time>2019-09-03T07:57:19Z</time>
      </trkpt>
      <trkpt lat="47.10957" lon="1.05859">
        <ele>133</ele>
        <time>2019-09-03T07:57:23Z</time>
      </trkpt>
      <trkpt lat="47.10954" lon="1.05867">
        <ele>133</ele>
        <time>2019-09-03T07:57:24Z</time>
      </trkpt>
      <trkpt lat="47.10948" lon="1.05882">
        <ele>133</ele>
        <time>2019-09-03T07:57:27Z</time>
      </trkpt>
      <trkpt lat="47.10942" lon="1.05901">
        <ele>133</ele>
        <time>2019-09-03T07:57:30Z</time>
      </trkpt>
      <trkpt lat="47.10936" lon="1.05915">
        <ele>134</ele>
        <time>2019-09-03T07:57:32Z</time>
      </trkpt>
      <trkpt lat="47.10927" lon="1.05934">
        <ele>132</ele>
        <time>2019-09-03T07:57:36Z</time>
      </trkpt>
      <trkpt lat="47.10926" lon="1.05936">
        <ele>132</ele>
        <time>2019-09-03T07:57:36Z</time>
      </trkpt>
      <trkpt lat="47.10916" lon="1.05958">
        <ele>132</ele>
        <time>2019-09-03T07:57:40Z</time>
      </trkpt>
      <trkpt lat="47.10899" lon="1.05993">
        <ele>131</ele>
        <time>2019-09-03T07:57:47Z</time>
      </trkpt>
      <trkpt lat="47.1088" lon="1.06035">
        <ele>132</ele>
        <time>2019-09-03T07:57:54Z</time>
      </trkpt>
      <trkpt lat="47.10866" lon="1.06063">
        <ele>131</ele>
        <time>2019-09-03T07:58:00Z</time>
      </trkpt>
      <trkpt lat="47.10865" lon="1.06065">
        <ele>131</ele>
        <time>2019-09-03T07:58:00Z</time>
      </trkpt>
      <trkpt lat="47.1086" lon="1.06078">
        <ele>130</ele>
        <time>2019-09-03T07:58:02Z</time>
      </trkpt>
      <trkpt lat="47.10855" lon="1.06092">
        <ele>130</ele>
        <time>2019-09-03T07:58:05Z</time>
      </trkpt>
      <trkpt lat="47.10845" lon="1.06126">
        <ele>129</ele>
        <time>2019-09-03T07:58:10Z</time>
      </trkpt>
      <trkpt lat="47.10833" lon="1.06167">
        <ele>130</ele>
        <time>2019-09-03T07:58:17Z</time>
      </trkpt>
      <trkpt lat="47.10821" lon="1.06208">
        <ele>130</ele>
        <time>2019-09-03T07:58:24Z</time>
      </trkpt>
      <trkpt lat="47.10809" lon="1.06248">
        <ele>129</ele>
        <time>2019-09-03T07:58:30Z</time>
      </trkpt>
      <trkpt lat="47.10795" lon="1.0629">
        <ele>130</ele>
        <time>2019-09-03T07:58:38Z</time>
      </trkpt>
      <trkpt lat="47.1079" lon="1.06302">
        <ele>131</ele>
        <time>2019-09-03T07:58:40Z</time>
      </trkpt>
      <trkpt lat="47.10788" lon="1.0631">
        <ele>131</ele>
        <time>2019-09-03T07:58:41Z</time>
      </trkpt>
      <trkpt lat="47.10779" lon="1.06332">
        <ele>132</ele>
        <time>2019-09-03T07:58:45Z</time>
      </trkpt>
      <trkpt lat="47.10764" lon="1.06363">
        <ele>132</ele>
        <time>2019-09-03T07:58:51Z</time>
      </trkpt>
      <trkpt lat="47.10752" lon="1.06392">
        <ele>132</ele>
        <time>2019-09-03T07:58:56Z</time>
      </trkpt>
      <trkpt lat="47.10742" lon="1.06414">
        <ele>131</ele>
        <time>2019-09-03T07:59:00Z</time>
      </trkpt>
      <trkpt lat="47.10711" lon="1.06483">
        <ele>133</ele>
        <time>2019-09-03T07:59:12Z</time>
      </trkpt>
      <trkpt lat="47.10695" lon="1.06525">
        <ele>136</ele>
        <time>2019-09-03T07:59:20Z</time>
      </trkpt>
      <trkpt lat="47.10692" lon="1.06538">
        <ele>136</ele>
        <time>2019-09-03T07:59:22Z</time>
      </trkpt>
      <trkpt lat="47.1069" lon="1.0655">
        <ele>137</ele>
        <time>2019-09-03T07:59:24Z</time>
      </trkpt>
      <trkpt lat="47.1069" lon="1.06563">
        <ele>137</ele>
        <time>2019-09-03T07:59:26Z</time>
      </trkpt>
      <trkpt lat="47.10691" lon="1.06598">
        <ele>136</ele>
        <time>2019-09-03T07:59:31Z</time>
      </trkpt>
      <trkpt lat="47.10695" lon="1.06636">
        <ele>136</ele>
        <time>2019-09-03T07:59:37Z</time>
      </trkpt>
      <trkpt lat="47.10696" lon="1.06678">
        <ele>137</ele>
        <time>2019-09-03T07:59:43Z</time>
      </trkpt>
      <trkpt lat="47.10697" lon="1.06695">
        <ele>136</ele>
        <time>2019-09-03T07:59:46Z</time>
      </trkpt>
      <trkpt lat="47.10697" lon="1.06703">
        <ele>136</ele>
        <time>2019-09-03T07:59:47Z</time>
      </trkpt>
      <trkpt lat="47.10704" lon="1.0681">
        <ele>135</ele>
        <time>2019-09-03T08:00:03Z</time>
      </trkpt>
      <trkpt lat="47.1071" lon="1.06939">
        <ele>133</ele>
        <time>2019-09-03T08:00:23Z</time>
      </trkpt>
      <trkpt lat="47.10714" lon="1.06997">
        <ele>134</ele>
        <time>2019-09-03T08:00:32Z</time>
      </trkpt>
      <trkpt lat="47.10717" lon="1.07051">
        <ele>136</ele>
        <time>2019-09-03T08:00:40Z</time>
      </trkpt>
      <trkpt lat="47.10717" lon="1.07063">
        <ele>136</ele>
        <time>2019-09-03T08:00:42Z</time>
      </trkpt>
      <trkpt lat="47.10723" lon="1.07173">
        <ele>137</ele>
        <time>2019-09-03T08:00:58Z</time>
      </trkpt>
      <trkpt lat="47.10725" lon="1.07209">
        <ele>139</ele>
        <time>2019-09-03T08:01:04Z</time>
      </trkpt>
      <trkpt lat="47.10728" lon="1.07274">
        <ele>139</ele>
        <time>2019-09-03T08:01:14Z</time>
      </trkpt>
      <trkpt lat="47.10734" lon="1.07379">
        <ele>135</ele>
        <time>2019-09-03T08:01:30Z</time>
      </trkpt>
      <trkpt lat="47.10736" lon="1.0742">
        <ele>133</ele>
        <time>2019-09-03T08:01:36Z</time>
      </trkpt>
      <trkpt lat="47.10739" lon="1.07469">
        <ele>133</ele>
        <time>2019-09-03T08:01:44Z</time>
      </trkpt>
      <trkpt lat="47.10744" lon="1.07555">
        <ele>133</ele>
        <time>2019-09-03T08:01:57Z</time>
      </trkpt>
      <trkpt lat="47.10748" lon="1.07653">
        <ele>133</ele>
        <time>2019-09-03T08:02:12Z</time>
      </trkpt>
      <trkpt lat="47.10749" lon="1.07667">
        <ele>133</ele>
        <time>2019-09-03T08:02:14Z</time>
      </trkpt>
      <trkpt lat="47.10754" lon="1.07757">
        <ele>133</ele>
        <time>2019-09-03T08:02:27Z</time>
      </trkpt>
      <trkpt lat="47.10759" lon="1.07852">
        <ele>131</ele>
        <time>2019-09-03T08:02:42Z</time>
      </trkpt>
      <trkpt lat="47.10759" lon="1.07861">
        <ele>131</ele>
        <time>2019-09-03T08:02:43Z</time>
      </trkpt>
      <trkpt lat="47.10763" lon="1.07938">
        <ele>132</ele>
        <time>2019-09-03T08:02:55Z</time>
      </trkpt>
      <trkpt lat="47.10767" lon="1.08018">
        <ele>130</ele>
        <time>2019-09-03T08:03:07Z</time>
      </trkpt>
      <trkpt lat="47.10767" lon="1.0802">
        <ele>130</ele>
        <time>2019-09-03T08:03:07Z</time>
      </trkpt>
      <trkpt lat="47.10772" lon="1.08122">
        <ele>131</ele>
        <time>2019-09-03T08:03:23Z</time>
      </trkpt>
      <trkpt lat="47.10773" lon="1.08152">
        <ele>132</ele>
        <time>2019-09-03T08:03:28Z</time>
      </trkpt>
      <trkpt lat="47.10775" lon="1.08205">
        <ele>134</ele>
        <time>2019-09-03T08:03:36Z</time>
      </trkpt>
      <trkpt lat="47.10776" lon="1.08218">
        <ele>133</ele>
        <time>2019-09-03T08:03:38Z</time>
      </trkpt>
      <trkpt lat="47.10778" lon="1.08242">
        <ele>132</ele>
        <time>2019-09-03T08:03:41Z</time>
      </trkpt>
      <trkpt lat="47.10779" lon="1.08255">
        <ele>132</ele>
        <time>2019-09-03T08:03:43Z</time>
      </trkpt>
      <trkpt lat="47.10781" lon="1.08271">
        <ele>131</ele>
        <time>2019-09-03T08:03:46Z</time>
      </trkpt>
      <trkpt lat="47.10785" lon="1.08286">
        <ele>131</ele>
        <time>2019-09-03T08:03:48Z</time>
      </trkpt>
      <trkpt lat="47.10786" lon="1.08288">
        <ele>131</ele>
        <time>2019-09-03T08:03:49Z</time>
      </trkpt>
      <trkpt lat="47.10789" lon="1.08302">
        <ele>131</ele>
        <time>2019-09-03T08:03:51Z</time>
      </trkpt>
      <trkpt lat="47.10796" lon="1.08325">
        <ele>130</ele>
        <time>2019-09-03T08:03:55Z</time>
      </trkpt>
      <trkpt lat="47.10803" lon="1.08343">
        <ele>130</ele>
        <time>2019-09-03T08:03:58Z</time>
      </trkpt>
      <trkpt lat="47.10813" lon="1.08364">
        <ele>129</ele>
        <time>2019-09-03T08:04:02Z</time>
      </trkpt>
      <trkpt lat="47.1082" lon="1.0838">
        <ele>129</ele>
        <time>2019-09-03T08:04:05Z</time>
      </trkpt>
      <trkpt lat="47.10843" lon="1.08431">
        <ele>128</ele>
        <time>2019-09-03T08:04:14Z</time>
      </trkpt>
      <trkpt lat="47.10853" lon="1.08453">
        <ele>129</ele>
        <time>2019-09-03T08:04:18Z</time>
      </trkpt>
      <trkpt lat="47.1086" lon="1.08468">
        <ele>128</ele>
        <time>2019-09-03T08:04:21Z</time>
      </trkpt>
      <trkpt lat="47.1086" lon="1.08469">
        <ele>128</ele>
        <time>2019-09-03T08:04:21Z</time>
      </trkpt>
      <trkpt lat="47.1087" lon="1.0849">
        <ele>126</ele>
        <time>2019-09-03T08:04:25Z</time>
      </trkpt>
      <trkpt lat="47.10881" lon="1.08514">
        <ele>126</ele>
        <time>2019-09-03T08:04:29Z</time>
      </trkpt>
      <trkpt lat="47.10893" lon="1.08544">
        <ele>125</ele>
        <time>2019-09-03T08:04:34Z</time>
      </trkpt>
      <trkpt lat="47.10904" lon="1.08576">
        <ele>127</ele>
        <time>2019-09-03T08:04:40Z</time>
      </trkpt>
      <trkpt lat="47.10911" lon="1.08605">
        <ele>126</ele>
        <time>2019-09-03T08:04:44Z</time>
      </trkpt>
      <trkpt lat="47.10915" lon="1.08633">
        <ele>126</ele>
        <time>2019-09-03T08:04:49Z</time>
      </trkpt>
      <trkpt lat="47.10917" lon="1.08671">
        <ele>125</ele>
        <time>2019-09-03T08:04:55Z</time>
      </trkpt>
      <trkpt lat="47.10919" lon="1.08712">
        <ele>125</ele>
        <time>2019-09-03T08:05:01Z</time>
      </trkpt>
      <trkpt lat="47.1092" lon="1.08726">
        <ele>125</ele>
        <time>2019-09-03T08:05:03Z</time>
      </trkpt>
      <trkpt lat="47.10922" lon="1.08781">
        <ele>124</ele>
        <time>2019-09-03T08:05:11Z</time>
      </trkpt>
      <trkpt lat="47.10924" lon="1.08818">
        <ele>124</ele>
        <time>2019-09-03T08:05:17Z</time>
      </trkpt>
      <trkpt lat="47.10927" lon="1.0884">
        <ele>124</ele>
        <time>2019-09-03T08:05:20Z</time>
      </trkpt>
      <trkpt lat="47.10933" lon="1.08863">
        <ele>126</ele>
        <time>2019-09-03T08:05:24Z</time>
      </trkpt>
      <trkpt lat="47.10934" lon="1.08868">
        <ele>126</ele>
        <time>2019-09-03T08:05:25Z</time>
      </trkpt>
      <trkpt lat="47.10942" lon="1.0889">
        <ele>126</ele>
        <time>2019-09-03T08:05:29Z</time>
      </trkpt>
      <trkpt lat="47.10952" lon="1.0891">
        <ele>126</ele>
        <time>2019-09-03T08:05:32Z</time>
      </trkpt>
      <trkpt lat="47.10965" lon="1.08939">
        <ele>125</ele>
        <time>2019-09-03T08:05:38Z</time>
      </trkpt>
      <trkpt lat="47.10985" lon="1.08976">
        <ele>123</ele>
        <time>2019-09-03T08:05:45Z</time>
      </trkpt>
      <trkpt lat="47.11003" lon="1.09011">
        <ele>124</ele>
        <time>2019-09-03T08:05:51Z</time>
      </trkpt>
      <trkpt lat="47.11014" lon="1.09032">
        <ele>125</ele>
        <time>2019-09-03T08:05:55Z</time>
      </trkpt>
      <trkpt lat="47.11017" lon="1.0904">
        <ele>125</ele>
        <time>2019-09-03T08:05:57Z</time>
      </trkpt>
      <trkpt lat="47.11023" lon="1.09053">
        <ele>124</ele>
        <time>2019-09-03T08:05:59Z</time>
      </trkpt>
      <trkpt lat="47.11031" lon="1.09079">
        <ele>123</ele>
        <time>2019-09-03T08:06:04Z</time>
      </trkpt>
      <trkpt lat="47.11034" lon="1.09103">
        <ele>123</ele>
        <time>2019-09-03T08:06:07Z</time>
      </trkpt>
      <trkpt lat="47.11035" lon="1.09124">
        <ele>123</ele>
        <time>2019-09-03T08:06:10Z</time>
      </trkpt>
      <trkpt lat="47.11033" lon="1.09155">
        <ele>121</ele>
        <time>2019-09-03T08:06:15Z</time>
      </trkpt>
      <trkpt lat="47.1103" lon="1.09193">
        <ele>120</ele>
        <time>2019-09-03T08:06:21Z</time>
      </trkpt>
      <trkpt lat="47.11029" lon="1.09203">
        <ele>120</ele>
        <time>2019-09-03T08:06:23Z</time>
      </trkpt>
      <trkpt lat="47.11025" lon="1.09256">
        <ele>119</ele>
        <time>2019-09-03T08:06:31Z</time>
      </trkpt>
      <trkpt lat="47.11022" lon="1.09289">
        <ele>119</ele>
        <time>2019-09-03T08:06:36Z</time>
      </trkpt>
      <trkpt lat="47.1102" lon="1.09298">
        <ele>120</ele>
        <time>2019-09-03T08:06:37Z</time>
      </trkpt>
      <trkpt lat="47.11015" lon="1.09324">
        <ele>121</ele>
        <time>2019-09-03T08:06:41Z</time>
      </trkpt>
      <trkpt lat="47.11011" lon="1.09347">
        <ele>118</ele>
        <time>2019-09-03T08:06:45Z</time>
      </trkpt>
      <trkpt lat="47.10997" lon="1.09395">
        <ele>119</ele>
        <time>2019-09-03T08:06:53Z</time>
      </trkpt>
      <trkpt lat="47.10991" lon="1.0942">
        <ele>119</ele>
        <time>2019-09-03T08:06:57Z</time>
      </trkpt>
      <trkpt lat="47.10978" lon="1.0947">
        <ele>116</ele>
        <time>2019-09-03T08:07:05Z</time>
      </trkpt>
      <trkpt lat="47.10977" lon="1.09472">
        <ele>116</ele>
        <time>2019-09-03T08:07:05Z</time>
      </trkpt>
      <trkpt lat="47.10963" lon="1.09527">
        <ele>117</ele>
        <time>2019-09-03T08:07:14Z</time>
      </trkpt>
      <trkpt lat="47.10952" lon="1.09569">
        <ele>116</ele>
        <time>2019-09-03T08:07:21Z</time>
      </trkpt>
      <trkpt lat="47.10948" lon="1.09581">
        <ele>117</ele>
        <time>2019-09-03T08:07:23Z</time>
      </trkpt>
      <trkpt lat="47.10939" lon="1.09618">
        <ele>117</ele>
        <time>2019-09-03T08:07:29Z</time>
      </trkpt>
      <trkpt lat="47.10932" lon="1.09643">
        <ele>118</ele>
        <time>2019-09-03T08:07:33Z</time>
      </trkpt>
      <trkpt lat="47.10918" lon="1.09698">
        <ele>123</ele>
        <time>2019-09-03T08:07:42Z</time>
      </trkpt>
      <trkpt lat="47.10916" lon="1.09712">
        <ele>125</ele>
        <time>2019-09-03T08:07:44Z</time>
      </trkpt>
      <trkpt lat="47.10916" lon="1.09718">
        <ele>125</ele>
        <time>2019-09-03T08:07:45Z</time>
      </trkpt>
      <trkpt lat="47.10917" lon="1.09727">
        <ele>125</ele>
        <time>2019-09-03T08:07:47Z</time>
      </trkpt>
      <trkpt lat="47.1092" lon="1.09743">
        <ele>126</ele>
        <time>2019-09-03T08:07:49Z</time>
      </trkpt>
      <trkpt lat="47.10929" lon="1.0977">
        <ele>126</ele>
        <time>2019-09-03T08:07:54Z</time>
      </trkpt>
      <trkpt lat="47.10936" lon="1.09791">
        <ele>126</ele>
        <time>2019-09-03T08:07:57Z</time>
      </trkpt>
      <trkpt lat="47.10939" lon="1.09798">
        <ele>126</ele>
        <time>2019-09-03T08:07:58Z</time>
      </trkpt>
      <trkpt lat="47.10942" lon="1.09815">
        <ele>126</ele>
        <time>2019-09-03T08:08:01Z</time>
      </trkpt>
      <trkpt lat="47.10943" lon="1.0983">
        <ele>127</ele>
        <time>2019-09-03T08:08:03Z</time>
      </trkpt>
      <trkpt lat="47.10942" lon="1.09837">
        <ele>127</ele>
        <time>2019-09-03T08:08:04Z</time>
      </trkpt>
      <trkpt lat="47.10942" lon="1.09849">
        <ele>127</ele>
        <time>2019-09-03T08:08:06Z</time>
      </trkpt>
      <trkpt lat="47.10938" lon="1.09874">
        <ele>127</ele>
        <time>2019-09-03T08:08:10Z</time>
      </trkpt>
      <trkpt lat="47.10935" lon="1.0989">
        <ele>128</ele>
        <time>2019-09-03T08:08:13Z</time>
      </trkpt>
      <trkpt lat="47.10931" lon="1.09902">
        <ele>128</ele>
        <time>2019-09-03T08:08:15Z</time>
      </trkpt>
      <trkpt lat="47.10931" lon="1.09902">
        <ele>128</ele>
        <time>2019-09-03T08:08:15Z</time>
      </trkpt>
      <trkpt lat="47.10924" lon="1.09902">
        <ele>127</ele>
        <time>2019-09-03T08:08:16Z</time>
      </trkpt>
      <trkpt lat="47.10903" lon="1.09904">
        <ele>127</ele>
        <time>2019-09-03T08:08:21Z</time>
      </trkpt>
      <trkpt lat="47.10875" lon="1.09909">
        <ele>125</ele>
        <time>2019-09-03T08:08:27Z</time>
      </trkpt>
      <trkpt lat="47.1085" lon="1.09917">
        <ele>124</ele>
        <time>2019-09-03T08:08:33Z</time>
      </trkpt>
      <trkpt lat="47.10843" lon="1.09921">
        <ele>124</ele>
        <time>2019-09-03T08:08:35Z</time>
      </trkpt>
      <trkpt lat="47.10815" lon="1.09933">
        <ele>122</ele>
        <time>2019-09-03T08:08:41Z</time>
      </trkpt>
      <trkpt lat="47.10788" lon="1.09952">
        <ele>120</ele>
        <time>2019-09-03T08:08:48Z</time>
      </trkpt>
      <trkpt lat="47.10762" lon="1.09972">
        <ele>119</ele>
        <time>2019-09-03T08:08:54Z</time>
      </trkpt>
      <trkpt lat="47.10736" lon="1.09999">
        <ele>116</ele>
        <time>2019-09-03T08:09:01Z</time>
      </trkpt>
      <trkpt lat="47.10728" lon="1.10009">
        <ele>116</ele>
        <time>2019-09-03T08:09:04Z</time>
      </trkpt>
      <trkpt lat="47.10706" lon="1.10036">
        <ele>113</ele>
        <time>2019-09-03T08:09:10Z</time>
      </trkpt>
      <trkpt lat="47.107" lon="1.10044">
        <ele>113</ele>
        <time>2019-09-03T08:09:12Z</time>
      </trkpt>
      <trkpt lat="47.10696" lon="1.10051">
        <ele>113</ele>
        <time>2019-09-03T08:09:13Z</time>
      </trkpt>
      <trkpt lat="47.10684" lon="1.10072">
        <ele>113</ele>
        <time>2019-09-03T08:09:17Z</time>
      </trkpt>
      <trkpt lat="47.10664" lon="1.10109">
        <ele>112</ele>
        <time>2019-09-03T08:09:25Z</time>
      </trkpt>
      <trkpt lat="47.10649" lon="1.10134">
        <ele>111</ele>
        <time>2019-09-03T08:09:30Z</time>
      </trkpt>
      <trkpt lat="47.10646" lon="1.10142">
        <ele>111</ele>
        <time>2019-09-03T08:09:31Z</time>
      </trkpt>
      <trkpt lat="47.10643" lon="1.10147">
        <ele>111</ele>
        <time>2019-09-03T08:09:32Z</time>
      </trkpt>
      <trkpt lat="47.10637" lon="1.10177">
        <ele>110</ele>
        <time>2019-09-03T08:09:37Z</time>
      </trkpt>
      <trkpt lat="47.10629" lon="1.10215">
        <ele>108</ele>
        <time>2019-09-03T08:09:43Z</time>
      </trkpt>
      <trkpt lat="47.10629" lon="1.10215">
        <ele>108</ele>
        <time>2019-09-03T08:09:43Z</time>
      </trkpt>
      <trkpt lat="47.10619" lon="1.10208">
        <ele>108</ele>
        <time>2019-09-03T08:09:46Z</time>
      </trkpt>
      <trkpt lat="47.10604" lon="1.10193">
        <ele>108</ele>
        <time>2019-09-03T08:09:50Z</time>
      </trkpt>
      <trkpt lat="47.10595" lon="1.10177">
        <ele>107</ele>
        <time>2019-09-03T08:09:53Z</time>
      </trkpt>
      <trkpt lat="47.10586" lon="1.10164">
        <ele>107</ele>
        <time>2019-09-03T08:09:56Z</time>
      </trkpt>
      <trkpt lat="47.10567" lon="1.10131">
        <ele>107</ele>
        <time>2019-09-03T08:10:02Z</time>
      </trkpt>
      <trkpt lat="47.10567" lon="1.10131">
        <ele>107</ele>
        <time>2019-09-03T08:10:02Z</time>
      </trkpt>
      <trkpt lat="47.10553" lon="1.10139">
        <ele>107</ele>
        <time>2019-09-03T08:10:06Z</time>
      </trkpt>
      <trkpt lat="47.10541" lon="1.10145">
        <ele>106</ele>
        <time>2019-09-03T08:10:08Z</time>
      </trkpt>
      <trkpt lat="47.10521" lon="1.10155">
        <ele>106</ele>
        <time>2019-09-03T08:10:13Z</time>
      </trkpt>
      <trkpt lat="47.10507" lon="1.10162">
        <ele>105</ele>
        <time>2019-09-03T08:10:16Z</time>
      </trkpt>
      <trkpt lat="47.10496" lon="1.10168">
        <ele>105</ele>
        <time>2019-09-03T08:10:19Z</time>
      </trkpt>
      <trkpt lat="47.10481" lon="1.10173">
        <ele>104</ele>
        <time>2019-09-03T08:10:22Z</time>
      </trkpt>
      <trkpt lat="47.10467" lon="1.10175">
        <ele>104</ele>
        <time>2019-09-03T08:10:26Z</time>
      </trkpt>
      <trkpt lat="47.10443" lon="1.10174">
        <ele>104</ele>
        <time>2019-09-03T08:10:31Z</time>
      </trkpt>
      <trkpt lat="47.10425" lon="1.10175">
        <ele>103</ele>
        <time>2019-09-03T08:10:35Z</time>
      </trkpt>
      <trkpt lat="47.10419" lon="1.10178">
        <ele>103</ele>
        <time>2019-09-03T08:10:36Z</time>
      </trkpt>
      <trkpt lat="47.10414" lon="1.10181">
        <ele>105</ele>
        <time>2019-09-03T08:10:37Z</time>
      </trkpt>
      <trkpt lat="47.10403" lon="1.10193">
        <ele>105</ele>
        <time>2019-09-03T08:10:41Z</time>
      </trkpt>
      <trkpt lat="47.10388" lon="1.10216">
        <ele>104</ele>
        <time>2019-09-03T08:10:45Z</time>
      </trkpt>
      <trkpt lat="47.10379" lon="1.1023">
        <ele>104</ele>
        <time>2019-09-03T08:10:48Z</time>
      </trkpt>
      <trkpt lat="47.10371" lon="1.10238">
        <ele>104</ele>
        <time>2019-09-03T08:10:50Z</time>
      </trkpt>
      <trkpt lat="47.10363" lon="1.10242">
        <ele>104</ele>
        <time>2019-09-03T08:10:52Z</time>
      </trkpt>
      <trkpt lat="47.10355" lon="1.10243">
        <ele>104</ele>
        <time>2019-09-03T08:10:54Z</time>
      </trkpt>
      <trkpt lat="47.1035" lon="1.10242">
        <ele>104</ele>
        <time>2019-09-03T08:10:55Z</time>
      </trkpt>
      <trkpt lat="47.10344" lon="1.10238">
        <ele>103</ele>
        <time>2019-09-03T08:10:57Z</time>
      </trkpt>
      <trkpt lat="47.1033" lon="1.10225">
        <ele>102</ele>
        <time>2019-09-03T08:11:00Z</time>
      </trkpt>
      <trkpt lat="47.10322" lon="1.10214">
        <ele>102</ele>
        <time>2019-09-03T08:11:03Z</time>
      </trkpt>
      <trkpt lat="47.10318" lon="1.10208">
        <ele>102</ele>
        <time>2019-09-03T08:11:04Z</time>
      </trkpt>
      <trkpt lat="47.10314" lon="1.10203">
        <ele>102</ele>
        <time>2019-09-03T08:11:05Z</time>
      </trkpt>
      <trkpt lat="47.1029" lon="1.10166">
        <ele>102</ele>
        <time>2019-09-03T08:11:13Z</time>
      </trkpt>
      <trkpt lat="47.10289" lon="1.10165">
        <ele>102</ele>
        <time>2019-09-03T08:11:13Z</time>
      </trkpt>
      <trkpt lat="47.10254" lon="1.10111">
        <ele>106</ele>
        <time>2019-09-03T08:11:25Z</time>
      </trkpt>
      <trkpt lat="47.10239" lon="1.1009">
        <ele>106</ele>
        <time>2019-09-03T08:11:29Z</time>
      </trkpt>
      <trkpt lat="47.10235" lon="1.10084">
        <ele>108</ele>
        <time>2019-09-03T08:11:30Z</time>
      </trkpt>
      <trkpt lat="47.1022" lon="1.10071">
        <ele>108</ele>
        <time>2019-09-03T08:11:34Z</time>
      </trkpt>
      <trkpt lat="47.10208" lon="1.10067">
        <ele>110</ele>
        <time>2019-09-03T08:11:37Z</time>
      </trkpt>
      <trkpt lat="47.10195" lon="1.10065">
        <ele>110</ele>
        <time>2019-09-03T08:11:40Z</time>
      </trkpt>
      <trkpt lat="47.10179" lon="1.10068">
        <ele>111</ele>
        <time>2019-09-03T08:11:44Z</time>
      </trkpt>
      <trkpt lat="47.10171" lon="1.10071">
        <ele>111</ele>
        <time>2019-09-03T08:11:45Z</time>
      </trkpt>
      <trkpt lat="47.10152" lon="1.10078">
        <ele>112</ele>
        <time>2019-09-03T08:11:50Z</time>
      </trkpt>
      <trkpt lat="47.1014" lon="1.10083">
        <ele>112</ele>
        <time>2019-09-03T08:11:53Z</time>
      </trkpt>
      <trkpt lat="47.10119" lon="1.10091">
        <ele>114</ele>
        <time>2019-09-03T08:11:57Z</time>
      </trkpt>
      <trkpt lat="47.10083" lon="1.10106">
        <ele>115</ele>
        <time>2019-09-03T08:12:06Z</time>
      </trkpt>
      <trkpt lat="47.10067" lon="1.10112">
        <ele>116</ele>
        <time>2019-09-03T08:12:09Z</time>
      </trkpt>
      <trkpt lat="47.10033" lon="1.10127">
        <ele>116</ele>
        <time>2019-09-03T08:12:17Z</time>
      </trkpt>
      <trkpt lat="47.09981" lon="1.10148">
        <ele>119</ele>
        <time>2019-09-03T08:12:29Z</time>
      </trkpt>
      <trkpt lat="47.09911" lon="1.10176">
        <ele>118</ele>
        <time>2019-09-03T08:12:45Z</time>
      </trkpt>
      <trkpt lat="47.09866" lon="1.10194">
        <ele>117</ele>
        <time>2019-09-03T08:12:56Z</time>
      </trkpt>
      <trkpt lat="47.09842" lon="1.10204">
        <ele>117</ele>
        <time>2019-09-03T08:13:01Z</time>
      </trkpt>
      <trkpt lat="47.09762" lon="1.10236">
        <ele>117</ele>
        <time>2019-09-03T08:13:20Z</time>
      </trkpt>
      <trkpt lat="47.09703" lon="1.1026">
        <ele>118</ele>
        <time>2019-09-03T08:13:33Z</time>
      </trkpt>
      <trkpt lat="47.09668" lon="1.10274">
        <ele>118</ele>
        <time>2019-09-03T08:13:41Z</time>
      </trkpt>
      <trkpt lat="47.09651" lon="1.10281">
        <ele>118</ele>
        <time>2019-09-03T08:13:45Z</time>
      </trkpt>
      <trkpt lat="47.09617" lon="1.10295">
        <ele>117</ele>
        <time>2019-09-03T08:13:53Z</time>
      </trkpt>
      <trkpt lat="47.09583" lon="1.10309">
        <ele>121</ele>
        <time>2019-09-03T08:14:01Z</time>
      </trkpt>
      <trkpt lat="47.09555" lon="1.10321">
        <ele>126</ele>
        <time>2019-09-03T08:14:08Z</time>
      </trkpt>
      <trkpt lat="47.09538" lon="1.10329">
        <ele>128</ele>
        <time>2019-09-03T08:14:12Z</time>
      </trkpt>
      <trkpt lat="47.09515" lon="1.10338">
        <ele>128</ele>
        <time>2019-09-03T08:14:17Z</time>
      </trkpt>
      <trkpt lat="47.09468" lon="1.10357">
        <ele>132</ele>
        <time>2019-09-03T08:14:28Z</time>
      </trkpt>
      <trkpt lat="47.09451" lon="1.10364">
        <ele>132</ele>
        <time>2019-09-03T08:14:32Z</time>
      </trkpt>
      <trkpt lat="47.0944" lon="1.10368">
        <ele>132</ele>
        <time>2019-09-03T08:14:34Z</time>
      </trkpt>
      <trkpt lat="47.09399" lon="1.10385">
        <ele>133</ele>
        <time>2019-09-03T08:14:44Z</time>
      </trkpt>
      <trkpt lat="47.09369" lon="1.10397">
        <ele>135</ele>
        <time>2019-09-03T08:14:51Z</time>
      </trkpt>
      <trkpt lat="47.09364" lon="1.10398">
        <ele>135</ele>
        <time>2019-09-03T08:14:52Z</time>
      </trkpt>
      <trkpt lat="47.09347" lon="1.10404">
        <ele>135</ele>
        <time>2019-09-03T08:14:56Z</time>
      </trkpt>
      <trkpt lat="47.09305" lon="1.10418">
        <ele>135</ele>
        <time>2019-09-03T08:15:05Z</time>
      </trkpt>
      <trkpt lat="47.09242" lon="1.10441">
        <ele>136</ele>
        <time>2019-09-03T08:15:20Z</time>
      </trkpt>
      <trkpt lat="47.09224" lon="1.10447">
        <ele>137</ele>
        <time>2019-09-03T08:15:24Z</time>
      </trkpt>
      <trkpt lat="47.09214" lon="1.10451">
        <ele>137</ele>
        <time>2019-09-03T08:15:26Z</time>
      </trkpt>
      <trkpt lat="47.09192" lon="1.10459">
        <ele>137</ele>
        <time>2019-09-03T08:15:31Z</time>
      </trkpt>
      <trkpt lat="47.09179" lon="1.10463">
        <ele>136</ele>
        <time>2019-09-03T08:15:34Z</time>
      </trkpt>
      <trkpt lat="47.09178" lon="1.10463">
        <ele>136</ele>
        <time>2019-09-03T08:15:34Z</time>
      </trkpt>
      <trkpt lat="47.09164" lon="1.10466">
        <ele>136</ele>
        <time>2019-09-03T08:15:37Z</time>
      </trkpt>
      <trkpt lat="47.09148" lon="1.10467">
        <ele>136</ele>
        <time>2019-09-03T08:15:41Z</time>
      </trkpt>
      <trkpt lat="47.09124" lon="1.10468">
        <ele>136</ele>
        <time>2019-09-03T08:15:46Z</time>
      </trkpt>
      <trkpt lat="47.09053" lon="1.10469">
        <ele>134</ele>
        <time>2019-09-03T08:16:02Z</time>
      </trkpt>
      <trkpt lat="47.09015" lon="1.1047">
        <ele>133</ele>
        <time>2019-09-03T08:16:11Z</time>
      </trkpt>
      <trkpt lat="47.08969" lon="1.10469">
        <ele>131</ele>
        <time>2019-09-03T08:16:21Z</time>
      </trkpt>
      <trkpt lat="47.08958" lon="1.1047">
        <ele>131</ele>
        <time>2019-09-03T08:16:23Z</time>
      </trkpt>
      <trkpt lat="47.08922" lon="1.10472">
        <ele>131</ele>
        <time>2019-09-03T08:16:31Z</time>
      </trkpt>
      <trkpt lat="47.08921" lon="1.10472">
        <ele>131</ele>
        <time>2019-09-03T08:16:31Z</time>
      </trkpt>
      <trkpt lat="47.08904" lon="1.10472">
        <ele>131</ele>
        <time>2019-09-03T08:16:35Z</time>
      </trkpt>
      <trkpt lat="47.08886" lon="1.10472">
        <ele>131</ele>
        <time>2019-09-03T08:16:39Z</time>
      </trkpt>
      <trkpt lat="47.08869" lon="1.10472">
        <ele>131</ele>
        <time>2019-09-03T08:16:43Z</time>
      </trkpt>
      <trkpt lat="47.08852" lon="1.10472">
        <ele>131</ele>
        <time>2019-09-03T08:16:47Z</time>
      </trkpt>
      <trkpt lat="47.0885" lon="1.10472">
        <ele>131</ele>
        <time>2019-09-03T08:16:47Z</time>
      </trkpt>
      <trkpt lat="47.08832" lon="1.10471">
        <ele>132</ele>
        <time>2019-09-03T08:16:51Z</time>
      </trkpt>
      <trkpt lat="47.08814" lon="1.10471">
        <ele>133</ele>
        <time>2019-09-03T08:16:55Z</time>
      </trkpt>
      <trkpt lat="47.08811" lon="1.10471">
        <ele>133</ele>
        <time>2019-09-03T08:16:56Z</time>
      </trkpt>
      <trkpt lat="47.08741" lon="1.10471">
        <ele>135</ele>
        <time>2019-09-03T08:17:12Z</time>
      </trkpt>
      <trkpt lat="47.08654" lon="1.10472">
        <ele>137</ele>
        <time>2019-09-03T08:17:31Z</time>
      </trkpt>
      <trkpt lat="47.0858" lon="1.10473">
        <ele>143</ele>
        <time>2019-09-03T08:17:47Z</time>
      </trkpt>
      <trkpt lat="47.08574" lon="1.10473">
        <ele>143</ele>
        <time>2019-09-03T08:17:49Z</time>
      </trkpt>
      <trkpt lat="47.08526" lon="1.10473">
        <ele>140</ele>
        <time>2019-09-03T08:17:59Z</time>
      </trkpt>
      <trkpt lat="47.0851" lon="1.10473">
        <ele>140</ele>
        <time>2019-09-03T08:18:03Z</time>
      </trkpt>
      <trkpt lat="47.08456" lon="1.10473">
        <ele>141</ele>
        <time>2019-09-03T08:18:15Z</time>
      </trkpt>
      <trkpt lat="47.08435" lon="1.10474">
        <ele>141</ele>
        <time>2019-09-03T08:18:20Z</time>
      </trkpt>
      <trkpt lat="47.08396" lon="1.10475">
        <ele>141</ele>
        <time>2019-09-03T08:18:28Z</time>
      </trkpt>
      <trkpt lat="47.08384" lon="1.10475">
        <ele>141</ele>
        <time>2019-09-03T08:18:31Z</time>
      </trkpt>
      <trkpt lat="47.08374" lon="1.10475">
        <ele>141</ele>
        <time>2019-09-03T08:18:33Z</time>
      </trkpt>
      <trkpt lat="47.08367" lon="1.10473">
        <ele>141</ele>
        <time>2019-09-03T08:18:35Z</time>
      </trkpt>
      <trkpt lat="47.08358" lon="1.10472">
        <ele>141</ele>
        <time>2019-09-03T08:18:37Z</time>
      </trkpt>
      <trkpt lat="47.08348" lon="1.10468">
        <ele>141</ele>
        <time>2019-09-03T08:18:39Z</time>
      </trkpt>
      <trkpt lat="47.08337" lon="1.10461">
        <ele>140</ele>
        <time>2019-09-03T08:18:42Z</time>
      </trkpt>
      <trkpt lat="47.0832" lon="1.10445">
        <ele>140</ele>
        <time>2019-09-03T08:18:46Z</time>
      </trkpt>
      <trkpt lat="47.08255" lon="1.1038">
        <ele>136</ele>
        <time>2019-09-03T08:19:04Z</time>
      </trkpt>
      <trkpt lat="47.08243" lon="1.10369">
        <ele>136</ele>
        <time>2019-09-03T08:19:07Z</time>
      </trkpt>
      <trkpt lat="47.08198" lon="1.10325">
        <ele>136</ele>
        <time>2019-09-03T08:19:19Z</time>
      </trkpt>
      <trkpt lat="47.08137" lon="1.10264">
        <ele>134</ele>
        <time>2019-09-03T08:19:35Z</time>
      </trkpt>
      <trkpt lat="47.08123" lon="1.10252">
        <ele>132</ele>
        <time>2019-09-03T08:19:39Z</time>
      </trkpt>
      <trkpt lat="47.08082" lon="1.10213">
        <ele>130</ele>
        <time>2019-09-03T08:19:50Z</time>
      </trkpt>
      <trkpt lat="47.08047" lon="1.10179">
        <ele>129</ele>
        <time>2019-09-03T08:19:59Z</time>
      </trkpt>
      <trkpt lat="47.08042" lon="1.10173">
        <ele>129</ele>
        <time>2019-09-03T08:20:01Z</time>
      </trkpt>
      <trkpt lat="47.08034" lon="1.10166">
        <ele>128</ele>
        <time>2019-09-03T08:20:03Z</time>
      </trkpt>
      <trkpt lat="47.08025" lon="1.10161">
        <ele>128</ele>
        <time>2019-09-03T08:20:05Z</time>
      </trkpt>
      <trkpt lat="47.0802" lon="1.10159">
        <ele>128</ele>
        <time>2019-09-03T08:20:06Z</time>
      </trkpt>
      <trkpt lat="47.08013" lon="1.10157">
        <ele>127</ele>
        <time>2019-09-03T08:20:08Z</time>
      </trkpt>
      <trkpt lat="47.07998" lon="1.10155">
        <ele>127</ele>
        <time>2019-09-03T08:20:11Z</time>
      </trkpt>
      <trkpt lat="47.07978" lon="1.10151">
        <ele>128</ele>
        <time>2019-09-03T08:20:15Z</time>
      </trkpt>
      <trkpt lat="47.07977" lon="1.1015">
        <ele>128</ele>
        <time>2019-09-03T08:20:16Z</time>
      </trkpt>
      <trkpt lat="47.07972" lon="1.10149">
        <ele>128</ele>
        <time>2019-09-03T08:20:17Z</time>
      </trkpt>
      <trkpt lat="47.07967" lon="1.10146">
        <ele>128</ele>
        <time>2019-09-03T08:20:18Z</time>
      </trkpt>
      <trkpt lat="47.07959" lon="1.10142">
        <ele>128</ele>
        <time>2019-09-03T08:20:20Z</time>
      </trkpt>
      <trkpt lat="47.07954" lon="1.10138">
        <ele>126</ele>
        <time>2019-09-03T08:20:21Z</time>
      </trkpt>
      <trkpt lat="47.07949" lon="1.10134">
        <ele>126</ele>
        <time>2019-09-03T08:20:22Z</time>
      </trkpt>
      <trkpt lat="47.07946" lon="1.10131">
        <ele>126</ele>
        <time>2019-09-03T08:20:23Z</time>
      </trkpt>
      <trkpt lat="47.07941" lon="1.10126">
        <ele>126</ele>
        <time>2019-09-03T08:20:25Z</time>
      </trkpt>
      <trkpt lat="47.07938" lon="1.10123">
        <ele>129</ele>
        <time>2019-09-03T08:20:25Z</time>
      </trkpt>
      <trkpt lat="47.07931" lon="1.10113">
        <ele>129</ele>
        <time>2019-09-03T08:20:28Z</time>
      </trkpt>
      <trkpt lat="47.07928" lon="1.10108">
        <ele>124</ele>
        <time>2019-09-03T08:20:29Z</time>
      </trkpt>
      <trkpt lat="47.0792" lon="1.10095">
        <ele>126</ele>
        <time>2019-09-03T08:20:31Z</time>
      </trkpt>
      <trkpt lat="47.07898" lon="1.1005">
        <ele>123</ele>
        <time>2019-09-03T08:20:40Z</time>
      </trkpt>
      <trkpt lat="47.07873" lon="1.09995">
        <ele>117</ele>
        <time>2019-09-03T08:20:50Z</time>
      </trkpt>
      <trkpt lat="47.07835" lon="1.09913">
        <ele>116</ele>
        <time>2019-09-03T08:21:05Z</time>
      </trkpt>
      <trkpt lat="47.07803" lon="1.09853">
        <ele>113</ele>
        <time>2019-09-03T08:21:16Z</time>
      </trkpt>
      <trkpt lat="47.07774" lon="1.09809">
        <ele>110</ele>
        <time>2019-09-03T08:21:26Z</time>
      </trkpt>
      <trkpt lat="47.07769" lon="1.09802">
        <ele>110</ele>
        <time>2019-09-03T08:21:27Z</time>
      </trkpt>
      <trkpt lat="47.0776" lon="1.09795">
        <ele>107</ele>
        <time>2019-09-03T08:21:29Z</time>
      </trkpt>
      <trkpt lat="47.07754" lon="1.0979">
        <ele>105</ele>
        <time>2019-09-03T08:21:31Z</time>
      </trkpt>
      <trkpt lat="47.07734" lon="1.09778">
        <ele>102</ele>
        <time>2019-09-03T08:21:36Z</time>
      </trkpt>
      <trkpt lat="47.07713" lon="1.09765">
        <ele>102</ele>
        <time>2019-09-03T08:21:41Z</time>
      </trkpt>
      <trkpt lat="47.07683" lon="1.09747">
        <ele>102</ele>
        <time>2019-09-03T08:21:48Z</time>
      </trkpt>
      <trkpt lat="47.0764" lon="1.09722">
        <ele>103</ele>
        <time>2019-09-03T08:21:58Z</time>
      </trkpt>
      <trkpt lat="47.07637" lon="1.09721">
        <ele>103</ele>
        <time>2019-09-03T08:21:59Z</time>
      </trkpt>
      <trkpt lat="47.07618" lon="1.09714">
        <ele>101</ele>
        <time>2019-09-03T08:22:03Z</time>
      </trkpt>
      <trkpt lat="47.07602" lon="1.09712">
        <ele>101</ele>
        <time>2019-09-03T08:22:07Z</time>
      </trkpt>
      <trkpt lat="47.07583" lon="1.09713">
        <ele>99</ele>
        <time>2019-09-03T08:22:11Z</time>
      </trkpt>
      <trkpt lat="47.07579" lon="1.09714">
        <ele>99</ele>
        <time>2019-09-03T08:22:12Z</time>
      </trkpt>
      <trkpt lat="47.07568" lon="1.09715">
        <ele>97</ele>
        <time>2019-09-03T08:22:15Z</time>
      </trkpt>
      <trkpt lat="47.07564" lon="1.09716">
        <ele>97</ele>
        <time>2019-09-03T08:22:15Z</time>
      </trkpt>
      <trkpt lat="47.07559" lon="1.09717">
        <ele>97</ele>
        <time>2019-09-03T08:22:17Z</time>
      </trkpt>
      <trkpt lat="47.07534" lon="1.09715">
        <ele>95</ele>
        <time>2019-09-03T08:22:22Z</time>
      </trkpt>
      <trkpt lat="47.07502" lon="1.09714">
        <ele>93</ele>
        <time>2019-09-03T08:22:29Z</time>
      </trkpt>
      <trkpt lat="47.07425" lon="1.09705">
        <ele>88</ele>
        <time>2019-09-03T08:22:47Z</time>
      </trkpt>
      <trkpt lat="47.07401" lon="1.09704">
        <ele>87</ele>
        <time>2019-09-03T08:22:52Z</time>
      </trkpt>
      <trkpt lat="47.07396" lon="1.09703">
        <ele>87</ele>
        <time>2019-09-03T08:22:53Z</time>
      </trkpt>
      <trkpt lat="47.07378" lon="1.09703">
        <ele>87</ele>
        <time>2019-09-03T08:22:57Z</time>
      </trkpt>
      <trkpt lat="47.07373" lon="1.09703">
        <ele>88</ele>
        <time>2019-09-03T08:22:58Z</time>
      </trkpt>
      <trkpt lat="47.07369" lon="1.09703">
        <ele>88</ele>
        <time>2019-09-03T08:22:59Z</time>
      </trkpt>
      <trkpt lat="47.07369" lon="1.09703">
        <ele>88</ele>
        <time>2019-09-03T08:22:59Z</time>
      </trkpt>
      <trkpt lat="47.07366" lon="1.09704">
        <ele>88</ele>
        <time>2019-09-03T08:23:00Z</time>
      </trkpt>
      <trkpt lat="47.07352" lon="1.09707">
        <ele>88</ele>
        <time>2019-09-03T08:23:03Z</time>
      </trkpt>
      <trkpt lat="47.07306" lon="1.09716">
        <ele>88</ele>
        <time>2019-09-03T08:23:13Z</time>
      </trkpt>
      <trkpt lat="47.07273" lon="1.09726">
        <ele>88</ele>
        <time>2019-09-03T08:23:21Z</time>
      </trkpt>
      <trkpt lat="47.07269" lon="1.09727">
        <ele>88</ele>
        <time>2019-09-03T08:23:22Z</time>
      </trkpt>
      <trkpt lat="47.07265" lon="1.09729">
        <ele>88</ele>
        <time>2019-09-03T08:23:23Z</time>
      </trkpt>
      <trkpt lat="47.07256" lon="1.09735">
        <ele>90</ele>
        <time>2019-09-03T08:23:25Z</time>
      </trkpt>
      <trkpt lat="47.07252" lon="1.09738">
        <ele>91</ele>
        <time>2019-09-03T08:23:26Z</time>
      </trkpt>
      <trkpt lat="47.0721" lon="1.0977">
        <ele>94</ele>
        <time>2019-09-03T08:23:36Z</time>
      </trkpt>
      <trkpt lat="47.07152" lon="1.09812">
        <ele>104</ele>
        <time>2019-09-03T08:23:51Z</time>
      </trkpt>
      <trkpt lat="47.07108" lon="1.09844">
        <ele>108</ele>
        <time>2019-09-03T08:24:02Z</time>
      </trkpt>
      <trkpt lat="47.07065" lon="1.09876">
        <ele>114</ele>
        <time>2019-09-03T08:24:12Z</time>
      </trkpt>
      <trkpt lat="47.07055" lon="1.09884">
        <ele>114</ele>
        <time>2019-09-03T08:24:15Z</time>
      </trkpt>
      <trkpt lat="47.07031" lon="1.09896">
        <ele>117</ele>
        <time>2019-09-03T08:24:21Z</time>
      </trkpt>
      <trkpt lat="47.07022" lon="1.099">
        <ele>117</ele>
        <time>2019-09-03T08:24:23Z</time>
      </trkpt>
      <trkpt lat="47.07013" lon="1.09903">
        <ele>119</ele>
        <time>2019-09-03T08:24:25Z</time>
      </trkpt>
      <trkpt lat="47.07" lon="1.09906">
        <ele>119</ele>
        <time>2019-09-03T08:24:28Z</time>
      </trkpt>
      <trkpt lat="47.06957" lon="1.09916">
        <ele>117</ele>
        <time>2019-09-03T08:24:37Z</time>
      </trkpt>
      <trkpt lat="47.06947" lon="1.09918">
        <ele>117</ele>
        <time>2019-09-03T08:24:40Z</time>
      </trkpt>
      <trkpt lat="47.06921" lon="1.09923">
        <ele>117</ele>
        <time>2019-09-03T08:24:46Z</time>
      </trkpt>
      <trkpt lat="47.06921" lon="1.09923">
        <ele>117</ele>
        <time>2019-09-03T08:24:46Z</time>
      </trkpt>
      <trkpt lat="47.06886" lon="1.09933">
        <ele>117</ele>
        <time>2019-09-03T08:24:54Z</time>
      </trkpt>
      <trkpt lat="47.06876" lon="1.09935">
        <ele>117</ele>
        <time>2019-09-03T08:24:56Z</time>
      </trkpt>
      <trkpt lat="47.06868" lon="1.09937">
        <ele>114</ele>
        <time>2019-09-03T08:24:58Z</time>
      </trkpt>
      <trkpt lat="47.06837" lon="1.09946">
        <ele>112</ele>
        <time>2019-09-03T08:25:05Z</time>
      </trkpt>
      <trkpt lat="47.06808" lon="1.09952">
        <ele>111</ele>
        <time>2019-09-03T08:25:11Z</time>
      </trkpt>
      <trkpt lat="47.06781" lon="1.09954">
        <ele>111</ele>
        <time>2019-09-03T08:25:17Z</time>
      </trkpt>
      <trkpt lat="47.06761" lon="1.09953">
        <ele>110</ele>
        <time>2019-09-03T08:25:22Z</time>
      </trkpt>
      <trkpt lat="47.06757" lon="1.09952">
        <ele>110</ele>
        <time>2019-09-03T08:25:23Z</time>
      </trkpt>
      <trkpt lat="47.06739" lon="1.09948">
        <ele>110</ele>
        <time>2019-09-03T08:25:27Z</time>
      </trkpt>
      <trkpt lat="47.06735" lon="1.09947">
        <ele>110</ele>
        <time>2019-09-03T08:25:28Z</time>
      </trkpt>
      <trkpt lat="47.0672" lon="1.0994">
        <ele>110</ele>
        <time>2019-09-03T08:25:31Z</time>
      </trkpt>
      <trkpt lat="47.06688" lon="1.09923">
        <ele>107</ele>
        <time>2019-09-03T08:25:39Z</time>
      </trkpt>
      <trkpt lat="47.06639" lon="1.09893">
        <ele>108</ele>
        <time>2019-09-03T08:25:50Z</time>
      </trkpt>
      <trkpt lat="47.06624" lon="1.09885">
        <ele>108</ele>
        <time>2019-09-03T08:25:54Z</time>
      </trkpt>
      <trkpt lat="47.06607" lon="1.09877">
        <ele>108</ele>
        <time>2019-09-03T08:25:58Z</time>
      </trkpt>
      <trkpt lat="47.06588" lon="1.09867">
        <ele>104</ele>
        <time>2019-09-03T08:26:02Z</time>
      </trkpt>
      <trkpt lat="47.06572" lon="1.0986">
        <ele>104</ele>
        <time>2019-09-03T08:26:06Z</time>
      </trkpt>
      <trkpt lat="47.06551" lon="1.09851">
        <ele>103</ele>
        <time>2019-09-03T08:26:11Z</time>
      </trkpt>
      <trkpt lat="47.06538" lon="1.09847">
        <ele>101</ele>
        <time>2019-09-03T08:26:14Z</time>
      </trkpt>
      <trkpt lat="47.0653" lon="1.09844">
        <ele>101</ele>
        <time>2019-09-03T08:26:16Z</time>
      </trkpt>
      <trkpt lat="47.06499" lon="1.09839">
        <ele>100</ele>
        <time>2019-09-03T08:26:23Z</time>
      </trkpt>
      <trkpt lat="47.06449" lon="1.09829">
        <ele>95</ele>
        <time>2019-09-03T08:26:34Z</time>
      </trkpt>
      <trkpt lat="47.06431" lon="1.09827">
        <ele>95</ele>
        <time>2019-09-03T08:26:38Z</time>
      </trkpt>
      <trkpt lat="47.06384" lon="1.0982">
        <ele>92</ele>
        <time>2019-09-03T08:26:49Z</time>
      </trkpt>
      <trkpt lat="47.06376" lon="1.09818">
        <ele>92</ele>
        <time>2019-09-03T08:26:50Z</time>
      </trkpt>
      <trkpt lat="47.06376" lon="1.09818">
        <ele>92</ele>
        <time>2019-09-03T08:26:50Z</time>
      </trkpt>
      <trkpt lat="47.06335" lon="1.09811">
        <ele>88</ele>
        <time>2019-09-03T08:27:00Z</time>
      </trkpt>
      <trkpt lat="47.06293" lon="1.09805">
        <ele>86</ele>
        <time>2019-09-03T08:27:09Z</time>
      </trkpt>
      <trkpt lat="47.06269" lon="1.098">
        <ele>84</ele>
        <time>2019-09-03T08:27:14Z</time>
      </trkpt>
      <trkpt lat="47.06269" lon="1.098">
        <ele>84</ele>
        <time>2019-09-03T08:27:15Z</time>
      </trkpt>
      <trkpt lat="47.06257" lon="1.09806">
        <ele>82</ele>
        <time>2019-09-03T08:27:17Z</time>
      </trkpt>
      <trkpt lat="47.06254" lon="1.09808">
        <ele>82</ele>
        <time>2019-09-03T08:27:18Z</time>
      </trkpt>
      <trkpt lat="47.0625" lon="1.0981">
        <ele>82</ele>
        <time>2019-09-03T08:27:19Z</time>
      </trkpt>
      <trkpt lat="47.06237" lon="1.09818">
        <ele>82</ele>
        <time>2019-09-03T08:27:22Z</time>
      </trkpt>
      <trkpt lat="47.06218" lon="1.09832">
        <ele>84</ele>
        <time>2019-09-03T08:27:27Z</time>
      </trkpt>
      <trkpt lat="47.06204" lon="1.09841">
        <ele>87</ele>
        <time>2019-09-03T08:27:30Z</time>
      </trkpt>
      <trkpt lat="47.06201" lon="1.09843">
        <ele>87</ele>
        <time>2019-09-03T08:27:31Z</time>
      </trkpt>
      <trkpt lat="47.06185" lon="1.09853">
        <ele>87</ele>
        <time>2019-09-03T08:27:35Z</time>
      </trkpt>
      <trkpt lat="47.06177" lon="1.09857">
        <ele>89</ele>
        <time>2019-09-03T08:27:37Z</time>
      </trkpt>
      <trkpt lat="47.06168" lon="1.09863">
        <ele>89</ele>
        <time>2019-09-03T08:27:39Z</time>
      </trkpt>
      <trkpt lat="47.06154" lon="1.09871">
        <ele>89</ele>
        <time>2019-09-03T08:27:42Z</time>
      </trkpt>
      <trkpt lat="47.06151" lon="1.09873">
        <ele>90</ele>
        <time>2019-09-03T08:27:43Z</time>
      </trkpt>
      <trkpt lat="47.06149" lon="1.09874">
        <ele>90</ele>
        <time>2019-09-03T08:27:43Z</time>
      </trkpt>
      <trkpt lat="47.06132" lon="1.09882">
        <ele>91</ele>
        <time>2019-09-03T08:27:47Z</time>
      </trkpt>
      <trkpt lat="47.06101" lon="1.09896">
        <ele>91</ele>
        <time>2019-09-03T08:27:55Z</time>
      </trkpt>
      <trkpt lat="47.06079" lon="1.09906">
        <ele>92</ele>
        <time>2019-09-03T08:28:00Z</time>
      </trkpt>
      <trkpt lat="47.06059" lon="1.09914">
        <ele>93</ele>
        <time>2019-09-03T08:28:04Z</time>
      </trkpt>
      <trkpt lat="47.06058" lon="1.09914">
        <ele>93</ele>
        <time>2019-09-03T08:28:05Z</time>
      </trkpt>
      <trkpt lat="47.06022" lon="1.09928">
        <ele>92</ele>
        <time>2019-09-03T08:28:13Z</time>
      </trkpt>
      <trkpt lat="47.05997" lon="1.09936">
        <ele>93</ele>
        <time>2019-09-03T08:28:19Z</time>
      </trkpt>
      <trkpt lat="47.05985" lon="1.0994">
        <ele>93</ele>
        <time>2019-09-03T08:28:21Z</time>
      </trkpt>
      <trkpt lat="47.05975" lon="1.09944">
        <ele>93</ele>
        <time>2019-09-03T08:28:24Z</time>
      </trkpt>
      <trkpt lat="47.05961" lon="1.09951">
        <ele>93</ele>
        <time>2019-09-03T08:28:27Z</time>
      </trkpt>
      <trkpt lat="47.0594" lon="1.09967">
        <ele>95</ele>
        <time>2019-09-03T08:28:32Z</time>
      </trkpt>
      <trkpt lat="47.05938" lon="1.09969">
        <ele>95</ele>
        <time>2019-09-03T08:28:33Z</time>
      </trkpt>
      <trkpt lat="47.05914" lon="1.09987">
        <ele>96</ele>
        <time>2019-09-03T08:28:39Z</time>
      </trkpt>
      <trkpt lat="47.05892" lon="1.10004">
        <ele>95</ele>
        <time>2019-09-03T08:28:44Z</time>
      </trkpt>
      <trkpt lat="47.05876" lon="1.10011">
        <ele>95</ele>
        <time>2019-09-03T08:28:48Z</time>
      </trkpt>
      <trkpt lat="47.05851" lon="1.1002">
        <ele>95</ele>
        <time>2019-09-03T08:28:54Z</time>
      </trkpt>
      <trkpt lat="47.05847" lon="1.10019">
        <ele>95</ele>
        <time>2019-09-03T08:28:55Z</time>
      </trkpt>
      <trkpt lat="47.05835" lon="1.10027">
        <ele>95</ele>
        <time>2019-09-03T08:28:58Z</time>
      </trkpt>
      <trkpt lat="47.0583" lon="1.10032">
        <ele>95</ele>
        <time>2019-09-03T08:28:59Z</time>
      </trkpt>
      <trkpt lat="47.05825" lon="1.1004">
        <ele>95</ele>
        <time>2019-09-03T08:29:01Z</time>
      </trkpt>
      <trkpt lat="47.05807" lon="1.10067">
        <ele>95</ele>
        <time>2019-09-03T08:29:06Z</time>
      </trkpt>
      <trkpt lat="47.0579" lon="1.10094">
        <ele>94</ele>
        <time>2019-09-03T08:29:12Z</time>
      </trkpt>
      <trkpt lat="47.05765" lon="1.10128">
        <ele>94</ele>
        <time>2019-09-03T08:29:19Z</time>
      </trkpt>
      <trkpt lat="47.05752" lon="1.10151">
        <ele>93</ele>
        <time>2019-09-03T08:29:24Z</time>
      </trkpt>
      <trkpt lat="47.05749" lon="1.10156">
        <ele>94</ele>
        <time>2019-09-03T08:29:25Z</time>
      </trkpt>
      <trkpt lat="47.05734" lon="1.10178">
        <ele>94</ele>
        <time>2019-09-03T08:29:30Z</time>
      </trkpt>
      <trkpt lat="47.05719" lon="1.10191">
        <ele>95</ele>
        <time>2019-09-03T08:29:34Z</time>
      </trkpt>
      <trkpt lat="47.05699" lon="1.10202">
        <ele>95</ele>
        <time>2019-09-03T08:29:38Z</time>
      </trkpt>
      <trkpt lat="47.05692" lon="1.10205">
        <ele>95</ele>
        <time>2019-09-03T08:29:40Z</time>
      </trkpt>
      <trkpt lat="47.05649" lon="1.10227">
        <ele>93</ele>
        <time>2019-09-03T08:29:50Z</time>
      </trkpt>
      <trkpt lat="47.05641" lon="1.10231">
        <ele>93</ele>
        <time>2019-09-03T08:29:52Z</time>
      </trkpt>
      <trkpt lat="47.05607" lon="1.10248">
        <ele>93</ele>
        <time>2019-09-03T08:30:00Z</time>
      </trkpt>
      <trkpt lat="47.05602" lon="1.10251">
        <ele>93</ele>
        <time>2019-09-03T08:30:01Z</time>
      </trkpt>
      <trkpt lat="47.05548" lon="1.10283">
        <ele>92</ele>
        <time>2019-09-03T08:30:14Z</time>
      </trkpt>
      <trkpt lat="47.05485" lon="1.10321">
        <ele>87</ele>
        <time>2019-09-03T08:30:29Z</time>
      </trkpt>
      <trkpt lat="47.05468" lon="1.10331">
        <ele>87</ele>
        <time>2019-09-03T08:30:33Z</time>
      </trkpt>
      <trkpt lat="47.05451" lon="1.10341">
        <ele>85</ele>
        <time>2019-09-03T08:30:37Z</time>
      </trkpt>
      <trkpt lat="47.05434" lon="1.10351">
        <ele>85</ele>
        <time>2019-09-03T08:30:41Z</time>
      </trkpt>
      <trkpt lat="47.05409" lon="1.10367">
        <ele>85</ele>
        <time>2019-09-03T08:30:48Z</time>
      </trkpt>
      <trkpt lat="47.05405" lon="1.10369">
        <ele>85</ele>
        <time>2019-09-03T08:30:49Z</time>
      </trkpt>
      <trkpt lat="47.05403" lon="1.1037">
        <ele>85</ele>
        <time>2019-09-03T08:30:49Z</time>
      </trkpt>
      <trkpt lat="47.05391" lon="1.10378">
        <ele>86</ele>
        <time>2019-09-03T08:30:52Z</time>
      </trkpt>
      <trkpt lat="47.05384" lon="1.10382">
        <ele>86</ele>
        <time>2019-09-03T08:30:54Z</time>
      </trkpt>
      <trkpt lat="47.05353" lon="1.10397">
        <ele>87</ele>
        <time>2019-09-03T08:31:01Z</time>
      </trkpt>
      <trkpt lat="47.05308" lon="1.1042">
        <ele>89</ele>
        <time>2019-09-03T08:31:11Z</time>
      </trkpt>
      <trkpt lat="47.05298" lon="1.10424">
        <ele>89</ele>
        <time>2019-09-03T08:31:14Z</time>
      </trkpt>
      <trkpt lat="47.05263" lon="1.1044">
        <ele>89</ele>
        <time>2019-09-03T08:31:22Z</time>
      </trkpt>
      <trkpt lat="47.05238" lon="1.10454">
        <ele>89</ele>
        <time>2019-09-03T08:31:28Z</time>
      </trkpt>
      <trkpt lat="47.05214" lon="1.10469">
        <ele>91</ele>
        <time>2019-09-03T08:31:34Z</time>
      </trkpt>
      <trkpt lat="47.05198" lon="1.10482">
        <ele>92</ele>
        <time>2019-09-03T08:31:38Z</time>
      </trkpt>
      <trkpt lat="47.05189" lon="1.10489">
        <ele>93</ele>
        <time>2019-09-03T08:31:40Z</time>
      </trkpt>
      <trkpt lat="47.05182" lon="1.10494">
        <ele>93</ele>
        <time>2019-09-03T08:31:42Z</time>
      </trkpt>
      <trkpt lat="47.05159" lon="1.10514">
        <ele>93</ele>
        <time>2019-09-03T08:31:48Z</time>
      </trkpt>
      <trkpt lat="47.05146" lon="1.10526">
        <ele>92</ele>
        <time>2019-09-03T08:31:51Z</time>
      </trkpt>
      <trkpt lat="47.05127" lon="1.10544">
        <ele>93</ele>
        <time>2019-09-03T08:31:56Z</time>
      </trkpt>
      <trkpt lat="47.05103" lon="1.10558">
        <ele>92</ele>
        <time>2019-09-03T08:32:02Z</time>
      </trkpt>
      <trkpt lat="47.05098" lon="1.1056">
        <ele>92</ele>
        <time>2019-09-03T08:32:03Z</time>
      </trkpt>
      <trkpt lat="47.05063" lon="1.10576">
        <ele>93</ele>
        <time>2019-09-03T08:32:11Z</time>
      </trkpt>
      <trkpt lat="47.05062" lon="1.10577">
        <ele>93</ele>
        <time>2019-09-03T08:32:11Z</time>
      </trkpt>
      <trkpt lat="47.05029" lon="1.10592">
        <ele>94</ele>
        <time>2019-09-03T08:32:19Z</time>
      </trkpt>
      <trkpt lat="47.0501" lon="1.10601">
        <ele>97</ele>
        <time>2019-09-03T08:32:24Z</time>
      </trkpt>
      <trkpt lat="47.04964" lon="1.10625">
        <ele>97</ele>
        <time>2019-09-03T08:32:34Z</time>
      </trkpt>
      <trkpt lat="47.04947" lon="1.10635">
        <ele>99</ele>
        <time>2019-09-03T08:32:39Z</time>
      </trkpt>
      <trkpt lat="47.0494" lon="1.1064">
        <ele>99</ele>
        <time>2019-09-03T08:32:40Z</time>
      </trkpt>
      <trkpt lat="47.0492" lon="1.10655">
        <ele>99</ele>
        <time>2019-09-03T08:32:45Z</time>
      </trkpt>
      <trkpt lat="47.04907" lon="1.10664">
        <ele>99</ele>
        <time>2019-09-03T08:32:48Z</time>
      </trkpt>
      <trkpt lat="47.04897" lon="1.1067">
        <ele>99</ele>
        <time>2019-09-03T08:32:51Z</time>
      </trkpt>
      <trkpt lat="47.04873" lon="1.10684">
        <ele>99</ele>
        <time>2019-09-03T08:32:57Z</time>
      </trkpt>
      <trkpt lat="47.04851" lon="1.10699">
        <ele>99</ele>
        <time>2019-09-03T08:33:02Z</time>
      </trkpt>
      <trkpt lat="47.04828" lon="1.10723">
        <ele>100</ele>
        <time>2019-09-03T08:33:08Z</time>
      </trkpt>
      <trkpt lat="47.04823" lon="1.10728">
        <ele>100</ele>
        <time>2019-09-03T08:33:10Z</time>
      </trkpt>
      <trkpt lat="47.04779" lon="1.1077">
        <ele>103</ele>
        <time>2019-09-03T08:33:21Z</time>
      </trkpt>
      <trkpt lat="47.04767" lon="1.1078">
        <ele>103</ele>
        <time>2019-09-03T08:33:24Z</time>
      </trkpt>
      <trkpt lat="47.04738" lon="1.10804">
        <ele>103</ele>
        <time>2019-09-03T08:33:32Z</time>
      </trkpt>
      <trkpt lat="47.04714" lon="1.10825">
        <ele>102</ele>
        <time>2019-09-03T08:33:38Z</time>
      </trkpt>
      <trkpt lat="47.04706" lon="1.10835">
        <ele>101</ele>
        <time>2019-09-03T08:33:40Z</time>
      </trkpt>
      <trkpt lat="47.04693" lon="1.10849">
        <ele>102</ele>
        <time>2019-09-03T08:33:44Z</time>
      </trkpt>
      <trkpt lat="47.04678" lon="1.10869">
        <ele>101</ele>
        <time>2019-09-03T08:33:48Z</time>
      </trkpt>
      <trkpt lat="47.04657" lon="1.10896">
        <ele>102</ele>
        <time>2019-09-03T08:33:55Z</time>
      </trkpt>
      <trkpt lat="47.04636" lon="1.10919">
        <ele>103</ele>
        <time>2019-09-03T08:34:01Z</time>
      </trkpt>
      <trkpt lat="47.04615" lon="1.10941">
        <ele>101</ele>
        <time>2019-09-03T08:34:06Z</time>
      </trkpt>
      <trkpt lat="47.04557" lon="1.11003">
        <ele>93</ele>
        <time>2019-09-03T08:34:22Z</time>
      </trkpt>
      <trkpt lat="47.04549" lon="1.11012">
        <ele>93</ele>
        <time>2019-09-03T08:34:25Z</time>
      </trkpt>
      <trkpt lat="47.04534" lon="1.11027">
        <ele>89</ele>
        <time>2019-09-03T08:34:29Z</time>
      </trkpt>
      <trkpt lat="47.04499" lon="1.11065">
        <ele>88</ele>
        <time>2019-09-03T08:34:38Z</time>
      </trkpt>
      <trkpt lat="47.04481" lon="1.11084">
        <ele>86</ele>
        <time>2019-09-03T08:34:43Z</time>
      </trkpt>
      <trkpt lat="47.04465" lon="1.11101">
        <ele>86</ele>
        <time>2019-09-03T08:34:48Z</time>
      </trkpt>
      <trkpt lat="47.04455" lon="1.11112">
        <ele>84</ele>
        <time>2019-09-03T08:34:50Z</time>
      </trkpt>
      <trkpt lat="47.04448" lon="1.11117">
        <ele>84</ele>
        <time>2019-09-03T08:34:52Z</time>
      </trkpt>
      <trkpt lat="47.04426" lon="1.1113">
        <ele>83</ele>
        <time>2019-09-03T08:34:57Z</time>
      </trkpt>
      <trkpt lat="47.04404" lon="1.11134">
        <ele>83</ele>
        <time>2019-09-03T08:35:02Z</time>
      </trkpt>
      <trkpt lat="47.04382" lon="1.11134">
        <ele>83</ele>
        <time>2019-09-03T08:35:07Z</time>
      </trkpt>
      <trkpt lat="47.0437" lon="1.11133">
        <ele>83</ele>
        <time>2019-09-03T08:35:10Z</time>
      </trkpt>
      <trkpt lat="47.0435" lon="1.11131">
        <ele>83</ele>
        <time>2019-09-03T08:35:14Z</time>
      </trkpt>
      <trkpt lat="47.04345" lon="1.1113">
        <ele>83</ele>
        <time>2019-09-03T08:35:15Z</time>
      </trkpt>
      <trkpt lat="47.04285" lon="1.11123">
        <ele>83</ele>
        <time>2019-09-03T08:35:29Z</time>
      </trkpt>
      <trkpt lat="47.0426" lon="1.11121">
        <ele>87</ele>
        <time>2019-09-03T08:35:34Z</time>
      </trkpt>
      <trkpt lat="47.04201" lon="1.11114">
        <ele>91</ele>
        <time>2019-09-03T08:35:48Z</time>
      </trkpt>
      <trkpt lat="47.0415" lon="1.11109">
        <ele>93</ele>
        <time>2019-09-03T08:35:59Z</time>
      </trkpt>
      <trkpt lat="47.04117" lon="1.11105">
        <ele>95</ele>
        <time>2019-09-03T08:36:06Z</time>
      </trkpt>
      <trkpt lat="47.04101" lon="1.11103">
        <ele>95</ele>
        <time>2019-09-03T08:36:10Z</time>
      </trkpt>
      <trkpt lat="47.04081" lon="1.11101">
        <ele>95</ele>
        <time>2019-09-03T08:36:14Z</time>
      </trkpt>
      <trkpt lat="47.04013" lon="1.11094">
        <ele>91</ele>
        <time>2019-09-03T08:36:30Z</time>
      </trkpt>
      <trkpt lat="47.03973" lon="1.1109">
        <ele>89</ele>
        <time>2019-09-03T08:36:38Z</time>
      </trkpt>
      <trkpt lat="47.03868" lon="1.11079">
        <ele>85</ele>
        <time>2019-09-03T08:37:02Z</time>
      </trkpt>
      <trkpt lat="47.03812" lon="1.11073">
        <ele>84</ele>
        <time>2019-09-03T08:37:14Z</time>
      </trkpt>
      <trkpt lat="47.03782" lon="1.1107">
        <ele>82</ele>
        <time>2019-09-03T08:37:21Z</time>
      </trkpt>
      <trkpt lat="47.03758" lon="1.11069">
        <ele>82</ele>
        <time>2019-09-03T08:37:26Z</time>
      </trkpt>
      <trkpt lat="47.03756" lon="1.11068">
        <ele>82</ele>
        <time>2019-09-03T08:37:27Z</time>
      </trkpt>
      <trkpt lat="47.03737" lon="1.1107">
        <ele>82</ele>
        <time>2019-09-03T08:37:31Z</time>
      </trkpt>
      <trkpt lat="47.03721" lon="1.11073">
        <ele>82</ele>
        <time>2019-09-03T08:37:35Z</time>
      </trkpt>
      <trkpt lat="47.03711" lon="1.11076">
        <ele>82</ele>
        <time>2019-09-03T08:37:37Z</time>
      </trkpt>
      <trkpt lat="47.03697" lon="1.11081">
        <ele>82</ele>
        <time>2019-09-03T08:37:40Z</time>
      </trkpt>
      <trkpt lat="47.0365" lon="1.111">
        <ele>83</ele>
        <time>2019-09-03T08:37:51Z</time>
      </trkpt>
      <trkpt lat="47.03572" lon="1.11133">
        <ele>84</ele>
        <time>2019-09-03T08:38:09Z</time>
      </trkpt>
      <trkpt lat="47.03555" lon="1.11141">
        <ele>85</ele>
        <time>2019-09-03T08:38:13Z</time>
      </trkpt>
      <trkpt lat="47.03524" lon="1.11154">
        <ele>87</ele>
        <time>2019-09-03T08:38:20Z</time>
      </trkpt>
      <trkpt lat="47.03486" lon="1.11171">
        <ele>87</ele>
        <time>2019-09-03T08:38:29Z</time>
      </trkpt>
      <trkpt lat="47.03469" lon="1.11178">
        <ele>87</ele>
        <time>2019-09-03T08:38:33Z</time>
      </trkpt>
      <trkpt lat="47.03452" lon="1.11185">
        <ele>86</ele>
        <time>2019-09-03T08:38:37Z</time>
      </trkpt>
      <trkpt lat="47.03446" lon="1.11188">
        <ele>86</ele>
        <time>2019-09-03T08:38:38Z</time>
      </trkpt>
      <trkpt lat="47.03434" lon="1.11193">
        <ele>86</ele>
        <time>2019-09-03T08:38:41Z</time>
      </trkpt>
      <trkpt lat="47.0338" lon="1.11217">
        <ele>83</ele>
        <time>2019-09-03T08:38:54Z</time>
      </trkpt>
      <trkpt lat="47.03365" lon="1.11223">
        <ele>82</ele>
        <time>2019-09-03T08:38:57Z</time>
      </trkpt>
      <trkpt lat="47.03348" lon="1.1123">
        <ele>82</ele>
        <time>2019-09-03T08:39:01Z</time>
      </trkpt>
      <trkpt lat="47.03331" lon="1.11238">
        <ele>83</ele>
        <time>2019-09-03T08:39:05Z</time>
      </trkpt>
      <trkpt lat="47.03327" lon="1.11239">
        <ele>83</ele>
        <time>2019-09-03T08:39:06Z</time>
      </trkpt>
      <trkpt lat="47.03302" lon="1.1125">
        <ele>84</ele>
        <time>2019-09-03T08:39:12Z</time>
      </trkpt>
      <trkpt lat="47.03243" lon="1.11274">
        <ele>85</ele>
        <time>2019-09-03T08:39:25Z</time>
      </trkpt>
      <trkpt lat="47.03143" lon="1.11316">
        <ele>89</ele>
        <time>2019-09-03T08:39:49Z</time>
      </trkpt>
      <trkpt lat="47.03124" lon="1.11324">
        <ele>92</ele>
        <time>2019-09-03T08:39:53Z</time>
      </trkpt>
      <trkpt lat="47.03049" lon="1.11356">
        <ele>92</ele>
        <time>2019-09-03T08:40:10Z</time>
      </trkpt>
      <trkpt lat="47.03002" lon="1.11375">
        <ele>93</ele>
        <time>2019-09-03T08:40:21Z</time>
      </trkpt>
      <trkpt lat="47.02987" lon="1.11382">
        <ele>93</ele>
        <time>2019-09-03T08:40:25Z</time>
      </trkpt>
      <trkpt lat="47.02934" lon="1.11404">
        <ele>94</ele>
        <time>2019-09-03T08:40:37Z</time>
      </trkpt>
      <trkpt lat="47.02853" lon="1.1144">
        <ele>93</ele>
        <time>2019-09-03T08:40:56Z</time>
      </trkpt>
      <trkpt lat="47.02832" lon="1.11451">
        <ele>93</ele>
        <time>2019-09-03T08:41:01Z</time>
      </trkpt>
      <trkpt lat="47.02816" lon="1.11458">
        <ele>92</ele>
        <time>2019-09-03T08:41:04Z</time>
      </trkpt>
      <trkpt lat="47.02793" lon="1.11473">
        <ele>94</ele>
        <time>2019-09-03T08:41:10Z</time>
      </trkpt>
      <trkpt lat="47.02771" lon="1.11492">
        <ele>95</ele>
        <time>2019-09-03T08:41:16Z</time>
      </trkpt>
      <trkpt lat="47.02753" lon="1.11512">
        <ele>94</ele>
        <time>2019-09-03T08:41:21Z</time>
      </trkpt>
      <trkpt lat="47.02745" lon="1.11521">
        <ele>94</ele>
        <time>2019-09-03T08:41:23Z</time>
      </trkpt>
      <trkpt lat="47.02726" lon="1.11547">
        <ele>93</ele>
        <time>2019-09-03T08:41:29Z</time>
      </trkpt>
      <trkpt lat="47.02713" lon="1.11564">
        <ele>93</ele>
        <time>2019-09-03T08:41:33Z</time>
      </trkpt>
      <trkpt lat="47.02668" lon="1.11622">
        <ele>91</ele>
        <time>2019-09-03T08:41:46Z</time>
      </trkpt>
      <trkpt lat="47.02662" lon="1.1163">
        <ele>91</ele>
        <time>2019-09-03T08:41:48Z</time>
      </trkpt>
      <trkpt lat="47.02641" lon="1.11657">
        <ele>89</ele>
        <time>2019-09-03T08:41:54Z</time>
      </trkpt>
      <trkpt lat="47.02633" lon="1.11668">
        <ele>89</ele>
        <time>2019-09-03T08:41:56Z</time>
      </trkpt>
      <trkpt lat="47.02627" lon="1.11674">
        <ele>89</ele>
        <time>2019-09-03T08:41:58Z</time>
      </trkpt>
      <trkpt lat="47.02613" lon="1.1169">
        <ele>88</ele>
        <time>2019-09-03T08:42:02Z</time>
      </trkpt>
      <trkpt lat="47.02609" lon="1.11695">
        <ele>88</ele>
        <time>2019-09-03T08:42:03Z</time>
      </trkpt>
      <trkpt lat="47.02599" lon="1.11707">
        <ele>88</ele>
        <time>2019-09-03T08:42:06Z</time>
      </trkpt>
      <trkpt lat="47.02588" lon="1.11719">
        <ele>89</ele>
        <time>2019-09-03T08:42:09Z</time>
      </trkpt>
      <trkpt lat="47.02565" lon="1.11741">
        <ele>90</ele>
        <time>2019-09-03T08:42:15Z</time>
      </trkpt>
      <trkpt lat="47.02549" lon="1.11755">
        <ele>90</ele>
        <time>2019-09-03T08:42:19Z</time>
      </trkpt>
      <trkpt lat="47.02549" lon="1.11755">
        <ele>90</ele>
        <time>2019-09-03T08:42:19Z</time>
      </trkpt>
      <trkpt lat="47.02541" lon="1.1176">
        <ele>90</ele>
        <time>2019-09-03T08:42:21Z</time>
      </trkpt>
      <trkpt lat="47.02502" lon="1.1179">
        <ele>90</ele>
        <time>2019-09-03T08:42:31Z</time>
      </trkpt>
      <trkpt lat="47.02497" lon="1.11793">
        <ele>92</ele>
        <time>2019-09-03T08:42:32Z</time>
      </trkpt>
      <trkpt lat="47.02449" lon="1.11829">
        <ele>91</ele>
        <time>2019-09-03T08:42:44Z</time>
      </trkpt>
      <trkpt lat="47.02448" lon="1.1183">
        <ele>91</ele>
        <time>2019-09-03T08:42:45Z</time>
      </trkpt>
      <trkpt lat="47.02407" lon="1.1186">
        <ele>89</ele>
        <time>2019-09-03T08:42:55Z</time>
      </trkpt>
      <trkpt lat="47.02394" lon="1.11871">
        <ele>86</ele>
        <time>2019-09-03T08:42:58Z</time>
      </trkpt>
      <trkpt lat="47.02382" lon="1.11882">
        <ele>86</ele>
        <time>2019-09-03T08:43:01Z</time>
      </trkpt>
      <trkpt lat="47.02372" lon="1.11893">
        <ele>85</ele>
        <time>2019-09-03T08:43:04Z</time>
      </trkpt>
      <trkpt lat="47.02351" lon="1.11918">
        <ele>86</ele>
        <time>2019-09-03T08:43:10Z</time>
      </trkpt>
      <trkpt lat="47.02343" lon="1.11927">
        <ele>86</ele>
        <time>2019-09-03T08:43:12Z</time>
      </trkpt>
      <trkpt lat="47.02339" lon="1.11932">
        <ele>87</ele>
        <time>2019-09-03T08:43:13Z</time>
      </trkpt>
      <trkpt lat="47.02326" lon="1.11945">
        <ele>87</ele>
        <time>2019-09-03T08:43:17Z</time>
      </trkpt>
      <trkpt lat="47.02318" lon="1.11951">
        <ele>86</ele>
        <time>2019-09-03T08:43:19Z</time>
      </trkpt>
      <trkpt lat="47.02313" lon="1.11955">
        <ele>86</ele>
        <time>2019-09-03T08:43:20Z</time>
      </trkpt>
      <trkpt lat="47.02284" lon="1.11978">
        <ele>84</ele>
        <time>2019-09-03T08:43:28Z</time>
      </trkpt>
      <trkpt lat="47.02279" lon="1.11982">
        <ele>84</ele>
        <time>2019-09-03T08:43:29Z</time>
      </trkpt>
      <trkpt lat="47.02269" lon="1.1199">
        <ele>85</ele>
        <time>2019-09-03T08:43:31Z</time>
      </trkpt>
      <trkpt lat="47.02258" lon="1.12001">
        <ele>84</ele>
        <time>2019-09-03T08:43:34Z</time>
      </trkpt>
      <trkpt lat="47.0225" lon="1.12012">
        <ele>84</ele>
        <time>2019-09-03T08:43:37Z</time>
      </trkpt>
      <trkpt lat="47.02246" lon="1.12017">
        <ele>84</ele>
        <time>2019-09-03T08:43:38Z</time>
      </trkpt>
      <trkpt lat="47.02237" lon="1.12031">
        <ele>84</ele>
        <time>2019-09-03T08:43:41Z</time>
      </trkpt>
      <trkpt lat="47.02152" lon="1.12154">
        <ele>84</ele>
        <time>2019-09-03T08:44:07Z</time>
      </trkpt>
      <trkpt lat="47.02093" lon="1.1224">
        <ele>84</ele>
        <time>2019-09-03T08:44:26Z</time>
      </trkpt>
      <trkpt lat="47.0205" lon="1.12303">
        <ele>84</ele>
        <time>2019-09-03T08:44:39Z</time>
      </trkpt>
      <trkpt lat="47.02038" lon="1.12321">
        <ele>84</ele>
        <time>2019-09-03T08:44:43Z</time>
      </trkpt>
      <trkpt lat="47.02037" lon="1.12323">
        <ele>84</ele>
        <time>2019-09-03T08:44:44Z</time>
      </trkpt>
      <trkpt lat="47.02027" lon="1.12339">
        <ele>84</ele>
        <time>2019-09-03T08:44:47Z</time>
      </trkpt>
      <trkpt lat="47.0202" lon="1.12352">
        <ele>84</ele>
        <time>2019-09-03T08:44:49Z</time>
      </trkpt>
      <trkpt lat="47.02011" lon="1.12372">
        <ele>84</ele>
        <time>2019-09-03T08:44:53Z</time>
      </trkpt>
      <trkpt lat="47.0198" lon="1.1245">
        <ele>84</ele>
        <time>2019-09-03T08:45:07Z</time>
      </trkpt>
      <trkpt lat="47.01975" lon="1.12467">
        <ele>85</ele>
        <time>2019-09-03T08:45:10Z</time>
      </trkpt>
      <trkpt lat="47.01971" lon="1.12478">
        <ele>85</ele>
        <time>2019-09-03T08:45:12Z</time>
      </trkpt>
      <trkpt lat="47.01969" lon="1.12485">
        <ele>85</ele>
        <time>2019-09-03T08:45:13Z</time>
      </trkpt>
      <trkpt lat="47.01964" lon="1.12508">
        <ele>85</ele>
        <time>2019-09-03T08:45:16Z</time>
      </trkpt>
      <trkpt lat="47.01947" lon="1.12586">
        <ele>85</ele>
        <time>2019-09-03T08:45:29Z</time>
      </trkpt>
      <trkpt lat="47.0194" lon="1.12617">
        <ele>85</ele>
        <time>2019-09-03T08:45:34Z</time>
      </trkpt>
      <trkpt lat="47.01931" lon="1.12647">
        <ele>85</ele>
        <time>2019-09-03T08:45:39Z</time>
      </trkpt>
      <trkpt lat="47.01919" lon="1.12686">
        <ele>87</ele>
        <time>2019-09-03T08:45:45Z</time>
      </trkpt>
      <trkpt lat="47.01899" lon="1.12749">
        <ele>88</ele>
        <time>2019-09-03T08:45:56Z</time>
      </trkpt>
      <trkpt lat="47.01877" lon="1.12819">
        <ele>88</ele>
        <time>2019-09-03T08:46:08Z</time>
      </trkpt>
      <trkpt lat="47.01868" lon="1.12845">
        <ele>86</ele>
        <time>2019-09-03T08:46:12Z</time>
      </trkpt>
      <trkpt lat="47.01858" lon="1.12879">
        <ele>89</ele>
        <time>2019-09-03T08:46:18Z</time>
      </trkpt>
      <trkpt lat="47.01851" lon="1.12905">
        <ele>90</ele>
        <time>2019-09-03T08:46:22Z</time>
      </trkpt>
      <trkpt lat="47.01845" lon="1.12932">
        <ele>90</ele>
        <time>2019-09-03T08:46:26Z</time>
      </trkpt>
      <trkpt lat="47.01838" lon="1.12962">
        <ele>90</ele>
        <time>2019-09-03T08:46:31Z</time>
      </trkpt>
      <trkpt lat="47.01824" lon="1.13032">
        <ele>92</ele>
        <time>2019-09-03T08:46:42Z</time>
      </trkpt>
      <trkpt lat="47.01809" lon="1.13111">
        <ele>93</ele>
        <time>2019-09-03T08:46:55Z</time>
      </trkpt>
      <trkpt lat="47.01805" lon="1.13133">
        <ele>93</ele>
        <time>2019-09-03T08:46:58Z</time>
      </trkpt>
      <trkpt lat="47.01786" lon="1.13229">
        <ele>92</ele>
        <time>2019-09-03T08:47:13Z</time>
      </trkpt>
      <trkpt lat="47.01784" lon="1.1324">
        <ele>91</ele>
        <time>2019-09-03T08:47:15Z</time>
      </trkpt>
      <trkpt lat="47.01782" lon="1.13244">
        <ele>91</ele>
        <time>2019-09-03T08:47:16Z</time>
      </trkpt>
      <trkpt lat="47.01779" lon="1.13249">
        <ele>91</ele>
        <time>2019-09-03T08:47:17Z</time>
      </trkpt>
      <trkpt lat="47.01773" lon="1.13253">
        <ele>91</ele>
        <time>2019-09-03T08:47:18Z</time>
      </trkpt>
      <trkpt lat="47.01773" lon="1.13253">
        <ele>91</ele>
        <time>2019-09-03T08:47:18Z</time>
      </trkpt>
      <trkpt lat="47.01773" lon="1.13263">
        <ele>91</ele>
        <time>2019-09-03T08:47:20Z</time>
      </trkpt>
      <trkpt lat="47.01773" lon="1.13276">
        <ele>90</ele>
        <time>2019-09-03T08:47:22Z</time>
      </trkpt>
      <trkpt lat="47.01772" lon="1.13288">
        <ele>90</ele>
        <time>2019-09-03T08:47:24Z</time>
      </trkpt>
      <trkpt lat="47.01772" lon="1.13296">
        <ele>90</ele>
        <time>2019-09-03T08:47:25Z</time>
      </trkpt>
      <trkpt lat="47.01771" lon="1.13304">
        <ele>90</ele>
        <time>2019-09-03T08:47:26Z</time>
      </trkpt>
      <trkpt lat="47.0177" lon="1.13305">
        <ele>90</ele>
        <time>2019-09-03T08:47:26Z</time>
      </trkpt>
      <trkpt lat="47.01769" lon="1.13318">
        <ele>90</ele>
        <time>2019-09-03T08:47:28Z</time>
      </trkpt>
      <trkpt lat="47.01767" lon="1.13331">
        <ele>90</ele>
        <time>2019-09-03T08:47:30Z</time>
      </trkpt>
      <trkpt lat="47.01763" lon="1.1335">
        <ele>90</ele>
        <time>2019-09-03T08:47:33Z</time>
      </trkpt>
      <trkpt lat="47.0175" lon="1.13416">
        <ele>91</ele>
        <time>2019-09-03T08:47:44Z</time>
      </trkpt>
      <trkpt lat="47.01747" lon="1.13439">
        <ele>91</ele>
        <time>2019-09-03T08:47:47Z</time>
      </trkpt>
      <trkpt lat="47.01745" lon="1.13452">
        <ele>91</ele>
        <time>2019-09-03T08:47:49Z</time>
      </trkpt>
      <trkpt lat="47.01745" lon="1.13459">
        <ele>91</ele>
        <time>2019-09-03T08:47:50Z</time>
      </trkpt>
      <trkpt lat="47.01744" lon="1.13476">
        <ele>91</ele>
        <time>2019-09-03T08:47:53Z</time>
      </trkpt>
      <trkpt lat="47.01744" lon="1.13494">
        <ele>92</ele>
        <time>2019-09-03T08:47:56Z</time>
      </trkpt>
      <trkpt lat="47.01744" lon="1.13507">
        <ele>92</ele>
        <time>2019-09-03T08:47:58Z</time>
      </trkpt>
      <trkpt lat="47.01744" lon="1.13526">
        <ele>91</ele>
        <time>2019-09-03T08:48:01Z</time>
      </trkpt>
      <trkpt lat="47.01745" lon="1.13577">
        <ele>90</ele>
        <time>2019-09-03T08:48:08Z</time>
      </trkpt>
      <trkpt lat="47.01745" lon="1.13594">
        <ele>90</ele>
        <time>2019-09-03T08:48:11Z</time>
      </trkpt>
      <trkpt lat="47.01745" lon="1.13607">
        <ele>90</ele>
        <time>2019-09-03T08:48:13Z</time>
      </trkpt>
      <trkpt lat="47.01744" lon="1.13618">
        <ele>90</ele>
        <time>2019-09-03T08:48:15Z</time>
      </trkpt>
      <trkpt lat="47.01743" lon="1.13626">
        <ele>91</ele>
        <time>2019-09-03T08:48:16Z</time>
      </trkpt>
      <trkpt lat="47.01742" lon="1.13635">
        <ele>91</ele>
        <time>2019-09-03T08:48:17Z</time>
      </trkpt>
      <trkpt lat="47.0174" lon="1.13643">
        <ele>91</ele>
        <time>2019-09-03T08:48:19Z</time>
      </trkpt>
      <trkpt lat="47.01739" lon="1.13649">
        <ele>91</ele>
        <time>2019-09-03T08:48:19Z</time>
      </trkpt>
      <trkpt lat="47.01736" lon="1.13656">
        <ele>90</ele>
        <time>2019-09-03T08:48:21Z</time>
      </trkpt>
      <trkpt lat="47.01734" lon="1.13663">
        <ele>90</ele>
        <time>2019-09-03T08:48:22Z</time>
      </trkpt>
      <trkpt lat="47.01733" lon="1.13667">
        <ele>90</ele>
        <time>2019-09-03T08:48:23Z</time>
      </trkpt>
      <trkpt lat="47.01733" lon="1.13669">
        <ele>90</ele>
        <time>2019-09-03T08:48:23Z</time>
      </trkpt>
      <trkpt lat="47.01731" lon="1.13675">
        <ele>90</ele>
        <time>2019-09-03T08:48:24Z</time>
      </trkpt>
      <trkpt lat="47.01696" lon="1.1377">
        <ele>89</ele>
        <time>2019-09-03T08:48:40Z</time>
      </trkpt>
      <trkpt lat="47.01692" lon="1.13783">
        <ele>89</ele>
        <time>2019-09-03T08:48:42Z</time>
      </trkpt>
      <trkpt lat="47.01691" lon="1.13791">
        <ele>89</ele>
        <time>2019-09-03T08:48:44Z</time>
      </trkpt>
      <trkpt lat="47.0169" lon="1.13792">
        <ele>89</ele>
        <time>2019-09-03T08:48:44Z</time>
      </trkpt>
      <trkpt lat="47.0169" lon="1.13799">
        <ele>89</ele>
        <time>2019-09-03T08:48:45Z</time>
      </trkpt>
      <trkpt lat="47.0169" lon="1.13805">
        <ele>89</ele>
        <time>2019-09-03T08:48:46Z</time>
      </trkpt>
      <trkpt lat="47.0169" lon="1.13812">
        <ele>89</ele>
        <time>2019-09-03T08:48:47Z</time>
      </trkpt>
      <trkpt lat="47.0169" lon="1.13819">
        <ele>89</ele>
        <time>2019-09-03T08:48:48Z</time>
      </trkpt>
      <trkpt lat="47.01691" lon="1.13826">
        <ele>89</ele>
        <time>2019-09-03T08:48:49Z</time>
      </trkpt>
      <trkpt lat="47.01693" lon="1.13831">
        <ele>89</ele>
        <time>2019-09-03T08:48:50Z</time>
      </trkpt>
      <trkpt lat="47.01693" lon="1.13833">
        <ele>89</ele>
        <time>2019-09-03T08:48:50Z</time>
      </trkpt>
      <trkpt lat="47.01696" lon="1.13839">
        <ele>89</ele>
        <time>2019-09-03T08:48:51Z</time>
      </trkpt>
      <trkpt lat="47.01698" lon="1.13846">
        <ele>89</ele>
        <time>2019-09-03T08:48:53Z</time>
      </trkpt>
      <trkpt lat="47.01701" lon="1.13851">
        <ele>89</ele>
        <time>2019-09-03T08:48:54Z</time>
      </trkpt>
      <trkpt lat="47.01704" lon="1.13856">
        <ele>89</ele>
        <time>2019-09-03T08:48:55Z</time>
      </trkpt>
      <trkpt lat="47.01716" lon="1.13869">
        <ele>90</ele>
        <time>2019-09-03T08:48:58Z</time>
      </trkpt>
      <trkpt lat="47.01718" lon="1.1387">
        <ele>90</ele>
        <time>2019-09-03T08:48:58Z</time>
      </trkpt>
      <trkpt lat="47.01723" lon="1.13877">
        <ele>91</ele>
        <time>2019-09-03T08:49:00Z</time>
      </trkpt>
      <trkpt lat="47.01724" lon="1.1388">
        <ele>91</ele>
        <time>2019-09-03T08:49:00Z</time>
      </trkpt>
      <trkpt lat="47.01726" lon="1.13882">
        <ele>91</ele>
        <time>2019-09-03T08:49:01Z</time>
      </trkpt>
      <trkpt lat="47.01729" lon="1.13888">
        <ele>91</ele>
        <time>2019-09-03T08:49:02Z</time>
      </trkpt>
      <trkpt lat="47.0173" lon="1.13892">
        <ele>91</ele>
        <time>2019-09-03T08:49:03Z</time>
      </trkpt>
      <trkpt lat="47.01732" lon="1.13897">
        <ele>91</ele>
        <time>2019-09-03T08:49:04Z</time>
      </trkpt>
      <trkpt lat="47.01733" lon="1.13903">
        <ele>93</ele>
        <time>2019-09-03T08:49:05Z</time>
      </trkpt>
      <trkpt lat="47.01735" lon="1.13909">
        <ele>93</ele>
        <time>2019-09-03T08:49:06Z</time>
      </trkpt>
      <trkpt lat="47.01736" lon="1.13915">
        <ele>93</ele>
        <time>2019-09-03T08:49:07Z</time>
      </trkpt>
      <trkpt lat="47.01742" lon="1.13952">
        <ele>100</ele>
        <time>2019-09-03T08:49:12Z</time>
      </trkpt>
      <trkpt lat="47.01744" lon="1.1397">
        <ele>103</ele>
        <time>2019-09-03T08:49:15Z</time>
      </trkpt>
      <trkpt lat="47.01745" lon="1.13978">
        <ele>103</ele>
        <time>2019-09-03T08:49:16Z</time>
      </trkpt>
      <trkpt lat="47.01745" lon="1.13985">
        <ele>103</ele>
        <time>2019-09-03T08:49:18Z</time>
      </trkpt>
      <trkpt lat="47.01745" lon="1.13992">
        <ele>105</ele>
        <time>2019-09-03T08:49:19Z</time>
      </trkpt>
      <trkpt lat="47.01744" lon="1.13999">
        <ele>105</ele>
        <time>2019-09-03T08:49:20Z</time>
      </trkpt>
      <trkpt lat="47.01744" lon="1.14006">
        <ele>105</ele>
        <time>2019-09-03T08:49:21Z</time>
      </trkpt>
      <trkpt lat="47.01742" lon="1.14013">
        <ele>105</ele>
        <time>2019-09-03T08:49:22Z</time>
      </trkpt>
      <trkpt lat="47.01741" lon="1.1402">
        <ele>107</ele>
        <time>2019-09-03T08:49:23Z</time>
      </trkpt>
      <trkpt lat="47.01725" lon="1.141">
        <ele>106</ele>
        <time>2019-09-03T08:49:36Z</time>
      </trkpt>
      <trkpt lat="47.01723" lon="1.14115">
        <ele>106</ele>
        <time>2019-09-03T08:49:38Z</time>
      </trkpt>
      <trkpt lat="47.01723" lon="1.14124">
        <ele>106</ele>
        <time>2019-09-03T08:49:39Z</time>
      </trkpt>
      <trkpt lat="47.01722" lon="1.14134">
        <ele>108</ele>
        <time>2019-09-03T08:49:41Z</time>
      </trkpt>
      <trkpt lat="47.01722" lon="1.14139">
        <ele>108</ele>
        <time>2019-09-03T08:49:42Z</time>
      </trkpt>
      <trkpt lat="47.01722" lon="1.14141">
        <ele>108</ele>
        <time>2019-09-03T08:49:42Z</time>
      </trkpt>
      <trkpt lat="47.01723" lon="1.1415">
        <ele>108</ele>
        <time>2019-09-03T08:49:43Z</time>
      </trkpt>
      <trkpt lat="47.01724" lon="1.14159">
        <ele>110</ele>
        <time>2019-09-03T08:49:45Z</time>
      </trkpt>
      <trkpt lat="47.01725" lon="1.14168">
        <ele>110</ele>
        <time>2019-09-03T08:49:46Z</time>
      </trkpt>
      <trkpt lat="47.01727" lon="1.14176">
        <ele>110</ele>
        <time>2019-09-03T08:49:47Z</time>
      </trkpt>
      <trkpt lat="47.01729" lon="1.14186">
        <ele>112</ele>
        <time>2019-09-03T08:49:49Z</time>
      </trkpt>
      <trkpt lat="47.0173" lon="1.1419">
        <ele>112</ele>
        <time>2019-09-03T08:49:50Z</time>
      </trkpt>
      <trkpt lat="47.01741" lon="1.14232">
        <ele>115</ele>
        <time>2019-09-03T08:49:57Z</time>
      </trkpt>
      <trkpt lat="47.01744" lon="1.14248">
        <ele>118</ele>
        <time>2019-09-03T08:49:59Z</time>
      </trkpt>
      <trkpt lat="47.01747" lon="1.14258">
        <ele>118</ele>
        <time>2019-09-03T08:50:01Z</time>
      </trkpt>
      <trkpt lat="47.01748" lon="1.14267">
        <ele>120</ele>
        <time>2019-09-03T08:50:02Z</time>
      </trkpt>
      <trkpt lat="47.01749" lon="1.14274">
        <ele>120</ele>
        <time>2019-09-03T08:50:03Z</time>
      </trkpt>
      <trkpt lat="47.0175" lon="1.14283">
        <ele>120</ele>
        <time>2019-09-03T08:50:05Z</time>
      </trkpt>
      <trkpt lat="47.01751" lon="1.14288">
        <ele>120</ele>
        <time>2019-09-03T08:50:05Z</time>
      </trkpt>
      <trkpt lat="47.01751" lon="1.14291">
        <ele>120</ele>
        <time>2019-09-03T08:50:06Z</time>
      </trkpt>
      <trkpt lat="47.01751" lon="1.143">
        <ele>120</ele>
        <time>2019-09-03T08:50:07Z</time>
      </trkpt>
      <trkpt lat="47.01751" lon="1.14302">
        <ele>120</ele>
        <time>2019-09-03T08:50:08Z</time>
      </trkpt>
      <trkpt lat="47.0175" lon="1.14312">
        <ele>120</ele>
        <time>2019-09-03T08:50:09Z</time>
      </trkpt>
      <trkpt lat="47.0175" lon="1.14341">
        <ele>120</ele>
        <time>2019-09-03T08:50:13Z</time>
      </trkpt>
      <trkpt lat="47.01749" lon="1.14363">
        <ele>119</ele>
        <time>2019-09-03T08:50:17Z</time>
      </trkpt>
      <trkpt lat="47.01749" lon="1.14378">
        <ele>118</ele>
        <time>2019-09-03T08:50:19Z</time>
      </trkpt>
      <trkpt lat="47.01748" lon="1.14389">
        <ele>118</ele>
        <time>2019-09-03T08:50:21Z</time>
      </trkpt>
      <trkpt lat="47.01748" lon="1.14394">
        <ele>118</ele>
        <time>2019-09-03T08:50:22Z</time>
      </trkpt>
      <trkpt lat="47.01748" lon="1.14397">
        <ele>118</ele>
        <time>2019-09-03T08:50:22Z</time>
      </trkpt>
      <trkpt lat="47.01747" lon="1.14406">
        <ele>117</ele>
        <time>2019-09-03T08:50:23Z</time>
      </trkpt>
      <trkpt lat="47.01745" lon="1.14415">
        <ele>117</ele>
        <time>2019-09-03T08:50:25Z</time>
      </trkpt>
      <trkpt lat="47.01745" lon="1.1442">
        <ele>117</ele>
        <time>2019-09-03T08:50:26Z</time>
      </trkpt>
      <trkpt lat="47.01744" lon="1.14424">
        <ele>117</ele>
        <time>2019-09-03T08:50:26Z</time>
      </trkpt>
      <trkpt lat="47.01742" lon="1.14433">
        <ele>116</ele>
        <time>2019-09-03T08:50:28Z</time>
      </trkpt>
      <trkpt lat="47.0174" lon="1.14447">
        <ele>116</ele>
        <time>2019-09-03T08:50:30Z</time>
      </trkpt>
      <trkpt lat="47.01723" lon="1.1452">
        <ele>114</ele>
        <time>2019-09-03T08:50:42Z</time>
      </trkpt>
      <trkpt lat="47.0171" lon="1.14577">
        <ele>113</ele>
        <time>2019-09-03T08:50:51Z</time>
      </trkpt>
      <trkpt lat="47.01707" lon="1.14592">
        <ele>110</ele>
        <time>2019-09-03T08:50:53Z</time>
      </trkpt>
      <trkpt lat="47.01705" lon="1.146">
        <ele>110</ele>
        <time>2019-09-03T08:50:54Z</time>
      </trkpt>
      <trkpt lat="47.01702" lon="1.14609">
        <ele>110</ele>
        <time>2019-09-03T08:50:56Z</time>
      </trkpt>
      <trkpt lat="47.017" lon="1.14617">
        <ele>110</ele>
        <time>2019-09-03T08:50:57Z</time>
      </trkpt>
      <trkpt lat="47.01698" lon="1.14623">
        <ele>110</ele>
        <time>2019-09-03T08:50:58Z</time>
      </trkpt>
      <trkpt lat="47.01695" lon="1.1463">
        <ele>110</ele>
        <time>2019-09-03T08:51:00Z</time>
      </trkpt>
      <trkpt lat="47.01692" lon="1.14636">
        <ele>110</ele>
        <time>2019-09-03T08:51:01Z</time>
      </trkpt>
      <trkpt lat="47.01689" lon="1.14642">
        <ele>110</ele>
        <time>2019-09-03T08:51:02Z</time>
      </trkpt>
      <trkpt lat="47.01686" lon="1.14648">
        <ele>110</ele>
        <time>2019-09-03T08:51:03Z</time>
      </trkpt>
      <trkpt lat="47.01682" lon="1.14654">
        <ele>111</ele>
        <time>2019-09-03T08:51:04Z</time>
      </trkpt>
      <trkpt lat="47.01671" lon="1.14669">
        <ele>109</ele>
        <time>2019-09-03T08:51:08Z</time>
      </trkpt>
      <trkpt lat="47.01665" lon="1.14678">
        <ele>109</ele>
        <time>2019-09-03T08:51:09Z</time>
      </trkpt>
      <trkpt lat="47.01661" lon="1.14685">
        <ele>110</ele>
        <time>2019-09-03T08:51:11Z</time>
      </trkpt>
      <trkpt lat="47.01657" lon="1.14692">
        <ele>110</ele>
        <time>2019-09-03T08:51:12Z</time>
      </trkpt>
      <trkpt lat="47.01654" lon="1.14698">
        <ele>110</ele>
        <time>2019-09-03T08:51:13Z</time>
      </trkpt>
      <trkpt lat="47.01652" lon="1.14703">
        <ele>108</ele>
        <time>2019-09-03T08:51:14Z</time>
      </trkpt>
      <trkpt lat="47.0165" lon="1.1471">
        <ele>109</ele>
        <time>2019-09-03T08:51:15Z</time>
      </trkpt>
      <trkpt lat="47.01647" lon="1.14717">
        <ele>109</ele>
        <time>2019-09-03T08:51:17Z</time>
      </trkpt>
      <trkpt lat="47.01646" lon="1.14723">
        <ele>109</ele>
        <time>2019-09-03T08:51:18Z</time>
      </trkpt>
      <trkpt lat="47.01644" lon="1.14731">
        <ele>109</ele>
        <time>2019-09-03T08:51:19Z</time>
      </trkpt>
      <trkpt lat="47.01642" lon="1.1474">
        <ele>109</ele>
        <time>2019-09-03T08:51:20Z</time>
      </trkpt>
      <trkpt lat="47.01636" lon="1.14772">
        <ele>110</ele>
        <time>2019-09-03T08:51:25Z</time>
      </trkpt>
      <trkpt lat="47.01634" lon="1.14781">
        <ele>110</ele>
        <time>2019-09-03T08:51:27Z</time>
      </trkpt>
      <trkpt lat="47.01631" lon="1.14791">
        <ele>110</ele>
        <time>2019-09-03T08:51:28Z</time>
      </trkpt>
      <trkpt lat="47.01629" lon="1.14803">
        <ele>110</ele>
        <time>2019-09-03T08:51:30Z</time>
      </trkpt>
      <trkpt lat="47.01627" lon="1.14814">
        <ele>110</ele>
        <time>2019-09-03T08:51:32Z</time>
      </trkpt>
      <trkpt lat="47.01623" lon="1.14827">
        <ele>110</ele>
        <time>2019-09-03T08:51:34Z</time>
      </trkpt>
      <trkpt lat="47.0161" lon="1.14873">
        <ele>111</ele>
        <time>2019-09-03T08:51:42Z</time>
      </trkpt>
      <trkpt lat="47.01605" lon="1.14892">
        <ele>112</ele>
        <time>2019-09-03T08:51:45Z</time>
      </trkpt>
      <trkpt lat="47.01594" lon="1.14932">
        <ele>114</ele>
        <time>2019-09-03T08:51:51Z</time>
      </trkpt>
      <trkpt lat="47.01582" lon="1.14972">
        <ele>116</ele>
        <time>2019-09-03T08:51:58Z</time>
      </trkpt>
      <trkpt lat="47.01578" lon="1.14983">
        <ele>116</ele>
        <time>2019-09-03T08:52:00Z</time>
      </trkpt>
      <trkpt lat="47.01576" lon="1.14989">
        <ele>117</ele>
        <time>2019-09-03T08:52:01Z</time>
      </trkpt>
      <trkpt lat="47.01574" lon="1.14994">
        <ele>117</ele>
        <time>2019-09-03T08:52:02Z</time>
      </trkpt>
      <trkpt lat="47.01571" lon="1.15003">
        <ele>117</ele>
        <time>2019-09-03T08:52:03Z</time>
      </trkpt>
      <trkpt lat="47.01567" lon="1.15013">
        <ele>117</ele>
        <time>2019-09-03T08:52:05Z</time>
      </trkpt>
      <trkpt lat="47.01564" lon="1.15021">
        <ele>118</ele>
        <time>2019-09-03T08:52:07Z</time>
      </trkpt>
      <trkpt lat="47.0156" lon="1.1503">
        <ele>118</ele>
        <time>2019-09-03T08:52:08Z</time>
      </trkpt>
      <trkpt lat="47.01558" lon="1.15034">
        <ele>118</ele>
        <time>2019-09-03T08:52:09Z</time>
      </trkpt>
      <trkpt lat="47.01556" lon="1.15039">
        <ele>118</ele>
        <time>2019-09-03T08:52:10Z</time>
      </trkpt>
      <trkpt lat="47.01553" lon="1.15046">
        <ele>119</ele>
        <time>2019-09-03T08:52:11Z</time>
      </trkpt>
      <trkpt lat="47.01537" lon="1.15077">
        <ele>119</ele>
        <time>2019-09-03T08:52:17Z</time>
      </trkpt>
      <trkpt lat="47.01532" lon="1.15088">
        <ele>119</ele>
        <time>2019-09-03T08:52:19Z</time>
      </trkpt>
      <trkpt lat="47.01522" lon="1.15108">
        <ele>118</ele>
        <time>2019-09-03T08:52:23Z</time>
      </trkpt>
      <trkpt lat="47.01517" lon="1.1512">
        <ele>118</ele>
        <time>2019-09-03T08:52:25Z</time>
      </trkpt>
      <trkpt lat="47.01516" lon="1.15122">
        <ele>118</ele>
        <time>2019-09-03T08:52:25Z</time>
      </trkpt>
      <trkpt lat="47.01511" lon="1.15133">
        <ele>118</ele>
        <time>2019-09-03T08:52:27Z</time>
      </trkpt>
      <trkpt lat="47.01505" lon="1.15146">
        <ele>118</ele>
        <time>2019-09-03T08:52:30Z</time>
      </trkpt>
      <trkpt lat="47.01501" lon="1.15159">
        <ele>117</ele>
        <time>2019-09-03T08:52:32Z</time>
      </trkpt>
      <trkpt lat="47.01496" lon="1.1517">
        <ele>117</ele>
        <time>2019-09-03T08:52:34Z</time>
      </trkpt>
      <trkpt lat="47.01489" lon="1.15189">
        <ele>116</ele>
        <time>2019-09-03T08:52:37Z</time>
      </trkpt>
      <trkpt lat="47.01471" lon="1.15236">
        <ele>117</ele>
        <time>2019-09-03T08:52:45Z</time>
      </trkpt>
      <trkpt lat="47.01463" lon="1.15256">
        <ele>116</ele>
        <time>2019-09-03T08:52:49Z</time>
      </trkpt>
      <trkpt lat="47.01449" lon="1.15287">
        <ele>116</ele>
        <time>2019-09-03T08:52:55Z</time>
      </trkpt>
      <trkpt lat="47.01388" lon="1.15417">
        <ele>112</ele>
        <time>2019-09-03T08:53:19Z</time>
      </trkpt>
      <trkpt lat="47.01387" lon="1.15419">
        <ele>112</ele>
        <time>2019-09-03T08:53:19Z</time>
      </trkpt>
      <trkpt lat="47.01383" lon="1.15427">
        <ele>112</ele>
        <time>2019-09-03T08:53:20Z</time>
      </trkpt>
      <trkpt lat="47.01364" lon="1.1547">
        <ele>109</ele>
        <time>2019-09-03T08:53:28Z</time>
      </trkpt>
      <trkpt lat="47.01346" lon="1.15506">
        <ele>107</ele>
        <time>2019-09-03T08:53:35Z</time>
      </trkpt>
      <trkpt lat="47.01342" lon="1.15514">
        <ele>106</ele>
        <time>2019-09-03T08:53:36Z</time>
      </trkpt>
      <trkpt lat="47.01331" lon="1.15535">
        <ele>106</ele>
        <time>2019-09-03T08:53:41Z</time>
      </trkpt>
      <trkpt lat="47.01315" lon="1.15564">
        <ele>105</ele>
        <time>2019-09-03T08:53:46Z</time>
      </trkpt>
      <trkpt lat="47.01293" lon="1.15601">
        <ele>102</ele>
        <time>2019-09-03T08:53:54Z</time>
      </trkpt>
      <trkpt lat="47.01275" lon="1.15629">
        <ele>100</ele>
        <time>2019-09-03T08:54:00Z</time>
      </trkpt>
      <trkpt lat="47.0123" lon="1.15687">
        <ele>97</ele>
        <time>2019-09-03T08:54:13Z</time>
      </trkpt>
      <trkpt lat="47.01219" lon="1.15705">
        <ele>97</ele>
        <time>2019-09-03T08:54:17Z</time>
      </trkpt>
      <trkpt lat="47.01214" lon="1.15712">
        <ele>97</ele>
        <time>2019-09-03T08:54:18Z</time>
      </trkpt>
      <trkpt lat="47.01195" lon="1.15745">
        <ele>95</ele>
        <time>2019-09-03T08:54:25Z</time>
      </trkpt>
      <trkpt lat="47.01183" lon="1.15769">
        <ele>94</ele>
        <time>2019-09-03T08:54:29Z</time>
      </trkpt>
      <trkpt lat="47.01175" lon="1.15788">
        <ele>93</ele>
        <time>2019-09-03T08:54:33Z</time>
      </trkpt>
      <trkpt lat="47.01174" lon="1.15791">
        <ele>93</ele>
        <time>2019-09-03T08:54:33Z</time>
      </trkpt>
      <trkpt lat="47.01169" lon="1.15804">
        <ele>92</ele>
        <time>2019-09-03T08:54:35Z</time>
      </trkpt>
      <trkpt lat="47.01166" lon="1.15814">
        <ele>92</ele>
        <time>2019-09-03T08:54:37Z</time>
      </trkpt>
      <trkpt lat="47.01153" lon="1.15859">
        <ele>93</ele>
        <time>2019-09-03T08:54:44Z</time>
      </trkpt>
      <trkpt lat="47.01153" lon="1.1586">
        <ele>93</ele>
        <time>2019-09-03T08:54:45Z</time>
      </trkpt>
      <trkpt lat="47.01147" lon="1.15877">
        <ele>93</ele>
        <time>2019-09-03T08:54:47Z</time>
      </trkpt>
      <trkpt lat="47.01143" lon="1.15891">
        <ele>93</ele>
        <time>2019-09-03T08:54:50Z</time>
      </trkpt>
      <trkpt lat="47.01139" lon="1.15904">
        <ele>94</ele>
        <time>2019-09-03T08:54:52Z</time>
      </trkpt>
      <trkpt lat="47.01138" lon="1.15908">
        <ele>94</ele>
        <time>2019-09-03T08:54:53Z</time>
      </trkpt>
      <trkpt lat="47.01136" lon="1.15913">
        <ele>94</ele>
        <time>2019-09-03T08:54:54Z</time>
      </trkpt>
      <trkpt lat="47.01132" lon="1.15922">
        <ele>94</ele>
        <time>2019-09-03T08:54:55Z</time>
      </trkpt>
      <trkpt lat="47.01129" lon="1.1593">
        <ele>94</ele>
        <time>2019-09-03T08:54:57Z</time>
      </trkpt>
      <trkpt lat="47.01125" lon="1.15938">
        <ele>95</ele>
        <time>2019-09-03T08:54:58Z</time>
      </trkpt>
      <trkpt lat="47.01121" lon="1.15945">
        <ele>95</ele>
        <time>2019-09-03T08:54:59Z</time>
      </trkpt>
      <trkpt lat="47.01117" lon="1.15951">
        <ele>95</ele>
        <time>2019-09-03T08:55:01Z</time>
      </trkpt>
      <trkpt lat="47.0111" lon="1.15962">
        <ele>95</ele>
        <time>2019-09-03T08:55:03Z</time>
      </trkpt>
      <trkpt lat="47.01103" lon="1.15974">
        <ele>95</ele>
        <time>2019-09-03T08:55:05Z</time>
      </trkpt>
      <trkpt lat="47.01078" lon="1.16006">
        <ele>95</ele>
        <time>2019-09-03T08:55:13Z</time>
      </trkpt>
      <trkpt lat="47.01067" lon="1.1602">
        <ele>95</ele>
        <time>2019-09-03T08:55:16Z</time>
      </trkpt>
      <trkpt lat="47.01052" lon="1.16041">
        <ele>95</ele>
        <time>2019-09-03T08:55:21Z</time>
      </trkpt>
      <trkpt lat="47.01038" lon="1.16061">
        <ele>97</ele>
        <time>2019-09-03T08:55:25Z</time>
      </trkpt>
      <trkpt lat="47.01033" lon="1.16068">
        <ele>97</ele>
        <time>2019-09-03T08:55:27Z</time>
      </trkpt>
      <trkpt lat="47.01029" lon="1.16075">
        <ele>98</ele>
        <time>2019-09-03T08:55:28Z</time>
      </trkpt>
      <trkpt lat="47.01025" lon="1.16083">
        <ele>98</ele>
        <time>2019-09-03T08:55:29Z</time>
      </trkpt>
      <trkpt lat="47.01022" lon="1.1609">
        <ele>98</ele>
        <time>2019-09-03T08:55:31Z</time>
      </trkpt>
      <trkpt lat="47.01019" lon="1.16097">
        <ele>98</ele>
        <time>2019-09-03T08:55:32Z</time>
      </trkpt>
      <trkpt lat="47.01018" lon="1.16102">
        <ele>100</ele>
        <time>2019-09-03T08:55:33Z</time>
      </trkpt>
      <trkpt lat="47.01016" lon="1.16105">
        <ele>100</ele>
        <time>2019-09-03T08:55:33Z</time>
      </trkpt>
      <trkpt lat="47.01013" lon="1.16113">
        <ele>100</ele>
        <time>2019-09-03T08:55:35Z</time>
      </trkpt>
      <trkpt lat="47.01011" lon="1.16122">
        <ele>100</ele>
        <time>2019-09-03T08:55:36Z</time>
      </trkpt>
      <trkpt lat="47.0101" lon="1.16126">
        <ele>100</ele>
        <time>2019-09-03T08:55:37Z</time>
      </trkpt>
      <trkpt lat="47.01007" lon="1.16135">
        <ele>100</ele>
        <time>2019-09-03T08:55:38Z</time>
      </trkpt>
      <trkpt lat="47.01001" lon="1.16159">
        <ele>101</ele>
        <time>2019-09-03T08:55:42Z</time>
      </trkpt>
      <trkpt lat="47.00996" lon="1.16177">
        <ele>101</ele>
        <time>2019-09-03T08:55:45Z</time>
      </trkpt>
      <trkpt lat="47.0099" lon="1.16198">
        <ele>101</ele>
        <time>2019-09-03T08:55:49Z</time>
      </trkpt>
      <trkpt lat="47.00976" lon="1.16249">
        <ele>99</ele>
        <time>2019-09-03T08:55:57Z</time>
      </trkpt>
      <trkpt lat="47.00968" lon="1.16279">
        <ele>100</ele>
        <time>2019-09-03T08:56:02Z</time>
      </trkpt>
      <trkpt lat="47.00958" lon="1.16317">
        <ele>100</ele>
        <time>2019-09-03T08:56:08Z</time>
      </trkpt>
      <trkpt lat="47.00934" lon="1.16401">
        <ele>97</ele>
        <time>2019-09-03T08:56:22Z</time>
      </trkpt>
      <trkpt lat="47.00929" lon="1.16419">
        <ele>97</ele>
        <time>2019-09-03T08:56:25Z</time>
      </trkpt>
      <trkpt lat="47.00927" lon="1.16426">
        <ele>97</ele>
        <time>2019-09-03T08:56:26Z</time>
      </trkpt>
      <trkpt lat="47.00908" lon="1.16495">
        <ele>102</ele>
        <time>2019-09-03T08:56:37Z</time>
      </trkpt>
      <trkpt lat="47.00905" lon="1.16506">
        <ele>102</ele>
        <time>2019-09-03T08:56:39Z</time>
      </trkpt>
      <trkpt lat="47.00903" lon="1.16515">
        <ele>101</ele>
        <time>2019-09-03T08:56:41Z</time>
      </trkpt>
      <trkpt lat="47.00899" lon="1.16525">
        <ele>100</ele>
        <time>2019-09-03T08:56:42Z</time>
      </trkpt>
      <trkpt lat="47.00894" lon="1.16535">
        <ele>100</ele>
        <time>2019-09-03T08:56:44Z</time>
      </trkpt>
      <trkpt lat="47.0089" lon="1.16544">
        <ele>99</ele>
        <time>2019-09-03T08:56:46Z</time>
      </trkpt>
      <trkpt lat="47.0089" lon="1.16545">
        <ele>99</ele>
        <time>2019-09-03T08:56:46Z</time>
      </trkpt>
      <trkpt lat="47.00882" lon="1.16558">
        <ele>99</ele>
        <time>2019-09-03T08:56:49Z</time>
      </trkpt>
      <trkpt lat="47.00866" lon="1.16585">
        <ele>98</ele>
        <time>2019-09-03T08:56:54Z</time>
      </trkpt>
      <trkpt lat="47.00855" lon="1.16605">
        <ele>99</ele>
        <time>2019-09-03T08:56:58Z</time>
      </trkpt>
      <trkpt lat="47.00843" lon="1.16625">
        <ele>99</ele>
        <time>2019-09-03T08:57:02Z</time>
      </trkpt>
      <trkpt lat="47.00833" lon="1.16642">
        <ele>99</ele>
        <time>2019-09-03T08:57:06Z</time>
      </trkpt>
      <trkpt lat="47.00819" lon="1.16665">
        <ele>100</ele>
        <time>2019-09-03T08:57:10Z</time>
      </trkpt>
      <trkpt lat="47.00785" lon="1.16721">
        <ele>104</ele>
        <time>2019-09-03T08:57:22Z</time>
      </trkpt>
      <trkpt lat="47.0075" lon="1.1678">
        <ele>107</ele>
        <time>2019-09-03T08:57:33Z</time>
      </trkpt>
      <trkpt lat="47.00739" lon="1.16798">
        <ele>108</ele>
        <time>2019-09-03T08:57:37Z</time>
      </trkpt>
      <trkpt lat="47.00727" lon="1.16821">
        <ele>106</ele>
        <time>2019-09-03T08:57:42Z</time>
      </trkpt>
      <trkpt lat="47.00717" lon="1.1684">
        <ele>106</ele>
        <time>2019-09-03T08:57:45Z</time>
      </trkpt>
      <trkpt lat="47.00707" lon="1.16864">
        <ele>106</ele>
        <time>2019-09-03T08:57:49Z</time>
      </trkpt>
      <trkpt lat="47.00697" lon="1.16888">
        <ele>109</ele>
        <time>2019-09-03T08:57:54Z</time>
      </trkpt>
      <trkpt lat="47.00686" lon="1.16921">
        <ele>111</ele>
        <time>2019-09-03T08:57:59Z</time>
      </trkpt>
      <trkpt lat="47.00682" lon="1.16935">
        <ele>114</ele>
        <time>2019-09-03T08:58:02Z</time>
      </trkpt>
      <trkpt lat="47.00677" lon="1.16956">
        <ele>109</ele>
        <time>2019-09-03T08:58:05Z</time>
      </trkpt>
      <trkpt lat="47.00676" lon="1.16959">
        <ele>112</ele>
        <time>2019-09-03T08:58:06Z</time>
      </trkpt>
      <trkpt lat="47.00672" lon="1.1697">
        <ele>112</ele>
        <time>2019-09-03T08:58:07Z</time>
      </trkpt>
      <trkpt lat="47.00669" lon="1.16984">
        <ele>112</ele>
        <time>2019-09-03T08:58:10Z</time>
      </trkpt>
      <trkpt lat="47.00666" lon="1.16997">
        <ele>113</ele>
        <time>2019-09-03T08:58:12Z</time>
      </trkpt>
      <trkpt lat="47.00663" lon="1.17009">
        <ele>113</ele>
        <time>2019-09-03T08:58:14Z</time>
      </trkpt>
      <trkpt lat="47.00659" lon="1.17026">
        <ele>113</ele>
        <time>2019-09-03T08:58:16Z</time>
      </trkpt>
      <trkpt lat="47.00656" lon="1.17038">
        <ele>113</ele>
        <time>2019-09-03T08:58:18Z</time>
      </trkpt>
      <trkpt lat="47.00653" lon="1.17047">
        <ele>111</ele>
        <time>2019-09-03T08:58:20Z</time>
      </trkpt>
      <trkpt lat="47.00649" lon="1.17057">
        <ele>107</ele>
        <time>2019-09-03T08:58:22Z</time>
      </trkpt>
      <trkpt lat="47.00643" lon="1.17069">
        <ele>107</ele>
        <time>2019-09-03T08:58:24Z</time>
      </trkpt>
      <trkpt lat="47.00639" lon="1.17076">
        <ele>107</ele>
        <time>2019-09-03T08:58:25Z</time>
      </trkpt>
      <trkpt lat="47.0062" lon="1.17108">
        <ele>105</ele>
        <time>2019-09-03T08:58:32Z</time>
      </trkpt>
      <trkpt lat="47.00608" lon="1.17128">
        <ele>105</ele>
        <time>2019-09-03T08:58:36Z</time>
      </trkpt>
      <trkpt lat="47.00573" lon="1.17188">
        <ele>101</ele>
        <time>2019-09-03T08:58:48Z</time>
      </trkpt>
      <trkpt lat="47.00555" lon="1.17219">
        <ele>97</ele>
        <time>2019-09-03T08:58:54Z</time>
      </trkpt>
      <trkpt lat="47.00539" lon="1.17249">
        <ele>95</ele>
        <time>2019-09-03T08:59:00Z</time>
      </trkpt>
      <trkpt lat="47.00527" lon="1.17269">
        <ele>96</ele>
        <time>2019-09-03T08:59:04Z</time>
      </trkpt>
      <trkpt lat="47.00516" lon="1.17289">
        <ele>96</ele>
        <time>2019-09-03T08:59:08Z</time>
      </trkpt>
      <trkpt lat="47.00493" lon="1.1733">
        <ele>94</ele>
        <time>2019-09-03T08:59:16Z</time>
      </trkpt>
      <trkpt lat="47.00485" lon="1.17343">
        <ele>93</ele>
        <time>2019-09-03T08:59:19Z</time>
      </trkpt>
      <trkpt lat="47.00474" lon="1.17366">
        <ele>93</ele>
        <time>2019-09-03T08:59:23Z</time>
      </trkpt>
      <trkpt lat="47.00466" lon="1.17383">
        <ele>93</ele>
        <time>2019-09-03T08:59:26Z</time>
      </trkpt>
      <trkpt lat="47.00458" lon="1.17403">
        <ele>93</ele>
        <time>2019-09-03T08:59:29Z</time>
      </trkpt>
      <trkpt lat="47.0045" lon="1.17429">
        <ele>93</ele>
        <time>2019-09-03T08:59:34Z</time>
      </trkpt>
      <trkpt lat="47.00423" lon="1.17514">
        <ele>95</ele>
        <time>2019-09-03T08:59:48Z</time>
      </trkpt>
      <trkpt lat="47.0042" lon="1.17522">
        <ele>95</ele>
        <time>2019-09-03T08:59:49Z</time>
      </trkpt>
      <trkpt lat="47.00418" lon="1.17529">
        <ele>95</ele>
        <time>2019-09-03T08:59:51Z</time>
      </trkpt>
      <trkpt lat="47.00418" lon="1.1753">
        <ele>95</ele>
        <time>2019-09-03T08:59:51Z</time>
      </trkpt>
      <trkpt lat="47.00415" lon="1.17537">
        <ele>95</ele>
        <time>2019-09-03T08:59:52Z</time>
      </trkpt>
      <trkpt lat="47.00414" lon="1.17538">
        <ele>95</ele>
        <time>2019-09-03T08:59:52Z</time>
      </trkpt>
      <trkpt lat="47.00409" lon="1.17548">
        <ele>95</ele>
        <time>2019-09-03T08:59:54Z</time>
      </trkpt>
      <trkpt lat="47.00404" lon="1.17559">
        <ele>95</ele>
        <time>2019-09-03T08:59:56Z</time>
      </trkpt>
      <trkpt lat="47.00392" lon="1.17578">
        <ele>94</ele>
        <time>2019-09-03T09:00:00Z</time>
      </trkpt>
      <trkpt lat="47.00386" lon="1.17588">
        <ele>94</ele>
        <time>2019-09-03T09:00:02Z</time>
      </trkpt>
      <trkpt lat="47.00381" lon="1.17597">
        <ele>94</ele>
        <time>2019-09-03T09:00:04Z</time>
      </trkpt>
      <trkpt lat="47.00377" lon="1.17602">
        <ele>93</ele>
        <time>2019-09-03T09:00:05Z</time>
      </trkpt>
      <trkpt lat="47.00373" lon="1.17607">
        <ele>93</ele>
        <time>2019-09-03T09:00:06Z</time>
      </trkpt>
      <trkpt lat="47.00368" lon="1.17613">
        <ele>93</ele>
        <time>2019-09-03T09:00:08Z</time>
      </trkpt>
      <trkpt lat="47.00363" lon="1.17617">
        <ele>93</ele>
        <time>2019-09-03T09:00:09Z</time>
      </trkpt>
      <trkpt lat="47.00359" lon="1.17621">
        <ele>93</ele>
        <time>2019-09-03T09:00:10Z</time>
      </trkpt>
      <trkpt lat="47.00354" lon="1.17624">
        <ele>93</ele>
        <time>2019-09-03T09:00:11Z</time>
      </trkpt>
      <trkpt lat="47.0035" lon="1.17626">
        <ele>93</ele>
        <time>2019-09-03T09:00:12Z</time>
      </trkpt>
      <trkpt lat="47.00347" lon="1.17627">
        <ele>93</ele>
        <time>2019-09-03T09:00:13Z</time>
      </trkpt>
      <trkpt lat="47.00345" lon="1.17628">
        <ele>93</ele>
        <time>2019-09-03T09:00:13Z</time>
      </trkpt>
      <trkpt lat="47.0034" lon="1.1763">
        <ele>93</ele>
        <time>2019-09-03T09:00:14Z</time>
      </trkpt>
      <trkpt lat="47.00336" lon="1.17631">
        <ele>93</ele>
        <time>2019-09-03T09:00:15Z</time>
      </trkpt>
      <trkpt lat="47.0033" lon="1.17632">
        <ele>93</ele>
        <time>2019-09-03T09:00:17Z</time>
      </trkpt>
      <trkpt lat="47.00325" lon="1.17632">
        <ele>93</ele>
        <time>2019-09-03T09:00:18Z</time>
      </trkpt>
      <trkpt lat="47.00321" lon="1.17632">
        <ele>93</ele>
        <time>2019-09-03T09:00:19Z</time>
      </trkpt>
      <trkpt lat="47.00316" lon="1.17632">
        <ele>93</ele>
        <time>2019-09-03T09:00:20Z</time>
      </trkpt>
      <trkpt lat="47.00309" lon="1.1763">
        <ele>93</ele>
        <time>2019-09-03T09:00:21Z</time>
      </trkpt>
      <trkpt lat="47.00303" lon="1.17628">
        <ele>93</ele>
        <time>2019-09-03T09:00:23Z</time>
      </trkpt>
      <trkpt lat="47.00295" lon="1.17626">
        <ele>93</ele>
        <time>2019-09-03T09:00:25Z</time>
      </trkpt>
      <trkpt lat="47.00285" lon="1.17619">
        <ele>92</ele>
        <time>2019-09-03T09:00:27Z</time>
      </trkpt>
      <trkpt lat="47.0022" lon="1.17577">
        <ele>93</ele>
        <time>2019-09-03T09:00:43Z</time>
      </trkpt>
      <trkpt lat="47.00193" lon="1.17559">
        <ele>93</ele>
        <time>2019-09-03T09:00:49Z</time>
      </trkpt>
      <trkpt lat="47.00171" lon="1.17545">
        <ele>93</ele>
        <time>2019-09-03T09:00:55Z</time>
      </trkpt>
      <trkpt lat="47.00146" lon="1.17528">
        <ele>93</ele>
        <time>2019-09-03T09:01:01Z</time>
      </trkpt>
      <trkpt lat="47.00127" lon="1.17516">
        <ele>93</ele>
        <time>2019-09-03T09:01:06Z</time>
      </trkpt>
      <trkpt lat="47.00114" lon="1.17509">
        <ele>95</ele>
        <time>2019-09-03T09:01:09Z</time>
      </trkpt>
      <trkpt lat="47.00105" lon="1.17503">
        <ele>95</ele>
        <time>2019-09-03T09:01:11Z</time>
      </trkpt>
      <trkpt lat="47.00101" lon="1.17501">
        <ele>95</ele>
        <time>2019-09-03T09:01:12Z</time>
      </trkpt>
      <trkpt lat="47.00094" lon="1.17498">
        <ele>95</ele>
        <time>2019-09-03T09:01:13Z</time>
      </trkpt>
      <trkpt lat="47.00088" lon="1.17494">
        <ele>95</ele>
        <time>2019-09-03T09:01:15Z</time>
      </trkpt>
      <trkpt lat="47.00086" lon="1.17493">
        <ele>95</ele>
        <time>2019-09-03T09:01:15Z</time>
      </trkpt>
      <trkpt lat="47.00078" lon="1.1749">
        <ele>95</ele>
        <time>2019-09-03T09:01:17Z</time>
      </trkpt>
      <trkpt lat="47.0007" lon="1.17487">
        <ele>95</ele>
        <time>2019-09-03T09:01:19Z</time>
      </trkpt>
      <trkpt lat="47.00063" lon="1.17484">
        <ele>94</ele>
        <time>2019-09-03T09:01:21Z</time>
      </trkpt>
      <trkpt lat="47.00055" lon="1.17481">
        <ele>94</ele>
        <time>2019-09-03T09:01:22Z</time>
      </trkpt>
      <trkpt lat="47.00053" lon="1.17481">
        <ele>94</ele>
        <time>2019-09-03T09:01:23Z</time>
      </trkpt>
      <trkpt lat="47.00048" lon="1.17479">
        <ele>94</ele>
        <time>2019-09-03T09:01:24Z</time>
      </trkpt>
      <trkpt lat="47.00041" lon="1.17476">
        <ele>94</ele>
        <time>2019-09-03T09:01:26Z</time>
      </trkpt>
      <trkpt lat="47.00034" lon="1.17474">
        <ele>94</ele>
        <time>2019-09-03T09:01:27Z</time>
      </trkpt>
      <trkpt lat="47.00026" lon="1.17472">
        <ele>94</ele>
        <time>2019-09-03T09:01:29Z</time>
      </trkpt>
      <trkpt lat="47.00018" lon="1.1747">
        <ele>94</ele>
        <time>2019-09-03T09:01:31Z</time>
      </trkpt>
      <trkpt lat="47.00009" lon="1.17469">
        <ele>93</ele>
        <time>2019-09-03T09:01:33Z</time>
      </trkpt>
      <trkpt lat="47" lon="1.17467">
        <ele>93</ele>
        <time>2019-09-03T09:01:35Z</time>
      </trkpt>
      <trkpt lat="46.99998" lon="1.17467">
        <ele>93</ele>
        <time>2019-09-03T09:01:35Z</time>
      </trkpt>
      <trkpt lat="46.99989" lon="1.17466">
        <ele>93</ele>
        <time>2019-09-03T09:01:37Z</time>
      </trkpt>
      <trkpt lat="46.9998" lon="1.17465">
        <ele>92</ele>
        <time>2019-09-03T09:01:39Z</time>
      </trkpt>
      <trkpt lat="46.99972" lon="1.17465">
        <ele>92</ele>
        <time>2019-09-03T09:01:41Z</time>
      </trkpt>
      <trkpt lat="46.99963" lon="1.17465">
        <ele>92</ele>
        <time>2019-09-03T09:01:43Z</time>
      </trkpt>
      <trkpt lat="46.99956" lon="1.17465">
        <ele>90</ele>
        <time>2019-09-03T09:01:45Z</time>
      </trkpt>
      <trkpt lat="46.99946" lon="1.17465">
        <ele>90</ele>
        <time>2019-09-03T09:01:47Z</time>
      </trkpt>
      <trkpt lat="46.99937" lon="1.17467">
        <ele>90</ele>
        <time>2019-09-03T09:01:49Z</time>
      </trkpt>
      <trkpt lat="46.99927" lon="1.17469">
        <ele>90</ele>
        <time>2019-09-03T09:01:51Z</time>
      </trkpt>
      <trkpt lat="46.99914" lon="1.17474">
        <ele>90</ele>
        <time>2019-09-03T09:01:54Z</time>
      </trkpt>
      <trkpt lat="46.99859" lon="1.17497">
        <ele>91</ele>
        <time>2019-09-03T09:02:07Z</time>
      </trkpt>
      <trkpt lat="46.99837" lon="1.17507">
        <ele>91</ele>
        <time>2019-09-03T09:02:12Z</time>
      </trkpt>
      <trkpt lat="46.99828" lon="1.17512">
        <ele>91</ele>
        <time>2019-09-03T09:02:14Z</time>
      </trkpt>
      <trkpt lat="46.99822" lon="1.17516">
        <ele>91</ele>
        <time>2019-09-03T09:02:16Z</time>
      </trkpt>
      <trkpt lat="46.99813" lon="1.17521">
        <ele>91</ele>
        <time>2019-09-03T09:02:18Z</time>
      </trkpt>
      <trkpt lat="46.99806" lon="1.17527">
        <ele>91</ele>
        <time>2019-09-03T09:02:20Z</time>
      </trkpt>
      <trkpt lat="46.99798" lon="1.17534">
        <ele>91</ele>
        <time>2019-09-03T09:02:22Z</time>
      </trkpt>
      <trkpt lat="46.99789" lon="1.17543">
        <ele>91</ele>
        <time>2019-09-03T09:02:24Z</time>
      </trkpt>
      <trkpt lat="46.99778" lon="1.17557">
        <ele>91</ele>
        <time>2019-09-03T09:02:27Z</time>
      </trkpt>
      <trkpt lat="46.99771" lon="1.17565">
        <ele>91</ele>
        <time>2019-09-03T09:02:29Z</time>
      </trkpt>
      <trkpt lat="46.99766" lon="1.17572">
        <ele>92</ele>
        <time>2019-09-03T09:02:31Z</time>
      </trkpt>
      <trkpt lat="46.99764" lon="1.17574">
        <ele>92</ele>
        <time>2019-09-03T09:02:31Z</time>
      </trkpt>
      <trkpt lat="46.99755" lon="1.17585">
        <ele>91</ele>
        <time>2019-09-03T09:02:34Z</time>
      </trkpt>
      <trkpt lat="46.997" lon="1.17659">
        <ele>90</ele>
        <time>2019-09-03T09:02:51Z</time>
      </trkpt>
      <trkpt lat="46.99693" lon="1.17668">
        <ele>90</ele>
        <time>2019-09-03T09:02:53Z</time>
      </trkpt>
      <trkpt lat="46.99658" lon="1.17712">
        <ele>90</ele>
        <time>2019-09-03T09:03:03Z</time>
      </trkpt>
      <trkpt lat="46.9965" lon="1.17723">
        <ele>89</ele>
        <time>2019-09-03T09:03:05Z</time>
      </trkpt>
      <trkpt lat="46.99643" lon="1.17732">
        <ele>89</ele>
        <time>2019-09-03T09:03:07Z</time>
      </trkpt>
      <trkpt lat="46.99639" lon="1.17739">
        <ele>88</ele>
        <time>2019-09-03T09:03:09Z</time>
      </trkpt>
      <trkpt lat="46.99638" lon="1.17741">
        <ele>88</ele>
        <time>2019-09-03T09:03:09Z</time>
      </trkpt>
      <trkpt lat="46.99636" lon="1.17746">
        <ele>88</ele>
        <time>2019-09-03T09:03:10Z</time>
      </trkpt>
      <trkpt lat="46.99632" lon="1.17752">
        <ele>88</ele>
        <time>2019-09-03T09:03:11Z</time>
      </trkpt>
      <trkpt lat="46.99628" lon="1.17763">
        <ele>88</ele>
        <time>2019-09-03T09:03:13Z</time>
      </trkpt>
      <trkpt lat="46.99621" lon="1.17783">
        <ele>87</ele>
        <time>2019-09-03T09:03:17Z</time>
      </trkpt>
      <trkpt lat="46.99613" lon="1.17804">
        <ele>87</ele>
        <time>2019-09-03T09:03:20Z</time>
      </trkpt>
      <trkpt lat="46.99598" lon="1.17839">
        <ele>88</ele>
        <time>2019-09-03T09:03:27Z</time>
      </trkpt>
      <trkpt lat="46.99582" lon="1.17869">
        <ele>88</ele>
        <time>2019-09-03T09:03:32Z</time>
      </trkpt>
      <trkpt lat="46.99552" lon="1.1793">
        <ele>87</ele>
        <time>2019-09-03T09:03:44Z</time>
      </trkpt>
      <trkpt lat="46.99487" lon="1.18057">
        <ele>87</ele>
        <time>2019-09-03T09:04:08Z</time>
      </trkpt>
      <trkpt lat="46.99475" lon="1.18079">
        <ele>87</ele>
        <time>2019-09-03T09:04:12Z</time>
      </trkpt>
      <trkpt lat="46.99463" lon="1.18098">
        <ele>87</ele>
        <time>2019-09-03T09:04:16Z</time>
      </trkpt>
      <trkpt lat="46.99452" lon="1.18115">
        <ele>86</ele>
        <time>2019-09-03T09:04:20Z</time>
      </trkpt>
      <trkpt lat="46.99437" lon="1.1813">
        <ele>86</ele>
        <time>2019-09-03T09:04:24Z</time>
      </trkpt>
      <trkpt lat="46.99434" lon="1.18132">
        <ele>86</ele>
        <time>2019-09-03T09:04:25Z</time>
      </trkpt>
      <trkpt lat="46.99425" lon="1.1814">
        <ele>86</ele>
        <time>2019-09-03T09:04:27Z</time>
      </trkpt>
      <trkpt lat="46.99411" lon="1.18148">
        <ele>86</ele>
        <time>2019-09-03T09:04:30Z</time>
      </trkpt>
      <trkpt lat="46.99394" lon="1.18156">
        <ele>87</ele>
        <time>2019-09-03T09:04:34Z</time>
      </trkpt>
      <trkpt lat="46.99373" lon="1.18164">
        <ele>88</ele>
        <time>2019-09-03T09:04:39Z</time>
      </trkpt>
      <trkpt lat="46.99363" lon="1.18169">
        <ele>88</ele>
        <time>2019-09-03T09:04:41Z</time>
      </trkpt>
      <trkpt lat="46.99359" lon="1.18171">
        <ele>88</ele>
        <time>2019-09-03T09:04:42Z</time>
      </trkpt>
      <trkpt lat="46.99347" lon="1.18178">
        <ele>88</ele>
        <time>2019-09-03T09:04:45Z</time>
      </trkpt>
      <trkpt lat="46.99333" lon="1.18186">
        <ele>88</ele>
        <time>2019-09-03T09:04:49Z</time>
      </trkpt>
      <trkpt lat="46.99321" lon="1.18197">
        <ele>88</ele>
        <time>2019-09-03T09:04:52Z</time>
      </trkpt>
      <trkpt lat="46.99319" lon="1.18198">
        <ele>87</ele>
        <time>2019-09-03T09:04:52Z</time>
      </trkpt>
      <trkpt lat="46.99309" lon="1.18208">
        <ele>87</ele>
        <time>2019-09-03T09:04:55Z</time>
      </trkpt>
      <trkpt lat="46.99293" lon="1.18224">
        <ele>87</ele>
        <time>2019-09-03T09:04:59Z</time>
      </trkpt>
      <trkpt lat="46.99281" lon="1.1824">
        <ele>87</ele>
        <time>2019-09-03T09:05:03Z</time>
      </trkpt>
      <trkpt lat="46.99267" lon="1.18264">
        <ele>88</ele>
        <time>2019-09-03T09:05:08Z</time>
      </trkpt>
      <trkpt lat="46.99241" lon="1.18306">
        <ele>88</ele>
        <time>2019-09-03T09:05:16Z</time>
      </trkpt>
      <trkpt lat="46.99234" lon="1.18318">
        <ele>87</ele>
        <time>2019-09-03T09:05:19Z</time>
      </trkpt>
      <trkpt lat="46.99218" lon="1.18342">
        <ele>88</ele>
        <time>2019-09-03T09:05:24Z</time>
      </trkpt>
      <trkpt lat="46.99205" lon="1.18361">
        <ele>89</ele>
        <time>2019-09-03T09:05:28Z</time>
      </trkpt>
      <trkpt lat="46.99189" lon="1.18381">
        <ele>89</ele>
        <time>2019-09-03T09:05:32Z</time>
      </trkpt>
      <trkpt lat="46.99152" lon="1.18423">
        <ele>89</ele>
        <time>2019-09-03T09:05:36Z</time>
      </trkpt>
      <trkpt lat="46.99015" lon="1.18144">
        <ele>87</ele>
        <time>2019-09-03T09:05:41Z</time>
      </trkpt>
      <trkpt lat="46.98885" lon="1.17867">
        <ele>87</ele>
        <time>2019-09-03T09:05:44Z</time>
      </trkpt>
      <trkpt lat="46.98779" lon="1.17725">
        <ele>89</ele>
        <time>2019-09-03T09:05:44Z</time>
      </trkpt>
      <trkpt lat="46.98757" lon="1.17625">
        <ele>92</ele>
        <time>2019-09-03T09:06:03Z</time>
      </trkpt>
      <trkpt lat="46.98816" lon="1.17554">
        <ele>94</ele>
        <time>2019-09-03T09:06:04Z</time>
      </trkpt>
      <trkpt lat="46.98887" lon="1.175">
        <ele>89</ele>
        <time>2019-09-03T09:06:05Z</time>
      </trkpt>
      <trkpt lat="46.9892" lon="1.17573">
        <ele>86</ele>
        <time>2019-09-03T09:06:07Z</time>
      </trkpt>
      <trkpt lat="46.98977" lon="1.17646">
        <ele>87</ele>
        <time>2019-09-03T09:06:10Z</time>
      </trkpt>
      <trkpt lat="46.98889" lon="1.17479">
        <ele>91</ele>
        <time>2019-09-03T09:06:12Z</time>
      </trkpt>
      <trkpt lat="46.98865" lon="1.17476">
        <ele>92</ele>
        <time>2019-09-03T09:06:13Z</time>
      </trkpt>
      <trkpt lat="46.98785" lon="1.17573">
        <ele>93</ele>
        <time>2019-09-03T09:06:16Z</time>
      </trkpt>
      <trkpt lat="46.98741" lon="1.1762">
        <ele>92</ele>
        <time>2019-09-03T09:06:19Z</time>
      </trkpt>
      <trkpt lat="46.98759" lon="1.17721">
        <ele>88</ele>
        <time>2019-09-03T09:06:22Z</time>
      </trkpt>
      <trkpt lat="46.9881" lon="1.17805">
        <ele>88</ele>
        <time>2019-09-03T09:06:22Z</time>
      </trkpt>
      <trkpt lat="46.98877" lon="1.17884">
        <ele>87</ele>
        <time>2019-09-03T09:06:25Z</time>
      </trkpt>
      <trkpt lat="46.98908" lon="1.17964">
        <ele>87</ele>
        <time>2019-09-03T09:06:30Z</time>
      </trkpt>
      <trkpt lat="46.9916" lon="1.1847">
        <ele>91</ele>
        <time>2019-09-03T09:06:36Z</time>
      </trkpt>
      <trkpt lat="46.99197" lon="1.18527">
        <ele>93</ele>
        <time>2019-09-03T09:06:42Z</time>
      </trkpt>
      <trkpt lat="46.99201" lon="1.18535">
        <ele>93</ele>
        <time>2019-09-03T09:06:42Z</time>
      </trkpt>
      <trkpt lat="46.99201" lon="1.18535">
        <ele>93</ele>
        <time>2019-09-03T09:06:50Z</time>
      </trkpt>
      <trkpt lat="46.9919" lon="1.18546">
        <ele>93</ele>
        <time>2019-09-03T09:06:58Z</time>
      </trkpt>
      <trkpt lat="46.99181" lon="1.18556">
        <ele>93</ele>
        <time>2019-09-03T09:06:58Z</time>
      </trkpt>
      <trkpt lat="46.99174" lon="1.18562">
        <ele>93</ele>
        <time>2019-09-03T09:06:59Z</time>
      </trkpt>
      <trkpt lat="46.99169" lon="1.18566">
        <ele>93</ele>
        <time>2019-09-03T09:07:07Z</time>
      </trkpt>
      <trkpt lat="46.99159" lon="1.18575">
        <ele>94</ele>
        <time>2019-09-03T09:07:12Z</time>
      </trkpt>
      <trkpt lat="46.99147" lon="1.18585">
        <ele>94</ele>
        <time>2019-09-03T09:07:15Z</time>
      </trkpt>
      <trkpt lat="46.99135" lon="1.18592">
        <ele>94</ele>
        <time>2019-09-03T09:07:16Z</time>
      </trkpt>
      <trkpt lat="46.99134" lon="1.18593">
        <ele>94</ele>
        <time>2019-09-03T09:07:17Z</time>
      </trkpt>
      <trkpt lat="46.99122" lon="1.18598">
        <ele>93</ele>
        <time>2019-09-03T09:07:19Z</time>
      </trkpt>
      <trkpt lat="46.99097" lon="1.1861">
        <ele>92</ele>
        <time>2019-09-03T09:07:20Z</time>
      </trkpt>
      <trkpt lat="46.99074" lon="1.18621">
        <ele>92</ele>
        <time>2019-09-03T09:07:21Z</time>
      </trkpt>
      <trkpt lat="46.9905" lon="1.18633">
        <ele>89</ele>
        <time>2019-09-03T09:07:23Z</time>
      </trkpt>
      <trkpt lat="46.99048" lon="1.18634">
        <ele>89</ele>
        <time>2019-09-03T09:07:24Z</time>
      </trkpt>
      <trkpt lat="46.99016" lon="1.1865">
        <ele>89</ele>
        <time>2019-09-03T09:07:26Z</time>
      </trkpt>
      <trkpt lat="46.98982" lon="1.18669">
        <ele>90</ele>
        <time>2019-09-03T09:07:26Z</time>
      </trkpt>
      <trkpt lat="46.98979" lon="1.1867">
        <ele>90</ele>
        <time>2019-09-03T09:07:28Z</time>
      </trkpt>
      <trkpt lat="46.98977" lon="1.18672">
        <ele>90</ele>
        <time>2019-09-03T09:07:29Z</time>
      </trkpt>
      <trkpt lat="46.98943" lon="1.18688">
        <ele>89</ele>
        <time>2019-09-03T09:07:31Z</time>
      </trkpt>
      <trkpt lat="46.98919" lon="1.18699">
        <ele>89</ele>
        <time>2019-09-03T09:07:32Z</time>
      </trkpt>
      <trkpt lat="46.98907" lon="1.18705">
        <ele>89</ele>
        <time>2019-09-03T09:07:33Z</time>
      </trkpt>
      <trkpt lat="46.98902" lon="1.18707">
        <ele>88</ele>
        <time>2019-09-03T09:07:34Z</time>
      </trkpt>
      <trkpt lat="46.98897" lon="1.18709">
        <ele>89</ele>
        <time>2019-09-03T09:07:35Z</time>
      </trkpt>
      <trkpt lat="46.98891" lon="1.18711">
        <ele>89</ele>
        <time>2019-09-03T09:07:36Z</time>
      </trkpt>
      <trkpt lat="46.98885" lon="1.18711">
        <ele>89</ele>
        <time>2019-09-03T09:07:37Z</time>
      </trkpt>
      <trkpt lat="46.9888" lon="1.18712">
        <ele>89</ele>
        <time>2019-09-03T09:07:38Z</time>
      </trkpt>
      <trkpt lat="46.98874" lon="1.18712">
        <ele>90</ele>
        <time>2019-09-03T09:07:39Z</time>
      </trkpt>
      <trkpt lat="46.98866" lon="1.1871">
        <ele>90</ele>
        <time>2019-09-03T09:07:40Z</time>
      </trkpt>
      <trkpt lat="46.98859" lon="1.18708">
        <ele>89</ele>
        <time>2019-09-03T09:07:41Z</time>
      </trkpt>
      <trkpt lat="46.98858" lon="1.18709">
        <ele>90</ele>
        <time>2019-09-03T09:07:45Z</time>
      </trkpt>
      <trkpt lat="46.9885" lon="1.18706">
        <ele>89</ele>
        <time>2019-09-03T09:07:47Z</time>
      </trkpt>
      <trkpt lat="46.98847" lon="1.18705">
        <ele>90</ele>
        <time>2019-09-03T09:07:50Z</time>
      </trkpt>
      <trkpt lat="46.98836" lon="1.18701">
        <ele>90</ele>
        <time>2019-09-03T09:07:52Z</time>
      </trkpt>
      <trkpt lat="46.98831" lon="1.18699">
        <ele>90</ele>
        <time>2019-09-03T09:07:55Z</time>
      </trkpt>
      <trkpt lat="46.98827" lon="1.18698">
        <ele>90</ele>
        <time>2019-09-03T09:07:57Z</time>
      </trkpt>
      <trkpt lat="46.98823" lon="1.18698">
        <ele>90</ele>
        <time>2019-09-03T09:08:00Z</time>
      </trkpt>
      <trkpt lat="46.98819" lon="1.18699">
        <ele>90</ele>
        <time>2019-09-03T09:08:02Z</time>
      </trkpt>
      <trkpt lat="46.98815" lon="1.187">
        <ele>90</ele>
        <time>2019-09-03T09:08:05Z</time>
      </trkpt>
      <trkpt lat="46.9881" lon="1.18702">
        <ele>90</ele>
        <time>2019-09-03T09:08:11Z</time>
      </trkpt>
      <trkpt lat="46.98806" lon="1.18705">
        <ele>90</ele>
        <time>2019-09-03T09:08:15Z</time>
      </trkpt>
      <trkpt lat="46.98803" lon="1.18708">
        <ele>90</ele>
        <time>2019-09-03T09:08:30Z</time>
      </trkpt>
      <trkpt lat="46.988" lon="1.1871">
        <ele>91</ele>
        <time>2019-09-03T09:08:49Z</time>
      </trkpt>
      <trkpt lat="46.98794" lon="1.18716">
        <ele>91</ele>
        <time>2019-09-03T09:09:03Z</time>
      </trkpt>
      <trkpt lat="46.98781" lon="1.18734">
        <ele>90</ele>
        <time>2019-09-03T09:09:03Z</time>
      </trkpt>
      <trkpt lat="46.98775" lon="1.18741">
        <ele>91</ele>
        <time>2019-09-03T09:09:23Z</time>
      </trkpt>
      <trkpt lat="46.98767" lon="1.18752">
        <ele>91</ele>
        <time>2019-09-03T09:09:24Z</time>
      </trkpt>
      <trkpt lat="46.98757" lon="1.18762">
        <ele>90</ele>
        <time>2019-09-03T09:09:27Z</time>
      </trkpt>
      <trkpt lat="46.98745" lon="1.18771">
        <ele>91</ele>
        <time>2019-09-03T09:09:40Z</time>
      </trkpt>
      <trkpt lat="46.98737" lon="1.18776">
        <ele>91</ele>
        <time>2019-09-03T09:09:45Z</time>
      </trkpt>
      <trkpt lat="46.98727" lon="1.18784">
        <ele>90</ele>
        <time>2019-09-03T09:09:49Z</time>
      </trkpt>
      <trkpt lat="46.98718" lon="1.18791">
        <ele>90</ele>
        <time>2019-09-03T09:09:49Z</time>
      </trkpt>
      <trkpt lat="46.98708" lon="1.18802">
        <ele>92</ele>
        <time>2019-09-03T09:09:57Z</time>
      </trkpt>
      <trkpt lat="46.98687" lon="1.18831">
        <ele>92</ele>
        <time>2019-09-03T09:10:03Z</time>
      </trkpt>
      <trkpt lat="46.98676" lon="1.18847">
        <ele>92</ele>
        <time>2019-09-03T09:10:08Z</time>
      </trkpt>
      <trkpt lat="46.98627" lon="1.18915">
        <ele>91</ele>
        <time>2019-09-03T09:10:14Z</time>
      </trkpt>
      <trkpt lat="46.98563" lon="1.19004">
        <ele>92</ele>
        <time>2019-09-03T09:10:20Z</time>
      </trkpt>
      <trkpt lat="46.98519" lon="1.19066">
        <ele>92</ele>
        <time>2019-09-03T09:10:25Z</time>
      </trkpt>
      <trkpt lat="46.98518" lon="1.19067">
        <ele>92</ele>
        <time>2019-09-03T09:10:28Z</time>
      </trkpt>
      <trkpt lat="46.98452" lon="1.19158">
        <ele>91</ele>
        <time>2019-09-03T09:10:31Z</time>
      </trkpt>
      <trkpt lat="46.9845" lon="1.19161">
        <ele>91</ele>
        <time>2019-09-03T09:10:34Z</time>
      </trkpt>
      <trkpt lat="46.98439" lon="1.19176">
        <ele>91</ele>
        <time>2019-09-03T09:10:39Z</time>
      </trkpt>
      <trkpt lat="46.98398" lon="1.19234">
        <ele>90</ele>
        <time>2019-09-03T09:10:43Z</time>
      </trkpt>
      <trkpt lat="46.98384" lon="1.1926">
        <ele>90</ele>
        <time>2019-09-03T09:10:51Z</time>
      </trkpt>
      <trkpt lat="46.98374" lon="1.19281">
        <ele>90</ele>
        <time>2019-09-03T09:10:58Z</time>
      </trkpt>
      <trkpt lat="46.98373" lon="1.19283">
        <ele>90</ele>
        <time>2019-09-03T09:11:03Z</time>
      </trkpt>
      <trkpt lat="46.98358" lon="1.1933">
        <ele>91</ele>
        <time>2019-09-03T09:11:05Z</time>
      </trkpt>
      <trkpt lat="46.98347" lon="1.19363">
        <ele>92</ele>
        <time>2019-09-03T09:11:07Z</time>
      </trkpt>
      <trkpt lat="46.98336" lon="1.1939">
        <ele>91</ele>
        <time>2019-09-03T09:11:08Z</time>
      </trkpt>
      <trkpt lat="46.9832" lon="1.19423">
        <ele>90</ele>
        <time>2019-09-03T09:11:13Z</time>
      </trkpt>
      <trkpt lat="46.98302" lon="1.19453">
        <ele>90</ele>
        <time>2019-09-03T09:11:20Z</time>
      </trkpt>
      <trkpt lat="46.98283" lon="1.19476">
        <ele>90</ele>
        <time>2019-09-03T09:11:28Z</time>
      </trkpt>
      <trkpt lat="46.98272" lon="1.19488">
        <ele>89</ele>
        <time>2019-09-03T09:11:28Z</time>
      </trkpt>
      <trkpt lat="46.98263" lon="1.19498">
        <ele>91</ele>
        <time>2019-09-03T09:11:32Z</time>
      </trkpt>
      <trkpt lat="46.98251" lon="1.1951">
        <ele>91</ele>
        <time>2019-09-03T09:11:38Z</time>
      </trkpt>
      <trkpt lat="46.9823" lon="1.19528">
        <ele>93</ele>
        <time>2019-09-03T09:11:48Z</time>
      </trkpt>
      <trkpt lat="46.98215" lon="1.19539">
        <ele>93</ele>
        <time>2019-09-03T09:11:49Z</time>
      </trkpt>
      <trkpt lat="46.98184" lon="1.19559">
        <ele>92</ele>
        <time>2019-09-03T09:11:53Z</time>
      </trkpt>
      <trkpt lat="46.98153" lon="1.19577">
        <ele>93</ele>
        <time>2019-09-03T09:11:58Z</time>
      </trkpt>
      <trkpt lat="46.98134" lon="1.19589">
        <ele>92</ele>
        <time>2019-09-03T09:12:04Z</time>
      </trkpt>
      <trkpt lat="46.98123" lon="1.19597">
        <ele>91</ele>
        <time>2019-09-03T09:12:08Z</time>
      </trkpt>
      <trkpt lat="46.98118" lon="1.19601">
        <ele>92</ele>
        <time>2019-09-03T09:12:10Z</time>
      </trkpt>
      <trkpt lat="46.98113" lon="1.19606">
        <ele>92</ele>
        <time>2019-09-03T09:12:16Z</time>
      </trkpt>
      <trkpt lat="46.98094" lon="1.19626">
        <ele>92</ele>
        <time>2019-09-03T09:12:23Z</time>
      </trkpt>
      <trkpt lat="46.98071" lon="1.19651">
        <ele>92</ele>
        <time>2019-09-03T09:12:27Z</time>
      </trkpt>
      <trkpt lat="46.98042" lon="1.1968">
        <ele>93</ele>
        <time>2019-09-03T09:12:35Z</time>
      </trkpt>
      <trkpt lat="46.98041" lon="1.1968">
        <ele>92</ele>
        <time>2019-09-03T09:12:46Z</time>
      </trkpt>
      <trkpt lat="46.98026" lon="1.19693">
        <ele>96</ele>
        <time>2019-09-03T09:12:48Z</time>
      </trkpt>
      <trkpt lat="46.98" lon="1.19715">
        <ele>97</ele>
        <time>2019-09-03T09:13:01Z</time>
      </trkpt>
      <trkpt lat="46.97962" lon="1.19741">
        <ele>96</ele>
        <time>2019-09-03T09:13:07Z</time>
      </trkpt>
      <trkpt lat="46.97958" lon="1.19744">
        <ele>94</ele>
        <time>2019-09-03T09:13:15Z</time>
      </trkpt>
      <trkpt lat="46.97942" lon="1.19755">
        <ele>94</ele>
        <time>2019-09-03T09:13:16Z</time>
      </trkpt>
      <trkpt lat="46.97922" lon="1.19771">
        <ele>94</ele>
        <time>2019-09-03T09:13:23Z</time>
      </trkpt>
      <trkpt lat="46.97897" lon="1.1979">
        <ele>93</ele>
        <time>2019-09-03T09:13:23Z</time>
      </trkpt>
      <trkpt lat="46.97883" lon="1.19803">
        <ele>94</ele>
        <time>2019-09-03T09:13:31Z</time>
      </trkpt>
      <trkpt lat="46.97872" lon="1.19813">
        <ele>93</ele>
        <time>2019-09-03T09:13:40Z</time>
      </trkpt>
      <trkpt lat="46.97851" lon="1.19835">
        <ele>93</ele>
        <time>2019-09-03T09:13:43Z</time>
      </trkpt>
      <trkpt lat="46.97825" lon="1.19864">
        <ele>91</ele>
        <time>2019-09-03T09:13:46Z</time>
      </trkpt>
      <trkpt lat="46.97813" lon="1.19877">
        <ele>92</ele>
        <time>2019-09-03T09:13:50Z</time>
      </trkpt>
      <trkpt lat="46.97785" lon="1.19907">
        <ele>92</ele>
        <time>2019-09-03T09:13:51Z</time>
      </trkpt>
      <trkpt lat="46.97743" lon="1.1995">
        <ele>91</ele>
        <time>2019-09-03T09:13:51Z</time>
      </trkpt>
      <trkpt lat="46.97737" lon="1.19956">
        <ele>91</ele>
        <time>2019-09-03T09:13:56Z</time>
      </trkpt>
      <trkpt lat="46.97689" lon="1.20008">
        <ele>91</ele>
        <time>2019-09-03T09:14:02Z</time>
      </trkpt>
      <trkpt lat="46.97668" lon="1.2003">
        <ele>92</ele>
        <time>2019-09-03T09:14:08Z</time>
      </trkpt>
      <trkpt lat="46.9764" lon="1.20064">
        <ele>93</ele>
        <time>2019-09-03T09:14:11Z</time>
      </trkpt>
      <trkpt lat="46.97637" lon="1.20068">
        <ele>93</ele>
        <time>2019-09-03T09:14:16Z</time>
      </trkpt>
      <trkpt lat="46.97612" lon="1.20097">
        <ele>93</ele>
        <time>2019-09-03T09:14:20Z</time>
      </trkpt>
      <trkpt lat="46.97611" lon="1.20099">
        <ele>93</ele>
        <time>2019-09-03T09:14:23Z</time>
      </trkpt>
      <trkpt lat="46.97583" lon="1.20132">
        <ele>92</ele>
        <time>2019-09-03T09:14:29Z</time>
      </trkpt>
      <trkpt lat="46.97553" lon="1.20168">
        <ele>91</ele>
        <time>2019-09-03T09:14:36Z</time>
      </trkpt>
      <trkpt lat="46.97543" lon="1.2018">
        <ele>91</ele>
        <time>2019-09-03T09:14:44Z</time>
      </trkpt>
      <trkpt lat="46.9753" lon="1.20195">
        <ele>91</ele>
        <time>2019-09-03T09:14:47Z</time>
      </trkpt>
      <trkpt lat="46.97518" lon="1.20209">
        <ele>91</ele>
        <time>2019-09-03T09:14:59Z</time>
      </trkpt>
      <trkpt lat="46.97514" lon="1.20213">
        <ele>91</ele>
        <time>2019-09-03T09:15:16Z</time>
      </trkpt>
      <trkpt lat="46.97513" lon="1.20215">
        <ele>91</ele>
        <time>2019-09-03T09:15:24Z</time>
      </trkpt>
      <trkpt lat="46.97496" lon="1.20233">
        <ele>91</ele>
        <time>2019-09-03T09:15:37Z</time>
      </trkpt>
      <trkpt lat="46.97474" lon="1.20257">
        <ele>92</ele>
        <time>2019-09-03T09:15:52Z</time>
      </trkpt>
      <trkpt lat="46.97451" lon="1.20281">
        <ele>93</ele>
        <time>2019-09-03T09:15:57Z</time>
      </trkpt>
      <trkpt lat="46.97442" lon="1.20289">
        <ele>93</ele>
        <time>2019-09-03T09:16:00Z</time>
      </trkpt>
      <trkpt lat="46.97422" lon="1.20315">
        <ele>94</ele>
        <time>2019-09-03T09:16:04Z</time>
      </trkpt>
      <trkpt lat="46.97409" lon="1.20332">
        <ele>93</ele>
        <time>2019-09-03T09:16:11Z</time>
      </trkpt>
      <trkpt lat="46.97398" lon="1.20345">
        <ele>93</ele>
        <time>2019-09-03T09:16:16Z</time>
      </trkpt>
      <trkpt lat="46.9738" lon="1.20368">
        <ele>93</ele>
        <time>2019-09-03T09:16:19Z</time>
      </trkpt>
      <trkpt lat="46.97355" lon="1.20401">
        <ele>93</ele>
        <time>2019-09-03T09:16:23Z</time>
      </trkpt>
      <trkpt lat="46.97328" lon="1.20435">
        <ele>94</ele>
        <time>2019-09-03T09:16:25Z</time>
      </trkpt>
      <trkpt lat="46.97319" lon="1.20446">
        <ele>93</ele>
        <time>2019-09-03T09:16:29Z</time>
      </trkpt>
      <trkpt lat="46.97278" lon="1.20499">
        <ele>94</ele>
        <time>2019-09-03T09:16:37Z</time>
      </trkpt>
      <trkpt lat="46.9722" lon="1.20571">
        <ele>97</ele>
        <time>2019-09-03T09:16:38Z</time>
      </trkpt>
      <trkpt lat="46.97191" lon="1.20607">
        <ele>98</ele>
        <time>2019-09-03T09:16:40Z</time>
      </trkpt>
      <trkpt lat="46.97146" lon="1.20662">
        <ele>102</ele>
        <time>2019-09-03T09:16:44Z</time>
      </trkpt>
      <trkpt lat="46.97098" lon="1.20724">
        <ele>104</ele>
        <time>2019-09-03T09:16:48Z</time>
      </trkpt>
      <trkpt lat="46.97082" lon="1.20745">
        <ele>104</ele>
        <time>2019-09-03T09:16:51Z</time>
      </trkpt>
      <trkpt lat="46.97072" lon="1.20759">
        <ele>104</ele>
        <time>2019-09-03T09:16:54Z</time>
      </trkpt>
      <trkpt lat="46.97058" lon="1.20781">
        <ele>105</ele>
        <time>2019-09-03T09:16:57Z</time>
      </trkpt>
      <trkpt lat="46.9704" lon="1.20816">
        <ele>106</ele>
        <time>2019-09-03T09:16:58Z</time>
      </trkpt>
      <trkpt lat="46.97026" lon="1.20847">
        <ele>108</ele>
        <time>2019-09-03T09:17:05Z</time>
      </trkpt>
      <trkpt lat="46.9702" lon="1.20862">
        <ele>108</ele>
        <time>2019-09-03T09:17:09Z</time>
      </trkpt>
      <trkpt lat="46.9701" lon="1.20881">
        <ele>108</ele>
        <time>2019-09-03T09:17:16Z</time>
      </trkpt>
      <trkpt lat="46.97002" lon="1.20892">
        <ele>108</ele>
        <time>2019-09-03T09:17:17Z</time>
      </trkpt>
      <trkpt lat="46.9699" lon="1.2091">
        <ele>108</ele>
        <time>2019-09-03T09:17:23Z</time>
      </trkpt>
      <trkpt lat="46.96963" lon="1.2094">
        <ele>108</ele>
        <time>2019-09-03T09:17:28Z</time>
      </trkpt>
      <trkpt lat="46.96959" lon="1.20946">
        <ele>108</ele>
        <time>2019-09-03T09:17:35Z</time>
      </trkpt>
      <trkpt lat="46.96951" lon="1.20955">
        <ele>109</ele>
        <time>2019-09-03T09:17:43Z</time>
      </trkpt>
      <trkpt lat="46.96936" lon="1.20971">
        <ele>110</ele>
        <time>2019-09-03T09:17:47Z</time>
      </trkpt>
      <trkpt lat="46.96923" lon="1.20985">
        <ele>110</ele>
        <time>2019-09-03T09:17:54Z</time>
      </trkpt>
      <trkpt lat="46.96911" lon="1.21001">
        <ele>111</ele>
        <time>2019-09-03T09:17:59Z</time>
      </trkpt>
      <trkpt lat="46.96902" lon="1.21013">
        <ele>110</ele>
        <time>2019-09-03T09:18:00Z</time>
      </trkpt>
      <trkpt lat="46.96895" lon="1.21026">
        <ele>110</ele>
        <time>2019-09-03T09:18:06Z</time>
      </trkpt>
      <trkpt lat="46.9689" lon="1.21034">
        <ele>110</ele>
        <time>2019-09-03T09:18:07Z</time>
      </trkpt>
      <trkpt lat="46.96871" lon="1.2107">
        <ele>111</ele>
        <time>2019-09-03T09:18:12Z</time>
      </trkpt>
      <trkpt lat="46.96862" lon="1.21088">
        <ele>111</ele>
        <time>2019-09-03T09:18:15Z</time>
      </trkpt>
      <trkpt lat="46.96842" lon="1.21125">
        <ele>110</ele>
        <time>2019-09-03T09:18:18Z</time>
      </trkpt>
      <trkpt lat="46.96839" lon="1.21129">
        <ele>110</ele>
        <time>2019-09-03T09:18:19Z</time>
      </trkpt>
      <trkpt lat="46.96823" lon="1.2116">
        <ele>110</ele>
        <time>2019-09-03T09:18:21Z</time>
      </trkpt>
      <trkpt lat="46.96808" lon="1.21187">
        <ele>108</ele>
        <time>2019-09-03T09:18:27Z</time>
      </trkpt>
      <trkpt lat="46.9679" lon="1.21223">
        <ele>106</ele>
        <time>2019-09-03T09:18:31Z</time>
      </trkpt>
      <trkpt lat="46.96767" lon="1.21264">
        <ele>103</ele>
        <time>2019-09-03T09:18:34Z</time>
      </trkpt>
      <trkpt lat="46.96757" lon="1.21284">
        <ele>101</ele>
        <time>2019-09-03T09:18:41Z</time>
      </trkpt>
      <trkpt lat="46.96735" lon="1.21324">
        <ele>97</ele>
        <time>2019-09-03T09:18:47Z</time>
      </trkpt>
      <trkpt lat="46.96722" lon="1.21346">
        <ele>97</ele>
        <time>2019-09-03T09:18:53Z</time>
      </trkpt>
      <trkpt lat="46.96718" lon="1.21354">
        <ele>97</ele>
        <time>2019-09-03T09:18:54Z</time>
      </trkpt>
      <trkpt lat="46.96703" lon="1.21383">
        <ele>94</ele>
        <time>2019-09-03T09:18:56Z</time>
      </trkpt>
      <trkpt lat="46.967" lon="1.21388">
        <ele>94</ele>
        <time>2019-09-03T09:18:59Z</time>
      </trkpt>
      <trkpt lat="46.96687" lon="1.21413">
        <ele>93</ele>
        <time>2019-09-03T09:19:03Z</time>
      </trkpt>
      <trkpt lat="46.96678" lon="1.2143">
        <ele>92</ele>
        <time>2019-09-03T09:19:06Z</time>
      </trkpt>
      <trkpt lat="46.96671" lon="1.21444">
        <ele>92</ele>
        <time>2019-09-03T09:19:11Z</time>
      </trkpt>
      <trkpt lat="46.96667" lon="1.21451">
        <ele>92</ele>
        <time>2019-09-03T09:19:16Z</time>
      </trkpt>
      <trkpt lat="46.96662" lon="1.21459">
        <ele>91</ele>
        <time>2019-09-03T09:19:22Z</time>
      </trkpt>
      <trkpt lat="46.96645" lon="1.21492">
        <ele>92</ele>
        <time>2019-09-03T09:19:23Z</time>
      </trkpt>
      <trkpt lat="46.96634" lon="1.21512">
        <ele>92</ele>
        <time>2019-09-03T09:19:26Z</time>
      </trkpt>
      <trkpt lat="46.96625" lon="1.21526">
        <ele>94</ele>
        <time>2019-09-03T09:19:34Z</time>
      </trkpt>
      <trkpt lat="46.96605" lon="1.21565">
        <ele>95</ele>
        <time>2019-09-03T09:19:38Z</time>
      </trkpt>
      <trkpt lat="46.96589" lon="1.21595">
        <ele>97</ele>
        <time>2019-09-03T09:19:41Z</time>
      </trkpt>
      <trkpt lat="46.96572" lon="1.21623">
        <ele>97</ele>
        <time>2019-09-03T09:19:47Z</time>
      </trkpt>
      <trkpt lat="46.96568" lon="1.21632">
        <ele>96</ele>
        <time>2019-09-03T09:19:53Z</time>
      </trkpt>
      <trkpt lat="46.96563" lon="1.21642">
        <ele>96</ele>
        <time>2019-09-03T09:19:59Z</time>
      </trkpt>
      <trkpt lat="46.96556" lon="1.21658">
        <ele>97</ele>
        <time>2019-09-03T09:20:03Z</time>
      </trkpt>
      <trkpt lat="46.96548" lon="1.21679">
        <ele>97</ele>
        <time>2019-09-03T09:20:05Z</time>
      </trkpt>
      <trkpt lat="46.9654" lon="1.217">
        <ele>97</ele>
        <time>2019-09-03T09:20:07Z</time>
      </trkpt>
      <trkpt lat="46.9653" lon="1.21727">
        <ele>97</ele>
        <time>2019-09-03T09:20:12Z</time>
      </trkpt>
      <trkpt lat="46.9652" lon="1.21754">
        <ele>97</ele>
        <time>2019-09-03T09:20:19Z</time>
      </trkpt>
      <trkpt lat="46.96508" lon="1.21788">
        <ele>96</ele>
        <time>2019-09-03T09:20:24Z</time>
      </trkpt>
      <trkpt lat="46.96504" lon="1.21797">
        <ele>98</ele>
        <time>2019-09-03T09:20:28Z</time>
      </trkpt>
      <trkpt lat="46.96497" lon="1.21815">
        <ele>98</ele>
        <time>2019-09-03T09:20:30Z</time>
      </trkpt>
      <trkpt lat="46.9648" lon="1.21855">
        <ele>98</ele>
        <time>2019-09-03T09:20:33Z</time>
      </trkpt>
      <trkpt lat="46.96469" lon="1.21882">
        <ele>98</ele>
        <time>2019-09-03T09:20:35Z</time>
      </trkpt>
      <trkpt lat="46.96462" lon="1.219">
        <ele>98</ele>
        <time>2019-09-03T09:20:38Z</time>
      </trkpt>
      <trkpt lat="46.96451" lon="1.21932">
        <ele>98</ele>
        <time>2019-09-03T09:20:41Z</time>
      </trkpt>
      <trkpt lat="46.96439" lon="1.21971">
        <ele>99</ele>
        <time>2019-09-03T09:20:43Z</time>
      </trkpt>
      <trkpt lat="46.96429" lon="1.22007">
        <ele>100</ele>
        <time>2019-09-03T09:20:46Z</time>
      </trkpt>
      <trkpt lat="46.96423" lon="1.22031">
        <ele>100</ele>
        <time>2019-09-03T09:20:48Z</time>
      </trkpt>
      <trkpt lat="46.96419" lon="1.22044">
        <ele>101</ele>
        <time>2019-09-03T09:20:49Z</time>
      </trkpt>
      <trkpt lat="46.96416" lon="1.22055">
        <ele>101</ele>
        <time>2019-09-03T09:20:50Z</time>
      </trkpt>
      <trkpt lat="46.96407" lon="1.22086">
        <ele>101</ele>
        <time>2019-09-03T09:20:51Z</time>
      </trkpt>
      <trkpt lat="46.96396" lon="1.22124">
        <ele>99</ele>
        <time>2019-09-03T09:21:00Z</time>
      </trkpt>
      <trkpt lat="46.96385" lon="1.22156">
        <ele>100</ele>
        <time>2019-09-03T09:21:00Z</time>
      </trkpt>
      <trkpt lat="46.96379" lon="1.22177">
        <ele>100</ele>
        <time>2019-09-03T09:21:02Z</time>
      </trkpt>
      <trkpt lat="46.96376" lon="1.2219">
        <ele>100</ele>
        <time>2019-09-03T09:21:03Z</time>
      </trkpt>
      <trkpt lat="46.96373" lon="1.2221">
        <ele>98</ele>
        <time>2019-09-03T09:21:06Z</time>
      </trkpt>
      <trkpt lat="46.9637" lon="1.22227">
        <ele>98</ele>
        <time>2019-09-03T09:21:15Z</time>
      </trkpt>
      <trkpt lat="46.96368" lon="1.22244">
        <ele>98</ele>
        <time>2019-09-03T09:21:20Z</time>
      </trkpt>
      <trkpt lat="46.96366" lon="1.22261">
        <ele>98</ele>
        <time>2019-09-03T09:21:23Z</time>
      </trkpt>
      <trkpt lat="46.96362" lon="1.22275">
        <ele>97</ele>
        <time>2019-09-03T09:21:27Z</time>
      </trkpt>
      <trkpt lat="46.96357" lon="1.22291">
        <ele>97</ele>
        <time>2019-09-03T09:21:31Z</time>
      </trkpt>
      <trkpt lat="46.96352" lon="1.22301">
        <ele>96</ele>
        <time>2019-09-03T09:21:32Z</time>
      </trkpt>
      <trkpt lat="46.96348" lon="1.22307">
        <ele>96</ele>
        <time>2019-09-03T09:21:35Z</time>
      </trkpt>
      <trkpt lat="46.96345" lon="1.22312">
        <ele>95</ele>
        <time>2019-09-03T09:21:36Z</time>
      </trkpt>
      <trkpt lat="46.96342" lon="1.22318">
        <ele>95</ele>
        <time>2019-09-03T09:21:42Z</time>
      </trkpt>
      <trkpt lat="46.96312" lon="1.22357">
        <ele>95</ele>
        <time>2019-09-03T09:21:46Z</time>
      </trkpt>
      <trkpt lat="46.9631" lon="1.22359">
        <ele>95</ele>
        <time>2019-09-03T09:21:51Z</time>
      </trkpt>
      <trkpt lat="46.96305" lon="1.22366">
        <ele>95</ele>
        <time>2019-09-03T09:21:58Z</time>
      </trkpt>
      <trkpt lat="46.96301" lon="1.2237">
        <ele>95</ele>
        <time>2019-09-03T09:22:01Z</time>
      </trkpt>
      <trkpt lat="46.96292" lon="1.22382">
        <ele>95</ele>
        <time>2019-09-03T09:22:07Z</time>
      </trkpt>
      <trkpt lat="46.96261" lon="1.2242">
        <ele>97</ele>
        <time>2019-09-03T09:22:12Z</time>
      </trkpt>
      <trkpt lat="46.96242" lon="1.22443">
        <ele>98</ele>
        <time>2019-09-03T09:22:18Z</time>
      </trkpt>
      <trkpt lat="46.96233" lon="1.22454">
        <ele>98</ele>
        <time>2019-09-03T09:22:23Z</time>
      </trkpt>
      <trkpt lat="46.96219" lon="1.2247">
        <ele>99</ele>
        <time>2019-09-03T09:22:26Z</time>
      </trkpt>
      <trkpt lat="46.96205" lon="1.22486">
        <ele>97</ele>
        <time>2019-09-03T09:22:35Z</time>
      </trkpt>
      <trkpt lat="46.96202" lon="1.22489">
        <ele>99</ele>
        <time>2019-09-03T09:22:47Z</time>
      </trkpt>
      <trkpt lat="46.9619" lon="1.22501">
        <ele>99</ele>
        <time>2019-09-03T09:22:50Z</time>
      </trkpt>
      <trkpt lat="46.96187" lon="1.22504">
        <ele>99</ele>
        <time>2019-09-03T09:22:54Z</time>
      </trkpt>
      <trkpt lat="46.96162" lon="1.22527">
        <ele>98</ele>
        <time>2019-09-03T09:22:57Z</time>
      </trkpt>
      <trkpt lat="46.96149" lon="1.22542">
        <ele>98</ele>
        <time>2019-09-03T09:23:02Z</time>
      </trkpt>
      <trkpt lat="46.96131" lon="1.22564">
        <ele>98</ele>
        <time>2019-09-03T09:23:04Z</time>
      </trkpt>
      <trkpt lat="46.96107" lon="1.22597">
        <ele>98</ele>
        <time>2019-09-03T09:23:06Z</time>
      </trkpt>
      <trkpt lat="46.96098" lon="1.2261">
        <ele>100</ele>
        <time>2019-09-03T09:23:10Z</time>
      </trkpt>
      <trkpt lat="46.9608" lon="1.2264">
        <ele>99</ele>
        <time>2019-09-03T09:23:12Z</time>
      </trkpt>
      <trkpt lat="46.96068" lon="1.22662">
        <ele>95</ele>
        <time>2019-09-03T09:23:21Z</time>
      </trkpt>
      <trkpt lat="46.96049" lon="1.22695">
        <ele>96</ele>
        <time>2019-09-03T09:23:26Z</time>
      </trkpt>
      <trkpt lat="46.96035" lon="1.22723">
        <ele>94</ele>
        <time>2019-09-03T09:23:27Z</time>
      </trkpt>
      <trkpt lat="46.96029" lon="1.22736">
        <ele>94</ele>
        <time>2019-09-03T09:23:30Z</time>
      </trkpt>
      <trkpt lat="46.96004" lon="1.22784">
        <ele>94</ele>
        <time>2019-09-03T09:23:39Z</time>
      </trkpt>
      <trkpt lat="46.95972" lon="1.22848">
        <ele>97</ele>
        <time>2019-09-03T09:23:51Z</time>
      </trkpt>
      <trkpt lat="46.95966" lon="1.22863">
        <ele>97</ele>
        <time>2019-09-03T09:23:52Z</time>
      </trkpt>
      <trkpt lat="46.95957" lon="1.22889">
        <ele>94</ele>
        <time>2019-09-03T09:23:57Z</time>
      </trkpt>
      <trkpt lat="46.95951" lon="1.22908">
        <ele>96</ele>
        <time>2019-09-03T09:24:03Z</time>
      </trkpt>
      <trkpt lat="46.95944" lon="1.22936">
        <ele>98</ele>
        <time>2019-09-03T09:24:07Z</time>
      </trkpt>
      <trkpt lat="46.9594" lon="1.2295">
        <ele>98</ele>
        <time>2019-09-03T09:24:08Z</time>
      </trkpt>
      <trkpt lat="46.95937" lon="1.22961">
        <ele>100</ele>
        <time>2019-09-03T09:24:14Z</time>
      </trkpt>
      <trkpt lat="46.95931" lon="1.22985">
        <ele>100</ele>
        <time>2019-09-03T09:24:19Z</time>
      </trkpt>
      <trkpt lat="46.95928" lon="1.22996">
        <ele>94</ele>
        <time>2019-09-03T09:24:25Z</time>
      </trkpt>
      <trkpt lat="46.95914" lon="1.23051">
        <ele>95</ele>
        <time>2019-09-03T09:24:33Z</time>
      </trkpt>
      <trkpt lat="46.95905" lon="1.23084">
        <ele>95</ele>
        <time>2019-09-03T09:24:36Z</time>
      </trkpt>
      <trkpt lat="46.95904" lon="1.23087">
        <ele>95</ele>
        <time>2019-09-03T09:24:45Z</time>
      </trkpt>
      <trkpt lat="46.95899" lon="1.23109">
        <ele>93</ele>
        <time>2019-09-03T09:24:50Z</time>
      </trkpt>
      <trkpt lat="46.95887" lon="1.23167">
        <ele>94</ele>
        <time>2019-09-03T09:24:54Z</time>
      </trkpt>
      <trkpt lat="46.95873" lon="1.2324">
        <ele>93</ele>
        <time>2019-09-03T09:24:58Z</time>
      </trkpt>
      <trkpt lat="46.95872" lon="1.2325">
        <ele>93</ele>
        <time>2019-09-03T09:25:02Z</time>
      </trkpt>
      <trkpt lat="46.95866" lon="1.23279">
        <ele>92</ele>
        <time>2019-09-03T09:25:07Z</time>
      </trkpt>
      <trkpt lat="46.95858" lon="1.23314">
        <ele>92</ele>
        <time>2019-09-03T09:25:13Z</time>
      </trkpt>
      <trkpt lat="46.95852" lon="1.23345">
        <ele>92</ele>
        <time>2019-09-03T09:25:17Z</time>
      </trkpt>
      <trkpt lat="46.9585" lon="1.2335">
        <ele>93</ele>
        <time>2019-09-03T09:25:20Z</time>
      </trkpt>
      <trkpt lat="46.95842" lon="1.23383">
        <ele>91</ele>
        <time>2019-09-03T09:25:27Z</time>
      </trkpt>
      <trkpt lat="46.95832" lon="1.23418">
        <ele>92</ele>
        <time>2019-09-03T09:25:32Z</time>
      </trkpt>
      <trkpt lat="46.95823" lon="1.23449">
        <ele>93</ele>
        <time>2019-09-03T09:25:34Z</time>
      </trkpt>
      <trkpt lat="46.95808" lon="1.23501">
        <ele>94</ele>
        <time>2019-09-03T09:25:37Z</time>
      </trkpt>
      <trkpt lat="46.95801" lon="1.2352">
        <ele>94</ele>
        <time>2019-09-03T09:25:40Z</time>
      </trkpt>
      <trkpt lat="46.95785" lon="1.23571">
        <ele>91</ele>
        <time>2019-09-03T09:25:41Z</time>
      </trkpt>
      <trkpt lat="46.95776" lon="1.23601">
        <ele>91</ele>
        <time>2019-09-03T09:25:42Z</time>
      </trkpt>
      <trkpt lat="46.9577" lon="1.23626">
        <ele>92</ele>
        <time>2019-09-03T09:25:45Z</time>
      </trkpt>
      <trkpt lat="46.95764" lon="1.23649">
        <ele>92</ele>
        <time>2019-09-03T09:25:48Z</time>
      </trkpt>
      <trkpt lat="46.95758" lon="1.23672">
        <ele>93</ele>
        <time>2019-09-03T09:25:51Z</time>
      </trkpt>
      <trkpt lat="46.95749" lon="1.23707">
        <ele>94</ele>
        <time>2019-09-03T09:25:51Z</time>
      </trkpt>
      <trkpt lat="46.95741" lon="1.23745">
        <ele>94</ele>
        <time>2019-09-03T09:25:54Z</time>
      </trkpt>
      <trkpt lat="46.95736" lon="1.23766">
        <ele>93</ele>
        <time>2019-09-03T09:25:57Z</time>
      </trkpt>
      <trkpt lat="46.95732" lon="1.23785">
        <ele>93</ele>
        <time>2019-09-03T09:25:59Z</time>
      </trkpt>
      <trkpt lat="46.9572" lon="1.23831">
        <ele>93</ele>
        <time>2019-09-03T09:25:59Z</time>
      </trkpt>
      <trkpt lat="46.95713" lon="1.23861">
        <ele>93</ele>
        <time>2019-09-03T09:26:03Z</time>
      </trkpt>
      <trkpt lat="46.95709" lon="1.23874">
        <ele>93</ele>
        <time>2019-09-03T09:26:13Z</time>
      </trkpt>
      <trkpt lat="46.95703" lon="1.2389">
        <ele>93</ele>
        <time>2019-09-03T09:26:14Z</time>
      </trkpt>
      <trkpt lat="46.95697" lon="1.23906">
        <ele>94</ele>
        <time>2019-09-03T09:26:14Z</time>
      </trkpt>
      <trkpt lat="46.95695" lon="1.23911">
        <ele>94</ele>
        <time>2019-09-03T09:26:20Z</time>
      </trkpt>
      <trkpt lat="46.95691" lon="1.23922">
        <ele>94</ele>
        <time>2019-09-03T09:26:23Z</time>
      </trkpt>
      <trkpt lat="46.95685" lon="1.23939">
        <ele>94</ele>
        <time>2019-09-03T09:26:26Z</time>
      </trkpt>
      <trkpt lat="46.9568" lon="1.23955">
        <ele>93</ele>
        <time>2019-09-03T09:26:28Z</time>
      </trkpt>
      <trkpt lat="46.95675" lon="1.23972">
        <ele>93</ele>
        <time>2019-09-03T09:26:31Z</time>
      </trkpt>
      <trkpt lat="46.95675" lon="1.23973">
        <ele>93</ele>
        <time>2019-09-03T09:26:34Z</time>
      </trkpt>
      <trkpt lat="46.9567" lon="1.23989">
        <ele>94</ele>
        <time>2019-09-03T09:26:40Z</time>
      </trkpt>
      <trkpt lat="46.95666" lon="1.24008">
        <ele>94</ele>
        <time>2019-09-03T09:26:45Z</time>
      </trkpt>
      <trkpt lat="46.95662" lon="1.24022">
        <ele>94</ele>
        <time>2019-09-03T09:26:48Z</time>
      </trkpt>
      <trkpt lat="46.95662" lon="1.24022">
        <ele>94</ele>
        <time>2019-09-03T09:26:57Z</time>
      </trkpt>
      <trkpt lat="46.95679" lon="1.24031">
        <ele>94</ele>
        <time>2019-09-03T09:27:01Z</time>
      </trkpt>
      <trkpt lat="46.9572" lon="1.24058">
        <ele>96</ele>
        <time>2019-09-03T09:27:06Z</time>
      </trkpt>
      <trkpt lat="46.95723" lon="1.24059">
        <ele>96</ele>
        <time>2019-09-03T09:27:17Z</time>
      </trkpt>
      <trkpt lat="46.95723" lon="1.24059">
        <ele>96</ele>
        <time>2019-09-03T09:27:29Z</time>
      </trkpt>
      <trkpt lat="46.9572" lon="1.24098">
        <ele>97</ele>
        <time>2019-09-03T09:27:39Z</time>
      </trkpt>
      <trkpt lat="46.95719" lon="1.2412">
        <ele>97</ele>
        <time>2019-09-03T09:27:50Z</time>
      </trkpt>
      <trkpt lat="46.95718" lon="1.24135">
        <ele>98</ele>
        <time>2019-09-03T09:27:55Z</time>
      </trkpt>
      <trkpt lat="46.95716" lon="1.24153">
        <ele>99</ele>
        <time>2019-09-03T09:27:59Z</time>
      </trkpt>
      <trkpt lat="46.95712" lon="1.24171">
        <ele>99</ele>
        <time>2019-09-03T09:28:02Z</time>
      </trkpt>
      <trkpt lat="46.95708" lon="1.2419">
        <ele>98</ele>
        <time>2019-09-03T09:28:06Z</time>
      </trkpt>
      <trkpt lat="46.95699" lon="1.24227">
        <ele>98</ele>
        <time>2019-09-03T09:28:09Z</time>
      </trkpt>
      <trkpt lat="46.95691" lon="1.24258">
        <ele>98</ele>
        <time>2019-09-03T09:28:13Z</time>
      </trkpt>
      <trkpt lat="46.95687" lon="1.24275">
        <ele>99</ele>
        <time>2019-09-03T09:28:17Z</time>
      </trkpt>
      <trkpt lat="46.95673" lon="1.24327">
        <ele>98</ele>
        <time>2019-09-03T09:28:21Z</time>
      </trkpt>
      <trkpt lat="46.95666" lon="1.24356">
        <ele>99</ele>
        <time>2019-09-03T09:28:26Z</time>
      </trkpt>
      <trkpt lat="46.95659" lon="1.24385">
        <ele>100</ele>
        <time>2019-09-03T09:28:29Z</time>
      </trkpt>
      <trkpt lat="46.95641" lon="1.24455">
        <ele>99</ele>
        <time>2019-09-03T09:28:32Z</time>
      </trkpt>
      <trkpt lat="46.95624" lon="1.24527">
        <ele>96</ele>
        <time>2019-09-03T09:28:37Z</time>
      </trkpt>
      <trkpt lat="46.95609" lon="1.24591">
        <ele>98</ele>
        <time>2019-09-03T09:28:43Z</time>
      </trkpt>
      <trkpt lat="46.95597" lon="1.24657">
        <ele>98</ele>
        <time>2019-09-03T09:28:48Z</time>
      </trkpt>
      <trkpt lat="46.9559" lon="1.24693">
        <ele>99</ele>
        <time>2019-09-03T09:28:50Z</time>
      </trkpt>
      <trkpt lat="46.95584" lon="1.24716">
        <ele>99</ele>
        <time>2019-09-03T09:28:53Z</time>
      </trkpt>
      <trkpt lat="46.95579" lon="1.24736">
        <ele>99</ele>
        <time>2019-09-03T09:28:57Z</time>
      </trkpt>
      <trkpt lat="46.95574" lon="1.24756">
        <ele>100</ele>
        <time>2019-09-03T09:29:01Z</time>
      </trkpt>
      <trkpt lat="46.95567" lon="1.24778">
        <ele>98</ele>
        <time>2019-09-03T09:29:06Z</time>
      </trkpt>
      <trkpt lat="46.95559" lon="1.24802">
        <ele>99</ele>
        <time>2019-09-03T09:29:12Z</time>
      </trkpt>
      <trkpt lat="46.95553" lon="1.24823">
        <ele>100</ele>
        <time>2019-09-03T09:29:18Z</time>
      </trkpt>
      <trkpt lat="46.95544" lon="1.24847">
        <ele>100</ele>
        <time>2019-09-03T09:29:24Z</time>
      </trkpt>
      <trkpt lat="46.95534" lon="1.24875">
        <ele>98</ele>
        <time>2019-09-03T09:29:29Z</time>
      </trkpt>
      <trkpt lat="46.95527" lon="1.24892">
        <ele>98</ele>
        <time>2019-09-03T09:29:33Z</time>
      </trkpt>
      <trkpt lat="46.9552" lon="1.2491">
        <ele>99</ele>
        <time>2019-09-03T09:29:33Z</time>
      </trkpt>
      <trkpt lat="46.95509" lon="1.2494">
        <ele>97</ele>
        <time>2019-09-03T09:29:37Z</time>
      </trkpt>
      <trkpt lat="46.95496" lon="1.24972">
        <ele>97</ele>
        <time>2019-09-03T09:29:40Z</time>
      </trkpt>
      <trkpt lat="46.95485" lon="1.25">
        <ele>93</ele>
        <time>2019-09-03T09:29:45Z</time>
      </trkpt>
      <trkpt lat="46.9548" lon="1.25016">
        <ele>95</ele>
        <time>2019-09-03T09:29:50Z</time>
      </trkpt>
      <trkpt lat="46.95475" lon="1.25035">
        <ele>95</ele>
        <time>2019-09-03T09:29:58Z</time>
      </trkpt>
      <trkpt lat="46.9547" lon="1.25055">
        <ele>96</ele>
        <time>2019-09-03T09:30:03Z</time>
      </trkpt>
      <trkpt lat="46.95464" lon="1.25084">
        <ele>97</ele>
        <time>2019-09-03T09:30:07Z</time>
      </trkpt>
      <trkpt lat="46.95458" lon="1.25117">
        <ele>95</ele>
        <time>2019-09-03T09:30:10Z</time>
      </trkpt>
      <trkpt lat="46.9545" lon="1.25154">
        <ele>96</ele>
        <time>2019-09-03T09:30:13Z</time>
      </trkpt>
      <trkpt lat="46.95444" lon="1.25189">
        <ele>96</ele>
        <time>2019-09-03T09:30:15Z</time>
      </trkpt>
      <trkpt lat="46.95437" lon="1.25227">
        <ele>96</ele>
        <time>2019-09-03T09:30:17Z</time>
      </trkpt>
      <trkpt lat="46.95431" lon="1.25261">
        <ele>97</ele>
        <time>2019-09-03T09:30:18Z</time>
      </trkpt>
      <trkpt lat="46.95427" lon="1.25284">
        <ele>94</ele>
        <time>2019-09-03T09:30:22Z</time>
      </trkpt>
      <trkpt lat="46.95427" lon="1.25285">
        <ele>94</ele>
        <time>2019-09-03T09:30:27Z</time>
      </trkpt>
      <trkpt lat="46.95424" lon="1.25309">
        <ele>95</ele>
        <time>2019-09-03T09:30:33Z</time>
      </trkpt>
      <trkpt lat="46.95422" lon="1.25331">
        <ele>95</ele>
        <time>2019-09-03T09:30:35Z</time>
      </trkpt>
      <trkpt lat="46.9542" lon="1.25364">
        <ele>96</ele>
        <time>2019-09-03T09:30:38Z</time>
      </trkpt>
      <trkpt lat="46.95417" lon="1.25393">
        <ele>96</ele>
        <time>2019-09-03T09:30:41Z</time>
      </trkpt>
      <trkpt lat="46.95413" lon="1.25445">
        <ele>95</ele>
        <time>2019-09-03T09:30:47Z</time>
      </trkpt>
      <trkpt lat="46.95411" lon="1.25481">
        <ele>95</ele>
        <time>2019-09-03T09:30:52Z</time>
      </trkpt>
      <trkpt lat="46.95409" lon="1.25508">
        <ele>96</ele>
        <time>2019-09-03T09:30:59Z</time>
      </trkpt>
      <trkpt lat="46.95406" lon="1.25528">
        <ele>98</ele>
        <time>2019-09-03T09:30:59Z</time>
      </trkpt>
      <trkpt lat="46.95404" lon="1.25543">
        <ele>99</ele>
        <time>2019-09-03T09:31:03Z</time>
      </trkpt>
      <trkpt lat="46.954" lon="1.25557">
        <ele>99</ele>
        <time>2019-09-03T09:31:06Z</time>
      </trkpt>
      <trkpt lat="46.95396" lon="1.2557">
        <ele>99</ele>
        <time>2019-09-03T09:31:09Z</time>
      </trkpt>
      <trkpt lat="46.95393" lon="1.25578">
        <ele>99</ele>
        <time>2019-09-03T09:31:13Z</time>
      </trkpt>
      <trkpt lat="46.95387" lon="1.25596">
        <ele>99</ele>
        <time>2019-09-03T09:31:17Z</time>
      </trkpt>
      <trkpt lat="46.95375" lon="1.25625">
        <ele>97</ele>
        <time>2019-09-03T09:31:26Z</time>
      </trkpt>
      <trkpt lat="46.9536" lon="1.2566">
        <ele>97</ele>
        <time>2019-09-03T09:31:28Z</time>
      </trkpt>
      <trkpt lat="46.95355" lon="1.25669">
        <ele>97</ele>
        <time>2019-09-03T09:31:34Z</time>
      </trkpt>
      <trkpt lat="46.95347" lon="1.25688">
        <ele>96</ele>
        <time>2019-09-03T09:31:39Z</time>
      </trkpt>
      <trkpt lat="46.95341" lon="1.25707">
        <ele>96</ele>
        <time>2019-09-03T09:31:44Z</time>
      </trkpt>
      <trkpt lat="46.95331" lon="1.25738">
        <ele>96</ele>
        <time>2019-09-03T09:31:48Z</time>
      </trkpt>
      <trkpt lat="46.95321" lon="1.25771">
        <ele>96</ele>
        <time>2019-09-03T09:31:53Z</time>
      </trkpt>
      <trkpt lat="46.95308" lon="1.25811">
        <ele>96</ele>
        <time>2019-09-03T09:31:56Z</time>
      </trkpt>
      <trkpt lat="46.95307" lon="1.25815">
        <ele>96</ele>
        <time>2019-09-03T09:31:58Z</time>
      </trkpt>
      <trkpt lat="46.95301" lon="1.25837">
        <ele>97</ele>
        <time>2019-09-03T09:31:59Z</time>
      </trkpt>
      <trkpt lat="46.95295" lon="1.25858">
        <ele>97</ele>
        <time>2019-09-03T09:32:02Z</time>
      </trkpt>
      <trkpt lat="46.9529" lon="1.25876">
        <ele>96</ele>
        <time>2019-09-03T09:32:05Z</time>
      </trkpt>
      <trkpt lat="46.95286" lon="1.25896">
        <ele>96</ele>
        <time>2019-09-03T09:32:07Z</time>
      </trkpt>
      <trkpt lat="46.95282" lon="1.25921">
        <ele>96</ele>
        <time>2019-09-03T09:32:10Z</time>
      </trkpt>
      <trkpt lat="46.95271" lon="1.25981">
        <ele>96</ele>
        <time>2019-09-03T09:32:10Z</time>
      </trkpt>
      <trkpt lat="46.95269" lon="1.25991">
        <ele>97</ele>
        <time>2019-09-03T09:32:14Z</time>
      </trkpt>
      <trkpt lat="46.95261" lon="1.2603">
        <ele>97</ele>
        <time>2019-09-03T09:32:17Z</time>
      </trkpt>
      <trkpt lat="46.95255" lon="1.26064">
        <ele>98</ele>
        <time>2019-09-03T09:32:19Z</time>
      </trkpt>
      <trkpt lat="46.95249" lon="1.26094">
        <ele>99</ele>
        <time>2019-09-03T09:32:21Z</time>
      </trkpt>
      <trkpt lat="46.95244" lon="1.26117">
        <ele>99</ele>
        <time>2019-09-03T09:32:24Z</time>
      </trkpt>
      <trkpt lat="46.95232" lon="1.26147">
        <ele>97</ele>
        <time>2019-09-03T09:32:26Z</time>
      </trkpt>
      <trkpt lat="46.95224" lon="1.26165">
        <ele>98</ele>
        <time>2019-09-03T09:32:32Z</time>
      </trkpt>
      <trkpt lat="46.95221" lon="1.26173">
        <ele>98</ele>
        <time>2019-09-03T09:32:38Z</time>
      </trkpt>
      <trkpt lat="46.95217" lon="1.26181">
        <ele>99</ele>
        <time>2019-09-03T09:32:41Z</time>
      </trkpt>
      <trkpt lat="46.95208" lon="1.26195">
        <ele>98</ele>
        <time>2019-09-03T09:32:42Z</time>
      </trkpt>
      <trkpt lat="46.95198" lon="1.2621">
        <ele>99</ele>
        <time>2019-09-03T09:32:48Z</time>
      </trkpt>
      <trkpt lat="46.9519" lon="1.26219">
        <ele>99</ele>
        <time>2019-09-03T09:32:53Z</time>
      </trkpt>
      <trkpt lat="46.95182" lon="1.26227">
        <ele>99</ele>
        <time>2019-09-03T09:32:54Z</time>
      </trkpt>
      <trkpt lat="46.9518" lon="1.26229">
        <ele>99</ele>
        <time>2019-09-03T09:33:00Z</time>
      </trkpt>
      <trkpt lat="46.95164" lon="1.26244">
        <ele>101</ele>
        <time>2019-09-03T09:33:11Z</time>
      </trkpt>
      <trkpt lat="46.95153" lon="1.26256">
        <ele>101</ele>
        <time>2019-09-03T09:33:18Z</time>
      </trkpt>
      <trkpt lat="46.95146" lon="1.26264">
        <ele>103</ele>
        <time>2019-09-03T09:33:22Z</time>
      </trkpt>
      <trkpt lat="46.95139" lon="1.26271">
        <ele>103</ele>
        <time>2019-09-03T09:33:30Z</time>
      </trkpt>
      <trkpt lat="46.95129" lon="1.26286">
        <ele>103</ele>
        <time>2019-09-03T09:33:37Z</time>
      </trkpt>
      <trkpt lat="46.95125" lon="1.26292">
        <ele>103</ele>
        <time>2019-09-03T09:33:41Z</time>
      </trkpt>
      <trkpt lat="46.95105" lon="1.26324">
        <ele>104</ele>
        <time>2019-09-03T09:33:45Z</time>
      </trkpt>
      <trkpt lat="46.95089" lon="1.2635">
        <ele>103</ele>
        <time>2019-09-03T09:33:49Z</time>
      </trkpt>
      <trkpt lat="46.95078" lon="1.26369">
        <ele>103</ele>
        <time>2019-09-03T09:33:50Z</time>
      </trkpt>
      <trkpt lat="46.95077" lon="1.2637">
        <ele>103</ele>
        <time>2019-09-03T09:33:52Z</time>
      </trkpt>
      <trkpt lat="46.95059" lon="1.26398">
        <ele>103</ele>
        <time>2019-09-03T09:33:54Z</time>
      </trkpt>
      <trkpt lat="46.95039" lon="1.26423">
        <ele>101</ele>
        <time>2019-09-03T09:33:55Z</time>
      </trkpt>
      <trkpt lat="46.95038" lon="1.26424">
        <ele>101</ele>
        <time>2019-09-03T09:33:58Z</time>
      </trkpt>
      <trkpt lat="46.95015" lon="1.26452">
        <ele>102</ele>
        <time>2019-09-03T09:33:58Z</time>
      </trkpt>
      <trkpt lat="46.94978" lon="1.26498">
        <ele>101</ele>
        <time>2019-09-03T09:34:01Z</time>
      </trkpt>
      <trkpt lat="46.94956" lon="1.26528">
        <ele>98</ele>
        <time>2019-09-03T09:34:04Z</time>
      </trkpt>
      <trkpt lat="46.94944" lon="1.26549">
        <ele>98</ele>
        <time>2019-09-03T09:34:07Z</time>
      </trkpt>
      <trkpt lat="46.94919" lon="1.26591">
        <ele>98</ele>
        <time>2019-09-03T09:34:11Z</time>
      </trkpt>
      <trkpt lat="46.949" lon="1.26624">
        <ele>98</ele>
        <time>2019-09-03T09:34:15Z</time>
      </trkpt>
      <trkpt lat="46.94888" lon="1.2664">
        <ele>97</ele>
        <time>2019-09-03T09:34:18Z</time>
      </trkpt>
      <trkpt lat="46.94876" lon="1.26661">
        <ele>97</ele>
        <time>2019-09-03T09:34:19Z</time>
      </trkpt>
      <trkpt lat="46.94861" lon="1.26681">
        <ele>96</ele>
        <time>2019-09-03T09:34:22Z</time>
      </trkpt>
      <trkpt lat="46.9486" lon="1.26683">
        <ele>96</ele>
        <time>2019-09-03T09:34:27Z</time>
      </trkpt>
      <trkpt lat="46.94851" lon="1.26696">
        <ele>96</ele>
        <time>2019-09-03T09:34:28Z</time>
      </trkpt>
      <trkpt lat="46.94848" lon="1.26702">
        <ele>96</ele>
        <time>2019-09-03T09:34:30Z</time>
      </trkpt>
      <trkpt lat="46.94843" lon="1.2671">
        <ele>96</ele>
        <time>2019-09-03T09:34:33Z</time>
      </trkpt>
      <trkpt lat="46.94836" lon="1.26722">
        <ele>96</ele>
        <time>2019-09-03T09:34:36Z</time>
      </trkpt>
      <trkpt lat="46.94835" lon="1.26723">
        <ele>96</ele>
        <time>2019-09-03T09:34:41Z</time>
      </trkpt>
      <trkpt lat="46.94829" lon="1.26739">
        <ele>96</ele>
        <time>2019-09-03T09:34:42Z</time>
      </trkpt>
      <trkpt lat="46.94822" lon="1.26757">
        <ele>96</ele>
        <time>2019-09-03T09:34:48Z</time>
      </trkpt>
      <trkpt lat="46.94816" lon="1.26779">
        <ele>94</ele>
        <time>2019-09-03T09:34:52Z</time>
      </trkpt>
      <trkpt lat="46.9481" lon="1.26802">
        <ele>95</ele>
        <time>2019-09-03T09:34:57Z</time>
      </trkpt>
      <trkpt lat="46.94807" lon="1.26824">
        <ele>96</ele>
        <time>2019-09-03T09:34:58Z</time>
      </trkpt>
      <trkpt lat="46.94804" lon="1.26844">
        <ele>96</ele>
        <time>2019-09-03T09:35:07Z</time>
      </trkpt>
      <trkpt lat="46.94803" lon="1.2685">
        <ele>96</ele>
        <time>2019-09-03T09:35:13Z</time>
      </trkpt>
      <trkpt lat="46.94799" lon="1.26874">
        <ele>96</ele>
        <time>2019-09-03T09:35:18Z</time>
      </trkpt>
      <trkpt lat="46.94794" lon="1.269">
        <ele>96</ele>
        <time>2019-09-03T09:35:22Z</time>
      </trkpt>
      <trkpt lat="46.94791" lon="1.2691">
        <ele>95</ele>
        <time>2019-09-03T09:35:23Z</time>
      </trkpt>
      <trkpt lat="46.94788" lon="1.26921">
        <ele>95</ele>
        <time>2019-09-03T09:35:28Z</time>
      </trkpt>
      <trkpt lat="46.94783" lon="1.26939">
        <ele>95</ele>
        <time>2019-09-03T09:35:36Z</time>
      </trkpt>
      <trkpt lat="46.94776" lon="1.26959">
        <ele>95</ele>
        <time>2019-09-03T09:35:41Z</time>
      </trkpt>
      <trkpt lat="46.94765" lon="1.26982">
        <ele>95</ele>
        <time>2019-09-03T09:35:42Z</time>
      </trkpt>
      <trkpt lat="46.94762" lon="1.26989">
        <ele>94</ele>
        <time>2019-09-03T09:35:45Z</time>
      </trkpt>
      <trkpt lat="46.94748" lon="1.27022">
        <ele>95</ele>
        <time>2019-09-03T09:35:48Z</time>
      </trkpt>
      <trkpt lat="46.94736" lon="1.27046">
        <ele>94</ele>
        <time>2019-09-03T09:35:51Z</time>
      </trkpt>
      <trkpt lat="46.94727" lon="1.2707">
        <ele>95</ele>
        <time>2019-09-03T09:35:55Z</time>
      </trkpt>
      <trkpt lat="46.94724" lon="1.27078">
        <ele>95</ele>
        <time>2019-09-03T09:36:00Z</time>
      </trkpt>
      <trkpt lat="46.94705" lon="1.27132">
        <ele>95</ele>
        <time>2019-09-03T09:36:06Z</time>
      </trkpt>
      <trkpt lat="46.94692" lon="1.27167">
        <ele>95</ele>
        <time>2019-09-03T09:36:11Z</time>
      </trkpt>
      <trkpt lat="46.94682" lon="1.27198">
        <ele>95</ele>
        <time>2019-09-03T09:36:14Z</time>
      </trkpt>
      <trkpt lat="46.94678" lon="1.2722">
        <ele>95</ele>
        <time>2019-09-03T09:36:17Z</time>
      </trkpt>
      <trkpt lat="46.94676" lon="1.27226">
        <ele>95</ele>
        <time>2019-09-03T09:36:20Z</time>
      </trkpt>
      <trkpt lat="46.94673" lon="1.27258">
        <ele>95</ele>
        <time>2019-09-03T09:36:23Z</time>
      </trkpt>
      <trkpt lat="46.9467" lon="1.27309">
        <ele>97</ele>
        <time>2019-09-03T09:36:27Z</time>
      </trkpt>
      <trkpt lat="46.94667" lon="1.27341">
        <ele>97</ele>
        <time>2019-09-03T09:36:37Z</time>
      </trkpt>
      <trkpt lat="46.94666" lon="1.27349">
        <ele>97</ele>
        <time>2019-09-03T09:36:46Z</time>
      </trkpt>
      <trkpt lat="46.94663" lon="1.27371">
        <ele>97</ele>
        <time>2019-09-03T09:36:50Z</time>
      </trkpt>
      <trkpt lat="46.9466" lon="1.2739">
        <ele>96</ele>
        <time>2019-09-03T09:37:03Z</time>
      </trkpt>
      <trkpt lat="46.94656" lon="1.2741">
        <ele>95</ele>
        <time>2019-09-03T09:37:12Z</time>
      </trkpt>
      <trkpt lat="46.94652" lon="1.27431">
        <ele>95</ele>
        <time>2019-09-03T09:37:14Z</time>
      </trkpt>
      <trkpt lat="46.94645" lon="1.27464">
        <ele>95</ele>
        <time>2019-09-03T09:37:18Z</time>
      </trkpt>
      <trkpt lat="46.94637" lon="1.275">
        <ele>96</ele>
        <time>2019-09-03T09:37:23Z</time>
      </trkpt>
      <trkpt lat="46.94632" lon="1.27536">
        <ele>96</ele>
        <time>2019-09-03T09:37:30Z</time>
      </trkpt>
      <trkpt lat="46.9463" lon="1.27554">
        <ele>96</ele>
        <time>2019-09-03T09:37:40Z</time>
      </trkpt>
      <trkpt lat="46.94629" lon="1.27573">
        <ele>97</ele>
        <time>2019-09-03T09:37:49Z</time>
      </trkpt>
      <trkpt lat="46.94626" lon="1.27594">
        <ele>97</ele>
        <time>2019-09-03T09:37:50Z</time>
      </trkpt>
      <trkpt lat="46.94623" lon="1.27614">
        <ele>97</ele>
        <time>2019-09-03T09:37:53Z</time>
      </trkpt>
      <trkpt lat="46.94617" lon="1.27637">
        <ele>97</ele>
        <time>2019-09-03T09:37:54Z</time>
      </trkpt>
      <trkpt lat="46.94598" lon="1.27696">
        <ele>97</ele>
        <time>2019-09-03T09:37:57Z</time>
      </trkpt>
      <trkpt lat="46.94578" lon="1.27749">
        <ele>97</ele>
        <time>2019-09-03T09:38:06Z</time>
      </trkpt>
      <trkpt lat="46.9457" lon="1.27772">
        <ele>98</ele>
        <time>2019-09-03T09:38:14Z</time>
      </trkpt>
      <trkpt lat="46.94541" lon="1.27841">
        <ele>99</ele>
        <time>2019-09-03T09:38:20Z</time>
      </trkpt>
      <trkpt lat="46.94518" lon="1.27894">
        <ele>100</ele>
        <time>2019-09-03T09:38:32Z</time>
      </trkpt>
      <trkpt lat="46.94512" lon="1.27905">
        <ele>100</ele>
        <time>2019-09-03T09:38:38Z</time>
      </trkpt>
      <trkpt lat="46.94501" lon="1.27927">
        <ele>100</ele>
        <time>2019-09-03T09:38:42Z</time>
      </trkpt>
      <trkpt lat="46.94489" lon="1.27949">
        <ele>102</ele>
        <time>2019-09-03T09:38:43Z</time>
      </trkpt>
      <trkpt lat="46.9447" lon="1.27986">
        <ele>103</ele>
        <time>2019-09-03T09:38:53Z</time>
      </trkpt>
      <trkpt lat="46.94439" lon="1.28038">
        <ele>105</ele>
        <time>2019-09-03T09:39:01Z</time>
      </trkpt>
      <trkpt lat="46.94415" lon="1.28084">
        <ele>107</ele>
        <time>2019-09-03T09:39:06Z</time>
      </trkpt>
      <trkpt lat="46.94413" lon="1.28088">
        <ele>107</ele>
        <time>2019-09-03T09:39:14Z</time>
      </trkpt>
      <trkpt lat="46.94405" lon="1.28103">
        <ele>109</ele>
        <time>2019-09-03T09:39:19Z</time>
      </trkpt>
      <trkpt lat="46.94403" lon="1.2811">
        <ele>109</ele>
        <time>2019-09-03T09:39:20Z</time>
      </trkpt>
      <trkpt lat="46.94396" lon="1.28129">
        <ele>105</ele>
        <time>2019-09-03T09:39:25Z</time>
      </trkpt>
      <trkpt lat="46.94382" lon="1.28183">
        <ele>107</ele>
        <time>2019-09-03T09:39:26Z</time>
      </trkpt>
      <trkpt lat="46.94371" lon="1.28233">
        <ele>103</ele>
        <time>2019-09-03T09:39:31Z</time>
      </trkpt>
      <trkpt lat="46.94363" lon="1.28273">
        <ele>105</ele>
        <time>2019-09-03T09:39:36Z</time>
      </trkpt>
      <trkpt lat="46.94352" lon="1.28346">
        <ele>105</ele>
        <time>2019-09-03T09:39:41Z</time>
      </trkpt>
      <trkpt lat="46.9435" lon="1.28387">
        <ele>107</ele>
        <time>2019-09-03T09:39:46Z</time>
      </trkpt>
      <trkpt lat="46.94348" lon="1.28413">
        <ele>107</ele>
        <time>2019-09-03T09:39:59Z</time>
      </trkpt>
      <trkpt lat="46.94348" lon="1.2842">
        <ele>107</ele>
        <time>2019-09-03T09:40:04Z</time>
      </trkpt>
      <trkpt lat="46.94346" lon="1.28485">
        <ele>103</ele>
        <time>2019-09-03T09:40:16Z</time>
      </trkpt>
      <trkpt lat="46.94347" lon="1.28536">
        <ele>104</ele>
        <time>2019-09-03T09:40:23Z</time>
      </trkpt>
      <trkpt lat="46.94351" lon="1.28571">
        <ele>109</ele>
        <time>2019-09-03T09:40:35Z</time>
      </trkpt>
      <trkpt lat="46.94356" lon="1.28623">
        <ele>109</ele>
        <time>2019-09-03T09:40:42Z</time>
      </trkpt>
      <trkpt lat="46.94358" lon="1.28655">
        <ele>108</ele>
        <time>2019-09-03T09:40:47Z</time>
      </trkpt>
      <trkpt lat="46.94358" lon="1.28664">
        <ele>108</ele>
        <time>2019-09-03T09:40:50Z</time>
      </trkpt>
      <trkpt lat="46.94359" lon="1.28692">
        <ele>107</ele>
        <time>2019-09-03T09:40:54Z</time>
      </trkpt>
      <trkpt lat="46.94359" lon="1.28703">
        <ele>107</ele>
        <time>2019-09-03T09:40:57Z</time>
      </trkpt>
      <trkpt lat="46.94358" lon="1.28736">
        <ele>107</ele>
        <time>2019-09-03T09:41:04Z</time>
      </trkpt>
      <trkpt lat="46.94356" lon="1.28765">
        <ele>106</ele>
        <time>2019-09-03T09:41:09Z</time>
      </trkpt>
      <trkpt lat="46.94352" lon="1.288">
        <ele>107</ele>
        <time>2019-09-03T09:41:13Z</time>
      </trkpt>
      <trkpt lat="46.94348" lon="1.28833">
        <ele>107</ele>
        <time>2019-09-03T09:41:17Z</time>
      </trkpt>
      <trkpt lat="46.94339" lon="1.28914">
        <ele>105</ele>
        <time>2019-09-03T09:41:21Z</time>
      </trkpt>
      <trkpt lat="46.94335" lon="1.28948">
        <ele>105</ele>
        <time>2019-09-03T09:41:21Z</time>
      </trkpt>
      <trkpt lat="46.94328" lon="1.29028">
        <ele>105</ele>
        <time>2019-09-03T09:41:24Z</time>
      </trkpt>
      <trkpt lat="46.94324" lon="1.29073">
        <ele>108</ele>
        <time>2019-09-03T09:41:27Z</time>
      </trkpt>
      <trkpt lat="46.94316" lon="1.29152">
        <ele>108</ele>
        <time>2019-09-03T09:41:34Z</time>
      </trkpt>
      <trkpt lat="46.94313" lon="1.29196">
        <ele>110</ele>
        <time>2019-09-03T09:41:35Z</time>
      </trkpt>
      <trkpt lat="46.94314" lon="1.29228">
        <ele>110</ele>
        <time>2019-09-03T09:41:37Z</time>
      </trkpt>
      <trkpt lat="46.94315" lon="1.29249">
        <ele>110</ele>
        <time>2019-09-03T09:41:42Z</time>
      </trkpt>
      <trkpt lat="46.94318" lon="1.29271">
        <ele>109</ele>
        <time>2019-09-03T09:41:46Z</time>
      </trkpt>
      <trkpt lat="46.9432" lon="1.29291">
        <ele>112</ele>
        <time>2019-09-03T09:41:50Z</time>
      </trkpt>
      <trkpt lat="46.94325" lon="1.2934">
        <ele>111</ele>
        <time>2019-09-03T09:41:52Z</time>
      </trkpt>
      <trkpt lat="46.94327" lon="1.29372">
        <ele>112</ele>
        <time>2019-09-03T09:41:54Z</time>
      </trkpt>
      <trkpt lat="46.94329" lon="1.294">
        <ele>111</ele>
        <time>2019-09-03T09:41:59Z</time>
      </trkpt>
      <trkpt lat="46.94329" lon="1.29424">
        <ele>111</ele>
        <time>2019-09-03T09:42:06Z</time>
      </trkpt>
      <trkpt lat="46.94328" lon="1.29449">
        <ele>110</ele>
        <time>2019-09-03T09:42:12Z</time>
      </trkpt>
      <trkpt lat="46.94328" lon="1.29451">
        <ele>110</ele>
        <time>2019-09-03T09:42:14Z</time>
      </trkpt>
      <trkpt lat="46.94327" lon="1.29472">
        <ele>111</ele>
        <time>2019-09-03T09:42:33Z</time>
      </trkpt>
      <trkpt lat="46.94325" lon="1.29487">
        <ele>111</ele>
        <time>2019-09-03T09:42:48Z</time>
      </trkpt>
      <trkpt lat="46.94321" lon="1.29532">
        <ele>112</ele>
        <time>2019-09-03T09:42:50Z</time>
      </trkpt>
      <trkpt lat="46.9432" lon="1.29539">
        <ele>112</ele>
        <time>2019-09-03T09:42:53Z</time>
      </trkpt>
      <trkpt lat="46.94319" lon="1.29555">
        <ele>108</ele>
        <time>2019-09-03T09:42:54Z</time>
      </trkpt>
      <trkpt lat="46.94317" lon="1.29585">
        <ele>108</ele>
        <time>2019-09-03T09:42:54Z</time>
      </trkpt>
      <trkpt lat="46.94315" lon="1.29615">
        <ele>107</ele>
        <time>2019-09-03T09:42:59Z</time>
      </trkpt>
      <trkpt lat="46.94316" lon="1.29641">
        <ele>107</ele>
        <time>2019-09-03T09:43:05Z</time>
      </trkpt>
      <trkpt lat="46.94316" lon="1.29651">
        <ele>107</ele>
        <time>2019-09-03T09:43:06Z</time>
      </trkpt>
      <trkpt lat="46.94317" lon="1.29668">
        <ele>107</ele>
        <time>2019-09-03T09:43:10Z</time>
      </trkpt>
      <trkpt lat="46.94318" lon="1.297">
        <ele>107</ele>
        <time>2019-09-03T09:43:15Z</time>
      </trkpt>
      <trkpt lat="46.94321" lon="1.29745">
        <ele>107</ele>
        <time>2019-09-03T09:43:17Z</time>
      </trkpt>
      <trkpt lat="46.94324" lon="1.29781">
        <ele>106</ele>
        <time>2019-09-03T09:43:19Z</time>
      </trkpt>
      <trkpt lat="46.94325" lon="1.29794">
        <ele>106</ele>
        <time>2019-09-03T09:43:22Z</time>
      </trkpt>
      <trkpt lat="46.94336" lon="1.29922">
        <ele>103</ele>
        <time>2019-09-03T09:43:25Z</time>
      </trkpt>
      <trkpt lat="46.94349" lon="1.30014">
        <ele>102</ele>
        <time>2019-09-03T09:43:28Z</time>
      </trkpt>
      <trkpt lat="46.94352" lon="1.30029">
        <ele>102</ele>
        <time>2019-09-03T09:43:30Z</time>
      </trkpt>
      <trkpt lat="46.94355" lon="1.30049">
        <ele>102</ele>
        <time>2019-09-03T09:43:33Z</time>
      </trkpt>
      <trkpt lat="46.94356" lon="1.30053">
        <ele>102</ele>
        <time>2019-09-03T09:43:34Z</time>
      </trkpt>
      <trkpt lat="46.94356" lon="1.30057">
        <ele>102</ele>
        <time>2019-09-03T09:43:38Z</time>
      </trkpt>
      <trkpt lat="46.94362" lon="1.30086">
        <ele>102</ele>
        <time>2019-09-03T09:43:40Z</time>
      </trkpt>
      <trkpt lat="46.94374" lon="1.3012">
        <ele>103</ele>
        <time>2019-09-03T09:43:42Z</time>
      </trkpt>
      <trkpt lat="46.94377" lon="1.30128">
        <ele>104</ele>
        <time>2019-09-03T09:43:42Z</time>
      </trkpt>
      <trkpt lat="46.94388" lon="1.30149">
        <ele>104</ele>
        <time>2019-09-03T09:43:46Z</time>
      </trkpt>
      <trkpt lat="46.94404" lon="1.30172">
        <ele>106</ele>
        <time>2019-09-03T09:43:50Z</time>
      </trkpt>
      <trkpt lat="46.9441" lon="1.30181">
        <ele>108</ele>
        <time>2019-09-03T09:43:50Z</time>
      </trkpt>
      <trkpt lat="46.94416" lon="1.3019">
        <ele>108</ele>
        <time>2019-09-03T09:43:58Z</time>
      </trkpt>
      <trkpt lat="46.94423" lon="1.30206">
        <ele>108</ele>
        <time>2019-09-03T09:44:02Z</time>
      </trkpt>
      <trkpt lat="46.94427" lon="1.30226">
        <ele>110</ele>
        <time>2019-09-03T09:44:14Z</time>
      </trkpt>
      <trkpt lat="46.94427" lon="1.30244">
        <ele>111</ele>
        <time>2019-09-03T09:44:18Z</time>
      </trkpt>
      <trkpt lat="46.94425" lon="1.30257">
        <ele>111</ele>
        <time>2019-09-03T09:44:21Z</time>
      </trkpt>
      <trkpt lat="46.94423" lon="1.30276">
        <ele>112</ele>
        <time>2019-09-03T09:44:32Z</time>
      </trkpt>
      <trkpt lat="46.94422" lon="1.30284">
        <ele>112</ele>
        <time>2019-09-03T09:44:42Z</time>
      </trkpt>
      <trkpt lat="46.94418" lon="1.30309">
        <ele>113</ele>
        <time>2019-09-03T09:44:51Z</time>
      </trkpt>
      <trkpt lat="46.94416" lon="1.30321">
        <ele>115</ele>
        <time>2019-09-03T09:44:56Z</time>
      </trkpt>
      <trkpt lat="46.94414" lon="1.30335">
        <ele>115</ele>
        <time>2019-09-03T09:45:01Z</time>
      </trkpt>
      <trkpt lat="46.94413" lon="1.30337">
        <ele>115</ele>
        <time>2019-09-03T09:45:07Z</time>
      </trkpt>
      <trkpt lat="46.94411" lon="1.30361">
        <ele>117</ele>
        <time>2019-09-03T09:45:12Z</time>
      </trkpt>
      <trkpt lat="46.94407" lon="1.30387">
        <ele>119</ele>
        <time>2019-09-03T09:45:18Z</time>
      </trkpt>
      <trkpt lat="46.94407" lon="1.30388">
        <ele>119</ele>
        <time>2019-09-03T09:45:21Z</time>
      </trkpt>
      <trkpt lat="46.94405" lon="1.3044">
        <ele>121</ele>
        <time>2019-09-03T09:45:21Z</time>
      </trkpt>
      <trkpt lat="46.94404" lon="1.30462">
        <ele>121</ele>
        <time>2019-09-03T09:45:26Z</time>
      </trkpt>
      <trkpt lat="46.94401" lon="1.30545">
        <ele>120</ele>
        <time>2019-09-03T09:45:34Z</time>
      </trkpt>
      <trkpt lat="46.94398" lon="1.30568">
        <ele>120</ele>
        <time>2019-09-03T09:45:35Z</time>
      </trkpt>
      <trkpt lat="46.94397" lon="1.3059">
        <ele>120</ele>
        <time>2019-09-03T09:45:42Z</time>
      </trkpt>
      <trkpt lat="46.94394" lon="1.30659">
        <ele>119</ele>
        <time>2019-09-03T09:45:43Z</time>
      </trkpt>
      <trkpt lat="46.94392" lon="1.30728">
        <ele>118</ele>
        <time>2019-09-03T09:45:51Z</time>
      </trkpt>
      <trkpt lat="46.94389" lon="1.30783">
        <ele>117</ele>
        <time>2019-09-03T09:45:55Z</time>
      </trkpt>
      <trkpt lat="46.94387" lon="1.3082">
        <ele>117</ele>
        <time>2019-09-03T09:46:01Z</time>
      </trkpt>
      <trkpt lat="46.94385" lon="1.30853">
        <ele>118</ele>
        <time>2019-09-03T09:46:03Z</time>
      </trkpt>
      <trkpt lat="46.94381" lon="1.3089">
        <ele>119</ele>
        <time>2019-09-03T09:46:04Z</time>
      </trkpt>
      <trkpt lat="46.94378" lon="1.30922">
        <ele>120</ele>
        <time>2019-09-03T09:46:04Z</time>
      </trkpt>
      <trkpt lat="46.94374" lon="1.3096">
        <ele>119</ele>
        <time>2019-09-03T09:46:05Z</time>
      </trkpt>
      <trkpt lat="46.94371" lon="1.30979">
        <ele>119</ele>
        <time>2019-09-03T09:46:07Z</time>
      </trkpt>
      <trkpt lat="46.9437" lon="1.30983">
        <ele>119</ele>
        <time>2019-09-03T09:46:08Z</time>
      </trkpt>
      <trkpt lat="46.94362" lon="1.31013">
        <ele>120</ele>
        <time>2019-09-03T09:46:08Z</time>
      </trkpt>
      <trkpt lat="46.94355" lon="1.31059">
        <ele>121</ele>
        <time>2019-09-03T09:46:09Z</time>
      </trkpt>
      <trkpt lat="46.94354" lon="1.3107">
        <ele>122</ele>
        <time>2019-09-03T09:46:10Z</time>
      </trkpt>
      <trkpt lat="46.94349" lon="1.31115">
        <ele>124</ele>
        <time>2019-09-03T09:46:10Z</time>
      </trkpt>
      <trkpt lat="46.94348" lon="1.31122">
        <ele>124</ele>
        <time>2019-09-03T09:46:11Z</time>
      </trkpt>
      <trkpt lat="46.94343" lon="1.31172">
        <ele>121</ele>
        <time>2019-09-03T09:46:12Z</time>
      </trkpt>
      <trkpt lat="46.94342" lon="1.31198">
        <ele>122</ele>
        <time>2019-09-03T09:46:16Z</time>
      </trkpt>
      <trkpt lat="46.94342" lon="1.31236">
        <ele>122</ele>
        <time>2019-09-03T09:46:18Z</time>
      </trkpt>
      <trkpt lat="46.94343" lon="1.31254">
        <ele>122</ele>
        <time>2019-09-03T09:46:18Z</time>
      </trkpt>
      <trkpt lat="46.94343" lon="1.31254">
        <ele>122</ele>
        <time>2019-09-03T09:46:20Z</time>
      </trkpt>
      <trkpt lat="46.94339" lon="1.31256">
        <ele>122</ele>
        <time>2019-09-03T09:46:21Z</time>
      </trkpt>
      <trkpt lat="46.94336" lon="1.31256">
        <ele>122</ele>
        <time>2019-09-03T09:46:22Z</time>
      </trkpt>
      <trkpt lat="46.94327" lon="1.31257">
        <ele>122</ele>
        <time>2019-09-03T09:46:23Z</time>
      </trkpt>
      <trkpt lat="46.94325" lon="1.31257">
        <ele>122</ele>
        <time>2019-09-03T09:46:24Z</time>
      </trkpt>
      <trkpt lat="46.94321" lon="1.31256">
        <ele>122</ele>
        <time>2019-09-03T09:46:28Z</time>
      </trkpt>
      <trkpt lat="46.94318" lon="1.31256">
        <ele>119</ele>
        <time>2019-09-03T09:46:35Z</time>
      </trkpt>
      <trkpt lat="46.94315" lon="1.31257">
        <ele>119</ele>
        <time>2019-09-03T09:46:46Z</time>
      </trkpt>
      <trkpt lat="46.94313" lon="1.31259">
        <ele>119</ele>
        <time>2019-09-03T09:46:53Z</time>
      </trkpt>
      <trkpt lat="46.94311" lon="1.31261">
        <ele>119</ele>
        <time>2019-09-03T09:47:09Z</time>
      </trkpt>
      <trkpt lat="46.94308" lon="1.31263">
        <ele>119</ele>
        <time>2019-09-03T09:47:12Z</time>
      </trkpt>
      <trkpt lat="46.94294" lon="1.31279">
        <ele>118</ele>
        <time>2019-09-03T09:47:20Z</time>
      </trkpt>
      <trkpt lat="46.94284" lon="1.31289">
        <ele>117</ele>
        <time>2019-09-03T09:47:27Z</time>
      </trkpt>
      <trkpt lat="46.94284" lon="1.31289">
        <ele>117</ele>
        <time>2019-09-03T09:47:32Z</time>
      </trkpt>
      <trkpt lat="46.94281" lon="1.31282">
        <ele>117</ele>
        <time>2019-09-03T09:47:35Z</time>
      </trkpt>
      <trkpt lat="46.94278" lon="1.31278">
        <ele>117</ele>
        <time>2019-09-03T09:47:41Z</time>
      </trkpt>
      <trkpt lat="46.94274" lon="1.31274">
        <ele>117</ele>
        <time>2019-09-03T09:47:44Z</time>
      </trkpt>
      <trkpt lat="46.94269" lon="1.3127">
        <ele>117</ele>
        <time>2019-09-03T09:47:46Z</time>
      </trkpt>
      <trkpt lat="46.94263" lon="1.31266">
        <ele>115</ele>
        <time>2019-09-03T09:47:49Z</time>
      </trkpt>
      <trkpt lat="46.94247" lon="1.31265">
        <ele>115</ele>
        <time>2019-09-03T09:47:50Z</time>
      </trkpt>
      <trkpt lat="46.94217" lon="1.31266">
        <ele>113</ele>
        <time>2019-09-03T09:47:52Z</time>
      </trkpt>
      <trkpt lat="46.94166" lon="1.31274">
        <ele>105</ele>
        <time>2019-09-03T09:47:54Z</time>
      </trkpt>
      <trkpt lat="46.94137" lon="1.31278">
        <ele>104</ele>
        <time>2019-09-03T09:47:55Z</time>
      </trkpt>
      <trkpt lat="46.94063" lon="1.31289">
        <ele>100</ele>
        <time>2019-09-03T09:47:58Z</time>
      </trkpt>
      <trkpt lat="46.94051" lon="1.3129">
        <ele>100</ele>
        <time>2019-09-03T09:48:01Z</time>
      </trkpt>
      <trkpt lat="46.94015" lon="1.31295">
        <ele>99</ele>
        <time>2019-09-03T09:48:02Z</time>
      </trkpt>
      <trkpt lat="46.93982" lon="1.313">
        <ele>101</ele>
        <time>2019-09-03T09:48:05Z</time>
      </trkpt>
      <trkpt lat="46.93962" lon="1.31299">
        <ele>101</ele>
        <time>2019-09-03T09:48:08Z</time>
      </trkpt>
      <trkpt lat="46.93946" lon="1.31294">
        <ele>101</ele>
        <time>2019-09-03T09:48:10Z</time>
      </trkpt>
      <trkpt lat="46.93921" lon="1.3128">
        <ele>101</ele>
        <time>2019-09-03T09:48:14Z</time>
      </trkpt>
      <trkpt lat="46.9391" lon="1.31273">
        <ele>101</ele>
        <time>2019-09-03T09:48:16Z</time>
      </trkpt>
      <trkpt lat="46.93901" lon="1.31269">
        <ele>101</ele>
        <time>2019-09-03T09:48:18Z</time>
      </trkpt>
      <trkpt lat="46.9389" lon="1.31268">
        <ele>101</ele>
        <time>2019-09-03T09:48:22Z</time>
      </trkpt>
      <trkpt lat="46.93883" lon="1.31269">
        <ele>101</ele>
        <time>2019-09-03T09:48:22Z</time>
      </trkpt>
      <trkpt lat="46.93876" lon="1.31273">
        <ele>101</ele>
        <time>2019-09-03T09:48:25Z</time>
      </trkpt>
      <trkpt lat="46.93868" lon="1.3128">
        <ele>101</ele>
        <time>2019-09-03T09:48:26Z</time>
      </trkpt>
      <trkpt lat="46.93863" lon="1.31286">
        <ele>101</ele>
        <time>2019-09-03T09:48:28Z</time>
      </trkpt>
      <trkpt lat="46.93855" lon="1.31302">
        <ele>101</ele>
        <time>2019-09-03T09:48:29Z</time>
      </trkpt>
      <trkpt lat="46.93848" lon="1.31319">
        <ele>101</ele>
        <time>2019-09-03T09:48:31Z</time>
      </trkpt>
      <trkpt lat="46.93847" lon="1.31324">
        <ele>100</ele>
        <time>2019-09-03T09:48:33Z</time>
      </trkpt>
      <trkpt lat="46.93842" lon="1.31341">
        <ele>100</ele>
        <time>2019-09-03T09:48:34Z</time>
      </trkpt>
      <trkpt lat="46.9384" lon="1.31363">
        <ele>100</ele>
        <time>2019-09-03T09:48:38Z</time>
      </trkpt>
      <trkpt lat="46.9384" lon="1.31377">
        <ele>98</ele>
        <time>2019-09-03T09:48:48Z</time>
      </trkpt>
      <trkpt lat="46.93837" lon="1.31403">
        <ele>97</ele>
        <time>2019-09-03T09:48:49Z</time>
      </trkpt>
      <trkpt lat="46.93837" lon="1.31414">
        <ele>97</ele>
        <time>2019-09-03T09:48:51Z</time>
      </trkpt>
      <trkpt lat="46.93835" lon="1.31429">
        <ele>97</ele>
        <time>2019-09-03T09:48:52Z</time>
      </trkpt>
      <trkpt lat="46.93834" lon="1.31452">
        <ele>97</ele>
        <time>2019-09-03T09:48:53Z</time>
      </trkpt>
      <trkpt lat="46.93833" lon="1.31455">
        <ele>97</ele>
        <time>2019-09-03T09:48:54Z</time>
      </trkpt>
      <trkpt lat="46.93831" lon="1.31469">
        <ele>97</ele>
        <time>2019-09-03T09:48:55Z</time>
      </trkpt>
      <trkpt lat="46.93828" lon="1.3148">
        <ele>97</ele>
        <time>2019-09-03T09:48:56Z</time>
      </trkpt>
      <trkpt lat="46.93825" lon="1.31488">
        <ele>97</ele>
        <time>2019-09-03T09:48:57Z</time>
      </trkpt>
      <trkpt lat="46.93822" lon="1.31495">
        <ele>97</ele>
        <time>2019-09-03T09:48:57Z</time>
      </trkpt>
      <trkpt lat="46.93817" lon="1.31503">
        <ele>97</ele>
        <time>2019-09-03T09:48:59Z</time>
      </trkpt>
      <trkpt lat="46.9381" lon="1.31517">
        <ele>97</ele>
        <time>2019-09-03T09:49:00Z</time>
      </trkpt>
      <trkpt lat="46.93808" lon="1.3152">
        <ele>97</ele>
        <time>2019-09-03T09:49:00Z</time>
      </trkpt>
      <trkpt lat="46.93796" lon="1.31539">
        <ele>97</ele>
        <time>2019-09-03T09:49:01Z</time>
      </trkpt>
      <trkpt lat="46.93765" lon="1.31588">
        <ele>98</ele>
        <time>2019-09-03T09:49:01Z</time>
      </trkpt>
      <trkpt lat="46.93761" lon="1.31593">
        <ele>99</ele>
        <time>2019-09-03T09:49:06Z</time>
      </trkpt>
      <trkpt lat="46.93755" lon="1.31602">
        <ele>99</ele>
        <time>2019-09-03T09:49:06Z</time>
      </trkpt>
      <trkpt lat="46.93752" lon="1.31607">
        <ele>99</ele>
        <time>2019-09-03T09:49:07Z</time>
      </trkpt>
      <trkpt lat="46.93749" lon="1.31611">
        <ele>99</ele>
        <time>2019-09-03T09:49:09Z</time>
      </trkpt>
      <trkpt lat="46.93746" lon="1.31613">
        <ele>99</ele>
        <time>2019-09-03T09:49:10Z</time>
      </trkpt>
      <trkpt lat="46.9374" lon="1.31619">
        <ele>99</ele>
        <time>2019-09-03T09:49:15Z</time>
      </trkpt>
      <trkpt lat="46.93737" lon="1.31621">
        <ele>99</ele>
        <time>2019-09-03T09:49:18Z</time>
      </trkpt>
      <trkpt lat="46.93733" lon="1.31624">
        <ele>99</ele>
        <time>2019-09-03T09:49:21Z</time>
      </trkpt>
      <trkpt lat="46.93733" lon="1.31624">
        <ele>99</ele>
        <time>2019-09-03T09:49:26Z</time>
      </trkpt>
      <trkpt lat="46.93733" lon="1.31635">
        <ele>98</ele>
        <time>2019-09-03T09:49:26Z</time>
      </trkpt>
      <trkpt lat="46.93732" lon="1.3164">
        <ele>98</ele>
        <time>2019-09-03T09:49:29Z</time>
      </trkpt>
      <trkpt lat="46.93732" lon="1.31644">
        <ele>98</ele>
        <time>2019-09-03T09:49:32Z</time>
      </trkpt>
      <trkpt lat="46.93731" lon="1.31647">
        <ele>98</ele>
        <time>2019-09-03T09:49:35Z</time>
      </trkpt>
      <trkpt lat="46.93729" lon="1.3165">
        <ele>98</ele>
        <time>2019-09-03T09:49:39Z</time>
      </trkpt>
      <trkpt lat="46.93716" lon="1.31673">
        <ele>97</ele>
        <time>2019-09-03T09:49:42Z</time>
      </trkpt>
      <trkpt lat="46.93716" lon="1.31673">
        <ele>97</ele>
        <time>2019-09-03T09:49:46Z</time>
      </trkpt>
      <trkpt lat="46.93718" lon="1.3168">
        <ele>97</ele>
        <time>2019-09-03T09:49:52Z</time>
      </trkpt>
      <trkpt lat="46.9372" lon="1.31688">
        <ele>97</ele>
        <time>2019-09-03T09:49:58Z</time>
      </trkpt>
      <trkpt lat="46.93719" lon="1.31696">
        <ele>97</ele>
        <time>2019-09-03T09:50:06Z</time>
      </trkpt>
      <trkpt lat="46.93716" lon="1.31727">
        <ele>98</ele>
        <time>2019-09-03T09:50:22Z</time>
      </trkpt>
      <trkpt lat="46.93713" lon="1.3175">
        <ele>98</ele>
        <time>2019-09-03T09:50:30Z</time>
      </trkpt>
      <trkpt lat="46.9371" lon="1.3177">
        <ele>98</ele>
        <time>2019-09-03T09:50:35Z</time>
      </trkpt>
      <trkpt lat="46.93706" lon="1.31799">
        <ele>98</ele>
        <time>2019-09-03T09:50:39Z</time>
      </trkpt>
      <trkpt lat="46.93706" lon="1.31802">
        <ele>98</ele>
        <time>2019-09-03T09:50:44Z</time>
      </trkpt>
      <trkpt lat="46.93703" lon="1.31818">
        <ele>98</ele>
        <time>2019-09-03T09:50:48Z</time>
      </trkpt>
      <trkpt lat="46.93697" lon="1.3184">
        <ele>97</ele>
        <time>2019-09-03T09:50:56Z</time>
      </trkpt>
      <trkpt lat="46.93693" lon="1.3186">
        <ele>98</ele>
        <time>2019-09-03T09:51:03Z</time>
      </trkpt>
      <trkpt lat="46.9369" lon="1.3188">
        <ele>98</ele>
        <time>2019-09-03T09:51:10Z</time>
      </trkpt>
      <trkpt lat="46.93687" lon="1.31904">
        <ele>98</ele>
        <time>2019-09-03T09:51:23Z</time>
      </trkpt>
      <trkpt lat="46.93684" lon="1.3193">
        <ele>98</ele>
        <time>2019-09-03T09:51:30Z</time>
      </trkpt>
      <trkpt lat="46.93683" lon="1.31966">
        <ele>98</ele>
        <time>2019-09-03T09:51:35Z</time>
      </trkpt>
      <trkpt lat="46.93683" lon="1.32004">
        <ele>97</ele>
        <time>2019-09-03T09:51:39Z</time>
      </trkpt>
      <trkpt lat="46.93684" lon="1.32056">
        <ele>96</ele>
        <time>2019-09-03T09:51:45Z</time>
      </trkpt>
      <trkpt lat="46.93681" lon="1.32161">
        <ele>98</ele>
        <time>2019-09-03T09:51:50Z</time>
      </trkpt>
      <trkpt lat="46.93677" lon="1.32214">
        <ele>99</ele>
        <time>2019-09-03T09:52:01Z</time>
      </trkpt>
      <trkpt lat="46.93672" lon="1.32246">
        <ele>101</ele>
        <time>2019-09-03T09:52:08Z</time>
      </trkpt>
      <trkpt lat="46.93671" lon="1.32273">
        <ele>101</ele>
        <time>2019-09-03T09:52:13Z</time>
      </trkpt>
      <trkpt lat="46.93667" lon="1.32306">
        <ele>102</ele>
        <time>2019-09-03T09:52:16Z</time>
      </trkpt>
      <trkpt lat="46.9366" lon="1.32333">
        <ele>102</ele>
        <time>2019-09-03T09:52:21Z</time>
      </trkpt>
      <trkpt lat="46.93642" lon="1.32379">
        <ele>100</ele>
        <time>2019-09-03T09:52:26Z</time>
      </trkpt>
      <trkpt lat="46.93625" lon="1.32414">
        <ele>99</ele>
        <time>2019-09-03T09:52:29Z</time>
      </trkpt>
      <trkpt lat="46.93609" lon="1.32451">
        <ele>99</ele>
        <time>2019-09-03T09:52:36Z</time>
      </trkpt>
      <trkpt lat="46.93586" lon="1.32531">
        <ele>100</ele>
        <time>2019-09-03T09:52:40Z</time>
      </trkpt>
      <trkpt lat="46.93576" lon="1.32576">
        <ele>99</ele>
        <time>2019-09-03T09:52:42Z</time>
      </trkpt>
      <trkpt lat="46.9357" lon="1.3261">
        <ele>99</ele>
        <time>2019-09-03T09:52:44Z</time>
      </trkpt>
      <trkpt lat="46.93565" lon="1.32636">
        <ele>99</ele>
        <time>2019-09-03T09:52:51Z</time>
      </trkpt>
      <trkpt lat="46.93561" lon="1.32669">
        <ele>99</ele>
        <time>2019-09-03T09:53:06Z</time>
      </trkpt>
      <trkpt lat="46.93559" lon="1.32707">
        <ele>99</ele>
        <time>2019-09-03T09:53:06Z</time>
      </trkpt>
      <trkpt lat="46.93556" lon="1.32776">
        <ele>98</ele>
        <time>2019-09-03T09:53:17Z</time>
      </trkpt>
      <trkpt lat="46.93555" lon="1.32825">
        <ele>98</ele>
        <time>2019-09-03T09:53:30Z</time>
      </trkpt>
      <trkpt lat="46.93554" lon="1.32857">
        <ele>99</ele>
        <time>2019-09-03T09:53:33Z</time>
      </trkpt>
      <trkpt lat="46.93555" lon="1.32876">
        <ele>99</ele>
        <time>2019-09-03T09:53:39Z</time>
      </trkpt>
      <trkpt lat="46.9356" lon="1.32908">
        <ele>99</ele>
        <time>2019-09-03T09:53:45Z</time>
      </trkpt>
      <trkpt lat="46.93564" lon="1.32938">
        <ele>100</ele>
        <time>2019-09-03T09:53:49Z</time>
      </trkpt>
      <trkpt lat="46.93567" lon="1.3296">
        <ele>100</ele>
        <time>2019-09-03T09:53:55Z</time>
      </trkpt>
      <trkpt lat="46.93573" lon="1.33007">
        <ele>99</ele>
        <time>2019-09-03T09:53:58Z</time>
      </trkpt>
      <trkpt lat="46.93576" lon="1.33031">
        <ele>99</ele>
        <time>2019-09-03T09:53:58Z</time>
      </trkpt>
      <trkpt lat="46.93577" lon="1.33043">
        <ele>100</ele>
        <time>2019-09-03T09:54:13Z</time>
      </trkpt>
      <trkpt lat="46.93577" lon="1.33055">
        <ele>100</ele>
        <time>2019-09-03T09:54:15Z</time>
      </trkpt>
      <trkpt lat="46.93578" lon="1.33103">
        <ele>100</ele>
        <time>2019-09-03T09:54:15Z</time>
      </trkpt>
      <trkpt lat="46.93579" lon="1.33199">
        <ele>101</ele>
        <time>2019-09-03T09:54:18Z</time>
      </trkpt>
      <trkpt lat="46.93579" lon="1.33199">
        <ele>101</ele>
        <time>2019-09-03T09:54:20Z</time>
      </trkpt>
      <trkpt lat="46.93532" lon="1.33222">
        <ele>100</ele>
        <time>2019-09-03T09:54:25Z</time>
      </trkpt>
      <trkpt lat="46.93478" lon="1.3325">
        <ele>101</ele>
        <time>2019-09-03T09:54:32Z</time>
      </trkpt>
      <trkpt lat="46.93462" lon="1.33258">
        <ele>101</ele>
        <time>2019-09-03T09:54:40Z</time>
      </trkpt>
      <trkpt lat="46.93438" lon="1.33265">
        <ele>100</ele>
        <time>2019-09-03T09:54:43Z</time>
      </trkpt>
      <trkpt lat="46.93411" lon="1.33268">
        <ele>99</ele>
        <time>2019-09-03T09:54:43Z</time>
      </trkpt>
      <trkpt lat="46.9339" lon="1.33269">
        <ele>99</ele>
        <time>2019-09-03T09:54:45Z</time>
      </trkpt>
      <trkpt lat="46.93365" lon="1.33269">
        <ele>99</ele>
        <time>2019-09-03T09:54:54Z</time>
      </trkpt>
      <trkpt lat="46.93353" lon="1.33268">
        <ele>99</ele>
        <time>2019-09-03T09:55:00Z</time>
      </trkpt>
      <trkpt lat="46.93353" lon="1.33268">
        <ele>99</ele>
        <time>2019-09-03T09:55:03Z</time>
      </trkpt>
      <trkpt lat="46.9336" lon="1.33366">
        <ele>99</ele>
        <time>2019-09-03T09:55:03Z</time>
      </trkpt>
      <trkpt lat="46.93361" lon="1.3338">
        <ele>99</ele>
        <time>2019-09-03T09:55:04Z</time>
      </trkpt>
      <trkpt lat="46.93361" lon="1.3338">
        <ele>99</ele>
        <time>2019-09-03T09:55:08Z</time>
      </trkpt>
      <trkpt lat="46.93353" lon="1.33393">
        <ele>99</ele>
        <time>2019-09-03T09:55:12Z</time>
      </trkpt>
      <trkpt lat="46.93343" lon="1.33402">
        <ele>101</ele>
        <time>2019-09-03T09:55:15Z</time>
      </trkpt>
      <trkpt lat="46.93322" lon="1.33417">
        <ele>101</ele>
        <time>2019-09-03T09:55:16Z</time>
      </trkpt>
      <trkpt lat="46.93296" lon="1.33432">
        <ele>103</ele>
        <time>2019-09-03T09:55:17Z</time>
      </trkpt>
      <trkpt lat="46.93264" lon="1.33455">
        <ele>104</ele>
        <time>2019-09-03T09:55:19Z</time>
      </trkpt>
      <trkpt lat="46.93252" lon="1.33465">
        <ele>102</ele>
        <time>2019-09-03T09:55:19Z</time>
      </trkpt>
      <trkpt lat="46.93251" lon="1.33466">
        <ele>102</ele>
        <time>2019-09-03T09:55:20Z</time>
      </trkpt>
      <trkpt lat="46.93244" lon="1.33476">
        <ele>102</ele>
        <time>2019-09-03T09:55:20Z</time>
      </trkpt>
      <trkpt lat="46.9322" lon="1.33521">
        <ele>99</ele>
        <time>2019-09-03T09:55:21Z</time>
      </trkpt>
      <trkpt lat="46.93204" lon="1.33555">
        <ele>99</ele>
        <time>2019-09-03T09:55:25Z</time>
      </trkpt>
      <trkpt lat="46.93196" lon="1.3357">
        <ele>101</ele>
        <time>2019-09-03T09:55:25Z</time>
      </trkpt>
      <trkpt lat="46.93196" lon="1.3357">
        <ele>101</ele>
        <time>2019-09-03T09:55:33Z</time>
      </trkpt>
      <trkpt lat="46.93193" lon="1.33578">
        <ele>101</ele>
        <time>2019-09-03T09:55:34Z</time>
      </trkpt>
      <trkpt lat="46.93186" lon="1.33599">
        <ele>102</ele>
        <time>2019-09-03T09:55:36Z</time>
      </trkpt>
      <trkpt lat="46.93177" lon="1.33624">
        <ele>101</ele>
        <time>2019-09-03T09:55:37Z</time>
      </trkpt>
      <trkpt lat="46.93172" lon="1.3364">
        <ele>102</ele>
        <time>2019-09-03T09:55:39Z</time>
      </trkpt>
      <trkpt lat="46.9317" lon="1.33648">
        <ele>102</ele>
        <time>2019-09-03T09:55:40Z</time>
      </trkpt>
      <trkpt lat="46.93168" lon="1.33654">
        <ele>101</ele>
        <time>2019-09-03T09:55:42Z</time>
      </trkpt>
      <trkpt lat="46.93166" lon="1.33663">
        <ele>101</ele>
        <time>2019-09-03T09:55:44Z</time>
      </trkpt>
      <trkpt lat="46.93166" lon="1.33668">
        <ele>101</ele>
        <time>2019-09-03T09:55:46Z</time>
      </trkpt>
      <trkpt lat="46.93165" lon="1.3367">
        <ele>101</ele>
        <time>2019-09-03T09:55:48Z</time>
      </trkpt>
      <trkpt lat="46.93165" lon="1.33674">
        <ele>101</ele>
        <time>2019-09-03T09:55:54Z</time>
      </trkpt>
      <trkpt lat="46.93166" lon="1.33677">
        <ele>101</ele>
        <time>2019-09-03T09:55:56Z</time>
      </trkpt>
      <trkpt lat="46.93166" lon="1.33706">
        <ele>101</ele>
        <time>2019-09-03T09:55:57Z</time>
      </trkpt>
      <trkpt lat="46.93166" lon="1.33706">
        <ele>101</ele>
        <time>2019-09-03T09:56:00Z</time>
      </trkpt>
      <trkpt lat="46.93162" lon="1.33757">
        <ele>101</ele>
        <time>2019-09-03T09:56:04Z</time>
      </trkpt>
      <trkpt lat="46.93163" lon="1.33764">
        <ele>102</ele>
        <time>2019-09-03T09:56:08Z</time>
      </trkpt>
      <trkpt lat="46.93164" lon="1.33772">
        <ele>102</ele>
        <time>2019-09-03T09:56:10Z</time>
      </trkpt>
      <trkpt lat="46.93165" lon="1.33781">
        <ele>102</ele>
        <time>2019-09-03T09:56:15Z</time>
      </trkpt>
      <trkpt lat="46.93166" lon="1.33797">
        <ele>103</ele>
        <time>2019-09-03T09:56:16Z</time>
      </trkpt>
      <trkpt lat="46.93166" lon="1.33801">
        <ele>103</ele>
        <time>2019-09-03T09:56:21Z</time>
      </trkpt>
      <trkpt lat="46.93166" lon="1.33812">
        <ele>103</ele>
        <time>2019-09-03T09:56:30Z</time>
      </trkpt>
      <trkpt lat="46.93166" lon="1.33828">
        <ele>104</ele>
        <time>2019-09-03T09:56:36Z</time>
      </trkpt>
      <trkpt lat="46.93165" lon="1.3384">
        <ele>104</ele>
        <time>2019-09-03T09:56:47Z</time>
      </trkpt>
      <trkpt lat="46.93164" lon="1.33853">
        <ele>104</ele>
        <time>2019-09-03T09:56:52Z</time>
      </trkpt>
      <trkpt lat="46.93164" lon="1.33894">
        <ele>103</ele>
        <time>2019-09-03T09:56:54Z</time>
      </trkpt>
      <trkpt lat="46.93162" lon="1.33903">
        <ele>102</ele>
        <time>2019-09-03T09:56:56Z</time>
      </trkpt>
      <trkpt lat="46.93157" lon="1.33913">
        <ele>102</ele>
        <time>2019-09-03T09:56:58Z</time>
      </trkpt>
      <trkpt lat="46.93152" lon="1.33927">
        <ele>102</ele>
        <time>2019-09-03T09:56:59Z</time>
      </trkpt>
      <trkpt lat="46.93147" lon="1.33954">
        <ele>101</ele>
        <time>2019-09-03T09:57:01Z</time>
      </trkpt>
      <trkpt lat="46.93142" lon="1.33981">
        <ele>101</ele>
        <time>2019-09-03T09:57:04Z</time>
      </trkpt>
      <trkpt lat="46.93141" lon="1.33988">
        <ele>101</ele>
        <time>2019-09-03T09:57:06Z</time>
      </trkpt>
      <trkpt lat="46.93138" lon="1.34021">
        <ele>102</ele>
        <time>2019-09-03T09:57:11Z</time>
      </trkpt>
      <trkpt lat="46.93137" lon="1.34028">
        <ele>102</ele>
        <time>2019-09-03T09:57:23Z</time>
      </trkpt>
      <trkpt lat="46.93137" lon="1.34062">
        <ele>102</ele>
        <time>2019-09-03T09:57:26Z</time>
      </trkpt>
      <trkpt lat="46.93136" lon="1.3412">
        <ele>103</ele>
        <time>2019-09-03T09:57:29Z</time>
      </trkpt>
      <trkpt lat="46.93136" lon="1.34164">
        <ele>102</ele>
        <time>2019-09-03T09:57:36Z</time>
      </trkpt>
      <trkpt lat="46.93137" lon="1.34235">
        <ele>102</ele>
        <time>2019-09-03T09:57:46Z</time>
      </trkpt>
      <trkpt lat="46.93137" lon="1.34264">
        <ele>101</ele>
        <time>2019-09-03T09:57:46Z</time>
      </trkpt>
      <trkpt lat="46.93136" lon="1.34282">
        <ele>101</ele>
        <time>2019-09-03T09:57:49Z</time>
      </trkpt>
      <trkpt lat="46.93136" lon="1.34292">
        <ele>101</ele>
        <time>2019-09-03T09:57:51Z</time>
      </trkpt>
      <trkpt lat="46.93135" lon="1.34306">
        <ele>101</ele>
        <time>2019-09-03T09:57:52Z</time>
      </trkpt>
      <trkpt lat="46.93134" lon="1.34315">
        <ele>101</ele>
        <time>2019-09-03T09:57:53Z</time>
      </trkpt>
      <trkpt lat="46.93132" lon="1.34327">
        <ele>100</ele>
        <time>2019-09-03T09:58:05Z</time>
      </trkpt>
      <trkpt lat="46.93129" lon="1.34344">
        <ele>100</ele>
        <time>2019-09-03T09:58:08Z</time>
      </trkpt>
      <trkpt lat="46.93126" lon="1.34359">
        <ele>101</ele>
        <time>2019-09-03T09:58:09Z</time>
      </trkpt>
      <trkpt lat="46.9312" lon="1.34387">
        <ele>103</ele>
        <time>2019-09-03T09:58:13Z</time>
      </trkpt>
      <trkpt lat="46.93104" lon="1.34464">
        <ele>102</ele>
        <time>2019-09-03T09:58:15Z</time>
      </trkpt>
      <trkpt lat="46.931" lon="1.34484">
        <ele>102</ele>
        <time>2019-09-03T09:58:20Z</time>
      </trkpt>
      <trkpt lat="46.93096" lon="1.345">
        <ele>104</ele>
        <time>2019-09-03T09:58:21Z</time>
      </trkpt>
      <trkpt lat="46.93086" lon="1.34544">
        <ele>104</ele>
        <time>2019-09-03T09:58:25Z</time>
      </trkpt>
      <trkpt lat="46.93071" lon="1.34609">
        <ele>104</ele>
        <time>2019-09-03T09:58:28Z</time>
      </trkpt>
      <trkpt lat="46.93071" lon="1.34609">
        <ele>104</ele>
        <time>2019-09-03T09:58:30Z</time>
      </trkpt>
      <trkpt lat="46.93083" lon="1.34619">
        <ele>104</ele>
        <time>2019-09-03T09:58:33Z</time>
      </trkpt>
      <trkpt lat="46.93088" lon="1.34622">
        <ele>104</ele>
        <time>2019-09-03T09:58:36Z</time>
      </trkpt>
      <trkpt lat="46.93092" lon="1.34625">
        <ele>104</ele>
        <time>2019-09-03T09:58:39Z</time>
      </trkpt>
      <trkpt lat="46.93098" lon="1.34628">
        <ele>104</ele>
        <time>2019-09-03T09:58:44Z</time>
      </trkpt>
      <trkpt lat="46.93146" lon="1.34661">
        <ele>104</ele>
        <time>2019-09-03T09:59:03Z</time>
      </trkpt>
      <trkpt lat="46.93161" lon="1.3467">
        <ele>103</ele>
        <time>2019-09-03T09:59:04Z</time>
      </trkpt>
      <trkpt lat="46.93164" lon="1.34673">
        <ele>103</ele>
        <time>2019-09-03T09:59:18Z</time>
      </trkpt>
      <trkpt lat="46.9318" lon="1.34684">
        <ele>102</ele>
        <time>2019-09-03T09:59:26Z</time>
      </trkpt>
      <trkpt lat="46.93186" lon="1.34688">
        <ele>101</ele>
        <time>2019-09-03T09:59:46Z</time>
      </trkpt>
      <trkpt lat="46.93209" lon="1.34703">
        <ele>101</ele>
        <time>2019-09-03T09:59:47Z</time>
      </trkpt>
      <trkpt lat="46.93214" lon="1.34706">
        <ele>101</ele>
        <time>2019-09-03T10:00:03Z</time>
      </trkpt>
      <trkpt lat="46.93226" lon="1.3472">
        <ele>101</ele>
        <time>2019-09-03T10:00:21Z</time>
      </trkpt>
      <trkpt lat="46.93235" lon="1.34733">
        <ele>101</ele>
        <time>2019-09-03T10:00:40Z</time>
      </trkpt>
      <trkpt lat="46.93241" lon="1.34745">
        <ele>101</ele>
        <time>2019-09-03T10:00:48Z</time>
      </trkpt>
      <trkpt lat="46.93247" lon="1.34762">
        <ele>101</ele>
        <time>2019-09-03T10:01:16Z</time>
      </trkpt>
      <trkpt lat="46.93251" lon="1.34781">
        <ele>101</ele>
        <time>2019-09-03T10:01:16Z</time>
      </trkpt>
      <trkpt lat="46.93254" lon="1.34798">
        <ele>101</ele>
        <time>2019-09-03T10:01:25Z</time>
      </trkpt>
      <trkpt lat="46.93259" lon="1.34832">
        <ele>101</ele>
        <time>2019-09-03T10:01:30Z</time>
      </trkpt>
      <trkpt lat="46.93276" lon="1.34953">
        <ele>98</ele>
        <time>2019-09-03T10:01:34Z</time>
      </trkpt>
      <trkpt lat="46.93277" lon="1.34962">
        <ele>97</ele>
        <time>2019-09-03T10:01:39Z</time>
      </trkpt>
      <trkpt lat="46.9329" lon="1.35052">
        <ele>99</ele>
        <time>2019-09-03T10:01:49Z</time>
      </trkpt>
      <trkpt lat="46.93298" lon="1.35103">
        <ele>101</ele>
        <time>2019-09-03T10:01:52Z</time>
      </trkpt>
      <trkpt lat="46.93315" lon="1.35229">
        <ele>102</ele>
        <time>2019-09-03T10:01:57Z</time>
      </trkpt>
      <trkpt lat="46.93316" lon="1.35235">
        <ele>102</ele>
        <time>2019-09-03T10:02:01Z</time>
      </trkpt>
      <trkpt lat="46.93331" lon="1.3534">
        <ele>100</ele>
        <time>2019-09-03T10:02:03Z</time>
      </trkpt>
      <trkpt lat="46.93347" lon="1.35457">
        <ele>101</ele>
        <time>2019-09-03T10:02:06Z</time>
      </trkpt>
      <trkpt lat="46.93365" lon="1.35576">
        <ele>103</ele>
        <time>2019-09-03T10:02:09Z</time>
      </trkpt>
      <trkpt lat="46.93373" lon="1.35631">
        <ele>101</ele>
        <time>2019-09-03T10:02:12Z</time>
      </trkpt>
      <trkpt lat="46.93399" lon="1.35807">
        <ele>101</ele>
        <time>2019-09-03T10:02:16Z</time>
      </trkpt>
      <trkpt lat="46.934" lon="1.35811">
        <ele>101</ele>
        <time>2019-09-03T10:02:19Z</time>
      </trkpt>
      <trkpt lat="46.93409" lon="1.35869">
        <ele>102</ele>
        <time>2019-09-03T10:02:25Z</time>
      </trkpt>
      <trkpt lat="46.93413" lon="1.35901">
        <ele>102</ele>
        <time>2019-09-03T10:02:28Z</time>
      </trkpt>
      <trkpt lat="46.93414" lon="1.35928">
        <ele>102</ele>
        <time>2019-09-03T10:02:39Z</time>
      </trkpt>
      <trkpt lat="46.93415" lon="1.35956">
        <ele>102</ele>
        <time>2019-09-03T10:03:01Z</time>
      </trkpt>
      <trkpt lat="46.93413" lon="1.36025">
        <ele>105</ele>
        <time>2019-09-03T10:03:11Z</time>
      </trkpt>
      <trkpt lat="46.93413" lon="1.36046">
        <ele>106</ele>
        <time>2019-09-03T10:03:18Z</time>
      </trkpt>
      <trkpt lat="46.93412" lon="1.36073">
        <ele>107</ele>
        <time>2019-09-03T10:03:19Z</time>
      </trkpt>
      <trkpt lat="46.9341" lon="1.36104">
        <ele>106</ele>
        <time>2019-09-03T10:03:24Z</time>
      </trkpt>
      <trkpt lat="46.93409" lon="1.36118">
        <ele>106</ele>
        <time>2019-09-03T10:03:26Z</time>
      </trkpt>
      <trkpt lat="46.93408" lon="1.36134">
        <ele>104</ele>
        <time>2019-09-03T10:03:29Z</time>
      </trkpt>
      <trkpt lat="46.93406" lon="1.36155">
        <ele>102</ele>
        <time>2019-09-03T10:03:33Z</time>
      </trkpt>
      <trkpt lat="46.93401" lon="1.36176">
        <ele>102</ele>
        <time>2019-09-03T10:03:46Z</time>
      </trkpt>
      <trkpt lat="46.93396" lon="1.36196">
        <ele>101</ele>
        <time>2019-09-03T10:03:47Z</time>
      </trkpt>
      <trkpt lat="46.93388" lon="1.36218">
        <ele>101</ele>
        <time>2019-09-03T10:03:52Z</time>
      </trkpt>
      <trkpt lat="46.93377" lon="1.36247">
        <ele>101</ele>
        <time>2019-09-03T10:04:03Z</time>
      </trkpt>
      <trkpt lat="46.93368" lon="1.36268">
        <ele>102</ele>
        <time>2019-09-03T10:04:16Z</time>
      </trkpt>
      <trkpt lat="46.93341" lon="1.36328">
        <ele>102</ele>
        <time>2019-09-03T10:04:32Z</time>
      </trkpt>
      <trkpt lat="46.93291" lon="1.3645">
        <ele>102</ele>
        <time>2019-09-03T10:04:45Z</time>
      </trkpt>
      <trkpt lat="46.93268" lon="1.36504">
        <ele>102</ele>
        <time>2019-09-03T10:04:59Z</time>
      </trkpt>
      <trkpt lat="46.93252" lon="1.36543">
        <ele>101</ele>
        <time>2019-09-03T10:05:28Z</time>
      </trkpt>
      <trkpt lat="46.93248" lon="1.36553">
        <ele>101</ele>
        <time>2019-09-03T10:05:30Z</time>
      </trkpt>
      <trkpt lat="46.93238" lon="1.36578">
        <ele>101</ele>
        <time>2019-09-03T10:05:51Z</time>
      </trkpt>
      <trkpt lat="46.93233" lon="1.36591">
        <ele>101</ele>
        <time>2019-09-03T10:05:55Z</time>
      </trkpt>
      <trkpt lat="46.93228" lon="1.36608">
        <ele>101</ele>
        <time>2019-09-03T10:05:56Z</time>
      </trkpt>
      <trkpt lat="46.93221" lon="1.36635">
        <ele>101</ele>
        <time>2019-09-03T10:06:10Z</time>
      </trkpt>
      <trkpt lat="46.93203" lon="1.36716">
        <ele>102</ele>
        <time>2019-09-03T10:06:15Z</time>
      </trkpt>
      <trkpt lat="46.93201" lon="1.36724">
        <ele>102</ele>
        <time>2019-09-03T10:06:16Z</time>
      </trkpt>
      <trkpt lat="46.93193" lon="1.36754">
        <ele>102</ele>
        <time>2019-09-03T10:06:20Z</time>
      </trkpt>
      <trkpt lat="46.93175" lon="1.36818">
        <ele>102</ele>
        <time>2019-09-03T10:06:22Z</time>
      </trkpt>
      <trkpt lat="46.9315" lon="1.36898">
        <ele>102</ele>
        <time>2019-09-03T10:06:25Z</time>
      </trkpt>
      <trkpt lat="46.93123" lon="1.36991">
        <ele>102</ele>
        <time>2019-09-03T10:06:27Z</time>
      </trkpt>
      <trkpt lat="46.93101" lon="1.37069">
        <ele>104</ele>
        <time>2019-09-03T10:06:31Z</time>
      </trkpt>
      <trkpt lat="46.93081" lon="1.37157">
        <ele>103</ele>
        <time>2019-09-03T10:06:31Z</time>
      </trkpt>
      <trkpt lat="46.93046" lon="1.37341">
        <ele>101</ele>
        <time>2019-09-03T10:06:37Z</time>
      </trkpt>
      <trkpt lat="46.93043" lon="1.37354">
        <ele>102</ele>
        <time>2019-09-03T10:06:52Z</time>
      </trkpt>
      <trkpt lat="46.93015" lon="1.37486">
        <ele>103</ele>
        <time>2019-09-03T10:06:55Z</time>
      </trkpt>
      <trkpt lat="46.9301" lon="1.37511">
        <ele>104</ele>
        <time>2019-09-03T10:06:59Z</time>
      </trkpt>
      <trkpt lat="46.93009" lon="1.37518">
        <ele>103</ele>
        <time>2019-09-03T10:07:00Z</time>
      </trkpt>
      <trkpt lat="46.9299" lon="1.37603">
        <ele>99</ele>
        <time>2019-09-03T10:07:03Z</time>
      </trkpt>
      <trkpt lat="46.92984" lon="1.37637">
        <ele>100</ele>
        <time>2019-09-03T10:07:08Z</time>
      </trkpt>
      <trkpt lat="46.92982" lon="1.37645">
        <ele>100</ele>
        <time>2019-09-03T10:07:10Z</time>
      </trkpt>
      <trkpt lat="46.9298" lon="1.37668">
        <ele>101</ele>
        <time>2019-09-03T10:07:10Z</time>
      </trkpt>
      <trkpt lat="46.9298" lon="1.37686">
        <ele>102</ele>
        <time>2019-09-03T10:07:22Z</time>
      </trkpt>
      <trkpt lat="46.92982" lon="1.37702">
        <ele>102</ele>
        <time>2019-09-03T10:07:33Z</time>
      </trkpt>
      <trkpt lat="46.92984" lon="1.37717">
        <ele>102</ele>
        <time>2019-09-03T10:07:38Z</time>
      </trkpt>
      <trkpt lat="46.9299" lon="1.37739">
        <ele>104</ele>
        <time>2019-09-03T10:07:40Z</time>
      </trkpt>
      <trkpt lat="46.9299" lon="1.3774">
        <ele>104</ele>
        <time>2019-09-03T10:07:43Z</time>
      </trkpt>
      <trkpt lat="46.93002" lon="1.37777">
        <ele>104</ele>
        <time>2019-09-03T10:07:45Z</time>
      </trkpt>
      <trkpt lat="46.93032" lon="1.37866">
        <ele>104</ele>
        <time>2019-09-03T10:07:47Z</time>
      </trkpt>
      <trkpt lat="46.93037" lon="1.37882">
        <ele>105</ele>
        <time>2019-09-03T10:07:49Z</time>
      </trkpt>
      <trkpt lat="46.93045" lon="1.37905">
        <ele>105</ele>
        <time>2019-09-03T10:07:53Z</time>
      </trkpt>
      <trkpt lat="46.93047" lon="1.37912">
        <ele>105</ele>
        <time>2019-09-03T10:07:56Z</time>
      </trkpt>
      <trkpt lat="46.93053" lon="1.37927">
        <ele>105</ele>
        <time>2019-09-03T10:07:58Z</time>
      </trkpt>
      <trkpt lat="46.93063" lon="1.37957">
        <ele>106</ele>
        <time>2019-09-03T10:07:59Z</time>
      </trkpt>
      <trkpt lat="46.93067" lon="1.3797">
        <ele>106</ele>
        <time>2019-09-03T10:08:00Z</time>
      </trkpt>
      <trkpt lat="46.93067" lon="1.3797">
        <ele>106</ele>
        <time>2019-09-03T10:08:03Z</time>
      </trkpt>
      <trkpt lat="46.93015" lon="1.37982">
        <ele>107</ele>
        <time>2019-09-03T10:08:05Z</time>
      </trkpt>
      <trkpt lat="46.92964" lon="1.37985">
        <ele>106</ele>
        <time>2019-09-03T10:08:06Z</time>
      </trkpt>
      <trkpt lat="46.92944" lon="1.37982">
        <ele>105</ele>
        <time>2019-09-03T10:08:08Z</time>
      </trkpt>
      <trkpt lat="46.92938" lon="1.37966">
        <ele>105</ele>
        <time>2019-09-03T10:08:13Z</time>
      </trkpt>
      <trkpt lat="46.92936" lon="1.3795">
        <ele>105</ele>
        <time>2019-09-03T10:08:22Z</time>
      </trkpt>
      <trkpt lat="46.92935" lon="1.37936">
        <ele>105</ele>
        <time>2019-09-03T10:08:25Z</time>
      </trkpt>
      <trkpt lat="46.92933" lon="1.37926">
        <ele>104</ele>
        <time>2019-09-03T10:08:26Z</time>
      </trkpt>
      <trkpt lat="46.9293" lon="1.37912">
        <ele>104</ele>
        <time>2019-09-03T10:08:29Z</time>
      </trkpt>
      <trkpt lat="46.92925" lon="1.37889">
        <ele>104</ele>
        <time>2019-09-03T10:08:51Z</time>
      </trkpt>
      <trkpt lat="46.92919" lon="1.37866">
        <ele>104</ele>
        <time>2019-09-03T10:09:02Z</time>
      </trkpt>
      <trkpt lat="46.92914" lon="1.37856">
        <ele>104</ele>
        <time>2019-09-03T10:09:04Z</time>
      </trkpt>
      <trkpt lat="46.9291" lon="1.37852">
        <ele>104</ele>
        <time>2019-09-03T10:09:05Z</time>
      </trkpt>
      <trkpt lat="46.92905" lon="1.37854">
        <ele>104</ele>
        <time>2019-09-03T10:09:06Z</time>
      </trkpt>
      <trkpt lat="46.92896" lon="1.37863">
        <ele>104</ele>
        <time>2019-09-03T10:09:07Z</time>
      </trkpt>
      <trkpt lat="46.92891" lon="1.37871">
        <ele>104</ele>
        <time>2019-09-03T10:09:11Z</time>
      </trkpt>
      <trkpt lat="46.92888" lon="1.37877">
        <ele>104</ele>
        <time>2019-09-03T10:09:14Z</time>
      </trkpt>
      <trkpt lat="46.92879" lon="1.37889">
        <ele>104</ele>
        <time>2019-09-03T10:09:19Z</time>
      </trkpt>
      <trkpt lat="46.92863" lon="1.37905">
        <ele>104</ele>
        <time>2019-09-03T10:09:24Z</time>
      </trkpt>
      <trkpt lat="46.92827" lon="1.3794">
        <ele>104</ele>
        <time>2019-09-03T10:09:29Z</time>
      </trkpt>
      <trkpt lat="46.92818" lon="1.37947">
        <ele>104</ele>
        <time>2019-09-03T10:09:37Z</time>
      </trkpt>
      <trkpt lat="46.9281" lon="1.37948">
        <ele>104</ele>
        <time>2019-09-03T10:09:42Z</time>
      </trkpt>
      <trkpt lat="46.92799" lon="1.37952">
        <ele>104</ele>
        <time>2019-09-03T10:09:49Z</time>
      </trkpt>
      <trkpt lat="46.9273" lon="1.38056">
        <ele>107</ele>
        <time>2019-09-03T10:09:52Z</time>
      </trkpt>
      <trkpt lat="46.92739" lon="1.38129">
        <ele>106</ele>
        <time>2019-09-03T10:09:56Z</time>
      </trkpt>
      <trkpt lat="46.92739" lon="1.38141">
        <ele>106</ele>
        <time>2019-09-03T10:10:00Z</time>
      </trkpt>
      <trkpt lat="46.92738" lon="1.38144">
        <ele>106</ele>
        <time>2019-09-03T10:10:10Z</time>
      </trkpt>
      <trkpt lat="46.92736" lon="1.38152">
        <ele>107</ele>
        <time>2019-09-03T10:10:19Z</time>
      </trkpt>
      <trkpt lat="46.9273" lon="1.38156">
        <ele>106</ele>
        <time>2019-09-03T10:10:21Z</time>
      </trkpt>
      <trkpt lat="46.92714" lon="1.3816">
        <ele>106</ele>
        <time>2019-09-03T10:10:23Z</time>
      </trkpt>
      <trkpt lat="46.92699" lon="1.38166">
        <ele>106</ele>
        <time>2019-09-03T10:10:25Z</time>
      </trkpt>
      <trkpt lat="46.9268" lon="1.38179">
        <ele>106</ele>
        <time>2019-09-03T10:10:47Z</time>
      </trkpt>
      <trkpt lat="46.92664" lon="1.38197">
        <ele>107</ele>
        <time>2019-09-03T10:10:56Z</time>
      </trkpt>
      <trkpt lat="46.92646" lon="1.38223">
        <ele>108</ele>
        <time>2019-09-03T10:10:59Z</time>
      </trkpt>
      <trkpt lat="46.92624" lon="1.38259">
        <ele>109</ele>
        <time>2019-09-03T10:11:01Z</time>
      </trkpt>
      <trkpt lat="46.9261" lon="1.38291">
        <ele>109</ele>
        <time>2019-09-03T10:11:04Z</time>
      </trkpt>
      <trkpt lat="46.92597" lon="1.38327">
        <ele>107</ele>
        <time>2019-09-03T10:11:06Z</time>
      </trkpt>
      <trkpt lat="46.92588" lon="1.38346">
        <ele>107</ele>
        <time>2019-09-03T10:11:18Z</time>
      </trkpt>
      <trkpt lat="46.92577" lon="1.38364">
        <ele>108</ele>
        <time>2019-09-03T10:11:37Z</time>
      </trkpt>
      <trkpt lat="46.92567" lon="1.3839">
        <ele>107</ele>
        <time>2019-09-03T10:11:40Z</time>
      </trkpt>
      <trkpt lat="46.92549" lon="1.38447">
        <ele>107</ele>
        <time>2019-09-03T10:11:43Z</time>
      </trkpt>
      <trkpt lat="46.92532" lon="1.385">
        <ele>107</ele>
        <time>2019-09-03T10:11:47Z</time>
      </trkpt>
      <trkpt lat="46.92528" lon="1.38513">
        <ele>107</ele>
        <time>2019-09-03T10:11:59Z</time>
      </trkpt>
      <trkpt lat="46.92525" lon="1.38525">
        <ele>109</ele>
        <time>2019-09-03T10:12:13Z</time>
      </trkpt>
      <trkpt lat="46.92517" lon="1.38537">
        <ele>109</ele>
        <time>2019-09-03T10:12:21Z</time>
      </trkpt>
      <trkpt lat="46.9245" lon="1.38639">
        <ele>108</ele>
        <time>2019-09-03T10:12:23Z</time>
      </trkpt>
      <trkpt lat="46.9242" lon="1.38677">
        <ele>108</ele>
        <time>2019-09-03T10:12:26Z</time>
      </trkpt>
      <trkpt lat="46.92407" lon="1.38689">
        <ele>110</ele>
        <time>2019-09-03T10:12:28Z</time>
      </trkpt>
      <trkpt lat="46.92398" lon="1.38692">
        <ele>108</ele>
        <time>2019-09-03T10:12:30Z</time>
      </trkpt>
      <trkpt lat="46.92386" lon="1.38698">
        <ele>108</ele>
        <time>2019-09-03T10:12:33Z</time>
      </trkpt>
      <trkpt lat="46.92379" lon="1.38702">
        <ele>108</ele>
        <time>2019-09-03T10:12:38Z</time>
      </trkpt>
      <trkpt lat="46.92347" lon="1.38769">
        <ele>108</ele>
        <time>2019-09-03T10:12:49Z</time>
      </trkpt>
      <trkpt lat="46.92302" lon="1.38874">
        <ele>109</ele>
        <time>2019-09-03T10:12:52Z</time>
      </trkpt>
      <trkpt lat="46.92299" lon="1.38893">
        <ele>109</ele>
        <time>2019-09-03T10:12:54Z</time>
      </trkpt>
      <trkpt lat="46.92293" lon="1.38909">
        <ele>109</ele>
        <time>2019-09-03T10:12:57Z</time>
      </trkpt>
      <trkpt lat="46.92278" lon="1.3893">
        <ele>108</ele>
        <time>2019-09-03T10:13:07Z</time>
      </trkpt>
      <trkpt lat="46.92244" lon="1.38987">
        <ele>108</ele>
        <time>2019-09-03T10:13:09Z</time>
      </trkpt>
      <trkpt lat="46.92205" lon="1.39061">
        <ele>107</ele>
        <time>2019-09-03T10:13:12Z</time>
      </trkpt>
      <trkpt lat="46.92183" lon="1.39101">
        <ele>108</ele>
        <time>2019-09-03T10:13:14Z</time>
      </trkpt>
      <trkpt lat="46.92181" lon="1.39114">
        <ele>108</ele>
        <time>2019-09-03T10:13:15Z</time>
      </trkpt>
      <trkpt lat="46.92183" lon="1.39132">
        <ele>109</ele>
        <time>2019-09-03T10:13:22Z</time>
      </trkpt>
      <trkpt lat="46.92186" lon="1.39149">
        <ele>109</ele>
        <time>2019-09-03T10:13:30Z</time>
      </trkpt>
      <trkpt lat="46.92184" lon="1.39162">
        <ele>109</ele>
        <time>2019-09-03T10:13:36Z</time>
      </trkpt>
      <trkpt lat="46.92179" lon="1.39175">
        <ele>109</ele>
        <time>2019-09-03T10:13:40Z</time>
      </trkpt>
      <trkpt lat="46.92166" lon="1.392">
        <ele>109</ele>
        <time>2019-09-03T10:13:46Z</time>
      </trkpt>
      <trkpt lat="46.92134" lon="1.3926">
        <ele>109</ele>
        <time>2019-09-03T10:13:52Z</time>
      </trkpt>
      <trkpt lat="46.9213" lon="1.39275">
        <ele>110</ele>
        <time>2019-09-03T10:13:59Z</time>
      </trkpt>
      <trkpt lat="46.92129" lon="1.39289">
        <ele>110</ele>
        <time>2019-09-03T10:14:04Z</time>
      </trkpt>
      <trkpt lat="46.9213" lon="1.39308">
        <ele>111</ele>
        <time>2019-09-03T10:14:06Z</time>
      </trkpt>
      <trkpt lat="46.92137" lon="1.39375">
        <ele>113</ele>
        <time>2019-09-03T10:14:13Z</time>
      </trkpt>
      <trkpt lat="46.92137" lon="1.3939">
        <ele>113</ele>
        <time>2019-09-03T10:14:16Z</time>
      </trkpt>
      <trkpt lat="46.92134" lon="1.39407">
        <ele>114</ele>
        <time>2019-09-03T10:14:16Z</time>
      </trkpt>
      <trkpt lat="46.92131" lon="1.39419">
        <ele>114</ele>
        <time>2019-09-03T10:14:18Z</time>
      </trkpt>
      <trkpt lat="46.92128" lon="1.39428">
        <ele>114</ele>
        <time>2019-09-03T10:14:20Z</time>
      </trkpt>
      <trkpt lat="46.92109" lon="1.39465">
        <ele>115</ele>
        <time>2019-09-03T10:14:21Z</time>
      </trkpt>
      <trkpt lat="46.92088" lon="1.39507">
        <ele>113</ele>
        <time>2019-09-03T10:14:24Z</time>
      </trkpt>
      <trkpt lat="46.92074" lon="1.39536">
        <ele>114</ele>
        <time>2019-09-03T10:14:27Z</time>
      </trkpt>
      <trkpt lat="46.92066" lon="1.39561">
        <ele>112</ele>
        <time>2019-09-03T10:14:32Z</time>
      </trkpt>
      <trkpt lat="46.92055" lon="1.39598">
        <ele>115</ele>
        <time>2019-09-03T10:14:35Z</time>
      </trkpt>
      <trkpt lat="46.92046" lon="1.39632">
        <ele>115</ele>
        <time>2019-09-03T10:14:42Z</time>
      </trkpt>
      <trkpt lat="46.92039" lon="1.39677">
        <ele>112</ele>
        <time>2019-09-03T10:14:51Z</time>
      </trkpt>
      <trkpt lat="46.92033" lon="1.39714">
        <ele>113</ele>
        <time>2019-09-03T10:14:55Z</time>
      </trkpt>
      <trkpt lat="46.92031" lon="1.39723">
        <ele>113</ele>
        <time>2019-09-03T10:15:00Z</time>
      </trkpt>
      <trkpt lat="46.92027" lon="1.39768">
        <ele>115</ele>
        <time>2019-09-03T10:15:07Z</time>
      </trkpt>
      <trkpt lat="46.92025" lon="1.39788">
        <ele>115</ele>
        <time>2019-09-03T10:15:08Z</time>
      </trkpt>
      <trkpt lat="46.92025" lon="1.39792">
        <ele>116</ele>
        <time>2019-09-03T10:15:12Z</time>
      </trkpt>
      <trkpt lat="46.92024" lon="1.39799">
        <ele>116</ele>
        <time>2019-09-03T10:15:12Z</time>
      </trkpt>
      <trkpt lat="46.92023" lon="1.39818">
        <ele>116</ele>
        <time>2019-09-03T10:15:24Z</time>
      </trkpt>
      <trkpt lat="46.92023" lon="1.39818">
        <ele>116</ele>
        <time>2019-09-03T10:15:36Z</time>
      </trkpt>
      <trkpt lat="46.92009" lon="1.39833">
        <ele>116</ele>
        <time>2019-09-03T10:15:52Z</time>
      </trkpt>
      <trkpt lat="46.92" lon="1.39844">
        <ele>116</ele>
        <time>2019-09-03T10:16:09Z</time>
      </trkpt>
      <trkpt lat="46.91981" lon="1.39864">
        <ele>116</ele>
        <time>2019-09-03T10:16:17Z</time>
      </trkpt>
      <trkpt lat="46.91969" lon="1.39877">
        <ele>116</ele>
        <time>2019-09-03T10:16:24Z</time>
      </trkpt>
      <trkpt lat="46.91946" lon="1.39903">
        <ele>114</ele>
        <time>2019-09-03T10:16:27Z</time>
      </trkpt>
      <trkpt lat="46.91914" lon="1.39941">
        <ele>113</ele>
        <time>2019-09-03T10:16:35Z</time>
      </trkpt>
      <trkpt lat="46.91899" lon="1.39959">
        <ele>112</ele>
        <time>2019-09-03T10:16:39Z</time>
      </trkpt>
      <trkpt lat="46.91881" lon="1.39979">
        <ele>112</ele>
        <time>2019-09-03T10:16:42Z</time>
      </trkpt>
      <trkpt lat="46.91858" lon="1.40004">
        <ele>111</ele>
        <time>2019-09-03T10:16:43Z</time>
      </trkpt>
      <trkpt lat="46.91856" lon="1.40007">
        <ele>111</ele>
        <time>2019-09-03T10:16:45Z</time>
      </trkpt>
      <trkpt lat="46.91841" lon="1.40022">
        <ele>111</ele>
        <time>2019-09-03T10:16:46Z</time>
      </trkpt>
      <trkpt lat="46.91839" lon="1.40025">
        <ele>111</ele>
        <time>2019-09-03T10:16:48Z</time>
      </trkpt>
      <trkpt lat="46.91796" lon="1.4007">
        <ele>112</ele>
        <time>2019-09-03T10:16:50Z</time>
      </trkpt>
      <trkpt lat="46.91754" lon="1.40118">
        <ele>109</ele>
        <time>2019-09-03T10:16:55Z</time>
      </trkpt>
      <trkpt lat="46.91698" lon="1.40181">
        <ele>109</ele>
        <time>2019-09-03T10:16:56Z</time>
      </trkpt>
      <trkpt lat="46.91638" lon="1.4025">
        <ele>108</ele>
        <time>2019-09-03T10:17:01Z</time>
      </trkpt>
      <trkpt lat="46.91608" lon="1.40283">
        <ele>108</ele>
        <time>2019-09-03T10:17:09Z</time>
      </trkpt>
      <trkpt lat="46.91584" lon="1.4031">
        <ele>107</ele>
        <time>2019-09-03T10:17:11Z</time>
      </trkpt>
      <trkpt lat="46.91572" lon="1.40322">
        <ele>108</ele>
        <time>2019-09-03T10:17:15Z</time>
      </trkpt>
      <trkpt lat="46.91542" lon="1.40353">
        <ele>108</ele>
        <time>2019-09-03T10:17:18Z</time>
      </trkpt>
      <trkpt lat="46.91529" lon="1.40366">
        <ele>107</ele>
        <time>2019-09-03T10:17:25Z</time>
      </trkpt>
      <trkpt lat="46.91517" lon="1.40377">
        <ele>108</ele>
        <time>2019-09-03T10:17:40Z</time>
      </trkpt>
      <trkpt lat="46.91512" lon="1.40381">
        <ele>108</ele>
        <time>2019-09-03T10:17:43Z</time>
      </trkpt>
      <trkpt lat="46.91504" lon="1.40387">
        <ele>108</ele>
        <time>2019-09-03T10:17:44Z</time>
      </trkpt>
      <trkpt lat="46.91498" lon="1.40391">
        <ele>108</ele>
        <time>2019-09-03T10:17:46Z</time>
      </trkpt>
      <trkpt lat="46.91489" lon="1.40394">
        <ele>108</ele>
        <time>2019-09-03T10:17:48Z</time>
      </trkpt>
      <trkpt lat="46.91483" lon="1.40396">
        <ele>108</ele>
        <time>2019-09-03T10:17:49Z</time>
      </trkpt>
      <trkpt lat="46.9146" lon="1.40402">
        <ele>108</ele>
        <time>2019-09-03T10:17:53Z</time>
      </trkpt>
      <trkpt lat="46.91457" lon="1.40402">
        <ele>108</ele>
        <time>2019-09-03T10:17:56Z</time>
      </trkpt>
      <trkpt lat="46.91432" lon="1.40407">
        <ele>108</ele>
        <time>2019-09-03T10:17:59Z</time>
      </trkpt>
      <trkpt lat="46.91398" lon="1.40412">
        <ele>107</ele>
        <time>2019-09-03T10:18:01Z</time>
      </trkpt>
      <trkpt lat="46.91387" lon="1.40414">
        <ele>107</ele>
        <time>2019-09-03T10:18:04Z</time>
      </trkpt>
      <trkpt lat="46.91372" lon="1.40418">
        <ele>107</ele>
        <time>2019-09-03T10:18:04Z</time>
      </trkpt>
      <trkpt lat="46.91358" lon="1.40425">
        <ele>107</ele>
        <time>2019-09-03T10:18:08Z</time>
      </trkpt>
      <trkpt lat="46.91327" lon="1.4044">
        <ele>107</ele>
        <time>2019-09-03T10:18:10Z</time>
      </trkpt>
      <trkpt lat="46.91263" lon="1.40465">
        <ele>107</ele>
        <time>2019-09-03T10:18:12Z</time>
      </trkpt>
      <trkpt lat="46.91248" lon="1.40469">
        <ele>107</ele>
        <time>2019-09-03T10:18:14Z</time>
      </trkpt>
      <trkpt lat="46.91245" lon="1.40471">
        <ele>107</ele>
        <time>2019-09-03T10:18:18Z</time>
      </trkpt>
      <trkpt lat="46.91237" lon="1.40474">
        <ele>107</ele>
        <time>2019-09-03T10:18:23Z</time>
      </trkpt>
      <trkpt lat="46.91228" lon="1.40478">
        <ele>108</ele>
        <time>2019-09-03T10:18:27Z</time>
      </trkpt>
      <trkpt lat="46.91223" lon="1.40481">
        <ele>108</ele>
        <time>2019-09-03T10:18:32Z</time>
      </trkpt>
      <trkpt lat="46.91209" lon="1.40489">
        <ele>108</ele>
        <time>2019-09-03T10:18:34Z</time>
      </trkpt>
      <trkpt lat="46.91196" lon="1.40498">
        <ele>109</ele>
        <time>2019-09-03T10:18:40Z</time>
      </trkpt>
      <trkpt lat="46.91184" lon="1.4051">
        <ele>109</ele>
        <time>2019-09-03T10:18:47Z</time>
      </trkpt>
      <trkpt lat="46.91176" lon="1.40518">
        <ele>109</ele>
        <time>2019-09-03T10:18:50Z</time>
      </trkpt>
      <trkpt lat="46.91167" lon="1.40529">
        <ele>109</ele>
        <time>2019-09-03T10:18:52Z</time>
      </trkpt>
      <trkpt lat="46.91166" lon="1.4053">
        <ele>109</ele>
        <time>2019-09-03T10:18:56Z</time>
      </trkpt>
      <trkpt lat="46.91154" lon="1.40549">
        <ele>110</ele>
        <time>2019-09-03T10:19:00Z</time>
      </trkpt>
      <trkpt lat="46.91149" lon="1.40556">
        <ele>108</ele>
        <time>2019-09-03T10:19:06Z</time>
      </trkpt>
      <trkpt lat="46.91143" lon="1.40566">
        <ele>108</ele>
        <time>2019-09-03T10:19:23Z</time>
      </trkpt>
      <trkpt lat="46.91137" lon="1.40576">
        <ele>109</ele>
        <time>2019-09-03T10:19:34Z</time>
      </trkpt>
      <trkpt lat="46.91122" lon="1.40596">
        <ele>108</ele>
        <time>2019-09-03T10:19:38Z</time>
      </trkpt>
      <trkpt lat="46.91107" lon="1.40615">
        <ele>109</ele>
        <time>2019-09-03T10:19:40Z</time>
      </trkpt>
      <trkpt lat="46.91091" lon="1.40635">
        <ele>110</ele>
        <time>2019-09-03T10:20:00Z</time>
      </trkpt>
      <trkpt lat="46.91074" lon="1.40658">
        <ele>111</ele>
        <time>2019-09-03T10:20:02Z</time>
      </trkpt>
      <trkpt lat="46.91069" lon="1.40665">
        <ele>112</ele>
        <time>2019-09-03T10:20:08Z</time>
      </trkpt>
      <trkpt lat="46.91052" lon="1.40692">
        <ele>112</ele>
        <time>2019-09-03T10:20:10Z</time>
      </trkpt>
      <trkpt lat="46.91028" lon="1.40725">
        <ele>112</ele>
        <time>2019-09-03T10:20:14Z</time>
      </trkpt>
      <trkpt lat="46.91017" lon="1.40738">
        <ele>111</ele>
        <time>2019-09-03T10:20:14Z</time>
      </trkpt>
      <trkpt lat="46.9101" lon="1.40747">
        <ele>111</ele>
        <time>2019-09-03T10:20:20Z</time>
      </trkpt>
      <trkpt lat="46.90997" lon="1.40764">
        <ele>110</ele>
        <time>2019-09-03T10:20:23Z</time>
      </trkpt>
      <trkpt lat="46.90982" lon="1.40781">
        <ele>110</ele>
        <time>2019-09-03T10:20:27Z</time>
      </trkpt>
      <trkpt lat="46.90962" lon="1.40805">
        <ele>110</ele>
        <time>2019-09-03T10:20:33Z</time>
      </trkpt>
      <trkpt lat="46.90904" lon="1.40876">
        <ele>115</ele>
        <time>2019-09-03T10:20:41Z</time>
      </trkpt>
      <trkpt lat="46.90866" lon="1.40924">
        <ele>110</ele>
        <time>2019-09-03T10:20:50Z</time>
      </trkpt>
      <trkpt lat="46.90852" lon="1.40941">
        <ele>109</ele>
        <time>2019-09-03T10:20:50Z</time>
      </trkpt>
      <trkpt lat="46.90847" lon="1.40948">
        <ele>109</ele>
        <time>2019-09-03T10:20:56Z</time>
      </trkpt>
      <trkpt lat="46.90779" lon="1.41034">
        <ele>113</ele>
        <time>2019-09-03T10:21:02Z</time>
      </trkpt>
      <trkpt lat="46.90771" lon="1.41045">
        <ele>113</ele>
        <time>2019-09-03T10:21:14Z</time>
      </trkpt>
      <trkpt lat="46.90751" lon="1.41071">
        <ele>114</ele>
        <time>2019-09-03T10:21:20Z</time>
      </trkpt>
      <trkpt lat="46.90744" lon="1.4108">
        <ele>114</ele>
        <time>2019-09-03T10:21:21Z</time>
      </trkpt>
      <trkpt lat="46.9073" lon="1.41097">
        <ele>114</ele>
        <time>2019-09-03T10:21:25Z</time>
      </trkpt>
      <trkpt lat="46.90729" lon="1.41098">
        <ele>115</ele>
        <time>2019-09-03T10:21:28Z</time>
      </trkpt>
      <trkpt lat="46.9071" lon="1.41124">
        <ele>115</ele>
        <time>2019-09-03T10:21:29Z</time>
      </trkpt>
      <trkpt lat="46.907" lon="1.41139">
        <ele>116</ele>
        <time>2019-09-03T10:21:32Z</time>
      </trkpt>
      <trkpt lat="46.9069" lon="1.41157">
        <ele>117</ele>
        <time>2019-09-03T10:21:34Z</time>
      </trkpt>
      <trkpt lat="46.90672" lon="1.4119">
        <ele>117</ele>
        <time>2019-09-03T10:21:38Z</time>
      </trkpt>
      <trkpt lat="46.9065" lon="1.41233">
        <ele>117</ele>
        <time>2019-09-03T10:21:44Z</time>
      </trkpt>
      <trkpt lat="46.90628" lon="1.41275">
        <ele>118</ele>
        <time>2019-09-03T10:21:44Z</time>
      </trkpt>
      <trkpt lat="46.90626" lon="1.41279">
        <ele>118</ele>
        <time>2019-09-03T10:22:05Z</time>
      </trkpt>
      <trkpt lat="46.9061" lon="1.41308">
        <ele>118</ele>
        <time>2019-09-03T10:22:11Z</time>
      </trkpt>
      <trkpt lat="46.90592" lon="1.41337">
        <ele>118</ele>
        <time>2019-09-03T10:22:15Z</time>
      </trkpt>
      <trkpt lat="46.90556" lon="1.41399">
        <ele>117</ele>
        <time>2019-09-03T10:22:19Z</time>
      </trkpt>
      <trkpt lat="46.90541" lon="1.41426">
        <ele>116</ele>
        <time>2019-09-03T10:22:23Z</time>
      </trkpt>
      <trkpt lat="46.90536" lon="1.41434">
        <ele>116</ele>
        <time>2019-09-03T10:22:26Z</time>
      </trkpt>
      <trkpt lat="46.90525" lon="1.41451">
        <ele>116</ele>
        <time>2019-09-03T10:22:32Z</time>
      </trkpt>
      <trkpt lat="46.90514" lon="1.41465">
        <ele>116</ele>
        <time>2019-09-03T10:22:32Z</time>
      </trkpt>
      <trkpt lat="46.9051" lon="1.4147">
        <ele>116</ele>
        <time>2019-09-03T10:22:34Z</time>
      </trkpt>
      <trkpt lat="46.90501" lon="1.41479">
        <ele>116</ele>
        <time>2019-09-03T10:22:36Z</time>
      </trkpt>
      <trkpt lat="46.90493" lon="1.41487">
        <ele>116</ele>
        <time>2019-09-03T10:22:38Z</time>
      </trkpt>
      <trkpt lat="46.90479" lon="1.415">
        <ele>116</ele>
        <time>2019-09-03T10:22:41Z</time>
      </trkpt>
      <trkpt lat="46.90453" lon="1.41521">
        <ele>115</ele>
        <time>2019-09-03T10:22:44Z</time>
      </trkpt>
      <trkpt lat="46.90452" lon="1.41521">
        <ele>115</ele>
        <time>2019-09-03T10:22:46Z</time>
      </trkpt>
      <trkpt lat="46.9037" lon="1.41587">
        <ele>116</ele>
        <time>2019-09-03T10:22:52Z</time>
      </trkpt>
      <trkpt lat="46.90349" lon="1.41604">
        <ele>117</ele>
        <time>2019-09-03T10:22:53Z</time>
      </trkpt>
      <trkpt lat="46.90333" lon="1.41617">
        <ele>116</ele>
        <time>2019-09-03T10:23:03Z</time>
      </trkpt>
      <trkpt lat="46.90314" lon="1.41629">
        <ele>117</ele>
        <time>2019-09-03T10:23:12Z</time>
      </trkpt>
      <trkpt lat="46.90297" lon="1.41639">
        <ele>117</ele>
        <time>2019-09-03T10:23:18Z</time>
      </trkpt>
      <trkpt lat="46.90287" lon="1.41645">
        <ele>118</ele>
        <time>2019-09-03T10:23:21Z</time>
      </trkpt>
      <trkpt lat="46.90261" lon="1.41658">
        <ele>118</ele>
        <time>2019-09-03T10:23:21Z</time>
      </trkpt>
      <trkpt lat="46.90259" lon="1.41659">
        <ele>118</ele>
        <time>2019-09-03T10:23:24Z</time>
      </trkpt>
      <trkpt lat="46.90252" lon="1.41663">
        <ele>118</ele>
        <time>2019-09-03T10:23:29Z</time>
      </trkpt>
      <trkpt lat="46.90244" lon="1.41668">
        <ele>118</ele>
        <time>2019-09-03T10:23:32Z</time>
      </trkpt>
      <trkpt lat="46.90237" lon="1.41673">
        <ele>118</ele>
        <time>2019-09-03T10:23:36Z</time>
      </trkpt>
      <trkpt lat="46.90222" lon="1.41685">
        <ele>116</ele>
        <time>2019-09-03T10:23:37Z</time>
      </trkpt>
      <trkpt lat="46.90211" lon="1.41695">
        <ele>116</ele>
        <time>2019-09-03T10:23:39Z</time>
      </trkpt>
      <trkpt lat="46.90205" lon="1.417">
        <ele>116</ele>
        <time>2019-09-03T10:23:41Z</time>
      </trkpt>
      <trkpt lat="46.9018" lon="1.41723">
        <ele>116</ele>
        <time>2019-09-03T10:23:43Z</time>
      </trkpt>
      <trkpt lat="46.90176" lon="1.41726">
        <ele>116</ele>
        <time>2019-09-03T10:23:45Z</time>
      </trkpt>
      <trkpt lat="46.9014" lon="1.41759">
        <ele>117</ele>
        <time>2019-09-03T10:23:46Z</time>
      </trkpt>
      <trkpt lat="46.90105" lon="1.41791">
        <ele>117</ele>
        <time>2019-09-03T10:23:55Z</time>
      </trkpt>
      <trkpt lat="46.90084" lon="1.4181">
        <ele>115</ele>
        <time>2019-09-03T10:24:00Z</time>
      </trkpt>
      <trkpt lat="46.90071" lon="1.4182">
        <ele>114</ele>
        <time>2019-09-03T10:24:04Z</time>
      </trkpt>
      <trkpt lat="46.9007" lon="1.41821">
        <ele>114</ele>
        <time>2019-09-03T10:24:05Z</time>
      </trkpt>
      <trkpt lat="46.90057" lon="1.41833">
        <ele>113</ele>
        <time>2019-09-03T10:24:08Z</time>
      </trkpt>
      <trkpt lat="46.90038" lon="1.41848">
        <ele>113</ele>
        <time>2019-09-03T10:24:09Z</time>
      </trkpt>
      <trkpt lat="46.90025" lon="1.41855">
        <ele>113</ele>
        <time>2019-09-03T10:24:12Z</time>
      </trkpt>
      <trkpt lat="46.9001" lon="1.41862">
        <ele>112</ele>
        <time>2019-09-03T10:24:18Z</time>
      </trkpt>
      <trkpt lat="46.90006" lon="1.41864">
        <ele>112</ele>
        <time>2019-09-03T10:24:22Z</time>
      </trkpt>
      <trkpt lat="46.89996" lon="1.41868">
        <ele>112</ele>
        <time>2019-09-03T10:24:25Z</time>
      </trkpt>
      <trkpt lat="46.89988" lon="1.41871">
        <ele>112</ele>
        <time>2019-09-03T10:24:25Z</time>
      </trkpt>
      <trkpt lat="46.8998" lon="1.41875">
        <ele>112</ele>
        <time>2019-09-03T10:24:32Z</time>
      </trkpt>
      <trkpt lat="46.89972" lon="1.4188">
        <ele>112</ele>
        <time>2019-09-03T10:24:32Z</time>
      </trkpt>
      <trkpt lat="46.89967" lon="1.41883">
        <ele>112</ele>
        <time>2019-09-03T10:24:36Z</time>
      </trkpt>
      <trkpt lat="46.89932" lon="1.41909">
        <ele>114</ele>
        <time>2019-09-03T10:24:37Z</time>
      </trkpt>
      <trkpt lat="46.8991" lon="1.41924">
        <ele>116</ele>
        <time>2019-09-03T10:24:41Z</time>
      </trkpt>
      <trkpt lat="46.89893" lon="1.41933">
        <ele>118</ele>
        <time>2019-09-03T10:24:47Z</time>
      </trkpt>
      <trkpt lat="46.8989" lon="1.41934">
        <ele>118</ele>
        <time>2019-09-03T10:24:54Z</time>
      </trkpt>
      <trkpt lat="46.89875" lon="1.41939">
        <ele>118</ele>
        <time>2019-09-03T10:24:58Z</time>
      </trkpt>
      <trkpt lat="46.89872" lon="1.4194">
        <ele>118</ele>
        <time>2019-09-03T10:25:01Z</time>
      </trkpt>
      <trkpt lat="46.89858" lon="1.41946">
        <ele>118</ele>
        <time>2019-09-03T10:25:09Z</time>
      </trkpt>
      <trkpt lat="46.8983" lon="1.41952">
        <ele>117</ele>
        <time>2019-09-03T10:25:14Z</time>
      </trkpt>
      <trkpt lat="46.89814" lon="1.41956">
        <ele>118</ele>
        <time>2019-09-03T10:25:18Z</time>
      </trkpt>
      <trkpt lat="46.89802" lon="1.41959">
        <ele>118</ele>
        <time>2019-09-03T10:25:25Z</time>
      </trkpt>
      <trkpt lat="46.89802" lon="1.41959">
        <ele>118</ele>
        <time>2019-09-03T10:25:30Z</time>
      </trkpt>
      <trkpt lat="46.89773" lon="1.41946">
        <ele>118</ele>
        <time>2019-09-03T10:25:31Z</time>
      </trkpt>
      <trkpt lat="46.89771" lon="1.41945">
        <ele>118</ele>
        <time>2019-09-03T10:25:32Z</time>
      </trkpt>
      <trkpt lat="46.89755" lon="1.41938">
        <ele>117</ele>
        <time>2019-09-03T10:25:34Z</time>
      </trkpt>
      <trkpt lat="46.89751" lon="1.41936">
        <ele>117</ele>
        <time>2019-09-03T10:25:34Z</time>
      </trkpt>
      <trkpt lat="46.89734" lon="1.41931">
        <ele>117</ele>
        <time>2019-09-03T10:25:35Z</time>
      </trkpt>
      <trkpt lat="46.89704" lon="1.41926">
        <ele>116</ele>
        <time>2019-09-03T10:25:36Z</time>
      </trkpt>
      <trkpt lat="46.89675" lon="1.41922">
        <ele>116</ele>
        <time>2019-09-03T10:25:36Z</time>
      </trkpt>
      <trkpt lat="46.89658" lon="1.4192">
        <ele>116</ele>
        <time>2019-09-03T10:25:38Z</time>
      </trkpt>
      <trkpt lat="46.89642" lon="1.41918">
        <ele>116</ele>
        <time>2019-09-03T10:25:40Z</time>
      </trkpt>
      <trkpt lat="46.89608" lon="1.41915">
        <ele>115</ele>
        <time>2019-09-03T10:25:44Z</time>
      </trkpt>
      <trkpt lat="46.89583" lon="1.41912">
        <ele>116</ele>
        <time>2019-09-03T10:25:46Z</time>
      </trkpt>
      <trkpt lat="46.89568" lon="1.41911">
        <ele>115</ele>
        <time>2019-09-03T10:25:48Z</time>
      </trkpt>
      <trkpt lat="46.89535" lon="1.41907">
        <ele>115</ele>
        <time>2019-09-03T10:25:49Z</time>
      </trkpt>
      <trkpt lat="46.89514" lon="1.41906">
        <ele>115</ele>
        <time>2019-09-03T10:25:50Z</time>
      </trkpt>
      <trkpt lat="46.8951" lon="1.41906">
        <ele>115</ele>
        <time>2019-09-03T10:25:53Z</time>
      </trkpt>
      <trkpt lat="46.89506" lon="1.41906">
        <ele>115</ele>
        <time>2019-09-03T10:25:59Z</time>
      </trkpt>
      <trkpt lat="46.89496" lon="1.41908">
        <ele>115</ele>
        <time>2019-09-03T10:26:01Z</time>
      </trkpt>
      <trkpt lat="46.89494" lon="1.41908">
        <ele>115</ele>
        <time>2019-09-03T10:26:03Z</time>
      </trkpt>
      <trkpt lat="46.8949" lon="1.41908">
        <ele>115</ele>
        <time>2019-09-03T10:26:05Z</time>
      </trkpt>
      <trkpt lat="46.89487" lon="1.4191">
        <ele>115</ele>
        <time>2019-09-03T10:26:09Z</time>
      </trkpt>
      <trkpt lat="46.89486" lon="1.4191">
        <ele>115</ele>
        <time>2019-09-03T10:26:17Z</time>
      </trkpt>
      <trkpt lat="46.89478" lon="1.41914">
        <ele>115</ele>
        <time>2019-09-03T10:26:17Z</time>
      </trkpt>
      <trkpt lat="46.89471" lon="1.41921">
        <ele>115</ele>
        <time>2019-09-03T10:26:25Z</time>
      </trkpt>
      <trkpt lat="46.89456" lon="1.41938">
        <ele>115</ele>
        <time>2019-09-03T10:26:28Z</time>
      </trkpt>
      <trkpt lat="46.8945" lon="1.41947">
        <ele>115</ele>
        <time>2019-09-03T10:26:31Z</time>
      </trkpt>
      <trkpt lat="46.89442" lon="1.41959">
        <ele>115</ele>
        <time>2019-09-03T10:26:38Z</time>
      </trkpt>
      <trkpt lat="46.8944" lon="1.41963">
        <ele>115</ele>
        <time>2019-09-03T10:26:39Z</time>
      </trkpt>
      <trkpt lat="46.89439" lon="1.41964">
        <ele>115</ele>
        <time>2019-09-03T10:26:40Z</time>
      </trkpt>
      <trkpt lat="46.89428" lon="1.4198">
        <ele>115</ele>
        <time>2019-09-03T10:26:47Z</time>
      </trkpt>
      <trkpt lat="46.89407" lon="1.42009">
        <ele>116</ele>
        <time>2019-09-03T10:26:55Z</time>
      </trkpt>
      <trkpt lat="46.894" lon="1.42018">
        <ele>117</ele>
        <time>2019-09-03T10:26:57Z</time>
      </trkpt>
      <trkpt lat="46.89394" lon="1.42024">
        <ele>117</ele>
        <time>2019-09-03T10:27:01Z</time>
      </trkpt>
      <trkpt lat="46.89389" lon="1.42031">
        <ele>117</ele>
        <time>2019-09-03T10:27:05Z</time>
      </trkpt>
      <trkpt lat="46.89373" lon="1.42044">
        <ele>117</ele>
        <time>2019-09-03T10:27:07Z</time>
      </trkpt>
      <trkpt lat="46.89342" lon="1.42068">
        <ele>116</ele>
        <time>2019-09-03T10:27:08Z</time>
      </trkpt>
      <trkpt lat="46.89339" lon="1.4207">
        <ele>115</ele>
        <time>2019-09-03T10:27:11Z</time>
      </trkpt>
      <trkpt lat="46.89306" lon="1.42094">
        <ele>113</ele>
        <time>2019-09-03T10:27:14Z</time>
      </trkpt>
      <trkpt lat="46.89297" lon="1.42101">
        <ele>113</ele>
        <time>2019-09-03T10:27:16Z</time>
      </trkpt>
      <trkpt lat="46.89285" lon="1.42109">
        <ele>111</ele>
        <time>2019-09-03T10:27:19Z</time>
      </trkpt>
      <trkpt lat="46.89252" lon="1.42125">
        <ele>110</ele>
        <time>2019-09-03T10:27:20Z</time>
      </trkpt>
      <trkpt lat="46.8925" lon="1.42126">
        <ele>110</ele>
        <time>2019-09-03T10:27:21Z</time>
      </trkpt>
      <trkpt lat="46.89246" lon="1.42127">
        <ele>110</ele>
        <time>2019-09-03T10:27:24Z</time>
      </trkpt>
      <trkpt lat="46.89213" lon="1.42141">
        <ele>110</ele>
        <time>2019-09-03T10:27:28Z</time>
      </trkpt>
      <trkpt lat="46.89179" lon="1.42155">
        <ele>111</ele>
        <time>2019-09-03T10:27:29Z</time>
      </trkpt>
      <trkpt lat="46.89173" lon="1.42157">
        <ele>111</ele>
        <time>2019-09-03T10:27:31Z</time>
      </trkpt>
      <trkpt lat="46.89155" lon="1.42165">
        <ele>111</ele>
        <time>2019-09-03T10:27:34Z</time>
      </trkpt>
      <trkpt lat="46.89139" lon="1.42173">
        <ele>112</ele>
        <time>2019-09-03T10:27:37Z</time>
      </trkpt>
      <trkpt lat="46.89127" lon="1.42177">
        <ele>112</ele>
        <time>2019-09-03T10:27:38Z</time>
      </trkpt>
      <trkpt lat="46.89124" lon="1.42179">
        <ele>114</ele>
        <time>2019-09-03T10:27:41Z</time>
      </trkpt>
      <trkpt lat="46.89112" lon="1.42186">
        <ele>115</ele>
        <time>2019-09-03T10:27:43Z</time>
      </trkpt>
      <trkpt lat="46.89098" lon="1.42193">
        <ele>115</ele>
        <time>2019-09-03T10:27:47Z</time>
      </trkpt>
      <trkpt lat="46.8909" lon="1.42198">
        <ele>116</ele>
        <time>2019-09-03T10:27:47Z</time>
      </trkpt>
      <trkpt lat="46.8908" lon="1.42204">
        <ele>116</ele>
        <time>2019-09-03T10:27:48Z</time>
      </trkpt>
      <trkpt lat="46.89075" lon="1.42207">
        <ele>116</ele>
        <time>2019-09-03T10:27:49Z</time>
      </trkpt>
      <trkpt lat="46.89072" lon="1.42209">
        <ele>116</ele>
        <time>2019-09-03T10:27:51Z</time>
      </trkpt>
      <trkpt lat="46.89056" lon="1.42219">
        <ele>118</ele>
        <time>2019-09-03T10:27:54Z</time>
      </trkpt>
      <trkpt lat="46.89039" lon="1.42228">
        <ele>118</ele>
        <time>2019-09-03T10:27:56Z</time>
      </trkpt>
      <trkpt lat="46.89036" lon="1.42229">
        <ele>118</ele>
        <time>2019-09-03T10:27:58Z</time>
      </trkpt>
      <trkpt lat="46.89027" lon="1.42236">
        <ele>118</ele>
        <time>2019-09-03T10:28:00Z</time>
      </trkpt>
      <trkpt lat="46.89015" lon="1.42245">
        <ele>119</ele>
        <time>2019-09-03T10:28:02Z</time>
      </trkpt>
      <trkpt lat="46.89004" lon="1.42254">
        <ele>119</ele>
        <time>2019-09-03T10:28:05Z</time>
      </trkpt>
      <trkpt lat="46.89003" lon="1.42256">
        <ele>119</ele>
        <time>2019-09-03T10:28:06Z</time>
      </trkpt>
      <trkpt lat="46.8899" lon="1.42266">
        <ele>121</ele>
        <time>2019-09-03T10:28:09Z</time>
      </trkpt>
      <trkpt lat="46.88982" lon="1.42275">
        <ele>122</ele>
        <time>2019-09-03T10:28:09Z</time>
      </trkpt>
      <trkpt lat="46.88969" lon="1.42288">
        <ele>122</ele>
      </trkpt>
      <trkpt lat="46.88966" lon="1.42292">
        <ele>123</ele>
      </trkpt>
      <trkpt lat="46.88966" lon="1.42292">
        <ele>123</ele>
      </trkpt>
      <trkpt lat="46.8897" lon="1.42295">
        <ele>123</ele>
      </trkpt>
      <trkpt lat="46.88978" lon="1.42305">
        <ele>123</ele>
      </trkpt>
      <trkpt lat="46.88987" lon="1.42317">
        <ele>123</ele>
      </trkpt>
      <trkpt lat="46.88995" lon="1.4233">
        <ele>125</ele>
      </trkpt>
      <trkpt lat="46.89001" lon="1.42339">
        <ele>125</ele>
      </trkpt>
      <trkpt lat="46.89006" lon="1.4235">
        <ele>125</ele>
      </trkpt>
      <trkpt lat="46.89011" lon="1.42359">
        <ele>125</ele>
      </trkpt>
      <trkpt lat="46.89018" lon="1.42375">
        <ele>124</ele>
      </trkpt>
      <trkpt lat="46.8902" lon="1.4238">
        <ele>125</ele>
      </trkpt>
      <trkpt lat="46.89028" lon="1.42399">
        <ele>125</ele>
      </trkpt>
      <trkpt lat="46.89028" lon="1.42399">
        <ele>125</ele>
      </trkpt>
    </trkseg>
  </trk>
</gpx>